
Distance (Route):
Temperature : -40.4°C
Humidity : 15.5%
Pressure : 271.3hPa| Receiver | Frames | First received | Last received |
|---|---|---|---|
| DM0DOS-11 | 832 | 2026-09-05 22:34:50 | 2026-09-06 01:05:45 |
| BIOWL1-15 | 389 | 2026-09-05 22:41:41 | 2026-09-06 01:05:45 |
| DL1XH1-15 | 262 | 2026-09-05 23:50:02 | 2026-09-06 00:52:39 |
| DB0UT-7 | 190 | 2026-09-05 22:28:01 | 2026-09-06 01:05:38 |
| DJ8HS-15 | 111 | 2026-09-05 23:30:50 | 2026-09-06 01:05:42 |
| DL1XH-west | 80 | 2026-09-05 23:54:53 | 2026-09-06 00:49:01 |
| DO3MHA-12 | 32 | 2026-09-06 00:24:06 | 2026-09-06 00:42:58 |
| DO3MHA-11 | 11 | 2026-09-06 00:17:27 | 2026-09-06 00:26:55 |
| HEMX73-6 | 9 | 2026-09-06 00:27:40 | 2026-09-06 00:43:21 |
| NBG1-10 | 1 | 2026-09-06 01:00:18 | 2026-09-06 01:00:18 |
| Receiver | Date | Latitude | Longitude | Direction | Speed | Altitude | Climb | Temperature | Humidity | Pressure | Voltage | Killtimer | Uptime | BKT | XDATA |
|---|---|---|---|---|---|---|---|---|---|---|---|---|---|---|---|
| BIOWL1-15 | 2026-09-06 01:05:45 | 50.17055 | 6.61691 | 116° | 88km/h | 10285m | -8m/s | -40.4°C | 15.5% | 271.3hPa | 2.3V | 00:00:00 | 00:00:00 | 00:00:00 | |
| DM0DOS-11 | 2026-09-06 01:05:45 | 50.17031 | 6.61758 | 115° | 95km/h | 10270m | -7.8m/s | -40.3°C | 15.2% | 272hPa | 2.3V | 00:00:00 | 02:49:54 | 00:00:00 | |
| DJ8HS-15 | 2026-09-06 01:05:42 | 50.17065 | 6.61660 | 119° | 95km/h | 10293m | -8.0m/s | -40.5°C | 15.5% | 271.0hPa | 2.4V | 00:00:00 | 02:49:51 | 00:00:00 | |
| DB0UT-7 | 2026-09-06 01:05:38 | 50.17110 | 6.61530 | 123° | 97km/h | 10323m | -8.4m/s | -40.7°C | 15.7% | 269.7hPa | 2.4V | 00:00:00 | 00:00:00 | 00:00:00 | |
| DM0DOS-11 | 2026-09-06 01:05:35 | 50.17145 | 6.61433 | 115° | 91km/h | 10349m | -8.4m/s | -41°C | 16% | 268.8hPa | 2.4V | 00:00:00 | 02:49:44 | 00:00:00 | |
| BIOWL1-15 | 2026-09-06 01:05:34 | 50.17176 | 6.61340 | 118° | 97km/h | 10375m | -7.9m/s | -41.2°C | 16.1% | 267.8hPa | 2.4V | 00:00:00 | 00:00:00 | 00:00:00 | |
| DM0DOS-11 | 2026-09-06 01:05:25 | 50.17258 | 6.61105 | 120° | 97km/h | 10431m | -7.9m/s | -41.6°C | 16.1% | 265.6hPa | 2.5V | 00:00:00 | 02:49:34 | 00:00:00 | |
| BIOWL1-15 | 2026-09-06 01:05:12 | 50.17428 | 6.60591 | 115° | 99km/h | 10551m | -8.2m/s | -42.8°C | 16.4% | 260.9hPa | 2.6V | 00:00:00 | 00:00:00 | 00:00:00 | |
| BIOWL1-15 | 2026-09-06 01:05:02 | 50.17542 | 6.60196 | 115° | 99km/h | 10644m | -8m/s | -43.6°C | 16.2% | 257.4hPa | 2.6V | 00:00:00 | 00:00:00 | 00:00:00 | |
| DM0DOS-11 | 2026-09-06 01:04:55 | 50.17585 | 6.60058 | 114° | 97km/h | 10677m | -8.8m/s | -44°C | 16.1% | 256.1hPa | 2.7V | 00:00:00 | 02:49:04 | 00:00:00 | |
| DM0DOS-11 | 2026-09-06 01:04:50 | 50.17693 | 6.59712 | 118° | 97km/h | 10767m | -8.5m/s | -44.8°C | 15.7% | 252.7hPa | 2.7V | 00:00:00 | 02:48:54 | 00:00:00 | |
| BIOWL1-15 | 2026-09-06 01:04:49 | 50.17649 | 6.59852 | 117° | 99km/h | 10729m | -9.1m/s | -44.6°C | 15.9% | 254.2hPa | 2.7V | 00:00:00 | 00:00:00 | 00:00:00 | |
| DJ8HS-15 | 2026-09-06 01:04:42 | 50.17727 | 6.59608 | 117° | 97km/h | 10793m | -8.0m/s | -45.0°C | 15.6% | 251.6hPa | 2.7V | 00:00:00 | 02:48:51 | 00:00:00 | |
| DM0DOS-11 | 2026-09-06 01:04:35 | 50.17805 | 6.59369 | 118° | 97km/h | 10848m | -7.9m/s | -45.6°C | 15.5% | 249.6hPa | 2.8V | 00:00:00 | 02:48:44 | 00:00:00 | |
| DM0DOS-11 | 2026-09-06 01:04:30 | 50.17922 | 6.59031 | 117° | 95km/h | 10928m | -8.1m/s | -46.3°C | 15% | 246.6hPa | 2.8V | 00:00:00 | 02:48:34 | 00:00:00 | |
| BIOWL1-15 | 2026-09-06 01:04:23 | 50.17945 | 6.58965 | 120° | 97km/h | 10944m | -9m/s | -46.5°C | 14.9% | 246hPa | 2.8V | 00:00:00 | 00:00:00 | 00:00:00 | |
| DJ8HS-15 | 2026-09-06 01:04:22 | 50.17957 | 6.58932 | 118° | 95km/h | 10953m | -8.0m/s | -46.5°C | 14.8% | 245.6hPa | 2.8V | 00:00:00 | 02:48:31 | 00:00:00 | |
| DM0DOS-11 | 2026-09-06 01:04:15 | 50.18040 | 6.58698 | 118° | 95km/h | 11009m | -8m/s | -47°C | 14.5% | 243.7hPa | 2.8V | 00:00:00 | 02:48:24 | 00:00:00 | |
| BIOWL1-15 | 2026-09-06 01:04:05 | 50.18161 | 6.58370 | 120° | 97km/h | 11089m | -8m/s | -47.7°C | 13.9% | 240.7hPa | 2.9V | 00:00:00 | 00:00:00 | 00:00:00 | |
| DM0DOS-11 | 2026-09-06 01:04:05 | 50.18161 | 6.58370 | 119° | 95km/h | 11089m | -8.1m/s | -47.7°C | 13.8% | 240.7hPa | 2.9V | 00:00:00 | 02:48:14 | 00:00:00 | |
| DJ8HS-15 | 2026-09-06 01:04:02 | 50.18196 | 6.58272 | 122° | 97km/h | 11113m | -8.1m/s | -47.8°C | 13.6% | 239.7hPa | 2.9V | 00:00:00 | 02:48:11 | 00:00:00 | |
| DM0DOS-11 | 2026-09-06 01:03:55 | 50.18279 | 6.58040 | 118° | 97km/h | 11171m | -8.4m/s | -48.4°C | 13.1% | 237.7hPa | 2.9V | 00:00:00 | 02:48:04 | 00:00:00 | |
| DM0DOS-11 | 2026-09-06 01:03:45 | 50.18388 | 6.57695 | 115° | 97km/h | 11255m | -8.7m/s | -49.1°C | 12.5% | 234.6hPa | 2.9V | 00:00:00 | 02:47:54 | 00:00:00 | |
| DJ8HS-15 | 2026-09-06 01:03:42 | 50.18419 | 6.57592 | 116° | 97km/h | 11281m | -8.6m/s | -49.3°C | 12.3% | 233.6hPa | 3.0V | 00:00:00 | 02:47:51 | 00:00:00 | |
| DB0UT-7 | 2026-09-06 01:03:38 | 50.18462 | 6.57454 | 115° | 99km/h | 11316m | -8.4m/s | -49.5°C | 12.0% | 232.4hPa | 3.0V | 00:00:00 | 00:00:00 | 00:00:00 | |
| DM0DOS-11 | 2026-09-06 01:03:35 | 50.18493 | 6.57351 | 113° | 100km/h | 11342m | -8.3m/s | -49.9°C | 12% | 231.4hPa | 3V | 00:00:00 | 02:47:44 | 00:00:00 | |
| DM0DOS-11 | 2026-09-06 01:03:30 | 50.18598 | 6.56997 | 110° | 97km/h | 11419m | -7.8m/s | -50.5°C | 11.3% | 228.6hPa | 3V | 00:00:00 | 02:47:34 | 00:00:00 | |
| DJ8HS-15 | 2026-09-06 01:03:22 | 50.18626 | 6.56896 | 112° | 100km/h | 11443m | -7.5m/s | -50.7°C | 11.0% | 227.7hPa | 3.1V | 00:00:00 | 02:47:31 | 00:00:00 | |
| DM0DOS-11 | 2026-09-06 01:03:15 | 50.18691 | 6.56643 | 109° | 100km/h | 11495m | -8.3m/s | -51.2°C | 10.6% | 226hPa | 3.1V | 00:00:00 | 02:47:24 | 00:00:00 | |
| DB0UT-7 | 2026-09-06 01:03:08 | 50.18759 | 6.56376 | 119° | 95km/h | 11551m | -7.8m/s | -51.6°C | 10.1% | 223.9hPa | 3.1V | 00:00:00 | 02:47:17 | 00:00:00 | |
| DM0DOS-11 | 2026-09-06 01:03:05 | 50.18792 | 6.56271 | 116° | 99km/h | 11573m | -8.6m/s | -51.9°C | 10% | 223.3hPa | 3.1V | 00:00:00 | 02:47:14 | 00:00:00 | |
| DJ8HS-15 | 2026-09-06 01:03:02 | 50.18821 | 6.56161 | 114° | 93km/h | 11599m | -8.0m/s | -52.0°C | 9.8% | 222.3hPa | 3.1V | 00:00:00 | 02:47:11 | 00:00:00 | |
| DM0DOS-11 | 2026-09-06 01:02:56 | 50.18889 | 6.55915 | 115° | 93km/h | 11659m | -7.8m/s | -52.4°C | 9.5% | 220.3hPa | 3.1V | 00:00:00 | 02:47:04 | 00:00:00 | |
| DM0DOS-11 | 2026-09-06 01:02:50 | 50.18978 | 6.55574 | 116° | 91km/h | 11739m | -8.2m/s | -53.1°C | 9% | 217.8hPa | 3.2V | 00:00:00 | 02:46:54 | 00:00:00 | |
| DM0DOS-11 | 2026-09-06 01:02:39 | 50.19075 | 6.55236 | 117° | 93km/h | 11823m | -8.9m/s | -53.7°C | 8.5% | 214.8hPa | 3.2V | 00:00:00 | 02:46:44 | 00:00:00 | |
| DB0UT-7 | 2026-09-06 01:02:38 | 50.19046 | 6.55342 | 115° | 95km/h | 11797m | -8.8m/s | -53.5°C | 8.6% | 215.7hPa | 3.2V | 00:00:00 | 00:00:00 | 00:00:00 | |
| DJ8HS-15 | 2026-09-06 01:02:36 | 50.19063 | 6.55274 | 116° | 93km/h | 11815m | -8.6m/s | -53.6°C | 8.6% | 215.1hPa | 3.2V | 00:00:00 | 02:46:45 | 00:00:00 | |
| DM0DOS-11 | 2026-09-06 01:02:29 | 50.19171 | 6.54895 | 118° | 93km/h | 11912m | -8m/s | -54.5°C | 8.1% | 211.9hPa | 3.2V | 00:00:00 | 02:46:34 | 00:00:00 | |
| DM0DOS-11 | 2026-09-06 01:02:19 | 50.19269 | 6.54562 | 108° | 93km/h | 11992m | -8.3m/s | -55.3°C | 7.6% | 209.3hPa | 3.3V | 00:00:00 | 02:46:24 | 00:00:00 | |
| DJ8HS-15 | 2026-09-06 01:02:16 | 50.19260 | 6.54593 | 115° | 95km/h | 11982m | -8.7m/s | -55.2°C | 7.7% | 209.6hPa | 3.2V | 00:00:00 | 02:46:25 | 00:00:00 | |
| DB0UT-7 | 2026-09-06 01:02:08 | 50.19335 | 6.54325 | 119° | 97km/h | 12050m | -8.5m/s | -55.8°C | 7.3% | 207.2hPa | 3.2V | 00:00:00 | 02:46:17 | 00:00:00 | |
| DM0DOS-11 | 2026-09-06 01:02:04 | 50.19372 | 6.54184 | 116° | 95km/h | 12085m | -8.3m/s | -56.2°C | 7% | 206.2hPa | 3.3V | 00:00:00 | 02:46:13 | 00:00:00 | |
| DJ8HS-15 | 2026-09-06 01:01:56 | 50.19444 | 6.53914 | 115° | 97km/h | 12151m | -8.5m/s | -56.8°C | 6.6% | 204.0hPa | 3.4V | 00:00:00 | 02:46:05 | 00:00:00 | |
| DM0DOS-11 | 2026-09-06 01:01:49 | 50.19522 | 6.53591 | 110° | 97km/h | 12227m | -8.2m/s | -57.5°C | 6.2% | 201.7hPa | 3.4V | 00:00:00 | 02:45:56 | 00:00:00 | |
| DM0DOS-11 | 2026-09-06 01:01:39 | 50.19607 | 6.53228 | 109° | 97km/h | 12310m | -8.2m/s | -58.2°C | 5.7% | 199.1hPa | 3.4V | 00:00:00 | 02:45:46 | 00:00:00 | |
| DB0UT-7 | 2026-09-06 01:01:38 | 50.19599 | 6.53264 | 111° | 97km/h | 12302m | -8.1m/s | -58.1°C | 5.7% | 199.3hPa | 3.4V | 00:00:00 | 00:00:00 | 00:00:00 | |
| DJ8HS-15 | 2026-09-06 01:01:36 | 50.19615 | 6.53193 | 111° | 97km/h | 12318m | -8.2m/s | -58.2°C | 5.6% | 198.8hPa | 3.4V | 00:00:00 | 02:45:45 | 00:00:00 | |
| DM0DOS-11 | 2026-09-06 01:01:29 | 50.19695 | 6.52867 | 114° | 97km/h | 12393m | -8.3m/s | -58.8°C | 5.4% | 196.4hPa | 3.4V | 00:00:00 | 02:45:36 | 00:00:00 | |
| DM0DOS-11 | 2026-09-06 01:01:19 | 50.19787 | 6.52514 | 111° | 97km/h | 12477m | -8.5m/s | -59.5°C | 5% | 193.9hPa | 3.4V | 00:00:00 | 02:45:26 | 00:00:00 | |
| DJ8HS-15 | 2026-09-06 01:01:16 | 50.19796 | 6.52478 | 114° | 95km/h | 12486m | -8.3m/s | -59.5°C | 4.9% | 193.6hPa | 3.5V | 00:00:00 | 02:45:25 | 00:00:00 | |
| DM0DOS-11 | 2026-09-06 01:01:09 | 50.19884 | 6.52167 | 114° | 95km/h | 12562m | -8.6m/s | -60.2°C | 4.5% | 191.3hPa | 3.5V | 00:00:00 | 02:45:16 | 00:00:00 | |
| DB0UT-7 | 2026-09-06 01:01:08 | 50.19874 | 6.52201 | 114° | 95km/h | 12553m | -8.6m/s | -60.1°C | 4.5% | 191.5hPa | 3.5V | 00:00:00 | 02:45:17 | 00:00:00 | |
| DJ8HS-15 | 2026-09-06 01:00:56 | 50.19997 | 6.51790 | 115° | 93km/h | 12657m | -8.5m/s | -61.0°C | 4.1% | 188.4hPa | 3.5V | 00:00:00 | 02:45:05 | 00:00:00 | |
| DM0DOS-11 | 2026-09-06 01:00:54 | 50.20017 | 6.51724 | 115° | 95km/h | 12674m | -8.6m/s | -61.2°C | 4% | 187.9hPa | 3.5V | 00:00:00 | 02:45:03 | 00:00:00 | |
| DM0DOS-11 | 2026-09-06 01:00:49 | 50.20119 | 6.51383 | 116° | 93km/h | 12760m | -8.6m/s | -61.8°C | 3.6% | 185.4hPa | 3.5V | 00:00:00 | 02:44:53 | 00:00:00 | |
| DM0DOS-11 | 2026-09-06 01:00:38 | 50.20223 | 6.51052 | 114° | 93km/h | 12846m | -8.6m/s | -62.5°C | 3.3% | 182.8hPa | 3.6V | 00:00:00 | 02:44:43 | 00:00:00 | |
| DB0UT-7 | 2026-09-06 01:00:38 | 50.20183 | 6.51186 | 116° | 95km/h | 12812m | -8.5m/s | -62.2°C | 3.5% | 183.8hPa | 3.6V | 00:00:00 | 00:00:00 | 00:00:00 | |
| DJ8HS-15 | 2026-09-06 01:00:36 | 50.20203 | 6.51120 | 115° | 95km/h | 12829m | -8.7m/s | -62.3°C | 3.5% | 183.3hPa | 3.6V | 00:00:00 | 02:44:45 | 00:00:00 | |
| DM0DOS-11 | 2026-09-06 01:00:28 | 50.20318 | 6.50715 | 110° | 97km/h | 12932m | -8.7m/s | -62.9°C | 3% | 180.3hPa | 3.6V | 00:00:00 | 02:44:33 | 00:00:00 | |
| BIOWL1-15 | 2026-09-06 01:00:19 | 50.20414 | 6.50323 | 107° | 97km/h | 13028m | -8.6m/s | -63.4°C | 2.8% | 177.6hPa | 3.6V | 00:00:00 | 00:00:00 | 00:00:00 | |
| DM0DOS-11 | 2026-09-06 01:00:18 | 50.20406 | 6.50358 | 107° | 97km/h | 13019m | -8.6m/s | -63.4°C | 2.7% | 177.8hPa | 3.6V | 00:00:00 | 02:44:23 | 00:00:00 | |
| NBG1-10 | 2026-09-06 01:00:18 | 50.20381 | 6.50465 | 112° | 95km/h | 12993m | -8.6m/s | -63.2°C | 2.8% | 178.5hPa | 3.7V | 00:00:00 | 02:44:26 | 00:00:00 | |
| DJ8HS-15 | 2026-09-06 01:00:16 | 50.20390 | 6.50429 | 111° | 97km/h | 13002m | -8.5m/s | -63.2°C | 2.8% | 178.3hPa | 3.7V | 00:00:00 | 02:44:25 | 00:00:00 | |
| DM0DOS-11 | 2026-09-06 01:00:09 | 50.20480 | 6.49992 | 110° | 97km/h | 13105m | -8.7m/s | -63.7°C | 2.5% | 175.3hPa | 3.7V | 00:00:00 | 02:44:13 | 00:00:00 | |
| BIOWL1-15 | 2026-09-06 01:00:05 | 50.20472 | 6.50029 | 110° | 99km/h | 13097m | -8.5m/s | -63.7°C | 2.6% | 175.6hPa | 3.7V | 00:00:00 | 00:00:00 | 00:00:00 | |
| DM0DOS-11 | 2026-09-06 00:59:56 | 50.20560 | 6.49629 | 109° | 97km/h | 13191m | -8.8m/s | -64.5°C | 2.3% | 172.9hPa | 3.7V | 00:00:00 | 02:44:03 | 00:00:00 | |
| DJ8HS-15 | 2026-09-06 00:59:56 | 50.20543 | 6.49702 | 110° | 97km/h | 13174m | -8.7m/s | -64.2°C | 2.3% | 173.4hPa | 3.7V | 00:00:00 | 02:44:05 | 00:00:00 | |
| DM0DOS-11 | 2026-09-06 00:59:49 | 50.20634 | 6.49260 | 106° | 99km/h | 13279m | -8.8m/s | -65.2°C | 2.2% | 170.5hPa | 3.7V | 00:00:00 | 02:43:53 | 00:00:00 | |
| DB0UT-7 | 2026-09-06 00:59:38 | 50.20680 | 6.49040 | 108° | 99km/h | 13332m | -8.8m/s | -65.6°C | 2.0% | 169.0hPa | 3.7V | 00:00:00 | 00:00:00 | 00:00:00 | |
| DM0DOS-11 | 2026-09-06 00:59:37 | 50.20709 | 6.48895 | 104° | 99km/h | 13367m | -8.9m/s | -65.9°C | 2% | 168.1hPa | 3.7V | 00:00:00 | 02:43:43 | 00:00:00 | |
| DJ8HS-15 | 2026-09-06 00:59:36 | 50.20695 | 6.48968 | 106° | 99km/h | 13350m | -8.7m/s | -65.7°C | 2.0% | 168.5hPa | 3.7V | 00:00:00 | 02:43:45 | 00:00:00 | |
| DM0DOS-11 | 2026-09-06 00:59:29 | 50.20779 | 6.48520 | 104° | 99km/h | 13456m | -9m/s | -66.7°C | 1.7% | 165.7hPa | 3.8V | 00:00:00 | 02:43:33 | 00:00:00 | |
| BIOWL1-15 | 2026-09-06 00:59:18 | 50.20822 | 6.48256 | 106° | 100km/h | 13519m | -9.2m/s | -66.9°C | 1.6% | 164hPa | 3.8V | 00:00:00 | 00:00:00 | 00:00:00 | |
| DM0DOS-11 | 2026-09-06 00:59:18 | 50.20849 | 6.48102 | 106° | 99km/h | 13556m | -9.1m/s | -67.3°C | 1.5% | 163hPa | 3.8V | 00:00:00 | 02:43:22 | 00:00:00 | |
| DJ8HS-15 | 2026-09-06 00:59:16 | 50.20829 | 6.48216 | 105° | 99km/h | 13528m | -9.2m/s | -67.0°C | 1.5% | 163.7hPa | 3.7V | 00:00:00 | 02:43:25 | 00:00:00 | |
| DB0UT-7 | 2026-09-06 00:59:08 | 50.20881 | 6.47915 | 105° | 102km/h | 13602m | -8.8m/s | -67.6°C | 1.5% | 161.8hPa | 3.7V | 00:00:00 | 02:43:17 | 00:00:00 | |
| DM0DOS-11 | 2026-09-06 00:59:07 | 50.20910 | 6.47724 | 102° | 100km/h | 13647m | -8.9m/s | -67.8°C | 1.3% | 160.6hPa | 3.8V | 00:00:00 | 02:43:12 | 00:00:00 | |
| BIOWL1-15 | 2026-09-06 00:59:06 | 50.20892 | 6.47840 | 105° | 100km/h | 13620m | -8.9m/s | -67.7°C | 1.4% | 161.3hPa | 3.8V | 00:00:00 | 00:00:00 | 00:00:00 | |
| DM0DOS-11 | 2026-09-06 00:58:57 | 50.20976 | 6.47347 | 105° | 100km/h | 13736m | -9m/s | -67.9°C | 1.1% | 158.2hPa | 3.8V | 00:00:00 | 02:43:02 | 00:00:00 | |
| DJ8HS-15 | 2026-09-06 00:58:56 | 50.20956 | 6.47459 | 106° | 104km/h | 13709m | -9.0m/s | -67.7°C | 1.2% | 158.9hPa | 3.8V | 00:00:00 | 02:43:05 | 00:00:00 | |
| DM0DOS-11 | 2026-09-06 00:58:47 | 50.21043 | 6.46954 | 104° | 104km/h | 13826m | -9.5m/s | -67.6°C | 1.1% | 155.9hPa | 3.8V | 00:00:00 | 02:42:52 | 00:00:00 | |
| DB0UT-7 | 2026-09-06 00:58:38 | 50.21073 | 6.46753 | 99° | 100km/h | 13873m | -9.5m/s | -67.5°C | 1.0% | 154.7hPa | 3.8V | 00:00:00 | 00:00:00 | 00:00:00 | |
| DM0DOS-11 | 2026-09-06 00:58:37 | 50.21096 | 6.46546 | 101° | 106km/h | 13921m | -9.3m/s | -67.4°C | 1% | 153.5hPa | 3.8V | 00:00:00 | 02:42:42 | 00:00:00 | |
| BIOWL1-15 | 2026-09-06 00:58:29 | 50.21122 | 6.46383 | 106° | 102km/h | 13958m | -9.1m/s | -67.4°C | 0.9% | 152.6hPa | 3.9V | 00:00:00 | 00:00:00 | 00:00:00 | |
| DM0DOS-11 | 2026-09-06 00:58:27 | 50.21163 | 6.46149 | 106° | 102km/h | 14013m | -8.9m/s | -67.5°C | 0.7% | 151.2hPa | 3.9V | 00:00:00 | 02:42:32 | 00:00:00 | |
| DM0DOS-11 | 2026-09-06 00:58:17 | 50.21248 | 6.45775 | 110° | 97km/h | 14103m | -9.1m/s | -66.3°C | 0.7% | 149hPa | 3.9V | 00:00:00 | 02:42:22 | 00:00:00 | |
| BIOWL1-15 | 2026-09-06 00:58:12 | 50.21265 | 6.45703 | 110° | 99km/h | 14121m | -9.2m/s | -66.1°C | 0.7% | 148.5hPa | 3.9V | 00:00:00 | 00:00:00 | 00:00:00 | |
| DB0UT-7 | 2026-09-06 00:58:08 | 50.21291 | 6.45594 | 111° | 93km/h | 14148m | -9.2m/s | -66.0°C | 0.7% | 147.8hPa | 3.9V | 00:00:00 | 02:42:17 | 00:00:00 | |
| DM0DOS-11 | 2026-09-06 00:58:06 | 50.21335 | 6.45413 | 108° | 99km/h | 14194m | -9.4m/s | -66.1°C | 0.5% | 146.8hPa | 3.9V | 00:00:00 | 02:42:12 | 00:00:00 | |
| DM0DOS-11 | 2026-09-06 00:57:56 | 50.21428 | 6.45041 | 113° | 93km/h | 14288m | -9.3m/s | -65.3°C | 0.5% | 144.6hPa | 3.9V | 00:00:00 | 02:42:02 | 00:00:00 | |
| DJ8HS-15 | 2026-09-06 00:57:55 | 50.21406 | 6.45113 | 114° | 91km/h | 14269m | -9.3m/s | -65.1°C | 0.5% | 145.0hPa | 3.9V | 00:00:00 | 02:42:04 | 00:00:00 | |
| DM0DOS-11 | 2026-09-06 00:57:44 | 50.21523 | 6.44716 | 117° | 89km/h | 14383m | -9.5m/s | -64°C | 0.5% | 142.4hPa | 3.9V | 00:00:00 | 02:41:52 | 00:00:00 | |
| BIOWL1-15 | 2026-09-06 00:57:34 | 50.21624 | 6.44433 | 124° | 93km/h | 14469m | -9.8m/s | -63.2°C | 0.5% | 140.4hPa | 3.9V | 00:00:00 | 00:00:00 | 00:00:00 | |
| DM0DOS-11 | 2026-09-06 00:57:26 | 50.21770 | 6.44105 | 126° | 89km/h | 14577m | -10.1m/s | -62°C | 0.3% | 138hPa | 3.9V | 00:00:00 | 02:41:32 | 00:00:00 | |
| BIOWL1-15 | 2026-09-06 00:57:17 | 50.21851 | 6.43933 | 130° | 86km/h | 14638m | -10.1m/s | -61.8°C | 0.5% | 136.7hPa | 3.9V | 00:00:00 | 00:00:00 | 00:00:00 | |
| DM0DOS-11 | 2026-09-06 00:57:16 | 50.21907 | 6.43824 | 131° | 80km/h | 14679m | -10.2m/s | -61.7°C | 0.3% | 135.8hPa | 3.9V | 00:00:00 | 02:41:22 | 00:00:00 | |
| DJ8HS-15 | 2026-09-06 00:57:12 | 50.21921 | 6.43798 | 132° | 78km/h | 14689m | -10.2m/s | -61.7°C | 0.3% | 135.5hPa | 3.9V | 00:00:00 | 02:41:21 | 00:00:00 | |
| DB0UT-7 | 2026-09-06 00:57:08 | 50.21973 | 6.43703 | 129° | 78km/h | 14730m | -10.2m/s | -61.5°C | 0.3% | 134.6hPa | 3.9V | 00:00:00 | 02:41:17 | 00:00:00 | |
| DM0DOS-11 | 2026-09-06 00:57:06 | 50.22025 | 6.43582 | 119° | 80km/h | 14781m | -10.5m/s | -60.8°C | 0.3% | 133.6hPa | 3.9V | 00:00:00 | 02:41:12 | 00:00:00 | |
| BIOWL1-15 | 2026-09-06 00:57:05 | 50.22006 | 6.43632 | 123° | 75km/h | 14761m | -10m/s | -61.1°C | 0.4% | 134hPa | 3.9V | 00:00:00 | 00:00:00 | 00:00:00 | |
| DM0DOS-11 | 2026-09-06 00:56:56 | 50.22135 | 6.43277 | 113° | 78km/h | 14896m | -10.6m/s | -59.8°C | 0.3% | 131.2hPa | 3.9V | 00:00:00 | 02:41:01 | 00:00:00 | |
| BIOWL1-15 | 2026-09-06 00:56:48 | 50.22167 | 6.43166 | 114° | 80km/h | 14938m | -10.7m/s | -59.5°C | 0.4% | 130.3hPa | 3.9V | 00:00:00 | 00:00:00 | 00:00:00 | |
| DM0DOS-11 | 2026-09-06 00:56:40 | 50.22266 | 6.42820 | 114° | 80km/h | 15066m | -10.7m/s | -59.2°C | 0.3% | 127.8hPa | 3.9V | 00:00:00 | 02:40:45 | 00:00:00 | |
| BIOWL1-15 | 2026-09-06 00:56:35 | 50.22274 | 6.42792 | 122° | 78km/h | 15077m | -10.7m/s | -59.2°C | 0.4% | 127.5hPa | 3.9V | 00:00:00 | 00:00:00 | 00:00:00 | |
| DJ8HS-15 | 2026-09-06 00:56:32 | 50.22300 | 6.42706 | 117° | 75km/h | 15109m | -10.7m/s | -59.3°C | 0.3% | 126.8hPa | 3.9V | 00:00:00 | 02:40:41 | 00:00:00 | |
| DM0DOS-11 | 2026-09-06 00:56:25 | 50.22384 | 6.42488 | 125° | 75km/h | 15195m | -10.8m/s | -59.5°C | 0.3% | 125.2hPa | 3.9V | 00:00:00 | 02:40:33 | 00:00:00 | |
| BIOWL1-15 | 2026-09-06 00:56:12 | 50.22570 | 6.42098 | 117° | 69km/h | 15379m | -11m/s | -59.2°C | 0.3% | 121.7hPa | 3.9V | 00:00:00 | 00:00:00 | 00:00:00 | |
| BIOWL1-15 | 2026-09-06 00:56:03 | 50.22642 | 6.41876 | 115° | 73km/h | 15478m | -11m/s | -59.4°C | 0.3% | 119.8hPa | 3.9V | 00:00:00 | 00:00:00 | 00:00:00 | |
| DM0DOS-11 | 2026-09-06 00:55:56 | 50.22673 | 6.41771 | 114° | 77km/h | 15522m | -10.9m/s | -59.6°C | 0.2% | 119hPa | 3.8V | 00:00:00 | 02:40:03 | 00:00:00 | |
| DJ8HS-15 | 2026-09-06 00:55:52 | 50.22688 | 6.41716 | 115° | 78km/h | 15544m | -10.8m/s | -59.6°C | 0.2% | 118.5hPa | 3.8V | 00:00:00 | 02:40:01 | 00:00:00 | |
| DM0DOS-11 | 2026-09-06 00:55:49 | 50.22748 | 6.41485 | 111° | 78km/h | 15632m | -11.2m/s | -59.8°C | 0.2% | 117hPa | 3.8V | 00:00:00 | 02:39:53 | 00:00:00 | |
| BIOWL1-15 | 2026-09-06 00:55:48 | 50.22718 | 6.41604 | 110° | 78km/h | 15588m | -11.1m/s | -59.7°C | 0.3% | 117.8hPa | 3.8V | 00:00:00 | 00:00:00 | 00:00:00 | |
| DB0UT-7 | 2026-09-06 00:55:38 | 50.22787 | 6.41309 | 109° | 80km/h | 15699m | -11.0m/s | -59.9°C | 0.2% | 115.7hPa | 3.8V | 00:00:00 | 00:00:00 | 00:00:00 | |
| DM0DOS-11 | 2026-09-06 00:55:34 | 50.22812 | 6.41190 | 109° | 77km/h | 15743m | -11m/s | -60°C | 0.2% | 115hPa | 3.8V | 00:00:00 | 02:39:43 | 00:00:00 | |
| DJ8HS-15 | 2026-09-06 00:55:33 | 50.22825 | 6.41132 | 113° | 80km/h | 15765m | -11.0m/s | -60.0°C | 0.2% | 114.5hPa | 3.7V | 00:00:00 | 02:39:41 | 00:00:00 | |
| DM0DOS-11 | 2026-09-06 00:55:24 | 50.22882 | 6.40907 | 112° | 80km/h | 15854m | -11.1m/s | -60.4°C | 0.1% | 113hPa | 3.7V | 00:00:00 | 02:39:33 | 00:00:00 | |
| BIOWL1-15 | 2026-09-06 00:55:23 | 50.22965 | 6.40608 | 114° | 80km/h | 15966m | -11m/s | -60.8°C | 0.2% | 111.1hPa | 3.6V | 00:00:00 | 00:00:00 | 00:00:00 | |
| DM0DOS-11 | 2026-09-06 00:55:18 | 50.22965 | 6.40608 | 114° | 84km/h | 15966m | -11m/s | -60.8°C | 0.1% | 111.1hPa | 3.6V | 00:00:00 | 02:39:23 | 00:00:00 | |
| BIOWL1-15 | 2026-09-06 00:55:07 | 50.23042 | 6.40372 | 121° | 77km/h | 16055m | -11m/s | -61.5°C | 0.2% | 109.5hPa | 3.6V | 00:00:00 | 00:00:00 | 00:00:00 | |
| DM0DOS-11 | 2026-09-06 00:55:07 | 50.23067 | 6.40311 | 112° | 80km/h | 16076m | -10.7m/s | -61.7°C | 0.1% | 109.1hPa | 3.5V | 00:00:00 | 02:39:13 | 00:00:00 | |
| DJ8HS-15 | 2026-09-06 00:54:52 | 50.23187 | 6.39982 | 115° | 68km/h | 16206m | -11.1m/s | -61.5°C | 0.1% | 107.0hPa | 3V | 00:00:00 | 02:39:01 | 00:00:00 | |
| DM0DOS-11 | 2026-09-06 00:54:46 | 50.23264 | 6.39784 | 119° | 71km/h | 16295m | -11.2m/s | -61.2°C | 0.1% | 105.5hPa | 3V | 00:00:00 | 02:38:53 | 00:00:00 | |
| BIOWL1-15 | 2026-09-06 00:54:41 | 50.23319 | 6.39640 | 122° | 66km/h | 16362m | -11.3m/s | -60.9°C | 0.2% | 104.4hPa | 3V | 00:00:00 | 00:00:00 | 00:00:00 | |
| DB0UT-7 | 2026-09-06 00:54:38 | 50.23319 | 6.39640 | 129° | 60km/h | 16362m | -11.2m/s | -60.9°C | 0.1% | 104.3hPa | 3.0V | 00:00:00 | 00:00:00 | 00:00:00 | |
| DM0DOS-11 | 2026-09-06 00:54:35 | 50.23357 | 6.39544 | 125° | 62km/h | 16407m | -11.3m/s | -61°C | 0.1% | 103.7hPa | 3V | 00:00:00 | 02:38:43 | 00:00:00 | |
| DJ8HS-15 | 2026-09-06 00:54:32 | 50.23376 | 6.39509 | 126° | 44km/h | 16430m | -11.4m/s | -61.0°C | 0.1% | 103.3hPa | 3.0V | 00:00:00 | 02:38:41 | 00:00:00 | |
| DM0DOS-11 | 2026-09-06 00:54:30 | 50.23450 | 6.39336 | 112° | 68km/h | 16519m | -10.9m/s | -60.6°C | 0.1% | 101.9hPa | 3V | 00:00:00 | 02:38:33 | 00:00:00 | |
| BIOWL1-15 | 2026-09-06 00:54:27 | 50.23418 | 6.39410 | 121° | 73km/h | 16487m | -10.5m/s | -60.8°C | 0.2% | 102.4hPa | 3V | 00:00:00 | 00:00:00 | 00:00:00 | |
| DM0DOS-11 | 2026-09-06 00:54:19 | 50.23546 | 6.39120 | 126° | 51km/h | 16631m | -11.5m/s | -59°C | 0.1% | 100.1hPa | 3V | 00:00:00 | 02:38:23 | 00:00:00 | |
| BIOWL1-15 | 2026-09-06 00:54:17 | 50.23537 | 6.39140 | 125° | 55km/h | 16620m | -11m/s | -59.1°C | 0.2% | 100.3hPa | 3V | 00:00:00 | 00:00:00 | 00:00:00 | |
| DM0DOS-11 | 2026-09-06 00:54:09 | 50.23613 | 6.38957 | 127° | 44km/h | 16751m | -11.7m/s | -58°C | 0.1% | 98.2hPa | 3V | 00:00:00 | 02:38:13 | 00:00:00 | |
| BIOWL1-15 | 2026-09-06 00:54:05 | 50.23659 | 6.38841 | 114° | 53km/h | 16846m | -13m/s | -57.6°C | 0.2% | 96.8hPa | 3V | 00:00:00 | 00:00:00 | 00:00:00 | |
| DM0DOS-11 | 2026-09-06 00:53:59 | 50.23669 | 6.38801 | 119° | 49km/h | 16872m | -12.3m/s | -57.5°C | 0.1% | 96.5hPa | 3V | 00:00:00 | 02:38:03 | 00:00:00 | |
| BIOWL1-15 | 2026-09-06 00:53:52 | 50.23683 | 6.38765 | 111° | 46km/h | 16897m | -11.5m/s | -57.7°C | 0.2% | 96.1hPa | 3V | 00:00:00 | 00:00:00 | 00:00:00 | |
| DM0DOS-11 | 2026-09-06 00:53:47 | 50.23716 | 6.38629 | 113° | 49km/h | 16991m | -13.3m/s | -57.6°C | 0.1% | 94.7hPa | 3V | 00:00:00 | 02:37:53 | 00:00:00 | |
| DB0UT-7 | 2026-09-06 00:53:38 | 50.23740 | 6.38517 | 110° | 53km/h | 17074m | -12.4m/s | -57.6°C | 0.1% | 93.5hPa | 3.1V | 00:00:00 | 00:00:00 | 00:00:00 | |
| DM0DOS-11 | 2026-09-06 00:53:37 | 50.23759 | 6.38444 | 106° | 51km/h | 17122m | -12.9m/s | -57.5°C | 0.1% | 92.8hPa | 3.1V | 00:00:00 | 02:37:43 | 00:00:00 | |
| BIOWL1-15 | 2026-09-06 00:53:36 | 50.23754 | 6.38460 | 111° | 53km/h | 17109m | -12.5m/s | -57.5°C | 0.2% | 93hPa | 3.1V | 00:00:00 | 00:00:00 | 00:00:00 | |
| DM0DOS-11 | 2026-09-06 00:53:27 | 50.23805 | 6.38247 | 103° | 53km/h | 17247m | -12.7m/s | -57.4°C | 0.1% | 91.1hPa | 3.1V | 00:00:00 | 02:37:33 | 00:00:00 | |
| DB0UT-7 | 2026-09-06 00:53:07 | 50.23857 | 6.37909 | 101° | 55km/h | 17474m | -14.2m/s | -56.9°C | 0.1% | 87.8hPa | 3.1V | 00:00:00 | 02:37:16 | 00:00:00 | |
| DM0DOS-11 | 2026-09-06 00:53:06 | 50.23868 | 6.37842 | 106° | 58km/h | 17518m | -13.6m/s | -57°C | 0.1% | 87.3hPa | 3.1V | 00:00:00 | 02:37:13 | 00:00:00 | |
| BIOWL1-15 | 2026-09-06 00:52:59 | 50.23896 | 6.37711 | 115° | 53km/h | 17601m | -12.6m/s | -57°C | 0.2% | 86.2hPa | 3.1V | 00:00:00 | 00:00:00 | 00:00:00 | |
| DM0DOS-11 | 2026-09-06 00:52:56 | 50.23918 | 6.37639 | 112° | 53km/h | 17651m | -12.7m/s | -56.8°C | 0.1% | 85.5hPa | 3.1V | 00:00:00 | 02:37:03 | 00:00:00 | |
| DM0DOS-11 | 2026-09-06 00:52:49 | 50.23973 | 6.37447 | 112° | 53km/h | 17778m | -12.2m/s | -56.2°C | 0.1% | 83.9hPa | 3.1V | 00:00:00 | 02:36:53 | 00:00:00 | |
| BIOWL1-15 | 2026-09-06 00:52:45 | 50.23991 | 6.37390 | 113° | 53km/h | 17815m | -11.7m/s | -56.2°C | 0.2% | 83.4hPa | 3.1V | 00:00:00 | 00:00:00 | 00:00:00 | |
| DL1XH1-15 | 2026-09-06 00:52:39 | 50.24002 | 6.37350 | 110° | 47km/h | 17839m | -12.9m/s | -56.4°C | 0.1% | 83.1hPa | 3.1V | 00:00:00 | 02:36:48 | 00:00:00 | |
| DB0UT-7 | 2026-09-06 00:52:37 | 50.24010 | 6.37312 | 114° | 42km/h | 17861m | -12.2m/s | -56.3°C | 0.1% | 82.8hPa | 3.1V | 00:00:00 | 00:00:00 | 00:00:00 | |
| DM0DOS-11 | 2026-09-06 00:52:36 | 50.24027 | 6.37257 | 123° | 53km/h | 17894m | -13.9m/s | -56.1°C | 0.1% | 82.4hPa | 3.1V | 00:00:00 | 02:36:43 | 00:00:00 | |
| DM0DOS-11 | 2026-09-06 00:52:29 | 50.24091 | 6.37084 | 134° | 46km/h | 18033m | -12.8m/s | -56°C | 0.1% | 80.5hPa | 3.1V | 00:00:00 | 02:36:33 | 00:00:00 | |
| DL1XH1-15 | 2026-09-06 00:52:29 | 50.24062 | 6.37163 | 120° | 42km/h | 17965m | -13.6m/s | -56°C | 0.1% | 81.5hPa | 3.1V | 00:00:00 | 02:36:38 | 00:00:00 | |
| BIOWL1-15 | 2026-09-06 00:52:25 | 50.24091 | 6.37084 | 130° | 40km/h | 18033m | -12.9m/s | -56°C | 0.2% | 80.5hPa | 3.1V | 00:00:00 | 00:00:00 | 00:00:00 | |
| DM0DOS-11 | 2026-09-06 00:52:18 | 50.24157 | 6.36959 | 127° | 31km/h | 18162m | -13.1m/s | -56.2°C | 0.1% | 79.1hPa | 3.2V | 00:00:00 | 02:36:23 | 00:00:00 | |
| DL1XH1-15 | 2026-09-06 00:52:17 | 50.24167 | 6.36942 | 123° | 38km/h | 18190m | -12.5m/s | -56.4°C | 0.1% | 78.8hPa | 3.2V | 00:00:00 | 02:36:21 | 00:00:00 | |
| DM0DOS-11 | 2026-09-06 00:52:08 | 50.24206 | 6.36854 | 100° | 31km/h | 18296m | -12.4m/s | -57°C | 0.1% | 77.5hPa | 3.2V | 00:00:00 | 02:36:13 | 00:00:00 | |
| DB0UT-7 | 2026-09-06 00:52:07 | 50.24193 | 6.36884 | 133° | 44km/h | 18258m | -12.6m/s | -56.7°C | 0.1% | 77.9hPa | 3.2V | 00:00:00 | 02:36:16 | 00:00:00 | |
| DM0DOS-11 | 2026-09-06 00:51:58 | 50.24237 | 6.36724 | 120° | 44km/h | 18427m | -12.5m/s | -57.3°C | 0.1% | 76hPa | 3.2V | 00:00:00 | 02:36:03 | 00:00:00 | |
| DL1XH1-15 | 2026-09-06 00:51:53 | 50.24264 | 6.36652 | 121° | 46km/h | 18492m | -11.7m/s | -57.2°C | 0.1% | 75.2hPa | 3.2V | 00:00:00 | 02:35:58 | 00:00:00 | |
| DL1XH1-15 | 2026-09-06 00:51:39 | 50.24331 | 6.36490 | 131° | 46km/h | 18611m | -12.2m/s | -57.2°C | 0.1% | 73.8hPa | 3.2V | 00:00:00 | 02:35:48 | 00:00:00 | |
| DM0DOS-11 | 2026-09-06 00:51:37 | 50.24379 | 6.36402 | 129° | 46km/h | 18671m | -11.9m/s | -56.9°C | 0.1% | 73.1hPa | 3.2V | 00:00:00 | 02:35:43 | 00:00:00 | |
| BIOWL1-15 | 2026-09-06 00:51:29 | 50.24426 | 6.36319 | 126° | 40km/h | 18742m | -11m/s | -56.5°C | 0.2% | 72.3hPa | 3.2V | 00:00:00 | 00:00:00 | 00:00:00 | |
| DM0DOS-11 | 2026-09-06 00:51:27 | 50.24449 | 6.36265 | 140° | 37km/h | 18786m | -11.6m/s | -56.4°C | 0.2% | 71.8hPa | 3.2V | 00:00:00 | 02:35:33 | 00:00:00 | |
| DL1XH1-15 | 2026-09-06 00:51:26 | 50.24466 | 6.36228 | 134° | 27km/h | 18821m | -12m/s | -56.4°C | 0.1% | 71.4hPa | 3.2V | 00:00:00 | 02:35:30 | 00:00:00 | |
| DJ8HS-15 | 2026-09-06 00:51:24 | 50.24449 | 6.36264 | 131° | 33km/h | 18786m | -11.5m/s | -56.4°C | 0.2% | 71.8hPa | 3.2V | 00:00:00 | 02:35:33 | 00:00:00 | |
| DM0DOS-11 | 2026-09-06 00:51:17 | 50.24496 | 6.36147 | 94° | 33km/h | 18903m | -12.3m/s | -56.6°C | 0.1% | 70.6hPa | 3.2V | 00:00:00 | 02:35:23 | 00:00:00 | |
| DM0DOS-11 | 2026-09-06 00:51:07 | 50.24486 | 6.36014 | 91° | 29km/h | 19025m | -12.9m/s | -55.8°C | 0.1% | 69.3hPa | 3.2V | 00:00:00 | 02:35:13 | 00:00:00 | |
| BIOWL1-15 | 2026-09-06 00:51:02 | 50.24488 | 6.35976 | 89° | 22km/h | 19065m | -12.6m/s | -55.8°C | 0.2% | 68.9hPa | 3.2V | 00:00:00 | 00:00:00 | 00:00:00 | |
| DM0DOS-11 | 2026-09-06 00:50:56 | 50.24485 | 6.35897 | 99° | 22km/h | 19155m | -12.1m/s | -55.8°C | 0.1% | 67.9hPa | 3.2V | 00:00:00 | 02:35:03 | 00:00:00 | |
| DM0DOS-11 | 2026-09-06 00:50:46 | 50.24483 | 6.35819 | 114° | 18km/h | 19293m | -13.2m/s | -56°C | 0.1% | 66.4hPa | 3.2V | 00:00:00 | 02:34:52 | 00:00:00 | |
| BIOWL1-15 | 2026-09-06 00:50:45 | 50.24485 | 6.35832 | 87° | 16km/h | 19267m | -13.2m/s | -56.1°C | 0.2% | 66.7hPa | 3.2V | 00:00:00 | 00:00:00 | 00:00:00 | |
| DJ8HS-15 | 2026-09-06 00:50:44 | 50.24484 | 6.35822 | 96° | 26km/h | 19281m | -12.8m/s | -56.0°C | 0.1% | 66.5hPa | 3.2V | 00:00:00 | 02:34:53 | 00:00:00 | |
| DL1XH1-15 | 2026-09-06 00:50:39 | 50.24487 | 6.35769 | 65° | 26km/h | 19399m | -12.6m/s | -56.1°C | 0.1% | 65.5hPa | 3.3V | 00:00:00 | 02:34:44 | 00:00:00 | |
| DB0UT-7 | 2026-09-06 00:50:37 | 50.24489 | 6.35780 | 75° | 33km/h | 19374m | -12.4m/s | -55.9°C | 0.1% | 65.6hPa | 3.3V | 00:00:00 | 00:00:00 | 00:00:00 | |
| DM0DOS-11 | 2026-09-06 00:50:36 | 50.24483 | 6.35754 | 84° | 35km/h | 19425m | -13.2m/s | -56.2°C | 0.2% | 65.2hPa | 3.3V | 00:00:00 | 02:34:42 | 00:00:00 | |
| BIOWL1-15 | 2026-09-06 00:50:33 | 50.24483 | 6.35754 | 78° | 26km/h | 19425m | -12.1m/s | -56.2°C | 0.3% | 65.2hPa | 3.3V | 00:00:00 | 00:00:00 | 00:00:00 | |
| DL1XH1-15 | 2026-09-06 00:50:29 | 50.24472 | 6.35675 | 79° | 33km/h | 19522m | -13m/s | -56°C | 0% | 64.2hPa | 3.3V | 00:00:00 | 02:34:34 | 00:00:00 | |
| BIOWL1-15 | 2026-09-06 00:50:23 | 50.24471 | 6.35655 | 96° | 24km/h | 19547m | -11.5m/s | -56°C | 0.2% | 64hPa | 3.3V | 00:00:00 | 00:00:00 | 00:00:00 | |
| DL1XH1-15 | 2026-09-06 00:50:19 | 50.24472 | 6.35554 | 103° | 44km/h | 19649m | -14m/s | -56.2°C | 0.1% | 63.1hPa | 3.3V | 00:00:00 | 02:34:24 | 00:00:00 | |
| DM0DOS-11 | 2026-09-06 00:50:16 | 50.24472 | 6.35523 | 107° | 37km/h | 19676m | -12.8m/s | -56.2°C | 0.1% | 62.8hPa | 3.3V | 00:00:00 | 02:34:22 | 00:00:00 | |
| BIOWL1-15 | 2026-09-06 00:50:06 | 50.24494 | 6.35411 | 107° | 33km/h | 19765m | -12.4m/s | -56°C | 0.1% | 62hPa | 3.3V | 00:00:00 | 00:00:00 | 00:00:00 | |
| DM0DOS-11 | 2026-09-06 00:50:06 | 50.24503 | 6.35373 | 100° | 35km/h | 19803m | -12.8m/s | -55.9°C | 0% | 61.5hPa | 3.3V | 00:00:00 | 02:34:12 | 00:00:00 | |
| DJ8HS-15 | 2026-09-06 00:50:04 | 50.24499 | 6.35387 | 112° | 42km/h | 19790m | -13.0m/s | -55.8°C | 0% | 61.6hPa | 3.3V | 00:00:00 | 02:34:13 | 00:00:00 | |
| DM0DOS-11 | 2026-09-06 00:49:56 | 50.24524 | 6.35227 | 106° | 44km/h | 19936m | -13.8m/s | -56.1°C | 0% | 60.3hPa | 3.3V | 00:00:00 | 02:34:02 | 00:00:00 | |
| DM0DOS-11 | 2026-09-06 00:49:46 | 50.24569 | 6.35070 | 123° | 46km/h | 20075m | -14.8m/s | -56°C | 0.1% | 59.1hPa | 3.3V | 00:00:00 | 02:33:52 | 00:00:00 | |
| BIOWL1-15 | 2026-09-06 00:49:43 | 50.24586 | 6.35025 | 112° | 51km/h | 20121m | -13.4m/s | -56°C | 0.2% | 58.7hPa | 3.3V | 00:00:00 | 00:00:00 | 00:00:00 | |
| DL1XH1-15 | 2026-09-06 00:49:39 | 50.24610 | 6.34929 | 106° | 51km/h | 20193m | -13.7m/s | -55.3°C | 0% | 58.1hPa | 3.3V | 00:00:00 | 02:33:44 | 00:00:00 | |
| DB0UT-7 | 2026-09-06 00:49:37 | 50.24602 | 6.34970 | 107° | 46km/h | 20164m | -14.5m/s | -55.8°C | 0% | 58.2hPa | 3.3V | 00:00:00 | 00:00:00 | 00:00:00 | |
| DM0DOS-11 | 2026-09-06 00:49:36 | 50.24617 | 6.34890 | 105° | 53km/h | 20225m | -13.3m/s | -55.1°C | 0.1% | 57.7hPa | 3.3V | 00:00:00 | 02:33:42 | 00:00:00 | |
| DM0DOS-11 | 2026-09-06 00:49:26 | 50.24664 | 6.34700 | 112° | 51km/h | 20356m | -12.5m/s | -55.6°C | 0.1% | 56.6hPa | 3.3V | 00:00:00 | 02:33:32 | 00:00:00 | |
| DJ8HS-15 | 2026-09-06 00:49:22 | 50.24669 | 6.34680 | 111° | 29km/h | 20368m | -12.8m/s | -55.5°C | 0% | 56.4hPa | 3.3V | 00:00:00 | 02:33:31 | 00:00:00 | |
| DM0DOS-11 | 2026-09-06 00:49:16 | 50.24714 | 6.34514 | 119° | 37km/h | 20485m | -12.4m/s | -55°C | 0.1% | 55.5hPa | 3.3V | 00:00:00 | 02:33:22 | 00:00:00 | |
| DL1XH1-15 | 2026-09-06 00:49:13 | 50.24730 | 6.34472 | 125° | 31km/h | 20524m | -11.5m/s | -54.7°C | 0.1% | 55.2hPa | 3.3V | 00:00:00 | 02:33:19 | 00:00:00 | |
| DB0UT-7 | 2026-09-06 00:49:07 | 50.24746 | 6.34436 | 124° | 16km/h | 20561m | -10.6m/s | -54.1°C | 0.1% | 54.9hPa | 3.3V | 00:00:00 | 02:33:16 | 00:00:00 | |
| DM0DOS-11 | 2026-09-06 00:49:06 | 50.24766 | 6.34401 | 139° | 22km/h | 20601m | -11.9m/s | -53.6°C | 0% | 54.6hPa | 3.3V | 00:00:00 | 02:33:12 | 00:00:00 | |
| DL1XH1-15 | 2026-09-06 00:49:05 | 50.24780 | 6.34381 | 138° | 16km/h | 20636m | -13.2m/s | -54°C | 0.1% | 54.3hPa | 3.3V | 00:00:00 | 02:33:09 | 00:00:00 | |
| DL1XH-west | 2026-09-06 00:49:01 | 50.24775 | 6.34388 | 138° | 26km/h | 20625m | -11m/s | -53.9°C | 0.2% | 54.4hPa | 3.3V | 00:00:00 | 00:00:00 | 00:00:00 | |
| DJ8HS-15 | 2026-09-06 00:49:00 | 50.24780 | 6.34380 | 129° | 11km/h | 20636m | -13.1m/s | -54.0°C | 0.1% | 54.2hPa | 3.3V | 00:00:00 | 02:33:09 | 00:00:00 | |
| DM0DOS-11 | 2026-09-06 00:48:56 | 50.24809 | 6.34347 | 152° | 13km/h | 20724m | -13.4m/s | -54.4°C | 0% | 53.6hPa | 3.3V | 00:00:00 | 02:33:02 | 00:00:00 | |
| DL1XH1-15 | 2026-09-06 00:48:53 | 50.24819 | 6.34340 | 161° | 11km/h | 20763m | -14m/s | -54.6°C | 0% | 53.3hPa | 3.3V | 00:00:00 | 02:32:59 | 00:00:00 | |
| DM0DOS-11 | 2026-09-06 00:48:46 | 50.24826 | 6.34330 | 192° | 11km/h | 20863m | -13.6m/s | -55.1°C | 0.1% | 52.4hPa | 3.4V | 00:00:00 | 02:32:52 | 00:00:00 | |
| DL1XH1-15 | 2026-09-06 00:48:45 | 50.24826 | 6.34332 | 299° | 18km/h | 20904m | -14m/s | -55.1°C | 0% | 52.1hPa | 3.4V | 00:00:00 | 02:32:49 | 00:00:00 | |
| DB0UT-7 | 2026-09-06 00:48:37 | 50.24820 | 6.34329 | 8° | 20km/h | 20950m | -13.0m/s | -55.0°C | 0% | 51.7hPa | 3.4V | 00:00:00 | 00:00:00 | 00:00:00 | |
| DM0DOS-11 | 2026-09-06 00:48:36 | 50.24814 | 6.34319 | 57° | 11km/h | 21000m | -13.3m/s | -54.5°C | 0.1% | 51.4hPa | 3.4V | 00:00:00 | 02:32:42 | 00:00:00 | |
| DM0DOS-11 | 2026-09-06 00:48:26 | 50.24801 | 6.34279 | 78° | 18km/h | 21132m | -14.1m/s | -54.2°C | 0% | 50.4hPa | 3.4V | 00:00:00 | 02:32:32 | 00:00:00 | |
| BIOWL1-15 | 2026-09-06 00:48:25 | 50.24800 | 6.34273 | 73° | 15km/h | 21145m | -13.5m/s | -54.2°C | 0.1% | 50.3hPa | 3.4V | 00:00:00 | 00:00:00 | 00:00:00 | |
| DM0DOS-11 | 2026-09-06 00:48:16 | 50.24800 | 6.34195 | 87° | 29km/h | 21286m | -14.2m/s | -55°C | 0% | 49.2hPa | 3.4V | 00:00:00 | 02:32:22 | 00:00:00 | |
| DJ8HS-15 | 2026-09-06 00:48:15 | 50.24797 | 6.34216 | 96° | 31km/h | 21251m | -14.8m/s | -54.7°C | 0% | 49.5hPa | 3.4V | 00:00:00 | 02:32:24 | 00:00:00 | |
| DL1XH1-15 | 2026-09-06 00:48:09 | 50.24806 | 6.34102 | 109° | 31km/h | 21402m | -14.2m/s | -54.9°C | 0% | 48.4hPa | 3.4V | 00:00:00 | 02:32:14 | 00:00:00 | |
| DB0UT-7 | 2026-09-06 00:48:07 | 50.24804 | 6.34125 | 106° | 33km/h | 21373m | -13.7m/s | -54.8°C | 0% | 48.6hPa | 3.4V | 00:00:00 | 02:32:16 | 00:00:00 | |
| DM0DOS-11 | 2026-09-06 00:48:06 | 50.24812 | 6.34085 | 96° | 31km/h | 21427m | -13.9m/s | -54.8°C | 0% | 48.2hPa | 3.4V | 00:00:00 | 02:32:12 | 00:00:00 | |
| DL1XH1-15 | 2026-09-06 00:47:57 | 50.24854 | 6.33959 | 135° | 33km/h | 21585m | -14.6m/s | -55.1°C | 0% | 47.1hPa | 3.4V | 00:00:00 | 02:32:01 | 00:00:00 | |
| DM0DOS-11 | 2026-09-06 00:47:55 | 50.24849 | 6.33969 | 128° | 35km/h | 21569m | -14.9m/s | -55.1°C | 0% | 47.2hPa | 3.4V | 00:00:00 | 02:32:02 | 00:00:00 | |
| DL1XH-west | 2026-09-06 00:47:43 | 50.24928 | 6.33862 | 157° | 29km/h | 21745m | -14.2m/s | -54°C | 0.1% | 46hPa | 3.4V | 00:00:00 | 00:00:00 | 00:00:00 | |
| DM0DOS-11 | 2026-09-06 00:47:43 | 50.24914 | 6.33873 | 148° | 31km/h | 21716m | -14.3m/s | -54.1°C | 0% | 46.2hPa | 3.4V | 00:00:00 | 02:31:52 | 00:00:00 | |
| DL1XH1-15 | 2026-09-06 00:47:43 | 50.24928 | 6.33862 | 160° | 27km/h | 21745m | -14.1m/s | -54°C | 0% | 46hPa | 3.4V | 00:00:00 | 02:31:50 | 00:00:00 | |
| DB0UT-7 | 2026-09-06 00:47:37 | 50.24956 | 6.33840 | 174° | 18km/h | 21801m | -14.7m/s | -54.3°C | 0% | 45.5hPa | 3.4V | 00:00:00 | 00:00:00 | 00:00:00 | |
| DM0DOS-11 | 2026-09-06 00:47:36 | 50.24982 | 6.33831 | 166° | 27km/h | 21860m | -14.4m/s | -54.4°C | 0% | 45.2hPa | 3.4V | 00:00:00 | 02:31:42 | 00:00:00 | |
| DL1XH1-15 | 2026-09-06 00:47:36 | 50.24995 | 6.33826 | 167° | 15km/h | 21890m | -14.4m/s | -54.6°C | 0% | 45hPa | 3.4V | 00:00:00 | 02:31:40 | 00:00:00 | |
| BIOWL1-15 | 2026-09-06 00:47:34 | 50.24982 | 6.33831 | 166° | 27km/h | 21860m | -14.5m/s | -54.4°C | 0.1% | 45.2hPa | 3.4V | 00:00:00 | 00:00:00 | 00:00:00 | |
| DL1XH-west | 2026-09-06 00:47:31 | 50.24995 | 6.33826 | 165° | 29km/h | 21890m | -14.4m/s | -54.6°C | 0.1% | 45hPa | 3.4V | 00:00:00 | 00:00:00 | 00:00:00 | |
| DJ8HS-15 | 2026-09-06 00:47:31 | 50.24995 | 6.33826 | 166° | 13km/h | 21890m | -14.5m/s | -54.5°C | 0% | 45.0hPa | 3.4V | 00:00:00 | 02:31:40 | 00:00:00 | |
| DM0DOS-11 | 2026-09-06 00:47:26 | 50.25056 | 6.33802 | 191° | 13km/h | 22019m | -14.8m/s | -54.6°C | 0% | 44.2hPa | 3.4V | 00:00:00 | 02:31:31 | 00:00:00 | |
| BIOWL1-15 | 2026-09-06 00:47:24 | 50.25051 | 6.33804 | 170° | 24km/h | 22005m | -14m/s | -54.6°C | 0.1% | 44.3hPa | 3.4V | 00:00:00 | 00:00:00 | 00:00:00 | |
| DL1XH-west | 2026-09-06 00:47:19 | 50.25066 | 6.33797 | 121° | 7km/h | 22065m | -14m/s | -54.7°C | 0.1% | 43.9hPa | 3.4V | 00:00:00 | 00:00:00 | 00:00:00 | |
| DL1XH1-15 | 2026-09-06 00:47:19 | 50.25074 | 6.33788 | 130° | 9km/h | 22136m | -14.2m/s | -54.8°C | 0% | 43.4hPa | 3.4V | 00:00:00 | 02:31:23 | 00:00:00 | |
| DM0DOS-11 | 2026-09-06 00:47:16 | 50.25076 | 6.33786 | 40° | 16km/h | 22164m | -14.8m/s | -54.9°C | 0% | 43.2hPa | 3.4V | 00:00:00 | 02:31:21 | 00:00:00 | |
| BIOWL1-15 | 2026-09-06 00:47:12 | 50.25071 | 6.33779 | 26° | 20km/h | 22234m | -15.1m/s | -54.8°C | 0.1% | 42.8hPa | 3.4V | 00:00:00 | 00:00:00 | 00:00:00 | |
| DJ8HS-15 | 2026-09-06 00:47:10 | 50.25074 | 6.33784 | 125° | 18km/h | 22192m | -15.1m/s | -55.0°C | 0% | 43.0hPa | 3.4V | 00:00:00 | 02:31:19 | 00:00:00 | |
| DL1XH1-15 | 2026-09-06 00:47:09 | 50.25059 | 6.33766 | 29° | 18km/h | 22278m | -15.4m/s | -54.5°C | 0% | 42.5hPa | 3.4V | 00:00:00 | 02:31:13 | 00:00:00 | |
| DL1XH-west | 2026-09-06 00:47:09 | 50.25074 | 6.33778 | 11° | 13km/h | 22219m | -15.5m/s | -54.9°C | 0.1% | 42.9hPa | 3.4V | 00:00:00 | 00:00:00 | 00:00:00 | |
| DB0UT-7 | 2026-09-06 00:47:07 | 50.25071 | 6.33779 | 29° | 24km/h | 22234m | -15.0m/s | -54.8°C | 0% | 42.7hPa | 3.4V | 00:00:00 | 02:31:16 | 00:00:00 | |
| DM0DOS-11 | 2026-09-06 00:46:59 | 50.25033 | 6.33759 | 9° | 24km/h | 22370m | -15.1m/s | -54.2°C | 0% | 41.9hPa | 3.4V | 00:00:00 | 02:31:07 | 00:00:00 | |
| DL1XH1-15 | 2026-09-06 00:46:59 | 50.25010 | 6.33746 | 57° | 24km/h | 22430m | -15.9m/s | -54°C | 0% | 41.5hPa | 3.4V | 00:00:00 | 02:31:03 | 00:00:00 | |
| DM0DOS-11 | 2026-09-06 00:46:53 | 50.24998 | 6.33697 | 86° | 24km/h | 22525m | -15m/s | -53.9°C | 0% | 40.9hPa | 3.4V | 00:00:00 | 02:30:57 | 00:00:00 | |
| BIOWL1-15 | 2026-09-06 00:46:50 | 50.24998 | 6.33711 | 102° | 22km/h | 22491m | -15.5m/s | -53.9°C | 0.1% | 41.2hPa | 3.4V | 00:00:00 | 00:00:00 | 00:00:00 | |
| DL1XH1-15 | 2026-09-06 00:46:43 | 50.25007 | 6.33645 | 131° | 22km/h | 22615m | -16.7m/s | -53.8°C | 0% | 40.4hPa | 3.4V | 00:00:00 | 02:30:51 | 00:00:00 | |
| DM0DOS-11 | 2026-09-06 00:46:38 | 50.25021 | 6.33613 | 139° | 29km/h | 22669m | -16.7m/s | -53.7°C | 0% | 40.1hPa | 3.4V | 00:00:00 | 02:30:47 | 00:00:00 | |
| DL1XH1-15 | 2026-09-06 00:46:38 | 50.25058 | 6.33567 | 140° | 18km/h | 22772m | -17.2m/s | -52.8°C | 0% | 39.5hPa | 3.4V | 00:00:00 | 02:30:41 | 00:00:00 | |
| DB0UT-7 | 2026-09-06 00:46:37 | 50.25026 | 6.33606 | 141° | 16km/h | 22684m | -17.2m/s | -53.5°C | 0% | 40.0hPa | 3.4V | 00:00:00 | 00:00:00 | 00:00:00 | |
| DM0DOS-11 | 2026-09-06 00:46:33 | 50.25079 | 6.33541 | 130° | 22km/h | 22835m | -17.4m/s | -53°C | 0% | 39.1hPa | 3.4V | 00:00:00 | 02:30:37 | 00:00:00 | |
| DL1XH-west | 2026-09-06 00:46:20 | 50.25112 | 6.33507 | 173° | 9km/h | 22978m | -16.3m/s | -52.8°C | 0.2% | 38.4hPa | 3.4V | 00:00:00 | 00:00:00 | 00:00:00 | |
| DL1XH1-15 | 2026-09-06 00:46:19 | 50.25126 | 6.33509 | 158° | 15km/h | 23084m | -15.8m/s | -52.7°C | 0% | 37.7hPa | 3.4V | 00:00:00 | 02:30:23 | 00:00:00 | |
| DM0DOS-11 | 2026-09-06 00:46:18 | 50.25120 | 6.33508 | 109° | 11km/h | 23013m | -16.9m/s | -52.8°C | 0% | 38.1hPa | 3.4V | 00:00:00 | 02:30:27 | 00:00:00 | |
| BIOWL1-15 | 2026-09-06 00:46:17 | 50.25126 | 6.33509 | 131° | 11km/h | 23084m | -15.4m/s | -52.7°C | 0.1% | 37.7hPa | 3.4V | 00:00:00 | 00:00:00 | 00:00:00 | |
| DM0DOS-11 | 2026-09-06 00:46:13 | 50.25139 | 6.33501 | 118° | 18km/h | 23172m | -16.3m/s | -53°C | 0.1% | 37.2hPa | 3.5V | 00:00:00 | 02:30:17 | 00:00:00 | |
| DL1XH1-15 | 2026-09-06 00:46:07 | 50.25148 | 6.33458 | 98° | 24km/h | 23286m | -17.5m/s | -52.9°C | 0% | 36.6hPa | 3.5V | 00:00:00 | 02:30:10 | 00:00:00 | |
| DB0UT-7 | 2026-09-06 00:46:06 | 50.25141 | 6.33494 | 99° | 22km/h | 23206m | -16.0m/s | -53.0°C | 0.1% | 37.0hPa | 3.5V | 00:00:00 | 02:30:15 | 00:00:00 | |
| DM0DOS-11 | 2026-09-06 00:46:00 | 50.25156 | 6.33404 | 112° | 20km/h | 23369m | -18.2m/s | -52.2°C | 0% | 36.2hPa | 3.5V | 00:00:00 | 02:30:05 | 00:00:00 | |
| DL1XH-west | 2026-09-06 00:45:57 | 50.25162 | 6.33381 | 125° | 26km/h | 23422m | -18m/s | -52°C | 0.1% | 35.9hPa | 3.5V | 00:00:00 | 00:00:00 | 00:00:00 | |
| DL1XH1-15 | 2026-09-06 00:45:53 | 50.25174 | 6.33344 | 108° | 18km/h | 23517m | -19.5m/s | -52.1°C | 0% | 35.4hPa | 3.5V | 00:00:00 | 02:29:57 | 00:00:00 | |
| DM0DOS-11 | 2026-09-06 00:45:48 | 50.25178 | 6.33332 | 100° | 20km/h | 23561m | -17.7m/s | -52.1°C | 0% | 35.1hPa | 3.5V | 00:00:00 | 02:29:55 | 00:00:00 | |
| DL1XH-west | 2026-09-06 00:45:44 | 50.25184 | 6.33313 | 108° | 26km/h | 23615m | -19m/s | -51.9°C | 0.2% | 34.9hPa | 3.5V | 00:00:00 | 00:00:00 | 00:00:00 | |
| DL1XH1-15 | 2026-09-06 00:45:38 | 50.25193 | 6.33278 | 135° | 18km/h | 23702m | -17.2m/s | -51.2°C | 0.1% | 34.5hPa | 3.5V | 00:00:00 | 02:29:47 | 00:00:00 | |
| DM0DOS-11 | 2026-09-06 00:45:37 | 50.25200 | 6.33265 | 127° | 18km/h | 23734m | -17.4m/s | -51°C | 0.1% | 34.3hPa | 3.5V | 00:00:00 | 02:29:45 | 00:00:00 | |
| DL1XH-west | 2026-09-06 00:45:33 | 50.25207 | 6.33248 | 139° | 18km/h | 23786m | -17.7m/s | -50.9°C | 0.2% | 34hPa | 3.5V | 00:00:00 | 00:00:00 | 00:00:00 | |
| DL1XH1-15 | 2026-09-06 00:45:28 | 50.25231 | 6.33217 | 140° | 16km/h | 23890m | -16.8m/s | -51.1°C | 0.1% | 33.5hPa | 3.5V | 00:00:00 | 02:29:36 | 00:00:00 | |
| DM0DOS-11 | 2026-09-06 00:45:27 | 50.25240 | 6.33206 | 162° | 15km/h | 23923m | -16.9m/s | -51.1°C | 0% | 33.4hPa | 3.5V | 00:00:00 | 02:29:34 | 00:00:00 | |
| DL1XH-west | 2026-09-06 00:45:19 | 50.25262 | 6.33201 | 208° | 13km/h | 24028m | -18m/s | -51.5°C | 0.2% | 32.9hPa | 3.5V | 00:00:00 | 00:00:00 | 00:00:00 | |
| DL1XH1-15 | 2026-09-06 00:45:18 | 50.25270 | 6.33205 | 163° | 15km/h | 24063m | -18.4m/s | -51.5°C | 0% | 32.7hPa | 3.5V | 00:00:00 | 02:29:26 | 00:00:00 | |
| DM0DOS-11 | 2026-09-06 00:45:17 | 50.25276 | 6.33204 | 151° | 15km/h | 24097m | -17.8m/s | -51.6°C | 0.1% | 32.5hPa | 3.5V | 00:00:00 | 02:29:24 | 00:00:00 | |
| DL1XH1-15 | 2026-09-06 00:45:08 | 50.25292 | 6.33182 | 109° | 20km/h | 24246m | -18.8m/s | -51.5°C | 0.1% | 31.9hPa | 3.5V | 00:00:00 | 02:29:16 | 00:00:00 | |
| DM0DOS-11 | 2026-09-06 00:45:07 | 50.25293 | 6.33167 | 149° | 22km/h | 24286m | -18.7m/s | -51.5°C | 0% | 31.7hPa | 3.5V | 00:00:00 | 02:29:14 | 00:00:00 | |
| DB0UT-7 | 2026-09-06 00:45:06 | 50.25292 | 6.33173 | 121° | 16km/h | 24265m | -19.0m/s | -51.5°C | 0.1% | 31.8hPa | 3.5V | 00:00:00 | 02:29:15 | 00:00:00 | |
| DM0DOS-11 | 2026-09-06 00:44:56 | 50.25317 | 6.33094 | 122° | 20km/h | 24474m | -18.1m/s | -51.3°C | 0.1% | 30.8hPa | 3.5V | 00:00:00 | 02:29:04 | 00:00:00 | |
| DL1XH1-15 | 2026-09-06 00:44:53 | 50.25326 | 6.33073 | 106° | 16km/h | 24526m | -18.8m/s | -51.3°C | 0% | 30.6hPa | 3.5V | 00:00:00 | 02:29:01 | 00:00:00 | |
| DL1XH-west | 2026-09-06 00:44:52 | 50.25326 | 6.33073 | 106° | 22km/h | 24526m | -19m/s | -51.3°C | 0.1% | 30.6hPa | 3.5V | 00:00:00 | 00:00:00 | 00:00:00 | |
| DM0DOS-11 | 2026-09-06 00:44:46 | 50.25343 | 6.33055 | 182° | 15km/h | 24658m | -18.4m/s | -51.5°C | 0% | 30hPa | 3.5V | 00:00:00 | 02:28:54 | 00:00:00 | |
| DL1XH1-15 | 2026-09-06 00:44:43 | 50.25353 | 6.33060 | 177° | 13km/h | 24713m | -19.1m/s | -51.6°C | 0.1% | 29.7hPa | 3.5V | 00:00:00 | 02:28:51 | 00:00:00 | |
| DL1XH-west | 2026-09-06 00:44:42 | 50.25353 | 6.33060 | 214° | 7km/h | 24713m | -18.8m/s | -51.7°C | 0.2% | 29.7hPa | 3.5V | 00:00:00 | 00:00:00 | 00:00:00 | |
| DM0DOS-11 | 2026-09-06 00:44:36 | 50.25367 | 6.33076 | 240° | 9km/h | 24845m | -19.4m/s | -51°C | 0.1% | 29.2hPa | 3.5V | 00:00:00 | 02:28:44 | 00:00:00 | |
| BIOWL1-15 | 2026-09-06 00:44:33 | 50.25370 | 6.33078 | 213° | 11km/h | 24901m | -20.9m/s | -50.6°C | 0.2% | 29hPa | 3.5V | 00:00:00 | 00:00:00 | 00:00:00 | |
| DL1XH1-15 | 2026-09-06 00:44:32 | 50.25370 | 6.33078 | 44° | 13km/h | 24901m | -20.4m/s | -50.6°C | 0.1% | 29hPa | 3.5V | 00:00:00 | 02:28:41 | 00:00:00 | |
| DL1XH1-15 | 2026-09-06 00:44:26 | 50.25387 | 6.33096 | 210° | 22km/h | 25128m | -19.9m/s | -49.9°C | 0.1% | 28.1hPa | 3.5V | 00:00:00 | 02:28:30 | 00:00:00 | |
| BIOWL1-15 | 2026-09-06 00:44:11 | 50.25437 | 6.33212 | 0° | 0km/h | 25368m | 0m/s | -50.2°C | 0.2% | 27.1hPa | 3.5V | 00:00:00 | 00:00:00 | 00:00:00 | |
| DL1XH1-15 | 2026-09-06 00:44:08 | 50.25440 | 6.33230 | 278° | 16km/h | 25403m | -19.2m/s | -50.2°C | 0.1% | 27hPa | 3.5V | 00:00:00 | 02:28:16 | 00:00:00 | |
| DM0DOS-11 | 2026-09-06 00:44:06 | 50.25438 | 6.33247 | 273° | 18km/h | 25439m | -20.2m/s | -50.4°C | 0.1% | 26.9hPa | 3.5V | 00:00:00 | 02:28:14 | 00:00:00 | |
| DL1XH-west | 2026-09-06 00:44:00 | 50.25428 | 6.33276 | 342° | 15km/h | 25561m | -18.4m/s | -50.6°C | 0.2% | 26.4hPa | 3.5V | 00:00:00 | 00:00:00 | 00:00:00 | |
| DL1XH1-15 | 2026-09-06 00:43:58 | 50.25418 | 6.33287 | 342° | 16km/h | 25616m | -18.3m/s | -50.8°C | 0.1% | 26.2hPa | 3.5V | 00:00:00 | 02:28:05 | 00:00:00 | |
| DM0DOS-11 | 2026-09-06 00:43:55 | 50.25412 | 6.33289 | 14° | 15km/h | 25634m | -18.6m/s | -50.8°C | 0.1% | 26.1hPa | 3.5V | 00:00:00 | 02:28:04 | 00:00:00 | |
| DL1XH1-15 | 2026-09-06 00:43:48 | 50.25363 | 6.33280 | 12° | 7km/h | 25854m | -18.2m/s | -50.7°C | 0.1% | 25.3hPa | 3.5V | 00:00:00 | 02:27:52 | 00:00:00 | |
| DM0DOS-11 | 2026-09-06 00:43:45 | 50.25367 | 6.33285 | 24° | 9km/h | 25818m | -18.2m/s | -50.8°C | 0.1% | 25.4hPa | 3.5V | 00:00:00 | 02:27:54 | 00:00:00 | |
| DL1XH1-15 | 2026-09-06 00:43:38 | 50.25359 | 6.33260 | 152° | 5km/h | 26043m | -19.1m/s | -50.6°C | 0% | 24.6hPa | 3.5V | 00:00:00 | 02:27:42 | 00:00:00 | |
| DM0DOS-11 | 2026-09-06 00:43:35 | 50.25356 | 6.33264 | 151° | 7km/h | 26006m | -19m/s | -50.8°C | 0.1% | 24.8hPa | 3.5V | 00:00:00 | 02:27:44 | 00:00:00 | |
| DL1XH-west | 2026-09-06 00:43:28 | 50.25364 | 6.33258 | 171° | 4km/h | 26134m | -19m/s | -50.2°C | 0.2% | 24.4hPa | 3.5V | 00:00:00 | 00:00:00 | 00:00:00 | |
| DL1XH1-15 | 2026-09-06 00:43:27 | 50.25372 | 6.33253 | 118° | 7km/h | 26235m | -23.8m/s | -49.9°C | 0.1% | 24hPa | 3.5V | 00:00:00 | 02:27:32 | 00:00:00 | |
| DM0DOS-11 | 2026-09-06 00:43:25 | 50.25368 | 6.33256 | 152° | 7km/h | 26196m | -22.2m/s | -49.9°C | 0.1% | 24.1hPa | 3.5V | 00:00:00 | 02:27:34 | 00:00:00 | |
| HEMX73-6 | 2026-09-06 00:43:21 | 50.25373 | 6.33249 | 138° | 11km/h | 26282m | -22.1m/s | -49.8°C | 0.1% | 23.8hPa | 3.5V | 00:00:00 | 02:27:30 | 00:00:00 | |
| DM0DOS-11 | 2026-09-06 00:43:20 | 50.25378 | 6.33241 | 90° | 7km/h | 26436m | -22.2m/s | -49.2°C | 0.1% | 23.3hPa | 3.5V | 00:00:00 | 02:27:24 | 00:00:00 | |
| DL1XH1-15 | 2026-09-06 00:43:17 | 50.25378 | 6.33231 | 184° | 9km/h | 26505m | -22m/s | -48.9°C | 0.1% | 23.1hPa | 3.5V | 00:00:00 | 02:27:21 | 00:00:00 | |
| DL1XH1-15 | 2026-09-06 00:43:07 | 50.25367 | 6.33231 | 27° | 11km/h | 26711m | -23.2m/s | -48.5°C | 0.1% | 22.4hPa | 3.5V | 00:00:00 | 02:27:11 | 00:00:00 | |
| DL1XH-west | 2026-09-06 00:43:05 | 50.25374 | 6.33228 | 0° | 0km/h | 26651m | 0m/s | -48.5°C | 0.2% | 22.6hPa | 3.5V | 00:00:00 | 00:00:00 | 00:00:00 | |
| DM0DOS-11 | 2026-09-06 00:43:05 | 50.25374 | 6.33228 | 338° | 11km/h | 26651m | -21m/s | -48.5°C | 0.1% | 22.6hPa | 3.5V | 00:00:00 | 02:27:14 | 00:00:00 | |
| DM0DOS-11 | 2026-09-06 00:43:00 | 50.25352 | 6.33217 | 57° | 13km/h | 26871m | -22.8m/s | -48.8°C | 0.1% | 22hPa | 3.5V | 00:00:00 | 02:27:04 | 00:00:00 | |
| DO3MHA-12 | 2026-09-06 00:42:58 | 50.25358 | 6.33223 | 23° | 13km/h | 26800m | -22.6m/s | -48.5°C | 0.1% | 22.1hPa | 3.5V | 00:00:00 | 02:27:07 | 00:00:00 | |
| DO3MHA-12 | 2026-09-06 00:42:48 | 50.25347 | 6.33184 | 127° | 15km/h | 27034m | -20.8m/s | -49.0°C | 0.1% | 21.4hPa | 3.5V | 00:00:00 | 02:26:57 | 00:00:00 | |
| DM0DOS-11 | 2026-09-06 00:42:45 | 50.25354 | 6.33169 | 129° | 15km/h | 27119m | -20.9m/s | -48.9°C | 0.1% | 21.1hPa | 3.5V | 00:00:00 | 02:26:53 | 00:00:00 | |
| DO3MHA-12 | 2026-09-06 00:42:37 | 50.25369 | 6.33135 | 172° | 11km/h | 27264m | -22.2m/s | -48.7°C | 0.1% | 20.7hPa | 3.5V | 00:00:00 | 02:26:46 | 00:00:00 | |
| DB0UT-7 | 2026-09-06 00:42:36 | 50.25372 | 6.33134 | 179° | 11km/h | 27285m | -22.0m/s | -48.5°C | 0.1% | 20.7hPa | 3.5V | 00:00:00 | 00:00:00 | 00:00:00 | |
| DM0DOS-11 | 2026-09-06 00:42:35 | 50.25378 | 6.33133 | 176° | 15km/h | 27327m | -22.9m/s | -48.2°C | 0.1% | 20.6hPa | 3.5V | 00:00:00 | 02:26:43 | 00:00:00 | |
| DL1XH1-15 | 2026-09-06 00:42:34 | 50.25397 | 6.33124 | 168° | 9km/h | 27443m | -23.3m/s | -47.9°C | 0.1% | 20.3hPa | 3.5V | 00:00:00 | 02:26:38 | 00:00:00 | |
| DM0DOS-11 | 2026-09-06 00:42:25 | 50.25408 | 6.33119 | 202° | 7km/h | 27559m | -25.2m/s | -47.8°C | 0.1% | 19.9hPa | 3.5V | 00:00:00 | 02:26:33 | 00:00:00 | |
| DO3MHA-12 | 2026-09-06 00:42:25 | 50.25407 | 6.33121 | 177° | 9km/h | 27532m | -24.7m/s | -47.8°C | 0.1% | 20.0hPa | 3.5V | 00:00:00 | 02:26:34 | 00:00:00 | |
| DL1XH1-15 | 2026-09-06 00:42:18 | 50.25412 | 6.33134 | 274° | 11km/h | 27781m | -22.8m/s | -47.6°C | 0.1% | 19.4hPa | 3.5V | 00:00:00 | 02:26:24 | 00:00:00 | |
| DM0DOS-11 | 2026-09-06 00:42:15 | 50.25412 | 6.33141 | 186° | 11km/h | 27829m | -24.6m/s | -47.6°C | 0.1% | 19.2hPa | 3.5V | 00:00:00 | 02:26:22 | 00:00:00 | |
| DB0UT-7 | 2026-09-06 00:42:06 | 50.25416 | 6.33145 | 156° | 15km/h | 27992m | -24.7m/s | -47.5°C | 0.1% | 18.7hPa | 3.5V | 00:00:00 | 02:26:15 | 00:00:00 | |
| DL1XH1-15 | 2026-09-06 00:42:02 | 50.25442 | 6.33124 | 158° | 11km/h | 28192m | -21.2m/s | -47.2°C | 0.2% | 18.3hPa | 3.5V | 00:00:00 | 02:26:07 | 00:00:00 | |
| DM0DOS-11 | 2026-09-06 00:42:01 | 50.25444 | 6.33127 | 118° | 9km/h | 28213m | -23.9m/s | -47°C | 0.1% | 18.2hPa | 3.5V | 00:00:00 | 02:26:06 | 00:00:00 | |
| DM0DOS-11 | 2026-09-06 00:41:51 | 50.25466 | 6.33114 | 154° | 15km/h | 28458m | -23.7m/s | -46.1°C | 0.1% | 17.6hPa | 3.5V | 00:00:00 | 02:25:56 | 00:00:00 | |
| DM0DOS-11 | 2026-09-06 00:41:41 | 50.25490 | 6.33065 | 140° | 16km/h | 28684m | -28.7m/s | -45.4°C | 0.1% | 17.1hPa | 3.5V | 00:00:00 | 02:25:46 | 00:00:00 | |
| DB0UT-7 | 2026-09-06 00:41:36 | 50.25494 | 6.33062 | 129° | 9km/h | 28711m | -27.9m/s | -45.3°C | 0.1% | 17.0hPa | 3.5V | 00:00:00 | 00:00:00 | 00:00:00 | |
| DM0DOS-11 | 2026-09-06 00:41:25 | 50.25525 | 6.33029 | 150° | 13km/h | 29021m | -26.4m/s | -45.9°C | 0.1% | 16.4hPa | 3.5V | 00:00:00 | 02:25:34 | 00:00:00 | |
| DM0DOS-11 | 2026-09-06 00:41:15 | 50.25543 | 6.32994 | 73° | 9km/h | 29314m | -24.3m/s | -45.8°C | 0.1% | 15.7hPa | 3.5V | 00:00:00 | 02:25:23 | 00:00:00 | |
| DM0DOS-11 | 2026-09-06 00:41:04 | 50.25545 | 6.32985 | 6° | 7km/h | 29548m | -25.1m/s | -45.2°C | 0.2% | 15.2hPa | 3.5V | 00:00:00 | 02:25:13 | 00:00:00 | |
| DM0DOS-11 | 2026-09-06 00:40:57 | 50.25534 | 6.32975 | 72° | 15km/h | 29799m | -27m/s | -44.6°C | 0.1% | 14.8hPa | 3.5V | 00:00:00 | 02:25:03 | 00:00:00 | |
| DJ8HS-15 | 2026-09-06 00:40:57 | 50.25534 | 6.32980 | 81° | 13km/h | 29726m | -24.6m/s | -44.7°C | 0.1% | 14.8hPa | 3.5V | 00:00:00 | 02:25:06 | 00:00:00 | |
| DM0DOS-11 | 2026-09-06 00:40:46 | 50.25533 | 6.32907 | 117° | 13km/h | 30114m | -24.7m/s | -44.7°C | 0.1% | 14.2hPa | 3.5V | 00:00:00 | 02:24:51 | 00:00:00 | |
| DO3MHA-12 | 2026-09-06 00:40:42 | 50.25533 | 6.32907 | 122° | 15km/h | 30114m | -18.8m/s | -44.6°C | 0.1% | 14.1hPa | 3.5V | 00:00:00 | 02:24:51 | 00:00:00 | |
| DJ8HS-15 | 2026-09-06 00:40:37 | 50.25541 | 6.32888 | 95° | 13km/h | 30243m | -17.7m/s | -44.9°C | 0.2% | 13.9hPa | 3.5V | 00:00:00 | 02:24:46 | 00:00:00 | |
| DM0DOS-11 | 2026-09-06 00:40:34 | 50.25547 | 6.32869 | 152° | 15km/h | 30364m | -16.7m/s | -45.1°C | 0.2% | 13.7hPa | 3.5V | 00:00:00 | 02:24:41 | 00:00:00 | |
| DB0UT-7 | 2026-09-06 00:40:33 | 50.25543 | 6.32874 | 136° | 13km/h | 30340m | -19.5m/s | -45.1°C | 0.2% | 13.7hPa | 3.5V | 00:00:00 | 00:00:00 | 00:00:00 | |
| DO3MHA-12 | 2026-09-06 00:40:29 | 50.25554 | 6.32858 | 130° | 15km/h | 30434m | 0.5m/s | -45.3°C | 0.2% | 13.5hPa | 3.5V | 00:00:00 | 02:24:38 | 00:00:00 | |
| DM0DOS-11 | 2026-09-06 00:40:26 | 50.25574 | 6.32820 | 122° | 16km/h | 30504m | 4.1m/s | -45°C | 0.1% | 13.4hPa | 3.5V | 00:00:00 | 02:24:31 | 00:00:00 | |
| DL1XH1-15 | 2026-09-06 00:40:17 | 50.25583 | 6.32785 | 126° | 9km/h | 30479m | 4.2m/s | -45.2°C | 0.1% | 13.5hPa | 3.5V | 00:00:00 | 02:24:25 | 00:00:00 | |
| DO3MHA-12 | 2026-09-06 00:40:16 | 50.25583 | 6.32785 | 144° | 11km/h | 30479m | 4.2m/s | -45.2°C | 0.1% | 13.4hPa | 3.5V | 00:00:00 | 02:24:25 | 00:00:00 | |
| DM0DOS-11 | 2026-09-06 00:40:14 | 50.25591 | 6.32776 | 128° | 11km/h | 30462m | 4.1m/s | -45.2°C | 0.1% | 13.5hPa | 3.5V | 00:00:00 | 02:24:21 | 00:00:00 | |
| DJ8HS-15 | 2026-09-06 00:40:14 | 50.25586 | 6.32780 | 156° | 11km/h | 30471m | 4.3m/s | -45.1°C | 0.1% | 13.4hPa | 3.5V | 00:00:00 | 02:24:23 | 00:00:00 | |
| DL1XH1-15 | 2026-09-06 00:40:07 | 50.25599 | 6.32746 | 90° | 7km/h | 30437m | 4.2m/s | -45.2°C | 0.1% | 13.5hPa | 3.5V | 00:00:00 | 02:24:15 | 00:00:00 | |
| DM0DOS-11 | 2026-09-06 00:40:02 | 50.25601 | 6.32736 | 170° | 9km/h | 30419m | 4.1m/s | -45.1°C | 0.1% | 13.6hPa | 3.5V | 00:00:00 | 02:24:11 | 00:00:00 | |
| DM0DOS-11 | 2026-09-06 00:39:54 | 50.25610 | 6.32705 | 122° | 7km/h | 30378m | 4.3m/s | -45.6°C | 0.1% | 13.6hPa | 3.5V | 00:00:00 | 02:24:01 | 00:00:00 | |
| DJ8HS-15 | 2026-09-06 00:39:54 | 50.25611 | 6.32710 | 80° | 9km/h | 30386m | 4.1m/s | -45.2°C | 0.1% | 13.6hPa | 3.5V | 00:00:00 | 02:24:03 | 00:00:00 | |
| DO3MHA-12 | 2026-09-06 00:39:53 | 50.25610 | 6.32707 | 91° | 9km/h | 30382m | 4.2m/s | -45.4°C | 0.1% | 13.6hPa | 3.5V | 00:00:00 | 02:24:02 | 00:00:00 | |
| DL1XH1-15 | 2026-09-06 00:39:47 | 50.25626 | 6.32681 | 81° | 9km/h | 30339m | 4m/s | -45.5°C | 0.1% | 13.7hPa | 3.5V | 00:00:00 | 02:23:52 | 00:00:00 | |
| DM0DOS-11 | 2026-09-06 00:39:44 | 50.25625 | 6.32677 | 90° | 7km/h | 30336m | 4.1m/s | -45.4°C | 0.1% | 13.7hPa | 3.5V | 00:00:00 | 02:23:51 | 00:00:00 | |
| DO3MHA-12 | 2026-09-06 00:39:43 | 50.25625 | 6.32681 | 82° | 11km/h | 30340m | 4.0m/s | -45.5°C | 0.1% | 13.6hPa | 3.5V | 00:00:00 | 02:23:52 | 00:00:00 | |
| HEMX73-6 | 2026-09-06 00:39:38 | 50.25627 | 6.32671 | 128° | 13km/h | 30319m | 3.9m/s | -45.0°C | 0.1% | 13.7hPa | 3.5V | 00:00:00 | 02:23:47 | 00:00:00 | |
| DL1XH1-15 | 2026-09-06 00:39:36 | 50.25640 | 6.32657 | 115° | 11km/h | 30299m | 4m/s | -45°C | 0.1% | 13.8hPa | 3.5V | 00:00:00 | 02:23:42 | 00:00:00 | |
| DM0DOS-11 | 2026-09-06 00:39:34 | 50.25641 | 6.32652 | 96° | 9km/h | 30295m | 4m/s | -45°C | 0.1% | 13.8hPa | 3.5V | 00:00:00 | 02:23:41 | 00:00:00 | |
| DJ8HS-15 | 2026-09-06 00:39:34 | 50.25638 | 6.32662 | 118° | 11km/h | 30304m | 4.2m/s | -45.0°C | 0.1% | 13.7hPa | 3.5V | 00:00:00 | 02:23:43 | 00:00:00 | |
| DO3MHA-12 | 2026-09-06 00:39:33 | 50.25640 | 6.32657 | 116° | 9km/h | 30299m | 4.0m/s | -45.0°C | 0.1% | 13.7hPa | 3.5V | 00:00:00 | 02:23:42 | 00:00:00 | |
| DL1XH1-15 | 2026-09-06 00:39:27 | 50.25652 | 6.32626 | 121° | 11km/h | 30257m | 4.1m/s | -44.8°C | 0.1% | 13.8hPa | 3.5V | 00:00:00 | 02:23:32 | 00:00:00 | |
| BIOWL1-15 | 2026-09-06 00:39:24 | 50.25649 | 6.32630 | 0° | 0km/h | 30262m | 0m/s | -44.8°C | 0.2% | 13.8hPa | 3.5V | 00:00:00 | 00:00:00 | 00:00:00 | |
| DM0DOS-11 | 2026-09-06 00:39:24 | 50.25653 | 6.32621 | 108° | 11km/h | 30254m | 4.1m/s | -44.8°C | 0.1% | 13.8hPa | 3.5V | 00:00:00 | 02:23:31 | 00:00:00 | |
| DL1XH-west | 2026-09-06 00:39:23 | 50.25652 | 6.32626 | 0° | 0km/h | 30257m | 0m/s | -44.8°C | 0.2% | 13.8hPa | 3.5V | 00:00:00 | 00:00:00 | 00:00:00 | |
| DO3MHA-12 | 2026-09-06 00:39:23 | 50.25651 | 6.32626 | 115° | 11km/h | 30258m | 4.0m/s | -44.8°C | 0.1% | 13.8hPa | 3.5V | 00:00:00 | 02:23:32 | 00:00:00 | |
| DM0DOS-11 | 2026-09-06 00:39:14 | 50.25659 | 6.32587 | 114° | 13km/h | 30213m | 4m/s | -44.7°C | 0.1% | 13.9hPa | 3.5V | 00:00:00 | 02:23:21 | 00:00:00 | |
| DJ8HS-15 | 2026-09-06 00:39:14 | 50.25655 | 6.32592 | 141° | 15km/h | 30221m | 4.1m/s | -44.6°C | 0.1% | 13.9hPa | 3.5V | 00:00:00 | 02:23:23 | 00:00:00 | |
| DO3MHA-12 | 2026-09-06 00:39:12 | 50.25659 | 6.32587 | 128° | 15km/h | 30213m | 4.1m/s | -44.6°C | 0.1% | 13.9hPa | 3.5V | 00:00:00 | 02:23:21 | 00:00:00 | |
| DL1XH1-15 | 2026-09-06 00:39:07 | 50.25669 | 6.32552 | 120° | 13km/h | 30184m | 4m/s | -44.9°C | 0.1% | 14hPa | 3.5V | 00:00:00 | 02:23:14 | 00:00:00 | |
| DM0DOS-11 | 2026-09-06 00:39:02 | 50.25671 | 6.32543 | 139° | 16km/h | 30172m | 4m/s | -45°C | 0.1% | 14hPa | 3.5V | 00:00:00 | 02:23:11 | 00:00:00 | |
| DO3MHA-12 | 2026-09-06 00:38:59 | 50.25680 | 6.32531 | 125° | 15km/h | 30160m | 4.0m/s | -44.8°C | 0.1% | 14.0hPa | 3.5V | 00:00:00 | 02:23:08 | 00:00:00 | |
| DM0DOS-11 | 2026-09-06 00:38:54 | 50.25693 | 6.32488 | 113° | 13km/h | 30131m | 4m/s | -44.7°C | 0.1% | 14.1hPa | 3.5V | 00:00:00 | 02:23:01 | 00:00:00 | |
| DL1XH1-15 | 2026-09-06 00:38:54 | 50.25698 | 6.32477 | 114° | 13km/h | 30119m | 3.9m/s | -44.7°C | 0.2% | 14.1hPa | 3.5V | 00:00:00 | 02:22:58 | 00:00:00 | |
| DO3MHA-12 | 2026-09-06 00:38:48 | 50.25700 | 6.32473 | 136° | 13km/h | 30115m | 3.9m/s | -44.7°C | 0.1% | 14.0hPa | 3.5V | 00:00:00 | 02:22:57 | 00:00:00 | |
| DM0DOS-11 | 2026-09-06 00:38:43 | 50.25712 | 6.32436 | 90° | 11km/h | 30092m | 4m/s | -44.9°C | 0.1% | 14.1hPa | 3.5V | 00:00:00 | 02:22:51 | 00:00:00 | |
| DO3MHA-12 | 2026-09-06 00:38:38 | 50.25712 | 6.32419 | 116° | 13km/h | 30076m | 3.9m/s | -44.9°C | 0.1% | 14.1hPa | 3.5V | 00:00:00 | 02:22:47 | 00:00:00 | |
| DM0DOS-11 | 2026-09-06 00:38:33 | 50.25722 | 6.32395 | 106° | 13km/h | 30053m | 4.1m/s | -45.2°C | 0.2% | 14.2hPa | 3.5V | 00:00:00 | 02:22:41 | 00:00:00 | |
| BIOWL1-15 | 2026-09-06 00:38:26 | 50.25721 | 6.32364 | 115° | 7km/h | 30025m | 3m/s | -45.2°C | 0.3% | 14.2hPa | 3.5V | 00:00:00 | 00:00:00 | 00:00:00 | |
| HEMX73-6 | 2026-09-06 00:38:24 | 50.25722 | 6.32362 | 98° | 9km/h | 30022m | 3.8m/s | -45.2°C | 0.1% | 14.2hPa | 3.5V | 00:00:00 | 02:22:33 | 00:00:00 | |
| DM0DOS-11 | 2026-09-06 00:38:23 | 50.25726 | 6.32355 | 115° | 15km/h | 30014m | 3.9m/s | -45.2°C | 0.1% | 14.3hPa | 3.5V | 00:00:00 | 02:22:31 | 00:00:00 | |
| DL1XH1-15 | 2026-09-06 00:38:18 | 50.25726 | 6.32309 | 80° | 13km/h | 29983m | 3.8m/s | -45.2°C | 0.1% | 14.3hPa | 3.5V | 00:00:00 | 02:22:23 | 00:00:00 | |
| BIOWL1-15 | 2026-09-06 00:38:13 | 50.25725 | 6.32305 | 88° | 16km/h | 29979m | 3.7m/s | -45.3°C | 0.3% | 14.3hPa | 3.5V | 00:00:00 | 00:00:00 | 00:00:00 | |
| DM0DOS-11 | 2026-09-06 00:38:13 | 50.25725 | 6.32302 | 96° | 18km/h | 29975m | 3.7m/s | -45.3°C | 0.2% | 14.3hPa | 3.5V | 00:00:00 | 02:22:21 | 00:00:00 | |
| DJ8HS-15 | 2026-09-06 00:38:12 | 50.25725 | 6.32301 | 109° | 18km/h | 29975m | 3.7m/s | -45.2°C | 0.2% | 14.3hPa | 3.5V | 00:00:00 | 02:22:21 | 00:00:00 | |
| DL1XH1-15 | 2026-09-06 00:38:08 | 50.25727 | 6.32248 | 87° | 16km/h | 29945m | 3.8m/s | -45.2°C | 0.1% | 14.4hPa | 3.5V | 00:00:00 | 02:22:13 | 00:00:00 | |
| DO3MHA-12 | 2026-09-06 00:38:04 | 50.25727 | 6.32248 | 70° | 18km/h | 29945m | 3.6m/s | -45.2°C | 0.1% | 14.3hPa | 3.5V | 00:00:00 | 02:22:13 | 00:00:00 | |
| DM0DOS-11 | 2026-09-06 00:38:03 | 50.25724 | 6.32233 | 72° | 16km/h | 29938m | 3.8m/s | -45.2°C | 0.1% | 14.4hPa | 3.5V | 00:00:00 | 02:22:11 | 00:00:00 | |
| BIOWL1-15 | 2026-09-06 00:38:02 | 50.25724 | 6.32233 | 75° | 15km/h | 29938m | 4m/s | -45.2°C | 0.2% | 14.4hPa | 3.5V | 00:00:00 | 00:00:00 | 00:00:00 | |
| DO3MHA-12 | 2026-09-06 00:37:54 | 50.25725 | 6.32178 | 87° | 16km/h | 29908m | 3.7m/s | -45.1°C | 0.1% | 14.4hPa | 3.5V | 00:00:00 | 02:22:03 | 00:00:00 | |
| DM0DOS-11 | 2026-09-06 00:37:53 | 50.25724 | 6.32161 | 74° | 16km/h | 29900m | 3.6m/s | -45.1°C | 0.2% | 14.5hPa | 3.5V | 00:00:00 | 02:22:01 | 00:00:00 | |
| DJ8HS-15 | 2026-09-06 00:37:52 | 50.25724 | 6.32161 | 70° | 13km/h | 29900m | 3.7m/s | -45.0°C | 0.2% | 14.4hPa | 3.5V | 00:00:00 | 02:22:01 | 00:00:00 | |
| DL1XH1-15 | 2026-09-06 00:37:48 | 50.25718 | 6.32126 | 106° | 15km/h | 29878m | 3.8m/s | -45°C | 0.1% | 14.5hPa | 3.5V | 00:00:00 | 02:21:55 | 00:00:00 | |
| DO3MHA-12 | 2026-09-06 00:37:44 | 50.25720 | 6.32117 | 106° | 11km/h | 29871m | 3.9m/s | -45.0°C | 0.1% | 14.5hPa | 3.5V | 00:00:00 | 02:21:53 | 00:00:00 | |
| DM0DOS-11 | 2026-09-06 00:37:43 | 50.25721 | 6.32103 | 90° | 16km/h | 29863m | 3.9m/s | -45.1°C | 0.1% | 14.5hPa | 3.5V | 00:00:00 | 02:21:51 | 00:00:00 | |
| DM0DOS-11 | 2026-09-06 00:37:33 | 50.25712 | 6.32057 | 99° | 9km/h | 29824m | 3.6m/s | -44.9°C | 0.1% | 14.6hPa | 3.5V | 00:00:00 | 02:21:41 | 00:00:00 | |
| DB0UT-7 | 2026-09-06 00:37:33 | 50.25711 | 6.32060 | 113° | 7km/h | 29828m | 3.7m/s | -44.8°C | 0.2% | 14.6hPa | 3.5V | 00:00:00 | 00:00:00 | 00:00:00 | |
| DJ8HS-15 | 2026-09-06 00:37:32 | 50.25712 | 6.32057 | 100° | 7km/h | 29824m | 3.6m/s | -44.8°C | 0.1% | 14.6hPa | 3.5V | 00:00:00 | 02:21:41 | 00:00:00 | |
| DL1XH1-15 | 2026-09-06 00:37:28 | 50.25706 | 6.32030 | 25° | 5km/h | 29799m | 3.5m/s | -45.2°C | 0.2% | 14.7hPa | 3.5V | 00:00:00 | 02:21:34 | 00:00:00 | |
| DM0DOS-11 | 2026-09-06 00:37:23 | 50.25703 | 6.32027 | 270° | 5km/h | 29787m | 3.5m/s | -45.1°C | 0.2% | 14.7hPa | 3.5V | 00:00:00 | 02:21:31 | 00:00:00 | |
| BIOWL1-15 | 2026-09-06 00:37:21 | 50.25706 | 6.32028 | 100° | 5km/h | 29778m | 3.8m/s | -45.4°C | 0.3% | 14.7hPa | 3.5V | 00:00:00 | 00:00:00 | 00:00:00 | |
| DL1XH1-15 | 2026-09-06 00:37:18 | 50.25707 | 6.32018 | 69° | 7km/h | 29763m | 3.4m/s | -45.5°C | 0.2% | 14.7hPa | 3.5V | 00:00:00 | 02:21:24 | 00:00:00 | |
| DM0DOS-11 | 2026-09-06 00:37:13 | 50.25702 | 6.32010 | 141° | 5km/h | 29753m | 3.7m/s | -46°C | 0.1% | 14.8hPa | 3.5V | 00:00:00 | 02:21:21 | 00:00:00 | |
| DJ8HS-15 | 2026-09-06 00:37:12 | 50.25702 | 6.32010 | 181° | 5km/h | 29753m | 3.4m/s | -46.0°C | 0.1% | 14.7hPa | 3.5V | 00:00:00 | 02:21:21 | 00:00:00 | |
| HEMX73-6 | 2026-09-06 00:37:10 | 50.25702 | 6.32010 | 142° | 9km/h | 29746m | 3.7m/s | -46.1°C | 0.2% | 14.7hPa | 3.5V | 00:00:00 | 02:21:19 | 00:00:00 | |
| DL1XH1-15 | 2026-09-06 00:37:08 | 50.25708 | 6.32010 | 90° | 5km/h | 29728m | 3.6m/s | -45.7°C | 0.1% | 14.8hPa | 3.5V | 00:00:00 | 02:21:14 | 00:00:00 | |
| DB0UT-7 | 2026-09-06 00:37:03 | 50.25708 | 6.32006 | 64° | 5km/h | 29721m | 3.6m/s | -45.5°C | 0.1% | 14.8hPa | 3.5V | 00:00:00 | 02:21:12 | 00:00:00 | |
| DL1XH1-15 | 2026-09-06 00:36:58 | 50.25707 | 6.32003 | 115° | 5km/h | 29692m | 3.7m/s | -45.9°C | 0.2% | 14.9hPa | 3.5V | 00:00:00 | 02:21:04 | 00:00:00 | |
| DM0DOS-11 | 2026-09-06 00:36:53 | 50.25711 | 6.31995 | 79° | 7km/h | 29681m | 3.5m/s | -46°C | 0.2% | 14.9hPa | 3.5V | 00:00:00 | 02:21:01 | 00:00:00 | |
| DJ8HS-15 | 2026-09-06 00:36:49 | 50.25708 | 6.31986 | 144° | 5km/h | 29670m | 3.6m/s | -46.0°C | 0.2% | 14.9hPa | 3.5V | 00:00:00 | 02:20:58 | 00:00:00 | |
| DL1XH1-15 | 2026-09-06 00:36:48 | 50.25708 | 6.31986 | 177° | 7km/h | 29656m | 3.9m/s | -45.9°C | 0.1% | 14.9hPa | 3.5V | 00:00:00 | 02:20:54 | 00:00:00 | |
| DM0DOS-11 | 2026-09-06 00:36:43 | 50.25714 | 6.31983 | 127° | 5km/h | 29645m | 3.7m/s | -46°C | 0.1% | 15hPa | 3.5V | 00:00:00 | 02:20:51 | 00:00:00 | |
| DM0DOS-11 | 2026-09-06 00:36:33 | 50.25712 | 6.31979 | 186° | 5km/h | 29607m | 3.8m/s | -46.2°C | 0.2% | 15hPa | 3.5V | 00:00:00 | 02:20:41 | 00:00:00 | |
| DB0UT-7 | 2026-09-06 00:36:33 | 50.25711 | 6.31978 | 201° | 7km/h | 29612m | 3.9m/s | -46.2°C | 0.1% | 15.0hPa | 3.5V | 00:00:00 | 00:00:00 | 00:00:00 | |
| DJ8HS-15 | 2026-09-06 00:36:26 | 50.25720 | 6.31973 | 91° | 5km/h | 29584m | 3.7m/s | -46.2°C | 0.2% | 15.0hPa | 3.5V | 00:00:00 | 02:20:35 | 00:00:00 | |
| DM0DOS-11 | 2026-09-06 00:36:23 | 50.25720 | 6.31974 | 245° | 7km/h | 29569m | 3.5m/s | -46.4°C | 0.2% | 15.1hPa | 3.5V | 00:00:00 | 02:20:31 | 00:00:00 | |
| BIOWL1-15 | 2026-09-06 00:36:19 | 50.25724 | 6.31976 | 140° | 9km/h | 29558m | 3.6m/s | -46.3°C | 0.3% | 15.1hPa | 3.5V | 00:00:00 | 00:00:00 | 00:00:00 | |
| DM0DOS-11 | 2026-09-06 00:36:13 | 50.25738 | 6.31959 | 153° | 9km/h | 29533m | 3.7m/s | -46.5°C | 0.2% | 15.2hPa | 3.5V | 00:00:00 | 02:20:21 | 00:00:00 | |
| DM0DOS-11 | 2026-09-06 00:36:03 | 50.25755 | 6.31933 | 131° | 9km/h | 29489m | 3.9m/s | -46.5°C | 0.2% | 15.3hPa | 3.5V | 00:00:00 | 02:20:09 | 00:00:00 | |
| DB0UT-7 | 2026-09-06 00:36:02 | 50.25754 | 6.31939 | 101° | 9km/h | 29497m | 3.9m/s | -46.7°C | 0.2% | 15.2hPa | 3.5V | 00:00:00 | 02:20:11 | 00:00:00 | |
| HEMX73-6 | 2026-09-06 00:35:56 | 50.25763 | 6.31929 | 139° | 9km/h | 29474m | 3.9m/s | -46.5°C | 0.2% | 15.2hPa | 3.5V | 00:00:00 | 02:20:05 | 00:00:00 | |
| DJ8HS-15 | 2026-09-06 00:35:54 | 50.25769 | 6.31923 | 130° | 7km/h | 29466m | 3.9m/s | -46.6°C | 0.2% | 15.2hPa | 3.5V | 00:00:00 | 02:20:03 | 00:00:00 | |
| DM0DOS-11 | 2026-09-06 00:35:53 | 50.25777 | 6.31905 | 100° | 9km/h | 29450m | 4m/s | -46.5°C | 0.1% | 15.3hPa | 3.5V | 00:00:00 | 02:19:59 | 00:00:00 | |
| DM0DOS-11 | 2026-09-06 00:35:43 | 50.25798 | 6.31880 | 106° | 7km/h | 29410m | 3.9m/s | -46.7°C | 0.2% | 15.4hPa | 3.5V | 00:00:00 | 02:19:49 | 00:00:00 | |
| BIOWL1-15 | 2026-09-06 00:35:39 | 50.25801 | 6.31868 | 186° | 5km/h | 29390m | 4m/s | -46.7°C | 0.3% | 15.4hPa | 3.5V | 00:00:00 | 00:00:00 | 00:00:00 | |
| DM0DOS-11 | 2026-09-06 00:35:33 | 50.25810 | 6.31864 | 110° | 7km/h | 29370m | 3.9m/s | -46.7°C | 0.2% | 15.5hPa | 3.5V | 00:00:00 | 02:19:39 | 00:00:00 | |
| DB0UT-7 | 2026-09-06 00:35:32 | 50.25806 | 6.31868 | 151° | 7km/h | 29378m | 3.9m/s | -46.6°C | 0.2% | 15.4hPa | 3.5V | 00:00:00 | 00:00:00 | 00:00:00 | |
| DL1XH1-15 | 2026-09-06 00:35:28 | 50.25809 | 6.31853 | 166° | 7km/h | 29351m | 4.1m/s | -46.9°C | 0.1% | 15.5hPa | 3.5V | 00:00:00 | 02:19:34 | 00:00:00 | |
| DM0DOS-11 | 2026-09-06 00:35:23 | 50.25816 | 6.31856 | 151° | 7km/h | 29330m | 4.2m/s | -47°C | 0.2% | 15.6hPa | 3.5V | 00:00:00 | 02:19:29 | 00:00:00 | |
| DJ8HS-15 | 2026-09-06 00:35:22 | 50.25811 | 6.31856 | 191° | 5km/h | 29338m | 4.1m/s | -46.9°C | 0.2% | 15.5hPa | 3.5V | 00:00:00 | 02:19:31 | 00:00:00 | |
| DM0DOS-11 | 2026-09-06 00:35:13 | 50.25827 | 6.31853 | 186° | 9km/h | 29288m | 4.2m/s | -47.4°C | 0.2% | 15.7hPa | 3.5V | 00:00:00 | 02:19:19 | 00:00:00 | |
| DL1XH1-15 | 2026-09-06 00:35:08 | 50.25837 | 6.31852 | 155° | 5km/h | 29276m | 4.3m/s | -47.2°C | 0.2% | 15.7hPa | 3.5V | 00:00:00 | 02:19:16 | 00:00:00 | |
| DM0DOS-11 | 2026-09-06 00:35:03 | 50.25845 | 6.31853 | 216° | 11km/h | 29247m | 4.3m/s | -46.8°C | 0.2% | 15.8hPa | 3.5V | 00:00:00 | 02:19:09 | 00:00:00 | |
| DB0UT-7 | 2026-09-06 00:35:02 | 50.25843 | 6.31848 | 187° | 11km/h | 29255m | 4.2m/s | -46.8°C | 0.2% | 15.7hPa | 3.5V | 00:00:00 | 02:19:11 | 00:00:00 | |
| DJ8HS-15 | 2026-09-06 00:35:01 | 50.25843 | 6.31850 | 190° | 9km/h | 29251m | 4.2m/s | -46.8°C | 0.2% | 15.7hPa | 3.5V | 00:00:00 | 02:19:10 | 00:00:00 | |
| DM0DOS-11 | 2026-09-06 00:34:53 | 50.25864 | 6.31853 | 225° | 9km/h | 29203m | 4.3m/s | -46.9°C | 0.2% | 15.8hPa | 3.5V | 00:00:00 | 02:18:59 | 00:00:00 | |
| BIOWL1-15 | 2026-09-06 00:34:48 | 50.25871 | 6.31858 | 171° | 7km/h | 29191m | 4.3m/s | -46.9°C | 0.3% | 15.9hPa | 3.5V | 00:00:00 | 00:00:00 | 00:00:00 | |
| DM0DOS-11 | 2026-09-06 00:34:43 | 50.25883 | 6.31849 | 211° | 11km/h | 29161m | 4.3m/s | -46.8°C | 0.2% | 15.9hPa | 3.5V | 00:00:00 | 02:18:49 | 00:00:00 | |
| HEMX73-6 | 2026-09-06 00:34:43 | 50.25881 | 6.31853 | 176° | 13km/h | 29173m | 4.4m/s | -46.8°C | 0.2% | 15.9hPa | 3.5V | 00:00:00 | 02:18:52 | 00:00:00 | |
| DL1XH1-15 | 2026-09-06 00:34:38 | 50.25893 | 6.31855 | 173° | 13km/h | 29144m | 4.6m/s | -46.6°C | 0.2% | 16hPa | 3.5V | 00:00:00 | 02:18:45 | 00:00:00 | |
| DM0DOS-11 | 2026-09-06 00:34:33 | 50.25910 | 6.31846 | 158° | 9km/h | 29117m | 4.4m/s | -46.5°C | 0.2% | 16hPa | 3.5V | 00:00:00 | 02:18:39 | 00:00:00 | |
| DJ8HS-15 | 2026-09-06 00:34:29 | 50.25910 | 6.31845 | 173° | 9km/h | 29113m | 4.5m/s | -46.4°C | 0.2% | 16.0hPa | 3.5V | 00:00:00 | 02:18:38 | 00:00:00 | |
| DL1XH1-15 | 2026-09-06 00:34:28 | 50.25926 | 6.31849 | 153° | 11km/h | 29090m | 4.5m/s | -46.4°C | 0.2% | 16.1hPa | 3.5V | 00:00:00 | 02:18:33 | 00:00:00 | |
| DB0UT-7 | 2026-09-06 00:34:24 | 50.25926 | 6.31849 | 159° | 11km/h | 29090m | 4.5m/s | -46.3°C | 0.2% | 16.0hPa | 3.5V | 00:00:00 | 00:00:00 | 00:00:00 | |
| DM0DOS-11 | 2026-09-06 00:34:23 | 50.25937 | 6.31837 | 133° | 7km/h | 29072m | 4.5m/s | -46.2°C | 0.2% | 16.1hPa | 3.5V | 00:00:00 | 02:18:29 | 00:00:00 | |
| BIOWL1-15 | 2026-09-06 00:34:20 | 50.25938 | 6.31835 | 0° | 0km/h | 29067m | 0m/s | -46.2°C | 0.3% | 16.1hPa | 3.5V | 00:00:00 | 00:00:00 | 00:00:00 | |
| DM0DOS-11 | 2026-09-06 00:34:13 | 50.25961 | 6.31823 | 127° | 11km/h | 29027m | 4.5m/s | -46°C | 0.2% | 16.2hPa | 3.5V | 00:00:00 | 02:18:19 | 00:00:00 | |
| DL1XH1-15 | 2026-09-06 00:34:12 | 50.25959 | 6.31827 | 127° | 11km/h | 29031m | 4.4m/s | -46.1°C | 0.2% | 16.2hPa | 3.5V | 00:00:00 | 02:18:20 | 00:00:00 | |
| DL1XH1-15 | 2026-09-06 00:34:06 | 50.25979 | 6.31804 | 135° | 13km/h | 28987m | 4.5m/s | -45.9°C | 0.2% | 16.3hPa | 3.5V | 00:00:00 | 02:18:10 | 00:00:00 | |
| DL1XH-west | 2026-09-06 00:34:00 | 50.25984 | 6.31794 | 109° | 15km/h | 28978m | 4.5m/s | -45.9°C | 0.3% | 16.3hPa | 3.5V | 00:00:00 | 00:00:00 | 00:00:00 | |
| DM0DOS-11 | 2026-09-06 00:33:58 | 50.25986 | 6.31788 | 96° | 11km/h | 28973m | 4.3m/s | -45.9°C | 0.2% | 16.3hPa | 3.5V | 00:00:00 | 02:18:07 | 00:00:00 | |
| DB0UT-7 | 2026-09-06 00:33:54 | 50.25988 | 6.31775 | 158° | 13km/h | 28956m | 4.5m/s | -45.9°C | 0.2% | 16.3hPa | 3.5V | 00:00:00 | 02:18:03 | 00:00:00 | |
| DM0DOS-11 | 2026-09-06 00:33:53 | 50.26005 | 6.31756 | 108° | 11km/h | 28929m | 4.5m/s | -45.9°C | 0.2% | 16.4hPa | 3.5V | 00:00:00 | 02:17:57 | 00:00:00 | |
| DL1XH1-15 | 2026-09-06 00:33:52 | 50.25996 | 6.31771 | 133° | 15km/h | 28942m | 4.5m/s | -45.9°C | 0.2% | 16.4hPa | 3.5V | 00:00:00 | 02:18:00 | 00:00:00 | |
| DL1XH1-15 | 2026-09-06 00:33:46 | 50.26015 | 6.31735 | 130° | 15km/h | 28898m | 4.4m/s | -46°C | 0.2% | 16.5hPa | 3.5V | 00:00:00 | 02:17:50 | 00:00:00 | |
| DJ8HS-15 | 2026-09-06 00:33:45 | 50.26007 | 6.31742 | 138° | 13km/h | 28916m | 4.4m/s | -46.1°C | 0.2% | 16.4hPa | 3.5V | 00:00:00 | 02:17:54 | 00:00:00 | |
| DM0DOS-11 | 2026-09-06 00:33:42 | 50.26025 | 6.31722 | 122° | 13km/h | 28885m | 4.5m/s | -45.7°C | 0.2% | 16.5hPa | 3.5V | 00:00:00 | 02:17:47 | 00:00:00 | |
| DM0DOS-11 | 2026-09-06 00:33:32 | 50.26047 | 6.31688 | 134° | 16km/h | 28841m | 4.5m/s | -45.6°C | 0.2% | 16.6hPa | 3.5V | 00:00:00 | 02:17:37 | 00:00:00 | |
| HEMX73-6 | 2026-09-06 00:33:30 | 50.26039 | 6.31695 | 139° | 13km/h | 28850m | 4.4m/s | -45.7°C | 0.2% | 16.6hPa | 3.5V | 00:00:00 | 02:17:39 | 00:00:00 | |
| DL1XH1-15 | 2026-09-06 00:33:27 | 50.26050 | 6.31683 | 119° | 15km/h | 28836m | 4.3m/s | -45.7°C | 0.2% | 16.6hPa | 3.5V | 00:00:00 | 02:17:36 | 00:00:00 | |
| DB0UT-7 | 2026-09-06 00:33:24 | 50.26056 | 6.31666 | 118° | 18km/h | 28823m | 4.4m/s | -45.7°C | 0.2% | 16.6hPa | 3.5V | 00:00:00 | 00:00:00 | 00:00:00 | |
| DM0DOS-11 | 2026-09-06 00:33:22 | 50.26072 | 6.31654 | 146° | 18km/h | 28796m | 4.4m/s | -45.7°C | 0.2% | 16.7hPa | 3.5V | 00:00:00 | 02:17:27 | 00:00:00 | |
| BIOWL1-15 | 2026-09-06 00:33:18 | 50.26080 | 6.31644 | 129° | 18km/h | 28787m | 4m/s | -45.5°C | 0.3% | 16.7hPa | 3.5V | 00:00:00 | 00:00:00 | 00:00:00 | |
| DM0DOS-11 | 2026-09-06 00:33:12 | 50.26102 | 6.31619 | 153° | 22km/h | 28752m | 4.5m/s | -45.6°C | 0.2% | 16.8hPa | 3.5V | 00:00:00 | 02:17:17 | 00:00:00 | |
| BIOWL1-15 | 2026-09-06 00:33:03 | 50.26125 | 6.31591 | 142° | 15km/h | 28730m | 4.7m/s | -45.7°C | 0.3% | 16.9hPa | 3.5V | 00:00:00 | 00:00:00 | 00:00:00 | |
| DJ8HS-15 | 2026-09-06 00:32:59 | 50.26137 | 6.31578 | 156° | 16km/h | 28712m | 4.2m/s | -45.6°C | 0.2% | 16.9hPa | 3.5V | 00:00:00 | 02:17:08 | 00:00:00 | |
| DM0DOS-11 | 2026-09-06 00:32:57 | 50.26147 | 6.31571 | 147° | 22km/h | 28704m | 4.4m/s | -45.6°C | 0.3% | 16.9hPa | 3.5V | 00:00:00 | 02:17:06 | 00:00:00 | |
| DB0UT-7 | 2026-09-06 00:32:54 | 50.26161 | 6.31553 | 128° | 15km/h | 28691m | 4.3m/s | -45.6°C | 0.2% | 16.9hPa | 3.5V | 00:00:00 | 02:17:03 | 00:00:00 | |
| DM0DOS-11 | 2026-09-06 00:32:47 | 50.26179 | 6.31524 | 160° | 18km/h | 28661m | 4.4m/s | -45.7°C | 0.2% | 17hPa | 3.5V | 00:00:00 | 02:16:56 | 00:00:00 | |
| DJ8HS-15 | 2026-09-06 00:32:39 | 50.26202 | 6.31486 | 131° | 13km/h | 28626m | 4.2m/s | -45.9°C | 0.2% | 17.0hPa | 3.5V | 00:00:00 | 02:16:48 | 00:00:00 | |
| DL1XH1-15 | 2026-09-06 00:32:37 | 50.26205 | 6.31482 | 127° | 11km/h | 28618m | 4.2m/s | -46.2°C | 0.2% | 17.1hPa | 3.5V | 00:00:00 | 02:16:46 | 00:00:00 | |
| BIOWL1-15 | 2026-09-06 00:32:27 | 50.26227 | 6.31437 | 140° | 5km/h | 28574m | 4m/s | -46.1°C | 0.4% | 17.2hPa | 3.5V | 00:00:00 | 00:00:00 | 00:00:00 | |
| DL1XH1-15 | 2026-09-06 00:32:27 | 50.26229 | 6.31433 | 120° | 11km/h | 28566m | 4.2m/s | -46°C | 0.2% | 17.2hPa | 3.5V | 00:00:00 | 02:16:34 | 00:00:00 | |
| DM0DOS-11 | 2026-09-06 00:32:27 | 50.26227 | 6.31437 | 139° | 11km/h | 28574m | 4.1m/s | -46.1°C | 0.3% | 17.2hPa | 3.5V | 00:00:00 | 02:16:36 | 00:00:00 | |
| DB0UT-7 | 2026-09-06 00:32:23 | 50.26234 | 6.31425 | 123° | 11km/h | 28558m | 4.2m/s | -46.0°C | 0.3% | 17.2hPa | 3.5V | 00:00:00 | 00:00:00 | 00:00:00 | |
| DJ8HS-15 | 2026-09-06 00:32:19 | 50.26240 | 6.31399 | 70° | 9km/h | 28541m | 4.3m/s | -46.1°C | 0.2% | 17.2hPa | 3.5V | 00:00:00 | 02:16:28 | 00:00:00 | |
| DL1XH1-15 | 2026-09-06 00:32:17 | 50.26239 | 6.31379 | 93° | 9km/h | 28515m | 4.1m/s | -46.3°C | 0.3% | 17.4hPa | 3.5V | 00:00:00 | 02:16:22 | 00:00:00 | |
| DM0DOS-11 | 2026-09-06 00:32:17 | 50.26237 | 6.31391 | 63° | 9km/h | 28532m | 4.2m/s | -46.2°C | 0.2% | 17.3hPa | 3.5V | 00:00:00 | 02:16:26 | 00:00:00 | |
| BIOWL1-15 | 2026-09-06 00:32:09 | 50.26244 | 6.31324 | 82° | 11km/h | 28457m | 4m/s | -46.5°C | 0.3% | 17.5hPa | 3.5V | 00:00:00 | 00:00:00 | 00:00:00 | |
| DM0DOS-11 | 2026-09-06 00:32:07 | 50.26239 | 6.31348 | 50° | 7km/h | 28490m | 4.1m/s | -46.5°C | 0.3% | 17.4hPa | 3.5V | 00:00:00 | 02:16:16 | 00:00:00 | |
| DL1XH1-15 | 2026-09-06 00:32:02 | 50.26244 | 6.31320 | 79° | 7km/h | 28453m | 4m/s | -46.5°C | 0.2% | 17.5hPa | 3.5V | 00:00:00 | 02:16:07 | 00:00:00 | |
| BIOWL1-15 | 2026-09-06 00:31:53 | 50.26247 | 6.31314 | 155° | 13km/h | 28429m | 4m/s | -46.7°C | 0.4% | 17.6hPa | 3.5V | 00:00:00 | 00:00:00 | 00:00:00 | |
| DM0DOS-11 | 2026-09-06 00:31:47 | 50.26257 | 6.31297 | 112° | 7km/h | 28408m | 4m/s | -47°C | 0.2% | 17.6hPa | 3.5V | 00:00:00 | 02:15:56 | 00:00:00 | |
| DL1XH1-15 | 2026-09-06 00:31:44 | 50.26262 | 6.31296 | 165° | 11km/h | 28392m | 4m/s | -46.8°C | 0.2% | 17.6hPa | 3.5V | 00:00:00 | 02:15:52 | 00:00:00 | |
| BIOWL1-15 | 2026-09-06 00:31:41 | 50.26268 | 6.31297 | 166° | 15km/h | 28384m | 5m/s | -46.7°C | 0.3% | 17.7hPa | 3.5V | 00:00:00 | 00:00:00 | 00:00:00 | |
| DL1XH1-15 | 2026-09-06 00:31:38 | 50.26287 | 6.31290 | 170° | 13km/h | 28352m | 3.9m/s | -46.9°C | 0.3% | 17.8hPa | 3.5V | 00:00:00 | 02:15:42 | 00:00:00 | |
| DM0DOS-11 | 2026-09-06 00:31:37 | 50.26279 | 6.31287 | 151° | 11km/h | 28368m | 4m/s | -46.7°C | 0.3% | 17.7hPa | 3.5V | 00:00:00 | 02:15:46 | 00:00:00 | |
| DJ8HS-15 | 2026-09-06 00:31:36 | 50.26280 | 6.31285 | 193° | 11km/h | 28364m | 3.9m/s | -46.8°C | 0.3% | 17.6hPa | 3.5V | 00:00:00 | 02:15:45 | 00:00:00 | |
| DM0DOS-11 | 2026-09-06 00:31:27 | 50.26309 | 6.31286 | 136° | 9km/h | 28328m | 4m/s | -47.2°C | 0.3% | 17.8hPa | 3.5V | 00:00:00 | 02:15:36 | 00:00:00 | |
| DB0UT-7 | 2026-09-06 00:31:23 | 50.26315 | 6.31284 | 192° | 13km/h | 28312m | 3.9m/s | -47.3°C | 0.3% | 17.8hPa | 3.5V | 00:00:00 | 00:00:00 | 00:00:00 | |
| DM0DOS-11 | 2026-09-06 00:31:17 | 50.26334 | 6.31276 | 129° | 11km/h | 28288m | 3.9m/s | -47.5°C | 0.3% | 17.9hPa | 3.5V | 00:00:00 | 02:15:26 | 00:00:00 | |
| DJ8HS-15 | 2026-09-06 00:31:16 | 50.26336 | 6.31272 | 145° | 11km/h | 28284m | 3.8m/s | -47.4°C | 0.3% | 17.8hPa | 3.5V | 00:00:00 | 02:15:25 | 00:00:00 | |
| DL1XH1-15 | 2026-09-06 00:31:07 | 50.26371 | 6.31246 | 163° | 13km/h | 28231m | 4m/s | -47.6°C | 0.3% | 18hPa | 3.5V | 00:00:00 | 02:15:11 | 00:00:00 | |
| DM0DOS-11 | 2026-09-06 00:31:07 | 50.26362 | 6.31258 | 135° | 13km/h | 28250m | 3.9m/s | -47.5°C | 0.3% | 18hPa | 3.5V | 00:00:00 | 02:15:16 | 00:00:00 | |
| HEMX73-6 | 2026-09-06 00:31:02 | 50.26371 | 6.31245 | 151° | 9km/h | 28231m | 3.9m/s | -47.6°C | 0.3% | 18.0hPa | 3.5V | 00:00:00 | 02:15:11 | 00:00:00 | |
| DM0DOS-11 | 2026-09-06 00:30:57 | 50.26392 | 6.31233 | 130° | 13km/h | 28211m | 3.9m/s | -47.8°C | 0.3% | 18.1hPa | 3.5V | 00:00:00 | 02:15:06 | 00:00:00 | |
| DJ8HS-15 | 2026-09-06 00:30:55 | 50.26396 | 6.31224 | 145° | 11km/h | 28203m | 3.7m/s | -47.7°C | 0.3% | 18.0hPa | 3.5V | 00:00:00 | 02:15:04 | 00:00:00 | |
| DL1XH1-15 | 2026-09-06 00:30:53 | 50.26400 | 6.31218 | 168° | 13km/h | 28191m | 3.9m/s | -47.8°C | 0.2% | 18.1hPa | 3.5V | 00:00:00 | 02:15:01 | 00:00:00 | |
| DB0UT-7 | 2026-09-06 00:30:53 | 50.26398 | 6.31218 | 164° | 11km/h | 28195m | 3.9m/s | -47.7°C | 0.3% | 18.1hPa | 3.5V | 00:00:00 | 02:15:02 | 00:00:00 | |
| DM0DOS-11 | 2026-09-06 00:30:47 | 50.26417 | 6.31210 | 136° | 13km/h | 28172m | 3.9m/s | -48°C | 0.3% | 18.2hPa | 3.5V | 00:00:00 | 02:14:56 | 00:00:00 | |
| DL1XH1-15 | 2026-09-06 00:30:43 | 50.26427 | 6.31190 | 188° | 11km/h | 28148m | 3.9m/s | -47.8°C | 0.3% | 18.2hPa | 3.5V | 00:00:00 | 02:14:50 | 00:00:00 | |
| DM0DOS-11 | 2026-09-06 00:30:37 | 50.26440 | 6.31187 | 130° | 11km/h | 28133m | 4m/s | -47.9°C | 0.3% | 18.3hPa | 3.5V | 00:00:00 | 02:14:46 | 00:00:00 | |
| DJ8HS-15 | 2026-09-06 00:30:35 | 50.26444 | 6.31177 | 127° | 9km/h | 28125m | 3.9m/s | -47.9°C | 0.3% | 18.2hPa | 3.5V | 00:00:00 | 02:14:44 | 00:00:00 | |
| DL1XH1-15 | 2026-09-06 00:30:33 | 50.26453 | 6.31171 | 128° | 7km/h | 28101m | 3.9m/s | -48°C | 0.3% | 18.3hPa | 3.5V | 00:00:00 | 02:14:38 | 00:00:00 | |
| DM0DOS-11 | 2026-09-06 00:30:27 | 50.26458 | 6.31164 | 127° | 11km/h | 28093m | 3.8m/s | -48°C | 0.3% | 18.4hPa | 3.5V | 00:00:00 | 02:14:36 | 00:00:00 | |
| BIOWL1-15 | 2026-09-06 00:30:25 | 50.26464 | 6.31145 | 111° | 2km/h | 28078m | 4m/s | -48°C | 0.4% | 18.4hPa | 3.5V | 00:00:00 | 00:00:00 | 00:00:00 | |
| DM0DOS-11 | 2026-09-06 00:30:22 | 50.26472 | 6.31139 | 137° | 9km/h | 28055m | 3.8m/s | -48.1°C | 0.3% | 18.4hPa | 3.5V | 00:00:00 | 02:14:26 | 00:00:00 | |
| DB0UT-7 | 2026-09-06 00:30:21 | 50.26465 | 6.31143 | 184° | 7km/h | 28070m | 3.6m/s | -48.0°C | 0.3% | 18.4hPa | 3.5V | 00:00:00 | 00:00:00 | 00:00:00 | |
| DL1XH1-15 | 2026-09-06 00:30:18 | 50.26470 | 6.31142 | 146° | 7km/h | 28059m | 3.9m/s | -48°C | 0.3% | 18.4hPa | 3.5V | 00:00:00 | 02:14:27 | 00:00:00 | |
| BIOWL1-15 | 2026-09-06 00:30:13 | 50.26474 | 6.31125 | 162° | 5km/h | 28028m | 4.3m/s | -48.2°C | 0.4% | 18.5hPa | 3.5V | 00:00:00 | 00:00:00 | 00:00:00 | |
| DM0DOS-11 | 2026-09-06 00:30:11 | 50.26478 | 6.31124 | 152° | 7km/h | 28015m | 3.7m/s | -48.2°C | 0.3% | 18.6hPa | 3.5V | 00:00:00 | 02:14:16 | 00:00:00 | |
| DL1XH1-15 | 2026-09-06 00:30:08 | 50.26476 | 6.31125 | 154° | 5km/h | 28019m | 3.8m/s | -48.1°C | 0.3% | 18.5hPa | 3.5V | 00:00:00 | 02:14:17 | 00:00:00 | |
| DM0DOS-11 | 2026-09-06 00:29:51 | 50.26471 | 6.31125 | 235° | 5km/h | 27939m | 3.9m/s | -48.6°C | 0.3% | 18.7hPa | 3.5V | 00:00:00 | 02:13:56 | 00:00:00 | |
| BIOWL1-15 | 2026-09-06 00:29:41 | 50.26466 | 6.31126 | 294° | 7km/h | 27916m | 3.9m/s | -48.8°C | 0.4% | 18.8hPa | 3.5V | 00:00:00 | 00:00:00 | 00:00:00 | |
| DM0DOS-11 | 2026-09-06 00:29:41 | 50.26463 | 6.31141 | 241° | 5km/h | 27900m | 4m/s | -48.7°C | 0.3% | 18.9hPa | 3.5V | 00:00:00 | 02:13:46 | 00:00:00 | |
| DL1XH1-15 | 2026-09-06 00:29:33 | 50.26463 | 6.31143 | 327° | 7km/h | 27884m | 3.9m/s | -48.8°C | 0.3% | 18.9hPa | 3.5V | 00:00:00 | 02:13:42 | 00:00:00 | |
| DM0DOS-11 | 2026-09-06 00:29:31 | 50.26456 | 6.31162 | 219° | 5km/h | 27861m | 4m/s | -49.1°C | 0.3% | 18.9hPa | 3.5V | 00:00:00 | 02:13:36 | 00:00:00 | |
| DJ8HS-15 | 2026-09-06 00:29:30 | 50.26457 | 6.31149 | 261° | 7km/h | 27873m | 3.9m/s | -49.0°C | 0.3% | 18.8hPa | 3.5V | 00:00:00 | 02:13:39 | 00:00:00 | |
| DL1XH1-15 | 2026-09-06 00:29:23 | 50.26458 | 6.31164 | 335° | 5km/h | 27845m | 4m/s | -48.8°C | 0.3% | 19hPa | 3.5V | 00:00:00 | 02:13:32 | 00:00:00 | |
| DM0DOS-11 | 2026-09-06 00:29:20 | 50.26451 | 6.31180 | 248° | 5km/h | 27822m | 4.2m/s | -48.8°C | 0.3% | 19hPa | 3.5V | 00:00:00 | 02:13:26 | 00:00:00 | |
| DL1XH1-15 | 2026-09-06 00:29:13 | 50.26453 | 6.31184 | 278° | 5km/h | 27797m | 4.1m/s | -48.7°C | 0.3% | 19.1hPa | 3.5V | 00:00:00 | 02:13:20 | 00:00:00 | |
| DB0UT-7 | 2026-09-06 00:29:11 | 50.26453 | 6.31184 | 326° | 7km/h | 27797m | 4.0m/s | -48.7°C | 0.3% | 19.1hPa | 3.5V | 00:00:00 | 00:00:00 | 00:00:00 | |
| DM0DOS-11 | 2026-09-06 00:29:07 | 50.26448 | 6.31196 | 246° | 5km/h | 27781m | 4.1m/s | -48.8°C | 0.3% | 19.1hPa | 3.5V | 00:00:00 | 02:13:16 | 00:00:00 | |
| DM0DOS-11 | 2026-09-06 00:29:02 | 50.26449 | 6.31202 | 232° | 9km/h | 27740m | 4.2m/s | -48.7°C | 0.3% | 19.2hPa | 3.5V | 00:00:00 | 02:13:06 | 00:00:00 | |
| BIOWL1-15 | 2026-09-06 00:28:59 | 50.26450 | 6.31197 | 299° | 5km/h | 27748m | 4m/s | -48.8°C | 0.4% | 19.2hPa | 3.5V | 00:00:00 | 00:00:00 | 00:00:00 | |
| BIOWL1-15 | 2026-09-06 00:28:49 | 50.26463 | 6.31205 | 179° | 11km/h | 27698m | 4m/s | -48.9°C | 0.4% | 19.4hPa | 3.5V | 00:00:00 | 00:00:00 | 00:00:00 | |
| DL1XH1-15 | 2026-09-06 00:28:48 | 50.26462 | 6.31202 | 171° | 7km/h | 27702m | 4.1m/s | -48.8°C | 0.3% | 19.4hPa | 3.5V | 00:00:00 | 02:12:57 | 00:00:00 | |
| DM0DOS-11 | 2026-09-06 00:28:47 | 50.26463 | 6.31205 | 206° | 11km/h | 27698m | 4m/s | -48.8°C | 0.3% | 19.4hPa | 3.5V | 00:00:00 | 02:12:56 | 00:00:00 | |
| DM0DOS-11 | 2026-09-06 00:28:42 | 50.26482 | 6.31200 | 216° | 11km/h | 27657m | 4.3m/s | -48.8°C | 0.3% | 19.5hPa | 3.5V | 00:00:00 | 02:12:46 | 00:00:00 | |
| DB0UT-7 | 2026-09-06 00:28:41 | 50.26480 | 6.31200 | 122° | 11km/h | 27674m | 4.3m/s | -48.8°C | 0.3% | 19.4hPa | 3.5V | 00:00:00 | 02:12:50 | 00:00:00 | |
| DL1XH1-15 | 2026-09-06 00:28:38 | 50.26484 | 6.31201 | 181° | 9km/h | 27653m | 4.3m/s | -48.8°C | 0.3% | 19.5hPa | 3.5V | 00:00:00 | 02:12:45 | 00:00:00 | |
| BIOWL1-15 | 2026-09-06 00:28:37 | 50.26487 | 6.31202 | 154° | 7km/h | 27648m | 4.1m/s | -48.8°C | 0.4% | 19.5hPa | 3.5V | 00:00:00 | 00:00:00 | 00:00:00 | |
| DL1XH1-15 | 2026-09-06 00:28:28 | 50.26506 | 6.31194 | 153° | 11km/h | 27606m | 4.3m/s | -49.2°C | 0.3% | 19.6hPa | 3.5V | 00:00:00 | 02:12:34 | 00:00:00 | |
| DM0DOS-11 | 2026-09-06 00:28:27 | 50.26500 | 6.31192 | 194° | 13km/h | 27615m | 4.3m/s | -49.2°C | 0.3% | 19.6hPa | 3.5V | 00:00:00 | 02:12:36 | 00:00:00 | |
| BIOWL1-15 | 2026-09-06 00:28:24 | 50.26524 | 6.31175 | 164° | 7km/h | 27576m | 4m/s | -49.1°C | 0.4% | 19.7hPa | 3.5V | 00:00:00 | 00:00:00 | 00:00:00 | |
| DM0DOS-11 | 2026-09-06 00:28:22 | 50.26525 | 6.31173 | 178° | 13km/h | 27572m | 4.2m/s | -49.1°C | 0.3% | 19.7hPa | 3.5V | 00:00:00 | 02:12:26 | 00:00:00 | |
| DL1XH1-15 | 2026-09-06 00:28:13 | 50.26537 | 6.31169 | 117° | 9km/h | 27556m | 4.4m/s | -49.1°C | 0.3% | 19.7hPa | 3.5V | 00:00:00 | 02:12:22 | 00:00:00 | |
| DB0UT-7 | 2026-09-06 00:28:11 | 50.26542 | 6.31160 | 112° | 13km/h | 27547m | 4.2m/s | -49.2°C | 0.3% | 19.7hPa | 3.5V | 00:00:00 | 00:00:00 | 00:00:00 | |
| DM0DOS-11 | 2026-09-06 00:28:07 | 50.26546 | 6.31144 | 169° | 9km/h | 27529m | 4.2m/s | -49.2°C | 0.3% | 19.8hPa | 3.5V | 00:00:00 | 02:12:16 | 00:00:00 | |
| DJ8HS-15 | 2026-09-06 00:28:06 | 50.26548 | 6.31144 | 192° | 11km/h | 27525m | 4.2m/s | -49.2°C | 0.3% | 19.8hPa | 3.5V | 00:00:00 | 02:12:15 | 00:00:00 | |
| DL1XH1-15 | 2026-09-06 00:28:03 | 50.26556 | 6.31140 | 138° | 13km/h | 27508m | 4.2m/s | -49.4°C | 0.3% | 19.9hPa | 3.5V | 00:00:00 | 02:12:11 | 00:00:00 | |
| DM0DOS-11 | 2026-09-06 00:28:02 | 50.26564 | 6.31115 | 150° | 16km/h | 27487m | 4.3m/s | -49.5°C | 0.3% | 19.9hPa | 3.5V | 00:00:00 | 02:12:06 | 00:00:00 | |
| DL1XH1-15 | 2026-09-06 00:27:53 | 50.26588 | 6.31091 | 117° | 11km/h | 27453m | 4.3m/s | -49.7°C | 0.3% | 20hPa | 3.5V | 00:00:00 | 02:11:58 | 00:00:00 | |
| BIOWL1-15 | 2026-09-06 00:27:50 | 50.26588 | 6.31096 | 97° | 13km/h | 27457m | 4m/s | -49.7°C | 0.4% | 20hPa | 3.5V | 00:00:00 | 00:00:00 | 00:00:00 | |
| DM0DOS-11 | 2026-09-06 00:27:47 | 50.26591 | 6.31087 | 176° | 11km/h | 27444m | 4.3m/s | -49.8°C | 0.3% | 20hPa | 3.5V | 00:00:00 | 02:11:56 | 00:00:00 | |
| BIOWL1-15 | 2026-09-06 00:27:40 | 50.26606 | 6.31062 | 158° | 15km/h | 27405m | 4m/s | -49.9°C | 0.4% | 20.2hPa | 3.5V | 00:00:00 | 00:00:00 | 00:00:00 | |
| HEMX73-6 | 2026-09-06 00:27:40 | 50.26602 | 6.31069 | 121° | 1424km/h | 27414m | 4.1m/s | -49.8°C | 0.3% | 20.1hPa | 3.5V | 00:00:00 | 02:11:49 | 00:00:00 | |
| DL1XH1-15 | 2026-09-06 00:27:38 | 50.26609 | 6.31060 | 165° | 15km/h | 27401m | 4.1m/s | -50°C | 0.3% | 20.2hPa | 3.5V | 00:00:00 | 02:11:46 | 00:00:00 | |
| DL1XH-west | 2026-09-06 00:27:29 | 50.26624 | 6.31032 | 0° | 0km/h | 27367m | 0m/s | -50.1°C | 0.4% | 20.3hPa | 3.5V | 00:00:00 | 00:00:00 | 00:00:00 | |
| BIOWL1-15 | 2026-09-06 00:27:29 | 50.26627 | 6.31029 | 162° | 18km/h | 27363m | 4m/s | -50.2°C | 0.4% | 20.3hPa | 3.5V | 00:00:00 | 00:00:00 | 00:00:00 | |
| DL1XH1-15 | 2026-09-06 00:27:28 | 50.26641 | 6.31014 | 100° | 16km/h | 27346m | 4.3m/s | -50.1°C | 0.3% | 20.3hPa | 3.5V | 00:00:00 | 02:11:33 | 00:00:00 | |
| DM0DOS-11 | 2026-09-06 00:27:27 | 50.26632 | 6.31027 | 152° | 16km/h | 27359m | 4.2m/s | -50.2°C | 0.3% | 20.3hPa | 3.5V | 00:00:00 | 02:11:36 | 00:00:00 | |
| DO3MHA-12 | 2026-09-06 00:27:26 | 50.26635 | 6.31024 | 110° | 15km/h | 27355m | 4.3m/s | -50.2°C | 0.3% | 20.2hPa | 3.5V | 00:00:00 | 02:11:35 | 00:00:00 | |
| DM0DOS-11 | 2026-09-06 00:27:22 | 50.26652 | 6.30978 | 106° | 16km/h | 27316m | 4.3m/s | -50.2°C | 0.3% | 20.4hPa | 3.5V | 00:00:00 | 02:11:26 | 00:00:00 | |
| BIOWL1-15 | 2026-09-06 00:27:16 | 50.26655 | 6.30946 | 112° | 15km/h | 27295m | 4.5m/s | -50.3°C | 0.4% | 20.5hPa | 3.5V | 00:00:00 | 00:00:00 | 00:00:00 | |
| DO3MHA-12 | 2026-09-06 00:27:13 | 50.26654 | 6.30953 | 111° | 16km/h | 27299m | 4.4m/s | -50.2°C | 0.3% | 20.4hPa | 3.5V | 00:00:00 | 02:11:22 | 00:00:00 | |
| DB0UT-7 | 2026-09-06 00:27:11 | 50.26657 | 6.30940 | 122° | 15km/h | 27290m | 4.4m/s | -50.2°C | 0.3% | 20.4hPa | 3.5V | 00:00:00 | 00:00:00 | 00:00:00 | |
| DL1XH1-15 | 2026-09-06 00:27:07 | 50.26668 | 6.30894 | 128° | 15km/h | 27255m | 4.6m/s | -50.3°C | 0.3% | 20.6hPa | 3.5V | 00:00:00 | 02:11:12 | 00:00:00 | |
| DM0DOS-11 | 2026-09-06 00:27:06 | 50.26667 | 6.30917 | 85° | 18km/h | 27268m | 4.5m/s | -50.3°C | 0.3% | 20.5hPa | 3.5V | 00:00:00 | 02:11:15 | 00:00:00 | |
| DO3MHA-12 | 2026-09-06 00:27:03 | 50.26668 | 6.30894 | 132° | 15km/h | 27255m | 4.4m/s | -50.2°C | 0.3% | 20.5hPa | 3.5V | 00:00:00 | 02:11:12 | 00:00:00 | |
| DL1XH1-15 | 2026-09-06 00:26:56 | 50.26678 | 6.30842 | 92° | 13km/h | 27211m | 4.5m/s | -50.3°C | 0.3% | 20.7hPa | 3.5V | 00:00:00 | 02:11:02 | 00:00:00 | |
| DM0DOS-11 | 2026-09-06 00:26:56 | 50.26673 | 6.30853 | 113° | 13km/h | 27223m | 4.3m/s | -50.3°C | 0.3% | 20.7hPa | 3.5V | 00:00:00 | 02:11:05 | 00:00:00 | |
| DO3MHA-11 | 2026-09-06 00:26:55 | 50.26674 | 6.30849 | 130° | 13km/h | 27219m | 4.3m/s | -50.2°C | 0.3% | 20.6hPa | 3.5V | 00:00:00 | 02:11:04 | 00:00:00 | |
| DO3MHA-12 | 2026-09-06 00:26:52 | 50.26680 | 6.30838 | 108° | 13km/h | 27206m | 4.3m/s | -50.2°C | 0.3% | 20.7hPa | 3.5V | 00:00:00 | 02:11:01 | 00:00:00 | |
| DM0DOS-11 | 2026-09-06 00:26:46 | 50.26680 | 6.30802 | 140° | 9km/h | 27179m | 4.1m/s | -50.4°C | 0.3% | 20.8hPa | 3.5V | 00:00:00 | 02:10:55 | 00:00:00 | |
| DL1XH1-15 | 2026-09-06 00:26:45 | 50.26682 | 6.30780 | 66° | 13km/h | 27154m | 4.3m/s | -50.3°C | 0.5% | 20.9hPa | 3.5V | 00:00:00 | 02:10:49 | 00:00:00 | |
| DO3MHA-11 | 2026-09-06 00:26:44 | 50.26683 | 6.30799 | 77° | 13km/h | 27171m | 4.3m/s | -50.3°C | 0.3% | 20.8hPa | 3.5V | 00:00:00 | 02:10:53 | 00:00:00 | |
| DO3MHA-12 | 2026-09-06 00:26:42 | 50.26684 | 6.30792 | 77° | 13km/h | 27163m | 4.4m/s | -50.3°C | 0.5% | 20.8hPa | 3.5V | 00:00:00 | 02:10:51 | 00:00:00 | |
| DB0UT-7 | 2026-09-06 00:26:41 | 50.26684 | 6.30787 | 70° | 15km/h | 27158m | 4.2m/s | -50.2°C | 0.3% | 20.8hPa | 3.5V | 00:00:00 | 02:10:50 | 00:00:00 | |
| DM0DOS-11 | 2026-09-06 00:26:36 | 50.26677 | 6.30764 | 114° | 11km/h | 27137m | 4.4m/s | -50.3°C | 0.3% | 20.9hPa | 3.5V | 00:00:00 | 02:10:45 | 00:00:00 | |
| BIOWL1-15 | 2026-09-06 00:26:35 | 50.26677 | 6.30763 | 71° | 15km/h | 27133m | 4.4m/s | -50.3°C | 0.4% | 20.9hPa | 3.5V | 00:00:00 | 00:00:00 | 00:00:00 | |
| DL1XH1-15 | 2026-09-06 00:26:34 | 50.26670 | 6.30730 | 72° | 11km/h | 27106m | 4.4m/s | -50.2°C | 0.3% | 21hPa | 3.5V | 00:00:00 | 02:10:38 | 00:00:00 | |
| DO3MHA-12 | 2026-09-06 00:26:31 | 50.26673 | 6.30743 | 70° | 15km/h | 27115m | 4.3m/s | -50.2°C | 0.3% | 20.9hPa | 3.5V | 00:00:00 | 02:10:40 | 00:00:00 | |
| DO3MHA-11 | 2026-09-06 00:26:30 | 50.26671 | 6.30735 | 72° | 11km/h | 27111m | 4.4m/s | -50.2°C | 0.5% | 20.9hPa | 3.5V | 00:00:00 | 02:10:39 | 00:00:00 | |
| DM0DOS-11 | 2026-09-06 00:26:26 | 50.26669 | 6.30723 | 67° | 15km/h | 27093m | 4.4m/s | -50.1°C | 0.3% | 21hPa | 3.5V | 00:00:00 | 02:10:35 | 00:00:00 | |
| BIOWL1-15 | 2026-09-06 00:26:18 | 50.26653 | 6.30685 | 40° | 5km/h | 27057m | 4m/s | -50°C | 0.5% | 21.2hPa | 3.5V | 00:00:00 | 00:00:00 | 00:00:00 | |
| DL1XH1-15 | 2026-09-06 00:26:18 | 50.26653 | 6.30685 | 40° | 15km/h | 27057m | 4.2m/s | -50°C | 0.5% | 21.1hPa | 3.5V | 00:00:00 | 02:10:27 | 00:00:00 | |
| DM0DOS-11 | 2026-09-06 00:26:16 | 50.26647 | 6.30676 | 50° | 18km/h | 27045m | 4.4m/s | -49.9°C | 0.5% | 21.2hPa | 3.5V | 00:00:00 | 02:10:24 | 00:00:00 | |
| DL1XH1-15 | 2026-09-06 00:26:13 | 50.26625 | 6.30642 | 28° | 13km/h | 27014m | 4.2m/s | -49.8°C | 0.5% | 21.3hPa | 3.5V | 00:00:00 | 02:10:17 | 00:00:00 | |
| BIOWL1-15 | 2026-09-06 00:26:06 | 50.26616 | 6.30631 | 39° | 24km/h | 26997m | 4m/s | -49.8°C | 0.5% | 21.3hPa | 3.5V | 00:00:00 | 00:00:00 | 00:00:00 | |
| DM0DOS-11 | 2026-09-06 00:26:06 | 50.26619 | 6.30635 | 37° | 18km/h | 27002m | 4.5m/s | -49.8°C | 0.5% | 21.3hPa | 3.5V | 00:00:00 | 02:10:14 | 00:00:00 | |
| DO3MHA-12 | 2026-09-06 00:25:57 | 50.26592 | 6.30605 | 27° | 15km/h | 26967m | 4.4m/s | -49.5°C | 0.5% | 21.4hPa | 3.5V | 00:00:00 | 02:10:06 | 00:00:00 | |
| DM0DOS-11 | 2026-09-06 00:25:56 | 50.26587 | 6.30602 | 28° | 16km/h | 26957m | 4.4m/s | -49.5°C | 0.5% | 21.4hPa | 3.5V | 00:00:00 | 02:10:04 | 00:00:00 | |
| BIOWL1-15 | 2026-09-06 00:25:55 | 50.26587 | 6.30602 | 24° | 16km/h | 26957m | 4.4m/s | -49.5°C | 0.5% | 21.5hPa | 3.5V | 00:00:00 | 00:00:00 | 00:00:00 | |
| DL1XH1-15 | 2026-09-06 00:25:53 | 50.26564 | 6.30585 | 11° | 15km/h | 26926m | 4.4m/s | -49.5°C | 0.5% | 21.5hPa | 3.5V | 00:00:00 | 02:09:57 | 00:00:00 | |
| BIOWL1-15 | 2026-09-06 00:25:44 | 50.26539 | 6.30571 | 23° | 13km/h | 26899m | 4.3m/s | -49.5°C | 0.5% | 21.6hPa | 3.5V | 00:00:00 | 00:00:00 | 00:00:00 | |
| DO3MHA-12 | 2026-09-06 00:25:43 | 50.26542 | 6.30571 | 8° | 9km/h | 26904m | 4.4m/s | -49.5°C | 0.5% | 21.6hPa | 3.5V | 00:00:00 | 02:09:52 | 00:00:00 | |
| DL1XH1-15 | 2026-09-06 00:25:37 | 50.26525 | 6.30562 | 29° | 13km/h | 26877m | 4.3m/s | -49.4°C | 0.5% | 21.7hPa | 3.5V | 00:00:00 | 02:09:46 | 00:00:00 | |
| DM0DOS-11 | 2026-09-06 00:25:36 | 50.26516 | 6.30555 | 29° | 7km/h | 26869m | 4.5m/s | -49.4°C | 0.5% | 21.7hPa | 3.5V | 00:00:00 | 02:09:44 | 00:00:00 | |
| DL1XH-west | 2026-09-06 00:25:33 | 50.26506 | 6.30545 | 22° | 20km/h | 26841m | 4m/s | -49.4°C | 0.5% | 21.8hPa | 3.5V | 00:00:00 | 00:00:00 | 00:00:00 | |
| DL1XH1-15 | 2026-09-06 00:25:32 | 50.26498 | 6.30539 | 31° | 9km/h | 26833m | 4.4m/s | -49.5°C | 0.5% | 21.8hPa | 3.5V | 00:00:00 | 02:09:36 | 00:00:00 | |
| DO3MHA-12 | 2026-09-06 00:25:32 | 50.26506 | 6.30545 | 28° | 7km/h | 26841m | 4.2m/s | -49.4°C | 0.5% | 21.7hPa | 3.5V | 00:00:00 | 02:09:38 | 00:00:00 | |
| DM0DOS-11 | 2026-09-06 00:25:27 | 50.26493 | 6.30534 | 46° | 5km/h | 26824m | 4.2m/s | -49.5°C | 0.5% | 21.9hPa | 3.5V | 00:00:00 | 02:09:34 | 00:00:00 | |
| BIOWL1-15 | 2026-09-06 00:25:24 | 50.26492 | 6.30533 | 8° | 13km/h | 26816m | 4.4m/s | -49.5°C | 0.5% | 21.9hPa | 3.5V | 00:00:00 | 00:00:00 | 00:00:00 | |
| DL1XH1-15 | 2026-09-06 00:25:18 | 50.26475 | 6.30530 | 270° | 4km/h | 26789m | 4.2m/s | -49.5°C | 0.5% | 21.9hPa | 3.5V | 00:00:00 | 02:09:26 | 00:00:00 | |
| DL1XH-west | 2026-09-06 00:25:16 | 50.26475 | 6.30530 | 206° | 2km/h | 26785m | 4m/s | -49.5°C | 0.5% | 22hPa | 3.5V | 00:00:00 | 00:00:00 | 00:00:00 | |
| DM0DOS-11 | 2026-09-06 00:25:16 | 50.26476 | 6.30530 | 321° | 7km/h | 26781m | 4.3m/s | -49.6°C | 0.5% | 22hPa | 3.5V | 00:00:00 | 02:09:24 | 00:00:00 | |
| BIOWL1-15 | 2026-09-06 00:25:15 | 50.26461 | 6.30531 | 9° | 9km/h | 26743m | 4.5m/s | -49.6°C | 0.5% | 22.1hPa | 3.5V | 00:00:00 | 00:00:00 | 00:00:00 | |
| DO3MHA-11 | 2026-09-06 00:25:15 | 50.26475 | 6.30530 | 357° | 7km/h | 26781m | 4.2m/s | -49.5°C | 0.5% | 21.9hPa | 3.5V | 00:00:00 | 02:09:24 | 00:00:00 | |
| DL1XH1-15 | 2026-09-06 00:25:13 | 50.26461 | 6.30532 | 90° | 5km/h | 26746m | 4.2m/s | -49.6°C | 0.5% | 22.1hPa | 3.5V | 00:00:00 | 02:09:16 | 00:00:00 | |
| DO3MHA-12 | 2026-09-06 00:25:07 | 50.26460 | 6.30532 | 91° | 7km/h | 26746m | 4.1m/s | -49.6°C | 0.5% | 22.0hPa | 3.5V | 00:00:00 | 02:09:16 | 00:00:00 | |
| DM0DOS-11 | 2026-09-06 00:25:06 | 50.26460 | 6.30531 | 3° | 9km/h | 26738m | 4.4m/s | -49.6°C | 0.5% | 22.1hPa | 3.5V | 00:00:00 | 02:09:14 | 00:00:00 | |
| DB0UT-7 | 2026-09-06 00:25:06 | 50.26460 | 6.30531 | 7° | 7km/h | 26743m | 4.4m/s | -49.6°C | 0.5% | 22.1hPa | 3.5V | 00:00:00 | 00:00:00 | 00:00:00 | |
| DO3MHA-11 | 2026-09-06 00:25:02 | 50.26451 | 6.30529 | 96° | 7km/h | 26725m | 4.2m/s | -49.6°C | 0.5% | 22.1hPa | 3.5V | 00:00:00 | 02:09:11 | 00:00:00 | |
| DL1XH1-15 | 2026-09-06 00:25:01 | 50.26451 | 6.30523 | 0° | 7km/h | 26703m | 4.2m/s | -49.6°C | 0.5% | 22.2hPa | 3.5V | 00:00:00 | 02:09:06 | 00:00:00 | |
| BIOWL1-15 | 2026-09-06 00:24:58 | 50.26449 | 6.30523 | 48° | 5km/h | 26699m | 4.2m/s | -49.7°C | 0.5% | 22.2hPa | 3.5V | 00:00:00 | 00:00:00 | 00:00:00 | |
| DO3MHA-12 | 2026-09-06 00:24:57 | 50.26451 | 6.30523 | 1° | 7km/h | 26703m | 4.2m/s | -49.6°C | 0.5% | 22.2hPa | 3.5V | 00:00:00 | 02:09:06 | 00:00:00 | |
| DM0DOS-11 | 2026-09-06 00:24:56 | 50.26445 | 6.30522 | 20° | 7km/h | 26695m | 4.3m/s | -49.7°C | 0.5% | 22.2hPa | 3.5V | 00:00:00 | 02:09:04 | 00:00:00 | |
| DL1XH-west | 2026-09-06 00:24:53 | 50.26442 | 6.30519 | 66° | 2km/h | 26686m | 4.3m/s | -49.7°C | 0.5% | 22.3hPa | 3.5V | 00:00:00 | 00:00:00 | 00:00:00 | |
| DL1XH1-15 | 2026-09-06 00:24:51 | 50.26439 | 6.30514 | 90° | 5km/h | 26656m | 4.3m/s | -49.7°C | 0.5% | 22.4hPa | 3.5V | 00:00:00 | 02:08:55 | 00:00:00 | |
| DO3MHA-11 | 2026-09-06 00:24:51 | 50.26445 | 6.30516 | 12° | 7km/h | 26678m | 4.3m/s | -49.6°C | 0.5% | 22.2hPa | 3.5V | 00:00:00 | 02:09:00 | 00:00:00 | |
| DO3MHA-12 | 2026-09-06 00:24:47 | 50.26440 | 6.30514 | 1° | 5km/h | 26660m | 4.2m/s | -49.6°C | 0.5% | 22.3hPa | 3.5V | 00:00:00 | 02:08:56 | 00:00:00 | |
| DM0DOS-11 | 2026-09-06 00:24:46 | 50.26439 | 6.30514 | 163° | 7km/h | 26651m | 4.1m/s | -49.7°C | 0.5% | 22.4hPa | 3.5V | 00:00:00 | 02:08:54 | 00:00:00 | |
| DO3MHA-11 | 2026-09-06 00:24:39 | 50.26440 | 6.30507 | 27° | 7km/h | 26626m | 4.2m/s | -50.0°C | 0.5% | 22.4hPa | 3.5V | 00:00:00 | 02:08:48 | 00:00:00 | |
| DO3MHA-12 | 2026-09-06 00:24:37 | 50.26438 | 6.30505 | 165° | 7km/h | 26618m | 4.2m/s | -50.0°C | 0.5% | 22.4hPa | 3.5V | 00:00:00 | 02:08:46 | 00:00:00 | |
| DM0DOS-11 | 2026-09-06 00:24:36 | 50.26442 | 6.30503 | 175° | 7km/h | 26609m | 3.9m/s | -50°C | 0.5% | 22.5hPa | 3.5V | 00:00:00 | 02:08:44 | 00:00:00 | |
| DL1XH1-15 | 2026-09-06 00:24:36 | 50.26439 | 6.30504 | 162° | 7km/h | 26613m | 3.9m/s | -50.1°C | 0.5% | 22.5hPa | 3.5V | 00:00:00 | 02:08:45 | 00:00:00 | |
| DL1XH-west | 2026-09-06 00:24:34 | 50.26443 | 6.30503 | 306° | 4km/h | 26606m | 4.3m/s | -50°C | 0.5% | 22.5hPa | 3.5V | 00:00:00 | 00:00:00 | 00:00:00 | |
| DL1XH1-15 | 2026-09-06 00:24:31 | 50.26441 | 6.30498 | 166° | 9km/h | 26573m | 4.2m/s | -50°C | 0.5% | 22.6hPa | 3.5V | 00:00:00 | 02:08:35 | 00:00:00 | |
| DM0DOS-11 | 2026-09-06 00:24:26 | 50.26443 | 6.30497 | 201° | 7km/h | 26569m | 4.1m/s | -50°C | 0.5% | 22.6hPa | 3.5V | 00:00:00 | 02:08:34 | 00:00:00 | |
| DL1XH-west | 2026-09-06 00:24:23 | 50.26447 | 6.30501 | 258° | 7km/h | 26560m | 4m/s | -50.1°C | 0.5% | 22.7hPa | 3.5V | 00:00:00 | 00:00:00 | 00:00:00 | |
| DM0DOS-11 | 2026-09-06 00:24:16 | 50.26455 | 6.30504 | 216° | 9km/h | 26527m | 4m/s | -50.2°C | 0.5% | 22.8hPa | 3.5V | 00:00:00 | 02:08:24 | 00:00:00 | |
| DL1XH1-15 | 2026-09-06 00:24:16 | 50.26453 | 6.30502 | 204° | 9km/h | 26532m | 4.2m/s | -50.2°C | 0.5% | 22.8hPa | 3.5V | 00:00:00 | 02:08:25 | 00:00:00 | |
| DL1XH-west | 2026-09-06 00:24:08 | 50.26464 | 6.30514 | 165° | 13km/h | 26499m | 4m/s | -50.6°C | 0.5% | 22.9hPa | 3.5V | 00:00:00 | 00:00:00 | 00:00:00 | |
| DM0DOS-11 | 2026-09-06 00:24:06 | 50.26476 | 6.30515 | 212° | 11km/h | 26487m | 4m/s | -50.5°C | 0.5% | 22.9hPa | 3.5V | 00:00:00 | 02:08:14 | 00:00:00 | |
| DO3MHA-12 | 2026-09-06 00:24:06 | 50.26471 | 6.30513 | 210° | 11km/h | 26491m | 4.1m/s | -50.5°C | 0.5% | 22.8hPa | 3.5V | 00:00:00 | 02:08:15 | 00:00:00 | |
| DJ8HS-15 | 2026-09-06 00:24:04 | 50.26479 | 6.30518 | 175° | 9km/h | 26483m | 4.1m/s | -50.4°C | 0.5% | 22.9hPa | 3.5V | 00:00:00 | 02:08:13 | 00:00:00 | |
| DM0DOS-11 | 2026-09-06 00:23:56 | 50.26499 | 6.30518 | 218° | 9km/h | 26446m | 4.1m/s | -50.4°C | 0.5% | 23hPa | 3.5V | 00:00:00 | 02:08:04 | 00:00:00 | |
| DL1XH-west | 2026-09-06 00:23:50 | 50.26505 | 6.30517 | 177° | 11km/h | 26425m | 4.2m/s | -50.5°C | 0.5% | 23.1hPa | 3.5V | 00:00:00 | 00:00:00 | 00:00:00 | |
| DL1XH1-15 | 2026-09-06 00:23:49 | 50.26517 | 6.30512 | 205° | 9km/h | 26408m | 4.2m/s | -50.5°C | 0.5% | 23.2hPa | 3.5V | 00:00:00 | 02:07:55 | 00:00:00 | |
| DM0DOS-11 | 2026-09-06 00:23:46 | 50.26520 | 6.30514 | 225° | 7km/h | 26404m | 4.2m/s | -50.5°C | 0.5% | 23.2hPa | 3.5V | 00:00:00 | 02:07:54 | 00:00:00 | |
| BIOWL1-15 | 2026-09-06 00:23:41 | 50.26522 | 6.30506 | 142° | 11km/h | 26383m | 4m/s | -50.6°C | 0.5% | 23.2hPa | 3.5V | 00:00:00 | 00:00:00 | 00:00:00 | |
| DL1XH1-15 | 2026-09-06 00:23:39 | 50.26532 | 6.30500 | 208° | 7km/h | 26366m | 4.3m/s | -50.6°C | 0.5% | 23.3hPa | 3.5V | 00:00:00 | 02:07:45 | 00:00:00 | |
| DM0DOS-11 | 2026-09-06 00:23:36 | 50.26534 | 6.30502 | 197° | 7km/h | 26362m | 4.4m/s | -50.6°C | 0.5% | 23.3hPa | 3.5V | 00:00:00 | 02:07:44 | 00:00:00 | |
| DL1XH-west | 2026-09-06 00:23:34 | 50.26534 | 6.30502 | 102° | 9km/h | 26358m | 4.4m/s | -50.6°C | 0.5% | 23.3hPa | 3.5V | 00:00:00 | 00:00:00 | 00:00:00 | |
| BIOWL1-15 | 2026-09-06 00:23:31 | 50.26534 | 6.30494 | 160° | 4km/h | 26344m | 4.4m/s | -50.6°C | 0.5% | 23.4hPa | 3.5V | 00:00:00 | 00:00:00 | 00:00:00 | |
| DL1XH1-15 | 2026-09-06 00:23:28 | 50.26543 | 6.30483 | 216° | 7km/h | 26323m | 4.4m/s | -50.5°C | 0.5% | 23.4hPa | 3.5V | 00:00:00 | 02:07:35 | 00:00:00 | |
| DM0DOS-11 | 2026-09-06 00:23:26 | 50.26545 | 6.30484 | 230° | 5km/h | 26319m | 4.5m/s | -50.5°C | 0.5% | 23.4hPa | 3.5V | 00:00:00 | 02:07:34 | 00:00:00 | |
| DO3MHA-11 | 2026-09-06 00:23:21 | 50.26545 | 6.30481 | 115° | 44km/h | 26301m | 4.4m/s | -50.3°C | 0.5% | 23.5hPa | 3.5V | 00:00:00 | 02:07:30 | 00:00:00 | |
| DL1XH1-15 | 2026-09-06 00:23:18 | 50.26556 | 6.30481 | 17° | 5km/h | 26279m | 4.7m/s | -50.3°C | 0.5% | 23.6hPa | 3.5V | 00:00:00 | 02:07:25 | 00:00:00 | |
| DM0DOS-11 | 2026-09-06 00:23:16 | 50.26557 | 6.30482 | 334° | 4km/h | 26275m | 4.6m/s | -50.3°C | 0.5% | 23.6hPa | 3.5V | 00:00:00 | 02:07:24 | 00:00:00 | |
| DL1XH1-15 | 2026-09-06 00:23:08 | 50.26564 | 6.30485 | 2° | 7km/h | 26229m | 4.7m/s | -50.3°C | 0.5% | 23.8hPa | 3.5V | 00:00:00 | 02:07:14 | 00:00:00 | |
| BIOWL1-15 | 2026-09-06 00:23:05 | 50.26564 | 6.30486 | 172° | 4km/h | 26219m | 4.7m/s | -50.4°C | 0.5% | 23.8hPa | 3.5V | 00:00:00 | 00:00:00 | 00:00:00 | |
| DM0DOS-11 | 2026-09-06 00:22:56 | 50.26572 | 6.30489 | 90° | 5km/h | 26183m | 4.8m/s | -50.6°C | 0.5% | 23.9hPa | 3.5V | 00:00:00 | 02:07:04 | 00:00:00 | |
| DL1XH-west | 2026-09-06 00:22:42 | 50.26583 | 6.30484 | 90° | 2km/h | 26121m | 5m/s | -50.8°C | 0.5% | 24.1hPa | 3.5V | 00:00:00 | 00:00:00 | 00:00:00 | |
| BIOWL1-15 | 2026-09-06 00:22:38 | 50.26584 | 6.30481 | 155° | 5km/h | 26091m | 4.5m/s | -50.8°C | 0.5% | 24.2hPa | 3.5V | 00:00:00 | 00:00:00 | 00:00:00 | |
| DM0DOS-11 | 2026-09-06 00:22:36 | 50.26588 | 6.30483 | 186° | 7km/h | 26087m | 4.8m/s | -50.8°C | 0.5% | 24.2hPa | 3.5V | 00:00:00 | 02:06:44 | 00:00:00 | |
| DL1XH-west | 2026-09-06 00:22:29 | 50.26593 | 6.30475 | 160° | 5km/h | 26058m | 4.7m/s | -50.7°C | 0.6% | 24.3hPa | 3.5V | 00:00:00 | 00:00:00 | 00:00:00 | |
| DM0DOS-11 | 2026-09-06 00:22:26 | 50.26603 | 6.30479 | 90° | 7km/h | 26039m | 4.8m/s | -50.7°C | 0.5% | 24.4hPa | 3.5V | 00:00:00 | 02:06:34 | 00:00:00 | |
| DL1XH1-15 | 2026-09-06 00:22:16 | 50.26607 | 6.30467 | 11° | 7km/h | 25991m | 4.7m/s | -50.7°C | 0.5% | 24.6hPa | 3.5V | 00:00:00 | 02:06:24 | 00:00:00 | |
| BIOWL1-15 | 2026-09-06 00:22:15 | 50.26604 | 6.30465 | 54° | 7km/h | 25982m | 5m/s | -50.8°C | 0.6% | 24.6hPa | 3.5V | 00:00:00 | 00:00:00 | 00:00:00 | |
| DM0DOS-11 | 2026-09-06 00:22:06 | 50.26606 | 6.30458 | 27° | 7km/h | 25944m | 4.8m/s | -50.7°C | 0.5% | 24.7hPa | 3.5V | 00:00:00 | 02:06:14 | 00:00:00 | |
| DL1XH1-15 | 2026-09-06 00:22:06 | 50.26604 | 6.30456 | 23° | 7km/h | 25939m | 4.7m/s | -50.7°C | 0.5% | 24.7hPa | 3.5V | 00:00:00 | 02:06:13 | 00:00:00 | |
| DL1XH-west | 2026-09-06 00:22:04 | 50.26604 | 6.30456 | 39° | 4km/h | 25939m | 4.7m/s | -50.7°C | 0.6% | 24.7hPa | 3.5V | 00:00:00 | 00:00:00 | 00:00:00 | |
| BIOWL1-15 | 2026-09-06 00:22:03 | 50.26601 | 6.30454 | 90° | 2km/h | 25935m | 5m/s | -50.7°C | 0.6% | 24.8hPa | 3.5V | 00:00:00 | 00:00:00 | 00:00:00 | |
| DL1XH1-15 | 2026-09-06 00:21:56 | 50.26599 | 6.30441 | 189° | 7km/h | 25891m | 4.7m/s | -50.6°C | 0.5% | 24.9hPa | 3.5V | 00:00:00 | 02:06:03 | 00:00:00 | |
| DL1XH-west | 2026-09-06 00:21:52 | 50.26602 | 6.30442 | 22° | 5km/h | 25882m | 4.8m/s | -50.6°C | 0.6% | 24.9hPa | 3.5V | 00:00:00 | 00:00:00 | 00:00:00 | |
| DM0DOS-11 | 2026-09-06 00:21:46 | 50.26595 | 6.30437 | 193° | 7km/h | 25848m | 4.8m/s | -50.5°C | 0.5% | 25.1hPa | 3.5V | 00:00:00 | 02:05:54 | 00:00:00 | |
| DL1XH1-15 | 2026-09-06 00:21:46 | 50.26596 | 6.30438 | 25° | 9km/h | 25843m | 4.6m/s | -50.5°C | 0.5% | 25.1hPa | 3.5V | 00:00:00 | 02:05:53 | 00:00:00 | |
| DL1XH-west | 2026-09-06 00:21:39 | 50.26584 | 6.30429 | 22° | 4km/h | 25820m | 5m/s | -50.5°C | 0.6% | 25.2hPa | 3.5V | 00:00:00 | 00:00:00 | 00:00:00 | |
| DM0DOS-11 | 2026-09-06 00:21:36 | 50.26584 | 6.30429 | 67° | 11km/h | 25802m | 4.7m/s | -50.6°C | 0.5% | 25.2hPa | 3.5V | 00:00:00 | 02:05:44 | 00:00:00 | |
| DL1XH1-15 | 2026-09-06 00:21:36 | 50.26582 | 6.30425 | 31° | 13km/h | 25792m | 4.5m/s | -50.5°C | 0.5% | 25.2hPa | 3.5V | 00:00:00 | 02:05:42 | 00:00:00 | |
| DB0UT-7 | 2026-09-06 00:21:36 | 50.26584 | 6.30430 | 91° | 13km/h | 25806m | 4.5m/s | -50.5°C | 0.5% | 25.2hPa | 3.5V | 00:00:00 | 02:05:45 | 00:00:00 | |
| DL1XH1-15 | 2026-09-06 00:21:26 | 50.26562 | 6.30407 | 38° | 13km/h | 25747m | 4.8m/s | -50.3°C | 0.5% | 25.4hPa | 3.5V | 00:00:00 | 02:05:32 | 00:00:00 | |
| DM0DOS-11 | 2026-09-06 00:21:26 | 50.26566 | 6.30416 | 56° | 15km/h | 25756m | 4.7m/s | -50.3°C | 0.5% | 25.4hPa | 3.5V | 00:00:00 | 02:05:34 | 00:00:00 | |
| DL1XH-west | 2026-09-06 00:21:22 | 50.26559 | 6.30403 | 3° | 13km/h | 25742m | 4.8m/s | -50.3°C | 0.6% | 25.4hPa | 3.5V | 00:00:00 | 00:00:00 | 00:00:00 | |
| DM0DOS-11 | 2026-09-06 00:21:16 | 50.26537 | 6.30397 | 39° | 16km/h | 25709m | 4.5m/s | -50.2°C | 0.5% | 25.6hPa | 3.5V | 00:00:00 | 02:05:24 | 00:00:00 | |
| DL1XH1-15 | 2026-09-06 00:21:16 | 50.26530 | 6.30390 | 347° | 16km/h | 25700m | 4.5m/s | -50.3°C | 0.5% | 25.6hPa | 3.5V | 00:00:00 | 02:05:22 | 00:00:00 | |
| DM0DOS-11 | 2026-09-06 00:21:06 | 50.26494 | 6.30388 | 346° | 16km/h | 25665m | 4.6m/s | -50.5°C | 0.5% | 25.7hPa | 3.5V | 00:00:00 | 02:05:14 | 00:00:00 | |
| DL1XH1-15 | 2026-09-06 00:21:06 | 50.26487 | 6.30393 | 311° | 16km/h | 25655m | 4.3m/s | -50.5°C | 0.5% | 25.8hPa | 3.5V | 00:00:00 | 02:05:12 | 00:00:00 | |
| BIOWL1-15 | 2026-09-06 00:21:05 | 50.26494 | 6.30388 | 344° | 16km/h | 25665m | 4.6m/s | -50.5°C | 0.6% | 25.7hPa | 3.5V | 00:00:00 | 00:00:00 | 00:00:00 | |
| DL1XH1-15 | 2026-09-06 00:20:56 | 50.26451 | 6.30420 | 344° | 16km/h | 25611m | 4.6m/s | -50.1°C | 0.5% | 25.9hPa | 3.5V | 00:00:00 | 02:05:02 | 00:00:00 | |
| DL1XH-west | 2026-09-06 00:20:55 | 50.26457 | 6.30409 | 306° | 18km/h | 25619m | 4m/s | -50.2°C | 0.6% | 25.9hPa | 3.5V | 00:00:00 | 00:00:00 | 00:00:00 | |
| BIOWL1-15 | 2026-09-06 00:20:54 | 50.26455 | 6.30415 | 335° | 18km/h | 25615m | 4.7m/s | -50.2°C | 0.6% | 25.9hPa | 3.5V | 00:00:00 | 00:00:00 | 00:00:00 | |
| DM0DOS-11 | 2026-09-06 00:20:46 | 50.26424 | 6.30440 | 322° | 16km/h | 25574m | 4.8m/s | -50°C | 0.5% | 26hPa | 3.5V | 00:00:00 | 02:04:54 | 00:00:00 | |
| DL1XH1-15 | 2026-09-06 00:20:46 | 50.26412 | 6.30451 | 346° | 11km/h | 25559m | 4.4m/s | -50°C | 0.5% | 26.1hPa | 3.5V | 00:00:00 | 02:04:51 | 00:00:00 | |
| BIOWL1-15 | 2026-09-06 00:20:42 | 50.26408 | 6.30452 | 298° | 16km/h | 25555m | 4.6m/s | -50.1°C | 0.6% | 26.1hPa | 3.5V | 00:00:00 | 00:00:00 | 00:00:00 | |
| DL1XH-west | 2026-09-06 00:20:39 | 50.26406 | 6.30455 | 294° | 11km/h | 25546m | 4.5m/s | -50.2°C | 0.6% | 26.2hPa | 3.5V | 00:00:00 | 00:00:00 | 00:00:00 | |
| DL1XH1-15 | 2026-09-06 00:20:36 | 50.26387 | 6.30497 | 317° | 15km/h | 25514m | 4.6m/s | -50.4°C | 0.7% | 26.3hPa | 3.5V | 00:00:00 | 02:04:41 | 00:00:00 | |
| DM0DOS-11 | 2026-09-06 00:20:36 | 50.26398 | 6.30476 | 307° | 20km/h | 25527m | 4.4m/s | -50.3°C | 0.7% | 26.2hPa | 3.5V | 00:00:00 | 02:04:44 | 00:00:00 | |
| DL1XH-west | 2026-09-06 00:20:28 | 50.26381 | 6.30510 | 288° | 22km/h | 25496m | 5m/s | -50.2°C | 0.6% | 26.4hPa | 3.5V | 00:00:00 | 00:00:00 | 00:00:00 | |
| DL1XH1-15 | 2026-09-06 00:20:26 | 50.26368 | 6.30560 | 302° | 15km/h | 25468m | 4.9m/s | -50°C | 0.7% | 26.5hPa | 3.5V | 00:00:00 | 02:04:31 | 00:00:00 | |
| DM0DOS-11 | 2026-09-06 00:20:26 | 50.26375 | 6.30537 | 291° | 20km/h | 25482m | 4.7m/s | -50°C | 0.7% | 26.4hPa | 3.5V | 00:00:00 | 02:04:34 | 00:00:00 | |
| DL1XH-west | 2026-09-06 00:20:18 | 50.26363 | 6.30578 | 286° | 22km/h | 25448m | 5m/s | -49.9°C | 0.7% | 26.5hPa | 3.5V | 00:00:00 | 00:00:00 | 00:00:00 | |
| DM0DOS-11 | 2026-09-06 00:20:16 | 50.26359 | 6.30607 | 287° | 18km/h | 25434m | 4.9m/s | -49.7°C | 0.7% | 26.6hPa | 3.5V | 00:00:00 | 02:04:24 | 00:00:00 | |
| DL1XH1-15 | 2026-09-06 00:20:16 | 50.26355 | 6.30625 | 284° | 20km/h | 25419m | 4.8m/s | -49.7°C | 0.7% | 26.6hPa | 3.5V | 00:00:00 | 02:04:21 | 00:00:00 | |
| BIOWL1-15 | 2026-09-06 00:20:14 | 50.26348 | 6.30656 | 270° | 20km/h | 25400m | 4.8m/s | -49.6°C | 0.7% | 26.7hPa | 3.5V | 00:00:00 | 00:00:00 | 00:00:00 | |
| DL1XH-west | 2026-09-06 00:20:07 | 50.26348 | 6.30667 | 281° | 20km/h | 25395m | 5m/s | -49.6°C | 0.7% | 26.7hPa | 3.5V | 00:00:00 | 00:00:00 | 00:00:00 | |
| DM0DOS-11 | 2026-09-06 00:20:06 | 50.26346 | 6.30683 | 253° | 20km/h | 25385m | 4.8m/s | -49.5°C | 0.7% | 26.8hPa | 3.5V | 00:00:00 | 02:04:14 | 00:00:00 | |
| DL1XH1-15 | 2026-09-06 00:20:06 | 50.26348 | 6.30700 | 278° | 26km/h | 25371m | 5.1m/s | -49.4°C | 0.7% | 26.8hPa | 3.5V | 00:00:00 | 02:04:11 | 00:00:00 | |
| DL1XH-west | 2026-09-06 00:19:57 | 50.26346 | 6.30753 | 266° | 22km/h | 25346m | 5m/s | -49.3°C | 0.7% | 26.9hPa | 3.5V | 00:00:00 | 00:00:00 | 00:00:00 | |
| DL1XH1-15 | 2026-09-06 00:19:56 | 50.26351 | 6.30790 | 252° | 29km/h | 25322m | 4.9m/s | -49.1°C | 0.7% | 27hPa | 3.5V | 00:00:00 | 02:04:01 | 00:00:00 | |
| DM0DOS-11 | 2026-09-06 00:19:56 | 50.26347 | 6.30769 | 256° | 22km/h | 25336m | 4.7m/s | -49.2°C | 0.7% | 26.9hPa | 3.5V | 00:00:00 | 02:04:04 | 00:00:00 | |
| DO3MHA-11 | 2026-09-06 00:19:51 | 50.26353 | 6.30801 | 261° | 290km/h | 25317m | 4.8m/s | -49.1°C | 0.7% | 27.0hPa | 3.5V | 00:00:00 | 02:04:00 | 00:00:00 | |
| DM0DOS-11 | 2026-09-06 00:19:46 | 50.26359 | 6.30861 | 251° | 29km/h | 25288m | 5m/s | -49.2°C | 0.7% | 27.1hPa | 3.5V | 00:00:00 | 02:03:54 | 00:00:00 | |
| DL1XH1-15 | 2026-09-06 00:19:46 | 50.26368 | 6.30892 | 248° | 31km/h | 25273m | 4.8m/s | -49.2°C | 0.7% | 27.2hPa | 3.5V | 00:00:00 | 02:03:51 | 00:00:00 | |
| DL1XH-west | 2026-09-06 00:19:44 | 50.26361 | 6.30870 | 241° | 31km/h | 25283m | 5m/s | -49.2°C | 0.7% | 27.1hPa | 3.5V | 00:00:00 | 00:00:00 | 00:00:00 | |
| BIOWL1-15 | 2026-09-06 00:19:37 | 50.26398 | 6.30964 | 229° | 26km/h | 25233m | 4.5m/s | -49°C | 0.7% | 27.3hPa | 3.5V | 00:00:00 | 00:00:00 | 00:00:00 | |
| DM0DOS-11 | 2026-09-06 00:19:36 | 50.26395 | 6.30955 | 234° | 29km/h | 25239m | 4.8m/s | -49°C | 0.7% | 27.3hPa | 3.5V | 00:00:00 | 02:03:44 | 00:00:00 | |
| DL1XH1-15 | 2026-09-06 00:19:35 | 50.26407 | 6.30985 | 228° | 24km/h | 25224m | 4.4m/s | -49°C | 0.7% | 27.4hPa | 3.5V | 00:00:00 | 02:03:41 | 00:00:00 | |
| DB0UT-7 | 2026-09-06 00:19:35 | 50.26395 | 6.30955 | 235° | 16km/h | 25239m | 4.8m/s | -48.9°C | 0.7% | 27.3hPa | 3.5V | 00:00:00 | 02:03:44 | 00:00:00 | |
| DM0DOS-11 | 2026-09-06 00:19:26 | 50.26435 | 6.31036 | 238° | 27km/h | 25193m | 4.4m/s | -48.9°C | 0.7% | 27.5hPa | 3.5V | 00:00:00 | 02:03:34 | 00:00:00 | |
| DL1XH-west | 2026-09-06 00:19:24 | 50.26438 | 6.31044 | 227° | 29km/h | 25189m | 4.8m/s | -48.9°C | 0.7% | 27.5hPa | 3.5V | 00:00:00 | 00:00:00 | 00:00:00 | |
| DL1XH1-15 | 2026-09-06 00:19:18 | 50.26470 | 6.31082 | 212° | 27km/h | 25162m | 4.1m/s | -49.1°C | 0.7% | 27.6hPa | 3.5V | 00:00:00 | 02:03:27 | 00:00:00 | |
| DM0DOS-11 | 2026-09-06 00:19:16 | 50.26487 | 6.31102 | 227° | 29km/h | 25149m | 4m/s | -49.2°C | 0.7% | 27.7hPa | 3.5V | 00:00:00 | 02:03:24 | 00:00:00 | |
| DL1XH1-15 | 2026-09-06 00:19:13 | 50.26532 | 6.31137 | 217° | 24km/h | 25122m | 4.1m/s | -49.9°C | 0.7% | 27.8hPa | 3.5V | 00:00:00 | 02:03:17 | 00:00:00 | |
| DM0DOS-11 | 2026-09-06 00:19:10 | 50.26544 | 6.31154 | 206° | 26km/h | 25110m | 4m/s | -50.1°C | 0.7% | 27.8hPa | 3.5V | 00:00:00 | 02:03:14 | 00:00:00 | |
| DL1XH-west | 2026-09-06 00:19:06 | 50.26540 | 6.31149 | 207° | 26km/h | 25113m | 3.7m/s | -50.1°C | 0.7% | 27.8hPa | 3.5V | 00:00:00 | 00:00:00 | 00:00:00 | |
| DM0DOS-11 | 2026-09-06 00:18:59 | 50.26596 | 6.31183 | 184° | 22km/h | 25070m | 4.1m/s | -50.6°C | 0.7% | 28hPa | 3.5V | 00:00:00 | 02:03:04 | 00:00:00 | |
| DL1XH1-15 | 2026-09-06 00:18:58 | 50.26583 | 6.31179 | 203° | 18km/h | 25082m | 4m/s | -50.4°C | 0.7% | 27.9hPa | 3.5V | 00:00:00 | 02:03:07 | 00:00:00 | |
| DL1XH1-15 | 2026-09-06 00:18:53 | 50.26627 | 6.31195 | 193° | 15km/h | 25040m | 4.4m/s | -50.8°C | 0.7% | 28.1hPa | 3.5V | 00:00:00 | 02:02:57 | 00:00:00 | |
| DM0DOS-11 | 2026-09-06 00:18:49 | 50.26640 | 6.31198 | 182° | 15km/h | 25027m | 4.4m/s | -50.8°C | 0.7% | 28.1hPa | 3.5V | 00:00:00 | 02:02:54 | 00:00:00 | |
| DL1XH-west | 2026-09-06 00:18:48 | 50.26627 | 6.31195 | 185° | 18km/h | 25040m | 4.2m/s | -50.8°C | 0.7% | 28.1hPa | 3.5V | 00:00:00 | 00:00:00 | 00:00:00 | |
| BIOWL1-15 | 2026-09-06 00:18:45 | 50.26651 | 6.31199 | 210° | 15km/h | 25019m | 5m/s | -50.8°C | 0.7% | 28.2hPa | 3.5V | 00:00:00 | 00:00:00 | 00:00:00 | |
| DM0DOS-11 | 2026-09-06 00:18:39 | 50.26674 | 6.31214 | 216° | 9km/h | 24983m | 4.3m/s | -50.8°C | 0.7% | 28.3hPa | 3.5V | 00:00:00 | 02:02:44 | 00:00:00 | |
| DL1XH1-15 | 2026-09-06 00:18:38 | 50.26663 | 6.31215 | 175° | 13km/h | 24996m | 4.3m/s | -50.8°C | 0.7% | 28.3hPa | 3.5V | 00:00:00 | 02:02:47 | 00:00:00 | |
| DL1XH-west | 2026-09-06 00:18:37 | 50.26667 | 6.31215 | 176° | 15km/h | 24992m | 4.5m/s | -50.8°C | 0.7% | 28.3hPa | 3.5V | 00:00:00 | 00:00:00 | 00:00:00 | |
| BIOWL1-15 | 2026-09-06 00:18:34 | 50.26678 | 6.31228 | 186° | 7km/h | 24961m | 4.4m/s | -50.8°C | 0.7% | 28.4hPa | 3.5V | 00:00:00 | 00:00:00 | 00:00:00 | |
| DL1XH1-15 | 2026-09-06 00:18:33 | 50.26683 | 6.31228 | 167° | 7km/h | 24953m | 4.4m/s | -50.9°C | 0.7% | 28.4hPa | 3.5V | 00:00:00 | 02:02:37 | 00:00:00 | |
| DL1XH-west | 2026-09-06 00:18:26 | 50.26687 | 6.31228 | 244° | 4km/h | 24944m | 4.4m/s | -50.9°C | 0.7% | 28.5hPa | 3.5V | 00:00:00 | 00:00:00 | 00:00:00 | |
| BIOWL1-15 | 2026-09-06 00:18:26 | 50.26686 | 6.31233 | 260° | 4km/h | 24935m | 4m/s | -51°C | 0.7% | 28.5hPa | 3.5V | 00:00:00 | 00:00:00 | 00:00:00 | |
| DO3MHA-11 | 2026-09-06 00:18:23 | 50.26685 | 6.31235 | 177° | 872km/h | 24932m | 4.7m/s | -51.0°C | 0.7% | 28.5hPa | 3.5V | 00:00:00 | 02:02:32 | 00:00:00 | |
| DL1XH1-15 | 2026-09-06 00:18:21 | 50.26697 | 6.31234 | 240° | 9km/h | 24908m | 4.6m/s | -51.2°C | 0.7% | 28.6hPa | 3.5V | 00:00:00 | 02:02:27 | 00:00:00 | |
| DM0DOS-11 | 2026-09-06 00:18:19 | 50.26699 | 6.31241 | 189° | 13km/h | 24895m | 4.8m/s | -51.4°C | 0.7% | 28.7hPa | 3.5V | 00:00:00 | 02:02:24 | 00:00:00 | |
| BIOWL1-15 | 2026-09-06 00:18:14 | 50.26702 | 6.31241 | 169° | 16km/h | 24890m | 5m/s | -51.5°C | 0.7% | 28.7hPa | 3.5V | 00:00:00 | 00:00:00 | 00:00:00 | |
| DL1XH-west | 2026-09-06 00:18:09 | 50.26715 | 6.31245 | 229° | 9km/h | 24866m | 4m/s | -51.7°C | 0.7% | 28.8hPa | 3.5V | 00:00:00 | 00:00:00 | 00:00:00 | |
| DL1XH1-15 | 2026-09-06 00:18:08 | 50.26717 | 6.31248 | 199° | 16km/h | 24862m | 4.7m/s | -51.7°C | 0.7% | 28.8hPa | 3.5V | 00:00:00 | 02:02:17 | 00:00:00 | |
| DM0DOS-11 | 2026-09-06 00:18:07 | 50.26729 | 6.31251 | 178° | 16km/h | 24848m | 4.6m/s | -51.7°C | 0.7% | 28.9hPa | 3.5V | 00:00:00 | 02:02:14 | 00:00:00 | |
| BIOWL1-15 | 2026-09-06 00:18:06 | 50.26734 | 6.31251 | 215° | 16km/h | 24843m | 4.4m/s | -51.8°C | 0.7% | 28.9hPa | 3.5V | 00:00:00 | 00:00:00 | 00:00:00 | |
| DJ8HS-15 | 2026-09-06 00:18:05 | 50.26729 | 6.31251 | 186° | 16km/h | 24848m | 4.6m/s | -51.7°C | 0.7% | 28.8hPa | 3.5V | 00:00:00 | 02:02:14 | 00:00:00 | |
| DL1XH1-15 | 2026-09-06 00:18:03 | 50.26748 | 6.31272 | 189° | 18km/h | 24816m | 4.2m/s | -51.9°C | 0.7% | 29hPa | 3.5V | 00:00:00 | 02:02:07 | 00:00:00 | |
| DL1XH-west | 2026-09-06 00:17:57 | 50.26752 | 6.31274 | 189° | 16km/h | 24812m | 4m/s | -52°C | 0.7% | 29hPa | 3.5V | 00:00:00 | 00:00:00 | 00:00:00 | |
| DL1XH1-15 | 2026-09-06 00:17:48 | 50.26788 | 6.31314 | 196° | 22km/h | 24772m | 4.3m/s | -52.1°C | 0.7% | 29.2hPa | 3.5V | 00:00:00 | 02:01:57 | 00:00:00 | |
| DM0DOS-11 | 2026-09-06 00:17:47 | 50.26804 | 6.31325 | 216° | 18km/h | 24759m | 4.4m/s | -52°C | 0.7% | 29.3hPa | 3.5V | 00:00:00 | 02:01:54 | 00:00:00 | |
| DL1XH-west | 2026-09-06 00:17:46 | 50.26800 | 6.31321 | 222° | 16km/h | 24764m | 4.6m/s | -52°C | 0.8% | 29.2hPa | 3.5V | 00:00:00 | 00:00:00 | 00:00:00 | |
| BIOWL1-15 | 2026-09-06 00:17:39 | 50.26827 | 6.31350 | 192° | 27km/h | 24732m | 4m/s | -52°C | 0.7% | 29.4hPa | 3.5V | 00:00:00 | 00:00:00 | 00:00:00 | |
| DM0DOS-11 | 2026-09-06 00:17:37 | 50.26845 | 6.31356 | 210° | 20km/h | 24714m | 4.7m/s | -52°C | 0.7% | 29.4hPa | 3.5V | 00:00:00 | 02:01:44 | 00:00:00 | |
| DB0UT-7 | 2026-09-06 00:17:35 | 50.26845 | 6.31356 | 192° | 22km/h | 24714m | 4.4m/s | -51.9°C | 0.7% | 29.4hPa | 3.5V | 00:00:00 | 00:00:00 | 00:00:00 | |
| DL1XH1-15 | 2026-09-06 00:17:32 | 50.26887 | 6.31355 | 170° | 18km/h | 24677m | 4.5m/s | -51.8°C | 0.7% | 29.6hPa | 3.5V | 00:00:00 | 02:01:36 | 00:00:00 | |
| DL1XH-west | 2026-09-06 00:17:31 | 50.26866 | 6.31363 | 167° | 22km/h | 24695m | 4.5m/s | -51.9°C | 0.8% | 29.5hPa | 3.5V | 00:00:00 | 00:00:00 | 00:00:00 | |
| DO3MHA-11 | 2026-09-06 00:17:27 | 50.26887 | 6.31355 | 174° | 1416km/h | 24677m | 5.0m/s | -51.8°C | 0.7% | 29.6hPa | 3.5V | 00:00:00 | 02:01:36 | 00:00:00 | |
| DM0DOS-11 | 2026-09-06 00:17:26 | 50.26894 | 6.31354 | 182° | 22km/h | 24668m | 4.5m/s | -51.8°C | 0.7% | 29.6hPa | 3.5V | 00:00:00 | 02:01:34 | 00:00:00 | |
| BIOWL1-15 | 2026-09-06 00:17:24 | 50.26909 | 6.31358 | 178° | 26km/h | 24655m | 5m/s | -51.7°C | 0.8% | 29.7hPa | 3.5V | 00:00:00 | 00:00:00 | 00:00:00 | |
| DL1XH-west | 2026-09-06 00:17:20 | 50.26921 | 6.31356 | 148° | 24km/h | 24646m | 4.5m/s | -51.7°C | 0.8% | 29.7hPa | 3.5V | 00:00:00 | 00:00:00 | 00:00:00 | |
| DL1XH1-15 | 2026-09-06 00:17:17 | 50.26936 | 6.31341 | 156° | 22km/h | 24633m | 4.8m/s | -51.7°C | 0.7% | 29.8hPa | 3.5V | 00:00:00 | 02:01:26 | 00:00:00 | |
| DM0DOS-11 | 2026-09-06 00:17:16 | 50.26946 | 6.31335 | 166° | 22km/h | 24623m | 4.7m/s | -51.7°C | 0.7% | 29.8hPa | 3.5V | 00:00:00 | 02:01:24 | 00:00:00 | |
| DL1XH1-15 | 2026-09-06 00:17:12 | 50.26981 | 6.31305 | 165° | 22km/h | 24586m | 4.5m/s | -51.7°C | 0.7% | 30hPa | 3.5V | 00:00:00 | 02:01:16 | 00:00:00 | |
| BIOWL1-15 | 2026-09-06 00:17:08 | 50.26992 | 6.31302 | 150° | 18km/h | 24577m | 4m/s | -51.7°C | 0.8% | 30hPa | 3.5V | 00:00:00 | 00:00:00 | 00:00:00 | |
| DL1XH-west | 2026-09-06 00:17:08 | 50.26981 | 6.31305 | 165° | 24km/h | 24586m | 5m/s | -51.7°C | 0.8% | 30hPa | 3.5V | 00:00:00 | 00:00:00 | 00:00:00 | |
| DM0DOS-11 | 2026-09-06 00:17:06 | 50.26992 | 6.31302 | 150° | 22km/h | 24577m | 4.4m/s | -51.7°C | 0.7% | 30hPa | 3.5V | 00:00:00 | 02:01:14 | 00:00:00 | |
| DL1XH-west | 2026-09-06 00:16:57 | 50.27023 | 6.31254 | 124° | 18km/h | 24543m | 4.5m/s | -51.8°C | 0.8% | 30.2hPa | 3.5V | 00:00:00 | 00:00:00 | 00:00:00 | |
| DL1XH1-15 | 2026-09-06 00:16:57 | 50.27023 | 6.31254 | 130° | 20km/h | 24543m | 4.4m/s | -51.8°C | 0.7% | 30.2hPa | 3.5V | 00:00:00 | 02:01:06 | 00:00:00 | |
| DM0DOS-11 | 2026-09-06 00:16:56 | 50.27028 | 6.31243 | 106° | 22km/h | 24534m | 4.3m/s | -51.8°C | 0.7% | 30.2hPa | 3.5V | 00:00:00 | 02:01:04 | 00:00:00 | |
| BIOWL1-15 | 2026-09-06 00:16:56 | 50.27028 | 6.31243 | 107° | 20km/h | 24534m | 5m/s | -51.8°C | 0.8% | 30.2hPa | 3.5V | 00:00:00 | 00:00:00 | 00:00:00 | |
| DL1XH1-15 | 2026-09-06 00:16:52 | 50.27050 | 6.31182 | 115° | 22km/h | 24500m | 4.2m/s | -52°C | 0.7% | 30.4hPa | 3.5V | 00:00:00 | 02:00:56 | 00:00:00 | |
| DM0DOS-11 | 2026-09-06 00:16:47 | 50.27052 | 6.31168 | 94° | 24km/h | 24492m | 4.3m/s | -52°C | 0.7% | 30.4hPa | 3.5V | 00:00:00 | 02:00:54 | 00:00:00 | |
| DL1XH-west | 2026-09-06 00:16:46 | 50.27052 | 6.31175 | 95° | 18km/h | 24496m | 4m/s | -52°C | 0.8% | 30.4hPa | 3.5V | 00:00:00 | 00:00:00 | 00:00:00 | |
| BIOWL1-15 | 2026-09-06 00:16:45 | 50.27053 | 6.31160 | 101° | 24km/h | 24487m | 4m/s | -52°C | 0.8% | 30.4hPa | 3.5V | 00:00:00 | 00:00:00 | 00:00:00 | |
| DJ8HS-15 | 2026-09-06 00:16:39 | 50.27067 | 6.31113 | 121° | 16km/h | 24467m | 4.3m/s | -51.7°C | 0.7% | 30.5hPa | 3.5V | 00:00:00 | 02:00:48 | 00:00:00 | |
| DL1XH1-15 | 2026-09-06 00:16:37 | 50.27071 | 6.31105 | 106° | 20km/h | 24458m | 4.3m/s | -51.7°C | 0.7% | 30.6hPa | 3.5V | 00:00:00 | 02:00:46 | 00:00:00 | |
| DM0DOS-11 | 2026-09-06 00:16:36 | 50.27074 | 6.31091 | 108° | 24km/h | 24449m | 4.1m/s | -51.8°C | 0.7% | 30.6hPa | 3.5V | 00:00:00 | 02:00:44 | 00:00:00 | |
| BIOWL1-15 | 2026-09-06 00:16:34 | 50.27076 | 6.31082 | 128° | 20km/h | 24445m | 4.4m/s | -51.8°C | 0.8% | 30.6hPa | 3.5V | 00:00:00 | 00:00:00 | 00:00:00 | |
| DL1XH-west | 2026-09-06 00:16:33 | 50.27079 | 6.31073 | 134° | 27km/h | 24441m | 4m/s | -51.8°C | 0.8% | 30.6hPa | 3.5V | 00:00:00 | 00:00:00 | 00:00:00 | |
| DL1XH1-15 | 2026-09-06 00:16:32 | 50.27099 | 6.31041 | 109° | 20km/h | 24415m | 4.3m/s | -51.9°C | 0.7% | 30.8hPa | 3.5V | 00:00:00 | 02:00:36 | 00:00:00 | |
| DM0DOS-11 | 2026-09-06 00:16:26 | 50.27103 | 6.31027 | 124° | 22km/h | 24406m | 4.3m/s | -51.9°C | 0.7% | 30.8hPa | 3.5V | 00:00:00 | 02:00:34 | 00:00:00 | |
| DL1XH-west | 2026-09-06 00:16:23 | 50.27110 | 6.31012 | 146° | 20km/h | 24397m | 4m/s | -51.9°C | 0.8% | 30.8hPa | 3.5V | 00:00:00 | 00:00:00 | 00:00:00 | |
| DL1XH1-15 | 2026-09-06 00:16:17 | 50.27126 | 6.30984 | 107° | 22km/h | 24372m | 4.2m/s | -52°C | 0.7% | 30.9hPa | 3.5V | 00:00:00 | 02:00:26 | 00:00:00 | |
| DM0DOS-11 | 2026-09-06 00:16:16 | 50.27131 | 6.30965 | 121° | 20km/h | 24364m | 4.4m/s | -52°C | 0.7% | 31hPa | 3.5V | 00:00:00 | 02:00:24 | 00:00:00 | |
| BIOWL1-15 | 2026-09-06 00:16:13 | 50.27137 | 6.30953 | 121° | 16km/h | 24355m | 4.2m/s | -52°C | 0.8% | 31hPa | 3.5V | 00:00:00 | 00:00:00 | 00:00:00 | |
| DL1XH-west | 2026-09-06 00:16:12 | 50.27142 | 6.30948 | 120° | 16km/h | 24351m | 4.2m/s | -52°C | 0.8% | 31hPa | 3.5V | 00:00:00 | 00:00:00 | 00:00:00 | |
| DL1XH1-15 | 2026-09-06 00:16:07 | 50.27150 | 6.30919 | 112° | 16km/h | 24330m | 4.5m/s | -52°C | 0.7% | 31.1hPa | 3.5V | 00:00:00 | 02:00:16 | 00:00:00 | |
| DM0DOS-11 | 2026-09-06 00:16:06 | 50.27155 | 6.30909 | 160° | 16km/h | 24320m | 4.2m/s | -52°C | 0.7% | 31.2hPa | 3.5V | 00:00:00 | 02:00:14 | 00:00:00 | |
| DL1XH-west | 2026-09-06 00:15:57 | 50.27173 | 6.30875 | 140° | 13km/h | 24286m | 4.3m/s | -52.2°C | 0.8% | 31.3hPa | 3.5V | 00:00:00 | 00:00:00 | 00:00:00 | |
| DL1XH1-15 | 2026-09-06 00:15:57 | 50.27173 | 6.30875 | 181° | 11km/h | 24286m | 4.2m/s | -52.2°C | 0.7% | 31.3hPa | 3.5V | 00:00:00 | 02:00:06 | 00:00:00 | |
| DM0DOS-11 | 2026-09-06 00:15:55 | 50.27178 | 6.30875 | 161° | 15km/h | 24278m | 4.4m/s | -52.2°C | 0.7% | 31.4hPa | 3.5V | 00:00:00 | 02:00:04 | 00:00:00 | |
| DL1XH-west | 2026-09-06 00:15:45 | 50.27204 | 6.30856 | 129° | 15km/h | 24234m | 4m/s | -52.4°C | 0.8% | 31.6hPa | 3.5V | 00:00:00 | 00:00:00 | 00:00:00 | |
| BIOWL1-15 | 2026-09-06 00:15:39 | 50.27228 | 6.30850 | 156° | 13km/h | 24200m | 4m/s | -52.5°C | 0.8% | 31.7hPa | 3.5V | 00:00:00 | 00:00:00 | 00:00:00 | |
| DL1XH1-15 | 2026-09-06 00:15:37 | 50.27228 | 6.30850 | 155° | 15km/h | 24200m | 4.1m/s | -52.4°C | 0.7% | 31.7hPa | 3.5V | 00:00:00 | 01:59:46 | 00:00:00 | |
| DM0DOS-11 | 2026-09-06 00:15:36 | 50.27234 | 6.30849 | 218° | 15km/h | 24192m | 4.2m/s | -52.5°C | 0.7% | 31.8hPa | 3.5V | 00:00:00 | 01:59:44 | 00:00:00 | |
| DL1XH-west | 2026-09-06 00:15:31 | 50.27246 | 6.30861 | 166° | 15km/h | 24175m | 4m/s | -52.5°C | 0.8% | 31.8hPa | 3.5V | 00:00:00 | 00:00:00 | 00:00:00 | |
| BIOWL1-15 | 2026-09-06 00:15:29 | 50.27253 | 6.30856 | 164° | 22km/h | 24167m | 4m/s | -52.4°C | 0.8% | 31.9hPa | 3.5V | 00:00:00 | 00:00:00 | 00:00:00 | |
| DL1XH1-15 | 2026-09-06 00:15:27 | 50.27264 | 6.30854 | 195° | 18km/h | 24159m | 4.1m/s | -52.4°C | 0.9% | 31.9hPa | 3.5V | 00:00:00 | 01:59:36 | 00:00:00 | |
| DM0DOS-11 | 2026-09-06 00:15:26 | 50.27274 | 6.30860 | 210° | 16km/h | 24151m | 4.2m/s | -52.3°C | 0.9% | 31.9hPa | 3.5V | 00:00:00 | 01:59:34 | 00:00:00 | |
| DL1XH1-15 | 2026-09-06 00:15:22 | 50.27308 | 6.30859 | 199° | 20km/h | 24117m | 4m/s | -52.2°C | 0.9% | 32.1hPa | 3.5V | 00:00:00 | 01:59:26 | 00:00:00 | |
| DL1XH-west | 2026-09-06 00:15:17 | 50.27313 | 6.30862 | 174° | 20km/h | 24113m | 4m/s | -52.2°C | 0.9% | 32.1hPa | 3.5V | 00:00:00 | 00:00:00 | 00:00:00 | |
| DM0DOS-11 | 2026-09-06 00:15:17 | 50.27318 | 6.30864 | 185° | 18km/h | 24109m | 4m/s | -52.2°C | 0.9% | 32.1hPa | 3.5V | 00:00:00 | 01:59:24 | 00:00:00 | |
| DJ8HS-15 | 2026-09-06 00:15:14 | 50.27321 | 6.30865 | 158° | 22km/h | 24105m | 4.0m/s | -52.1°C | 0.9% | 32.1hPa | 3.5V | 00:00:00 | 01:59:23 | 00:00:00 | |
| DL1XH1-15 | 2026-09-06 00:15:11 | 50.27358 | 6.30855 | 189° | 20km/h | 24077m | 4.1m/s | -51.9°C | 0.9% | 32.3hPa | 3.5V | 00:00:00 | 01:59:16 | 00:00:00 | |
| BIOWL1-15 | 2026-09-06 00:15:08 | 50.27362 | 6.30857 | 171° | 15km/h | 24073m | 4m/s | -51.9°C | 0.9% | 32.3hPa | 3.5V | 00:00:00 | 00:00:00 | 00:00:00 | |
| DM0DOS-11 | 2026-09-06 00:15:06 | 50.27366 | 6.30857 | 160° | 22km/h | 24069m | 4.2m/s | -51.9°C | 0.9% | 32.3hPa | 3.5V | 00:00:00 | 01:59:14 | 00:00:00 | |
| DB0UT-7 | 2026-09-06 00:15:05 | 50.27366 | 6.30857 | 161° | 26km/h | 24069m | 4.2m/s | -51.9°C | 0.9% | 32.3hPa | 3.5V | 00:00:00 | 01:59:14 | 00:00:00 | |
| DM0DOS-11 | 2026-09-06 00:14:57 | 50.27420 | 6.30845 | 166° | 27km/h | 24028m | 4.3m/s | -51.7°C | 0.9% | 32.5hPa | 3.5V | 00:00:00 | 01:59:04 | 00:00:00 | |
| DL1XH-west | 2026-09-06 00:14:57 | 50.27416 | 6.30847 | 171° | 26km/h | 24032m | 4.1m/s | -51.8°C | 0.9% | 32.5hPa | 3.5V | 00:00:00 | 00:00:00 | 00:00:00 | |
| DL1XH1-15 | 2026-09-06 00:14:56 | 50.27416 | 6.30847 | 165° | 24km/h | 24032m | 4.3m/s | -51.8°C | 0.9% | 32.5hPa | 3.5V | 00:00:00 | 01:59:05 | 00:00:00 | |
| BIOWL1-15 | 2026-09-06 00:14:54 | 50.27426 | 6.30843 | 168° | 24km/h | 24023m | 4m/s | -51.7°C | 0.9% | 32.5hPa | 3.5V | 00:00:00 | 00:00:00 | 00:00:00 | |
| DJ8HS-15 | 2026-09-06 00:14:53 | 50.27432 | 6.30841 | 175° | 24km/h | 24019m | 4.1m/s | -51.7°C | 0.9% | 32.5hPa | 3.5V | 00:00:00 | 01:59:02 | 00:00:00 | |
| DM0DOS-11 | 2026-09-06 00:14:46 | 50.27484 | 6.30829 | 164° | 27km/h | 23986m | 4.3m/s | -51.8°C | 0.9% | 32.7hPa | 3.5V | 00:00:00 | 01:58:54 | 00:00:00 | |
| BIOWL1-15 | 2026-09-06 00:14:41 | 50.27551 | 6.30795 | 156° | 29km/h | 23943m | 5m/s | -51.8°C | 0.9% | 32.9hPa | 3.5V | 00:00:00 | 00:00:00 | 00:00:00 | |
| DM0DOS-11 | 2026-09-06 00:14:36 | 50.27551 | 6.30795 | 155° | 24km/h | 23943m | 4.4m/s | -51.8°C | 0.9% | 32.9hPa | 3.5V | 00:00:00 | 01:58:44 | 00:00:00 | |
| BIOWL1-15 | 2026-09-06 00:14:30 | 50.27575 | 6.30776 | 153° | 33km/h | 23921m | 5m/s | -51.7°C | 0.9% | 33hPa | 3.5V | 00:00:00 | 00:00:00 | 00:00:00 | |
| DM0DOS-11 | 2026-09-06 00:14:26 | 50.27605 | 6.30753 | 157° | 22km/h | 23898m | 4.1m/s | -51.7°C | 0.9% | 33.1hPa | 3.5V | 00:00:00 | 01:58:34 | 00:00:00 | |
| DL1XH1-15 | 2026-09-06 00:14:24 | 50.27612 | 6.30748 | 151° | 24km/h | 23890m | 4.4m/s | -51.7°C | 0.9% | 33.2hPa | 3.5V | 00:00:00 | 01:58:32 | 00:00:00 | |
| DM0DOS-11 | 2026-09-06 00:14:16 | 50.27652 | 6.30709 | 148° | 20km/h | 23856m | 4.6m/s | -51.9°C | 0.9% | 33.4hPa | 3.5V | 00:00:00 | 01:58:24 | 00:00:00 | |
| DL1XH1-15 | 2026-09-06 00:14:13 | 50.27660 | 6.30701 | 150° | 18km/h | 23846m | 4.4m/s | -51.9°C | 0.9% | 33.4hPa | 3.5V | 00:00:00 | 01:58:22 | 00:00:00 | |
| DJ8HS-15 | 2026-09-06 00:14:09 | 50.27682 | 6.30688 | 123° | 18km/h | 23829m | 4.3m/s | -51.9°C | 0.9% | 33.4hPa | 3.5V | 00:00:00 | 01:58:18 | 00:00:00 | |
| DM0DOS-11 | 2026-09-06 00:14:06 | 50.27694 | 6.30672 | 157° | 20km/h | 23811m | 4.5m/s | -52.2°C | 0.9% | 33.6hPa | 3.5V | 00:00:00 | 01:58:14 | 00:00:00 | |
| DB0UT-7 | 2026-09-06 00:14:05 | 50.27694 | 6.30672 | 158° | 20km/h | 23811m | 4.4m/s | -52.1°C | 0.9% | 33.5hPa | 3.5V | 00:00:00 | 01:58:14 | 00:00:00 | |
| DL1XH1-15 | 2026-09-06 00:14:03 | 50.27706 | 6.30665 | 144° | 16km/h | 23802m | 4.3m/s | -52.3°C | 0.9% | 33.6hPa | 3.5V | 00:00:00 | 01:58:12 | 00:00:00 | |
| BIOWL1-15 | 2026-09-06 00:14:02 | 50.27712 | 6.30662 | 128° | 13km/h | 23798m | 5m/s | -52.4°C | 0.9% | 33.6hPa | 3.5V | 00:00:00 | 00:00:00 | 00:00:00 | |
| DM0DOS-11 | 2026-09-06 00:13:56 | 50.27736 | 6.30633 | 152° | 16km/h | 23767m | 4.5m/s | -52.8°C | 0.9% | 33.8hPa | 3.5V | 00:00:00 | 01:58:04 | 00:00:00 | |
| DL1XH1-15 | 2026-09-06 00:13:53 | 50.27745 | 6.30620 | 136° | 22km/h | 23749m | 4.5m/s | -52.9°C | 0.9% | 33.9hPa | 3.5V | 00:00:00 | 01:58:00 | 00:00:00 | |
| BIOWL1-15 | 2026-09-06 00:13:51 | 50.27745 | 6.30620 | 137° | 16km/h | 23749m | 5m/s | -52.9°C | 0.9% | 33.9hPa | 3.5V | 00:00:00 | 00:00:00 | 00:00:00 | |
| DJ8HS-15 | 2026-09-06 00:13:49 | 50.27753 | 6.30610 | 146° | 20km/h | 23740m | 4.4m/s | -53.0°C | 0.9% | 33.9hPa | 3.5V | 00:00:00 | 01:57:58 | 00:00:00 | |
| DM0DOS-11 | 2026-09-06 00:13:46 | 50.27771 | 6.30584 | 107° | 20km/h | 23722m | 4.4m/s | -53.1°C | 0.9% | 34hPa | 3.5V | 00:00:00 | 01:57:54 | 00:00:00 | |
| BIOWL1-15 | 2026-09-06 00:13:43 | 50.27785 | 6.30558 | 114° | 18km/h | 23704m | 4.4m/s | -53.1°C | 0.9% | 34.1hPa | 3.5V | 00:00:00 | 00:00:00 | 00:00:00 | |
| DL1XH-west | 2026-09-06 00:13:39 | 50.27793 | 6.30539 | 126° | 22km/h | 23690m | 4.2m/s | -53.1°C | 0.9% | 34.2hPa | 3.5V | 00:00:00 | 00:00:00 | 00:00:00 | |
| DM0DOS-11 | 2026-09-06 00:13:36 | 50.27799 | 6.30517 | 140° | 22km/h | 23677m | 4.2m/s | -53.2°C | 0.9% | 34.2hPa | 3.5V | 00:00:00 | 01:57:44 | 00:00:00 | |
| DB0UT-7 | 2026-09-06 00:13:35 | 50.27799 | 6.30517 | 141° | 20km/h | 23677m | 4.2m/s | -53.1°C | 0.9% | 34.2hPa | 3.5V | 00:00:00 | 00:00:00 | 00:00:00 | |
| DL1XH1-15 | 2026-09-06 00:13:33 | 50.27813 | 6.30475 | 108° | 18km/h | 23652m | 4.6m/s | -53.3°C | 0.9% | 34.3hPa | 3.5V | 00:00:00 | 01:57:38 | 00:00:00 | |
| DJ8HS-15 | 2026-09-06 00:13:29 | 50.27813 | 6.30475 | 109° | 20km/h | 23652m | 4.5m/s | -53.2°C | 0.9% | 34.3hPa | 3.5V | 00:00:00 | 01:57:38 | 00:00:00 | |
| DM0DOS-11 | 2026-09-06 00:13:26 | 50.27824 | 6.30454 | 122° | 20km/h | 23634m | 4.4m/s | -53.4°C | 0.9% | 34.5hPa | 3.5V | 00:00:00 | 01:57:34 | 00:00:00 | |
| BIOWL1-15 | 2026-09-06 00:13:25 | 50.27824 | 6.30454 | 0° | 0km/h | 23634m | 0m/s | -53.4°C | 0.9% | 34.5hPa | 3.5V | 00:00:00 | 00:00:00 | 00:00:00 | |
| DL1XH1-15 | 2026-09-06 00:13:25 | 50.27833 | 6.30413 | 150° | 20km/h | 23607m | 4.4m/s | -53.6°C | 0.9% | 34.6hPa | 3.5V | 00:00:00 | 01:57:28 | 00:00:00 | |
| DM0DOS-11 | 2026-09-06 00:13:16 | 50.27849 | 6.30393 | 117° | 20km/h | 23590m | 4.5m/s | -53.7°C | 0.9% | 34.7hPa | 3.5V | 00:00:00 | 01:57:24 | 00:00:00 | |
| DL1XH1-15 | 2026-09-06 00:13:13 | 50.27863 | 6.30354 | 160° | 24km/h | 23564m | 4.1m/s | -53.7°C | 1% | 34.8hPa | 3.5V | 00:00:00 | 01:57:18 | 00:00:00 | |
| DM0DOS-11 | 2026-09-06 00:13:09 | 50.27884 | 6.30330 | 117° | 22km/h | 23547m | 4.1m/s | -53.8°C | 0.9% | 34.9hPa | 3.5V | 00:00:00 | 01:57:14 | 00:00:00 | |
| DJ8HS-15 | 2026-09-06 00:13:09 | 50.27863 | 6.30354 | 161° | 24km/h | 23564m | 4.1m/s | -53.7°C | 1.0% | 34.8hPa | 3.5V | 00:00:00 | 01:57:18 | 00:00:00 | |
| DB0UT-7 | 2026-09-06 00:13:05 | 50.27884 | 6.30330 | 123° | 22km/h | 23547m | 4.0m/s | -53.8°C | 0.9% | 34.8hPa | 3.5V | 00:00:00 | 01:57:14 | 00:00:00 | |
| DL1XH1-15 | 2026-09-06 00:13:03 | 50.27901 | 6.30290 | 142° | 26km/h | 23522m | 4m/s | -54°C | 1% | 35hPa | 3.5V | 00:00:00 | 01:57:08 | 00:00:00 | |
| DL1XH-west | 2026-09-06 00:13:02 | 50.27891 | 6.30305 | 140° | 20km/h | 23535m | 4.2m/s | -54°C | 0.9% | 35hPa | 3.5V | 00:00:00 | 00:00:00 | 00:00:00 | |
| DM0DOS-11 | 2026-09-06 00:12:56 | 50.27916 | 6.30255 | 102° | 22km/h | 23506m | 4.2m/s | -54.2°C | 1% | 35.1hPa | 3.5V | 00:00:00 | 01:57:04 | 00:00:00 | |
| DL1XH1-15 | 2026-09-06 00:12:54 | 50.27934 | 6.30214 | 120° | 27km/h | 23481m | 4.1m/s | -54.4°C | 1% | 35.2hPa | 3.5V | 00:00:00 | 01:56:58 | 00:00:00 | |
| DL1XH-west | 2026-09-06 00:12:51 | 50.27924 | 6.30229 | 135° | 24km/h | 23489m | 4m/s | -54.4°C | 1% | 35.2hPa | 3.5V | 00:00:00 | 00:00:00 | 00:00:00 | |
| DM0DOS-11 | 2026-09-06 00:12:50 | 50.27943 | 6.30169 | 106° | 22km/h | 23465m | 4.3m/s | -54.5°C | 1% | 35.3hPa | 3.5V | 00:00:00 | 01:56:54 | 00:00:00 | |
| DJ8HS-15 | 2026-09-06 00:12:49 | 50.27934 | 6.30214 | 121° | 20km/h | 23481m | 4.1m/s | -54.4°C | 1.0% | 35.2hPa | 3.5V | 00:00:00 | 01:56:58 | 00:00:00 | |
| DL1XH1-15 | 2026-09-06 00:12:38 | 50.27964 | 6.30115 | 106° | 20km/h | 23435m | 4.1m/s | -54.5°C | 1% | 35.5hPa | 3.5V | 00:00:00 | 01:56:47 | 00:00:00 | |
| DM0DOS-11 | 2026-09-06 00:12:36 | 50.27967 | 6.30089 | 98° | 15km/h | 23423m | 4.2m/s | -54.5°C | 1% | 35.5hPa | 3.5V | 00:00:00 | 01:56:44 | 00:00:00 | |
| DL1XH-west | 2026-09-06 00:12:32 | 50.27972 | 6.30075 | 127° | 22km/h | 23410m | 4m/s | -54.5°C | 1% | 35.6hPa | 3.5V | 00:00:00 | 00:00:00 | 00:00:00 | |
| DM0DOS-11 | 2026-09-06 00:12:30 | 50.27981 | 6.30028 | 137° | 11km/h | 23381m | 4.2m/s | -54.4°C | 1% | 35.8hPa | 3.5V | 00:00:00 | 01:56:34 | 00:00:00 | |
| DL1XH1-15 | 2026-09-06 00:12:28 | 50.27981 | 6.30045 | 90° | 13km/h | 23393m | 4.1m/s | -54.5°C | 1% | 35.7hPa | 3.5V | 00:00:00 | 01:56:37 | 00:00:00 | |
| DL1XH1-15 | 2026-09-06 00:12:18 | 50.27992 | 6.29996 | 105° | 9km/h | 23352m | 4.3m/s | -54.3°C | 1% | 35.9hPa | 3.5V | 00:00:00 | 01:56:27 | 00:00:00 | |
| DL1XH-west | 2026-09-06 00:12:16 | 50.27994 | 6.29993 | 143° | 15km/h | 23343m | 4.2m/s | -54.2°C | 1% | 36hPa | 3.5V | 00:00:00 | 00:00:00 | 00:00:00 | |
| DM0DOS-11 | 2026-09-06 00:12:16 | 50.27996 | 6.29993 | 152° | 13km/h | 23339m | 4.1m/s | -54.2°C | 1% | 36hPa | 3.5V | 00:00:00 | 01:56:24 | 00:00:00 | |
| DJ8HS-15 | 2026-09-06 00:12:08 | 50.28008 | 6.29969 | 167° | 13km/h | 23310m | 4.0m/s | -54.1°C | 1.0% | 36.1hPa | 3.5V | 00:00:00 | 01:56:17 | 00:00:00 | |
| DM0DOS-11 | 2026-09-06 00:12:06 | 50.28018 | 6.29965 | 139° | 11km/h | 23298m | 4m/s | -54.1°C | 1% | 36.2hPa | 3.5V | 00:00:00 | 01:56:14 | 00:00:00 | |
| DL1XH-west | 2026-09-06 00:12:04 | 50.28022 | 6.29961 | 139° | 5km/h | 23294m | 4m/s | -54.1°C | 1% | 36.2hPa | 3.5V | 00:00:00 | 00:00:00 | 00:00:00 | |
| DM0DOS-11 | 2026-09-06 00:11:56 | 50.28042 | 6.29948 | 125° | 11km/h | 23253m | 4.2m/s | -54°C | 1% | 36.5hPa | 3.5V | 00:00:00 | 01:56:03 | 00:00:00 | |
| DL1XH1-15 | 2026-09-06 00:11:56 | 50.28043 | 6.29946 | 146° | 11km/h | 23249m | 4.2m/s | -54°C | 1% | 36.5hPa | 3.5V | 00:00:00 | 01:56:02 | 00:00:00 | |
| DL1XH-west | 2026-09-06 00:11:52 | 50.28044 | 6.29945 | 214° | 13km/h | 23244m | 4m/s | -54°C | 1% | 36.5hPa | 3.5V | 00:00:00 | 00:00:00 | 00:00:00 | |
| DL1XH1-15 | 2026-09-06 00:11:47 | 50.28077 | 6.29951 | 202° | 15km/h | 23204m | 4.1m/s | -54.1°C | 1% | 36.7hPa | 3.5V | 00:00:00 | 01:55:51 | 00:00:00 | |
| DM0DOS-11 | 2026-09-06 00:11:46 | 50.28067 | 6.29946 | 189° | 18km/h | 23212m | 4.1m/s | -54.1°C | 1% | 36.7hPa | 3.5V | 00:00:00 | 01:55:53 | 00:00:00 | |
| DJ8HS-15 | 2026-09-06 00:11:45 | 50.28063 | 6.29947 | 168° | 18km/h | 23217m | 4.3m/s | -54.0°C | 1.0% | 36.6hPa | 3.5V | 00:00:00 | 01:55:54 | 00:00:00 | |
| DM0DOS-11 | 2026-09-06 00:11:36 | 50.28105 | 6.29958 | 186° | 20km/h | 23171m | 4m/s | -54.4°C | 1% | 36.9hPa | 3.5V | 00:00:00 | 01:55:43 | 00:00:00 | |
| DL1XH-west | 2026-09-06 00:11:35 | 50.28100 | 6.29955 | 180° | 20km/h | 23175m | 4.2m/s | -54.3°C | 1% | 36.9hPa | 3.5V | 00:00:00 | 00:00:00 | 00:00:00 | |
| BIOWL1-15 | 2026-09-06 00:11:34 | 50.28123 | 6.29951 | 150° | 20km/h | 23155m | 4.1m/s | -54.5°C | 1% | 37hPa | 3.5V | 00:00:00 | 00:00:00 | 00:00:00 | |
| DL1XH1-15 | 2026-09-06 00:11:31 | 50.28126 | 6.29946 | 138° | 18km/h | 23151m | 4m/s | -54.5°C | 1% | 37hPa | 3.5V | 00:00:00 | 01:55:38 | 00:00:00 | |
| DM0DOS-11 | 2026-09-06 00:11:26 | 50.28147 | 6.29940 | 162° | 24km/h | 23131m | 4m/s | -54.6°C | 1% | 37.1hPa | 3.5V | 00:00:00 | 01:55:33 | 00:00:00 | |
| DL1XH-west | 2026-09-06 00:11:23 | 50.28152 | 6.29937 | 151° | 22km/h | 23127m | 4m/s | -54.6°C | 1% | 37.1hPa | 3.5V | 00:00:00 | 00:00:00 | 00:00:00 | |
| DL1XH1-15 | 2026-09-06 00:11:19 | 50.28171 | 6.29914 | 174° | 22km/h | 23111m | 4.2m/s | -54.6°C | 1% | 37.2hPa | 3.5V | 00:00:00 | 01:55:28 | 00:00:00 | |
| DM0DOS-11 | 2026-09-06 00:11:16 | 50.28194 | 6.29892 | 138° | 22km/h | 23090m | 4m/s | -54.5°C | 1% | 37.4hPa | 3.5V | 00:00:00 | 01:55:23 | 00:00:00 | |
| DL1XH1-15 | 2026-09-06 00:11:14 | 50.28218 | 6.29875 | 128° | 24km/h | 23070m | 4.1m/s | -54.4°C | 1% | 37.5hPa | 3.5V | 00:00:00 | 01:55:18 | 00:00:00 | |
| DL1XH-west | 2026-09-06 00:11:06 | 50.28230 | 6.29853 | 151° | 20km/h | 23058m | 4.2m/s | -54.4°C | 1% | 37.5hPa | 3.5V | 00:00:00 | 00:00:00 | 00:00:00 | |
| DM0DOS-11 | 2026-09-06 00:11:06 | 50.28239 | 6.29841 | 167° | 22km/h | 23049m | 4.1m/s | -54.4°C | 1% | 37.6hPa | 3.5V | 00:00:00 | 01:55:13 | 00:00:00 | |
| DJ8HS-15 | 2026-09-06 00:11:05 | 50.28234 | 6.29846 | 155° | 24km/h | 23053m | 4.0m/s | -54.3°C | 1.0% | 37.5hPa | 3.5V | 00:00:00 | 01:55:14 | 00:00:00 | |
| DL1XH1-15 | 2026-09-06 00:11:04 | 50.28262 | 6.29820 | 120° | 24km/h | 23028m | 4.2m/s | -54.3°C | 1% | 37.7hPa | 3.5V | 00:00:00 | 01:55:08 | 00:00:00 | |
| DM0DOS-11 | 2026-09-06 00:10:56 | 50.28284 | 6.29788 | 122° | 24km/h | 23003m | 4.1m/s | -54.3°C | 1% | 37.8hPa | 3.5V | 00:00:00 | 01:55:02 | 00:00:00 | |
| DL1XH1-15 | 2026-09-06 00:10:54 | 50.28298 | 6.29755 | 150° | 24km/h | 22987m | 4.4m/s | -54.5°C | 1% | 37.9hPa | 3.5V | 00:00:00 | 01:54:58 | 00:00:00 | |
| DM0DOS-11 | 2026-09-06 00:10:46 | 50.28323 | 6.29716 | 135° | 26km/h | 22961m | 4.2m/s | -54.5°C | 1% | 38hPa | 3.5V | 00:00:00 | 01:54:52 | 00:00:00 | |
| DJ8HS-15 | 2026-09-06 00:10:45 | 50.28316 | 6.29736 | 118° | 31km/h | 22969m | 4.1m/s | -54.5°C | 1.0% | 38.0hPa | 3.5V | 00:00:00 | 01:54:54 | 00:00:00 | |
| DL1XH1-15 | 2026-09-06 00:10:44 | 50.28344 | 6.29696 | 121° | 29km/h | 22944m | 4.3m/s | -54.6°C | 1% | 38.1hPa | 3.5V | 00:00:00 | 01:54:48 | 00:00:00 | |
| DM0DOS-11 | 2026-09-06 00:10:36 | 50.28374 | 6.29649 | 144° | 31km/h | 22919m | 4.2m/s | -54.9°C | 1% | 38.3hPa | 3.5V | 00:00:00 | 01:54:42 | 00:00:00 | |
| BIOWL1-15 | 2026-09-06 00:10:34 | 50.28367 | 6.29655 | 149° | 29km/h | 22923m | 4m/s | -54.8°C | 1% | 38.3hPa | 3.5V | 00:00:00 | 00:00:00 | 00:00:00 | |
| DL1XH1-15 | 2026-09-06 00:10:28 | 50.28402 | 6.29590 | 137° | 31km/h | 22893m | 4.3m/s | -55.2°C | 1% | 38.5hPa | 3.5V | 00:00:00 | 01:54:36 | 00:00:00 | |
| DM0DOS-11 | 2026-09-06 00:10:26 | 50.28426 | 6.29553 | 118° | 35km/h | 22876m | 4.2m/s | -55.2°C | 1% | 38.5hPa | 3.5V | 00:00:00 | 01:54:32 | 00:00:00 | |
| DJ8HS-15 | 2026-09-06 00:10:24 | 50.28420 | 6.29565 | 123° | 29km/h | 22881m | 4.3m/s | -55.2°C | 1.1% | 38.5hPa | 3.5V | 00:00:00 | 01:54:33 | 00:00:00 | |
| DL1XH1-15 | 2026-09-06 00:10:22 | 50.28447 | 6.29487 | 116° | 31km/h | 22851m | 4.7m/s | -55.3°C | 1% | 38.7hPa | 3.5V | 00:00:00 | 01:54:26 | 00:00:00 | |
| BIOWL1-15 | 2026-09-06 00:10:21 | 50.28434 | 6.29525 | 120° | 33km/h | 22868m | 5m/s | -55.3°C | 1% | 38.6hPa | 3.5V | 00:00:00 | 00:00:00 | 00:00:00 | |
| DM0DOS-11 | 2026-09-06 00:10:16 | 50.28466 | 6.29440 | 111° | 27km/h | 22832m | 4.3m/s | -55.4°C | 1.1% | 38.8hPa | 3.5V | 00:00:00 | 01:54:22 | 00:00:00 | |
| DM0DOS-11 | 2026-09-06 00:10:06 | 50.28489 | 6.29331 | 100° | 29km/h | 22787m | 4.4m/s | -55.4°C | 1.1% | 39.1hPa | 3.5V | 00:00:00 | 01:54:12 | 00:00:00 | |
| DL1XH1-15 | 2026-09-06 00:10:06 | 50.28484 | 6.29362 | 106° | 27km/h | 22801m | 4.5m/s | -55.4°C | 1.1% | 39hPa | 3.5V | 00:00:00 | 01:54:15 | 00:00:00 | |
| BIOWL1-15 | 2026-09-06 00:10:02 | 50.28496 | 6.29297 | 103° | 27km/h | 22774m | 4.5m/s | -55.4°C | 1.1% | 39.1hPa | 3.5V | 00:00:00 | 00:00:00 | 00:00:00 | |
| DL1XH1-15 | 2026-09-06 00:09:56 | 50.28502 | 6.29254 | 93° | 26km/h | 22756m | 4.5m/s | -55.4°C | 1.1% | 39.2hPa | 3.5V | 00:00:00 | 01:54:05 | 00:00:00 | |
| DM0DOS-11 | 2026-09-06 00:09:56 | 50.28505 | 6.29223 | 110° | 26km/h | 22742m | 4.2m/s | -55.3°C | 1.1% | 39.3hPa | 3.5V | 00:00:00 | 01:54:02 | 00:00:00 | |
| BIOWL1-15 | 2026-09-06 00:09:43 | 50.28513 | 6.29118 | 82° | 26km/h | 22694m | 4.4m/s | -55.1°C | 1.1% | 39.6hPa | 3.5V | 00:00:00 | 00:00:00 | 00:00:00 | |
| DL1XH1-15 | 2026-09-06 00:09:36 | 50.28509 | 6.29033 | 85° | 24km/h | 22655m | 4.7m/s | -54.9°C | 1.1% | 39.9hPa | 3.5V | 00:00:00 | 01:53:42 | 00:00:00 | |
| BIOWL1-15 | 2026-09-06 00:09:27 | 50.28498 | 6.28981 | 73° | 24km/h | 22625m | 4.2m/s | -54.7°C | 1.1% | 40hPa | 3.5V | 00:00:00 | 00:00:00 | 00:00:00 | |
| DL1XH1-15 | 2026-09-06 00:09:26 | 50.28486 | 6.28936 | 54° | 26km/h | 22603m | 4.4m/s | -54.6°C | 1.1% | 40.1hPa | 3.5V | 00:00:00 | 01:53:31 | 00:00:00 | |
| DM0DOS-11 | 2026-09-06 00:09:26 | 50.28491 | 6.28946 | 53° | 26km/h | 22608m | 4.6m/s | -54.7°C | 1.1% | 40.1hPa | 3.5V | 00:00:00 | 01:53:32 | 00:00:00 | |
| DJ8HS-15 | 2026-09-06 00:09:24 | 50.28495 | 6.28955 | 64° | 26km/h | 22612m | 4.3m/s | -54.6°C | 1.1% | 40.1hPa | 3.5V | 00:00:00 | 01:53:33 | 00:00:00 | |
| DL1XH1-15 | 2026-09-06 00:09:16 | 50.28458 | 6.28857 | 64° | 26km/h | 22558m | 4.4m/s | -54.5°C | 1.1% | 40.4hPa | 3.5V | 00:00:00 | 01:53:21 | 00:00:00 | |
| DM0DOS-11 | 2026-09-06 00:09:16 | 50.28458 | 6.28864 | 80° | 22km/h | 22562m | 4.3m/s | -54.5°C | 1.1% | 40.4hPa | 3.5V | 00:00:00 | 01:53:22 | 00:00:00 | |
| BIOWL1-15 | 2026-09-06 00:09:14 | 50.28461 | 6.28871 | 67° | 20km/h | 22567m | 4.2m/s | -54.5°C | 1.1% | 40.4hPa | 3.5V | 00:00:00 | 00:00:00 | 00:00:00 | |
| DM0DOS-11 | 2026-09-06 00:09:07 | 50.28426 | 6.28788 | 36° | 29km/h | 22519m | 4.7m/s | -54.5°C | 1.1% | 40.7hPa | 3.5V | 00:00:00 | 01:53:12 | 00:00:00 | |
| DB0UT-7 | 2026-09-06 00:09:05 | 50.28431 | 6.28800 | 69° | 26km/h | 22527m | 4.3m/s | -54.5°C | 1.1% | 40.6hPa | 3.5V | 00:00:00 | 01:53:14 | 00:00:00 | |
| DJ8HS-15 | 2026-09-06 00:09:02 | 50.28419 | 6.28780 | 40° | 26km/h | 22514m | 4.3m/s | -54.4°C | 1.1% | 40.7hPa | 3.5V | 00:00:00 | 01:53:11 | 00:00:00 | |
| DM0DOS-11 | 2026-09-06 00:08:56 | 50.28370 | 6.28725 | 36° | 24km/h | 22473m | 4.3m/s | -54.3°C | 1.1% | 41hPa | 3.5V | 00:00:00 | 01:53:02 | 00:00:00 | |
| DL1XH1-15 | 2026-09-06 00:08:51 | 50.28337 | 6.28690 | 31° | 26km/h | 22447m | 4.1m/s | -54.2°C | 1.1% | 41.1hPa | 3.5V | 00:00:00 | 01:52:56 | 00:00:00 | |
| DM0DOS-11 | 2026-09-06 00:08:46 | 50.28317 | 6.28668 | 27° | 26km/h | 22431m | 4.2m/s | -54.3°C | 1.1% | 41.2hPa | 3.5V | 00:00:00 | 01:52:52 | 00:00:00 | |
| BIOWL1-15 | 2026-09-06 00:08:43 | 50.28292 | 6.28656 | 23° | 26km/h | 22414m | 4.3m/s | -54.4°C | 1.2% | 41.3hPa | 3.6V | 00:00:00 | 00:00:00 | 00:00:00 | |
| DJ8HS-15 | 2026-09-06 00:08:39 | 50.28292 | 6.28656 | 33° | 20km/h | 22414m | 4.2m/s | -54.3°C | 1.1% | 41.3hPa | 3.6V | 00:00:00 | 01:52:48 | 00:00:00 | |
| DL1XH1-15 | 2026-09-06 00:08:38 | 50.28274 | 6.28638 | 21° | 22km/h | 22401m | 4.3m/s | -54.4°C | 1.1% | 41.4hPa | 3.6V | 00:00:00 | 01:52:45 | 00:00:00 | |
| DM0DOS-11 | 2026-09-06 00:08:36 | 50.28261 | 6.28632 | 16° | 26km/h | 22389m | 4.5m/s | -54.5°C | 1.1% | 41.5hPa | 3.6V | 00:00:00 | 01:52:42 | 00:00:00 | |
| DB0UT-7 | 2026-09-06 00:08:35 | 50.28270 | 6.28636 | 16° | 20km/h | 22397m | 4.2m/s | -54.4°C | 1.1% | 41.4hPa | 3.6V | 00:00:00 | 00:00:00 | 00:00:00 | |
| DM0DOS-11 | 2026-09-06 00:08:27 | 50.28205 | 6.28605 | 10° | 24km/h | 22345m | 4.4m/s | -54.6°C | 1.1% | 41.8hPa | 3.6V | 00:00:00 | 01:52:32 | 00:00:00 | |
| DL1XH1-15 | 2026-09-06 00:08:27 | 50.28220 | 6.28610 | 13° | 22km/h | 22358m | 4.4m/s | -54.6°C | 1.1% | 41.7hPa | 3.6V | 00:00:00 | 01:52:35 | 00:00:00 | |
| BIOWL1-15 | 2026-09-06 00:08:22 | 50.28183 | 6.28596 | 26° | 15km/h | 22327m | 4m/s | -54.7°C | 1.2% | 41.9hPa | 3.5V | 00:00:00 | 00:00:00 | 00:00:00 | |
| DJ8HS-15 | 2026-09-06 00:08:18 | 50.28180 | 6.28593 | 23° | 13km/h | 22323m | 4.3m/s | -54.6°C | 1.1% | 41.8hPa | 3.6V | 00:00:00 | 01:52:27 | 00:00:00 | |
| DM0DOS-11 | 2026-09-06 00:08:16 | 50.28152 | 6.28578 | 52° | 16km/h | 22300m | 4.2m/s | -54.8°C | 1.1% | 42hPa | 3.6V | 00:00:00 | 01:52:22 | 00:00:00 | |
| BIOWL1-15 | 2026-09-06 00:08:14 | 50.28151 | 6.28574 | 51° | 11km/h | 22296m | 4m/s | -54.9°C | 1.2% | 42hPa | 3.6V | 00:00:00 | 00:00:00 | 00:00:00 | |
| DM0DOS-11 | 2026-09-06 00:08:07 | 50.28122 | 6.28547 | 18° | 11km/h | 22258m | 4.5m/s | -55.1°C | 1.1% | 42.3hPa | 3.5V | 00:00:00 | 01:52:12 | 00:00:00 | |
| DL1XH1-15 | 2026-09-06 00:08:06 | 50.28124 | 6.28549 | 20° | 9km/h | 22262m | 4.4m/s | -55.1°C | 1.1% | 42.3hPa | 3.5V | 00:00:00 | 01:52:13 | 00:00:00 | |
| BIOWL1-15 | 2026-09-06 00:08:05 | 50.28120 | 6.28546 | 23° | 11km/h | 22253m | 4.4m/s | -55.1°C | 1.2% | 42.3hPa | 3.6V | 00:00:00 | 00:00:00 | 00:00:00 | |
| DL1XH-west | 2026-09-06 00:07:59 | 50.28107 | 6.28539 | 81° | 4km/h | 22235m | 4.3m/s | -55.1°C | 1.2% | 42.4hPa | 3.6V | 00:00:00 | 00:00:00 | 00:00:00 | |
| DJ8HS-15 | 2026-09-06 00:07:58 | 50.28107 | 6.28539 | 131° | 7km/h | 22235m | 4.1m/s | -55.1°C | 1.1% | 42.4hPa | 3.6V | 00:00:00 | 01:52:07 | 00:00:00 | |
| DL1XH1-15 | 2026-09-06 00:07:56 | 50.28104 | 6.28532 | 11° | 7km/h | 22210m | 4.2m/s | -55°C | 1.1% | 42.6hPa | 3.6V | 00:00:00 | 01:52:01 | 00:00:00 | |
| DM0DOS-11 | 2026-09-06 00:07:56 | 50.28107 | 6.28532 | 3° | 9km/h | 22214m | 4.3m/s | -55°C | 1.1% | 42.6hPa | 3.6V | 00:00:00 | 01:52:02 | 00:00:00 | |
| DM0DOS-11 | 2026-09-06 00:07:46 | 50.28101 | 6.28520 | 353° | 7km/h | 22170m | 4.2m/s | -54.7°C | 1.1% | 42.8hPa | 3.6V | 00:00:00 | 01:51:52 | 00:00:00 | |
| DJ8HS-15 | 2026-09-06 00:07:37 | 50.28110 | 6.28514 | 53° | 13km/h | 22145m | 4.3m/s | -54.5°C | 1.1% | 43.0hPa | 3.6V | 00:00:00 | 01:51:46 | 00:00:00 | |
| DL1XH1-15 | 2026-09-06 00:07:36 | 50.28109 | 6.28510 | 35° | 9km/h | 22135m | 4.3m/s | -54.5°C | 1.1% | 43.1hPa | 3.6V | 00:00:00 | 01:51:44 | 00:00:00 | |
| DB0UT-7 | 2026-09-06 00:07:35 | 50.28108 | 6.28510 | 36° | 16km/h | 22135m | 4.2m/s | -54.5°C | 1.1% | 43.0hPa | 3.6V | 00:00:00 | 00:00:00 | 00:00:00 | |
| DL1XH1-15 | 2026-09-06 00:07:26 | 50.28125 | 6.28490 | 113° | 15km/h | 22092m | 4.5m/s | -54.2°C | 1.2% | 43.4hPa | 3.6V | 00:00:00 | 01:51:34 | 00:00:00 | |
| DM0DOS-11 | 2026-09-06 00:07:23 | 50.28128 | 6.28486 | 154° | 16km/h | 22082m | 4.2m/s | -54.2°C | 1.2% | 43.4hPa | 3.6V | 00:00:00 | 01:51:32 | 00:00:00 | |
| BIOWL1-15 | 2026-09-06 00:07:17 | 50.28151 | 6.28476 | 199° | 7km/h | 22057m | 4m/s | -54.2°C | 1.3% | 43.6hPa | 3.5V | 00:00:00 | 00:00:00 | 00:00:00 | |
| DM0DOS-11 | 2026-09-06 00:07:16 | 50.28165 | 6.28472 | 156° | 22km/h | 22039m | 4.6m/s | -54.3°C | 1.2% | 43.7hPa | 3.5V | 00:00:00 | 01:51:22 | 00:00:00 | |
| DL1XH1-15 | 2026-09-06 00:07:16 | 50.28154 | 6.28478 | 168° | 24km/h | 22049m | 4.7m/s | -54.2°C | 1.2% | 43.6hPa | 3.5V | 00:00:00 | 01:51:24 | 00:00:00 | |
| BIOWL1-15 | 2026-09-06 00:07:07 | 50.28208 | 6.28445 | 154° | 27km/h | 22003m | 4.4m/s | -54.5°C | 1.3% | 43.9hPa | 3.5V | 00:00:00 | 00:00:00 | 00:00:00 | |
| DM0DOS-11 | 2026-09-06 00:07:06 | 50.28220 | 6.28438 | 161° | 26km/h | 21994m | 4.3m/s | -54.5°C | 1.2% | 44hPa | 3.5V | 00:00:00 | 01:51:12 | 00:00:00 | |
| DL1XH1-15 | 2026-09-06 00:07:06 | 50.28208 | 6.28445 | 156° | 26km/h | 22003m | 4.5m/s | -54.5°C | 1.2% | 43.9hPa | 3.5V | 00:00:00 | 01:51:14 | 00:00:00 | |
| DL1XH-west | 2026-09-06 00:07:04 | 50.28214 | 6.28441 | 161° | 20km/h | 21998m | 4m/s | -54.5°C | 1.3% | 44hPa | 3.5V | 00:00:00 | 00:00:00 | 00:00:00 | |
| DL1XH1-15 | 2026-09-06 00:06:56 | 50.28268 | 6.28403 | 156° | 31km/h | 21959m | 4.2m/s | -54.3°C | 1.2% | 44.2hPa | 3.5V | 00:00:00 | 01:51:04 | 00:00:00 | |
| DM0DOS-11 | 2026-09-06 00:06:56 | 50.28280 | 6.28395 | 150° | 35km/h | 21950m | 4.3m/s | -54.3°C | 1.2% | 44.3hPa | 3.5V | 00:00:00 | 01:51:02 | 00:00:00 | |
| BIOWL1-15 | 2026-09-06 00:06:47 | 50.28345 | 6.28332 | 140° | 35km/h | 21912m | 5m/s | -54.2°C | 1.3% | 44.5hPa | 3.5V | 00:00:00 | 00:00:00 | 00:00:00 | |
| DM0DOS-11 | 2026-09-06 00:06:46 | 50.28352 | 6.28323 | 141° | 27km/h | 21907m | 4m/s | -54.2°C | 1.2% | 44.6hPa | 3.5V | 00:00:00 | 01:50:52 | 00:00:00 | |
| DL1XH1-15 | 2026-09-06 00:06:46 | 50.28336 | 6.28342 | 143° | 33km/h | 21915m | 3.9m/s | -54.2°C | 1.2% | 44.5hPa | 3.5V | 00:00:00 | 01:50:54 | 00:00:00 | |
| DL1XH-west | 2026-09-06 00:06:45 | 50.28336 | 6.28342 | 144° | 42km/h | 21915m | 3m/s | -54.2°C | 1.3% | 44.5hPa | 3.5V | 00:00:00 | 00:00:00 | 00:00:00 | |
| DM0DOS-11 | 2026-09-06 00:06:36 | 50.28409 | 6.28256 | 144° | 31km/h | 21867m | 4.1m/s | -54°C | 1.2% | 44.8hPa | 3.5V | 00:00:00 | 01:50:42 | 00:00:00 | |
| DL1XH1-15 | 2026-09-06 00:06:36 | 50.28401 | 6.28266 | 138° | 26km/h | 21875m | 4.1m/s | -54°C | 1.2% | 44.8hPa | 3.5V | 00:00:00 | 01:50:44 | 00:00:00 | |
| BIOWL1-15 | 2026-09-06 00:06:35 | 50.28487 | 6.28166 | 134° | 22km/h | 21815m | 3.7m/s | -54°C | 1.3% | 45.2hPa | 3.5V | 00:00:00 | 00:00:00 | 00:00:00 | |
| DL1XH-west | 2026-09-06 00:06:34 | 50.28470 | 6.28184 | 138° | 27km/h | 21827m | 3.8m/s | -53.9°C | 1.3% | 45.1hPa | 3.6V | 00:00:00 | 00:00:00 | 00:00:00 | |
| DL1XH1-15 | 2026-09-06 00:06:31 | 50.28456 | 6.28202 | 139° | 31km/h | 21835m | 3.9m/s | -53.9°C | 1.2% | 45.1hPa | 3.6V | 00:00:00 | 01:50:34 | 00:00:00 | |
| DM0DOS-11 | 2026-09-06 00:06:31 | 50.28470 | 6.28184 | 146° | 27km/h | 21827m | 3.9m/s | -53.9°C | 1.2% | 45.1hPa | 3.6V | 00:00:00 | 01:50:32 | 00:00:00 | |
| DL1XH1-15 | 2026-09-06 00:06:17 | 50.28511 | 6.28128 | 135° | 29km/h | 21797m | 3.9m/s | -54.1°C | 1.2% | 45.3hPa | 3.6V | 00:00:00 | 01:50:24 | 00:00:00 | |
| DM0DOS-11 | 2026-09-06 00:06:16 | 50.28521 | 6.28112 | 138° | 29km/h | 21789m | 3.9m/s | -54.1°C | 1.2% | 45.4hPa | 3.5V | 00:00:00 | 01:50:22 | 00:00:00 | |
| DL1XH-west | 2026-09-06 00:06:12 | 50.28526 | 6.28106 | 137° | 27km/h | 21785m | 3.8m/s | -54.2°C | 1.4% | 45.4hPa | 3.6V | 00:00:00 | 00:00:00 | 00:00:00 | |
| BIOWL1-15 | 2026-09-06 00:06:12 | 50.28561 | 6.28057 | 141° | 31km/h | 21763m | 4m/s | -54.3°C | 1.3% | 45.5hPa | 3.5V | 00:00:00 | 00:00:00 | 00:00:00 | |
| DL1XH1-15 | 2026-09-06 00:06:06 | 50.28567 | 6.28049 | 138° | 33km/h | 21759m | 3.9m/s | -54.3°C | 1.3% | 45.6hPa | 3.5V | 00:00:00 | 01:50:14 | 00:00:00 | |
| DB0UT-7 | 2026-09-06 00:06:05 | 50.28567 | 6.28049 | 142° | 37km/h | 21759m | 4.0m/s | -54.3°C | 1.3% | 45.5hPa | 3.5V | 00:00:00 | 01:50:14 | 00:00:00 | |
| DM0DOS-11 | 2026-09-06 00:06:04 | 50.28594 | 6.28008 | 130° | 35km/h | 21739m | 3.8m/s | -54.4°C | 1.3% | 45.7hPa | 3.5V | 00:00:00 | 01:50:09 | 00:00:00 | |
| DL1XH1-15 | 2026-09-06 00:05:57 | 50.28640 | 6.27944 | 145° | 37km/h | 21712m | 3.8m/s | -54.5°C | 1.3% | 45.9hPa | 3.5V | 00:00:00 | 01:50:02 | 00:00:00 | |
| DM0DOS-11 | 2026-09-06 00:05:50 | 50.28661 | 6.27922 | 128° | 37km/h | 21701m | 3.9m/s | -54.5°C | 1.2% | 46hPa | 3.5V | 00:00:00 | 01:49:59 | 00:00:00 | |
| BIOWL1-15 | 2026-09-06 00:05:50 | 50.28679 | 6.27887 | 123° | 42km/h | 21689m | 4m/s | -54.5°C | 1.4% | 46.1hPa | 3.5V | 00:00:00 | 00:00:00 | 00:00:00 | |
| DL1XH-west | 2026-09-06 00:05:48 | 50.28685 | 6.27873 | 132° | 35km/h | 21685m | 3.8m/s | -54.5°C | 1.4% | 46.1hPa | 3.5V | 00:00:00 | 00:00:00 | 00:00:00 | |
| DL1XH1-15 | 2026-09-06 00:05:47 | 50.28702 | 6.27847 | 134° | 40km/h | 21674m | 3.9m/s | -54.5°C | 1.3% | 46.2hPa | 3.5V | 00:00:00 | 01:49:52 | 00:00:00 | |
| BIOWL1-15 | 2026-09-06 00:05:42 | 50.28733 | 6.27781 | 127° | 40km/h | 21655m | 4m/s | -54.4°C | 1.4% | 46.3hPa | 3.5V | 00:00:00 | 00:00:00 | 00:00:00 | |
| DJ8HS-15 | 2026-09-06 00:05:38 | 50.28733 | 6.27781 | 128° | 42km/h | 21655m | 3.8m/s | -54.3°C | 1.3% | 46.3hPa | 3.5V | 00:00:00 | 01:49:47 | 00:00:00 | |
| DL1XH1-15 | 2026-09-06 00:05:36 | 50.28770 | 6.27706 | 123° | 44km/h | 21631m | 3.8m/s | -54.4°C | 1.3% | 46.5hPa | 3.5V | 00:00:00 | 01:49:41 | 00:00:00 | |
| DM0DOS-11 | 2026-09-06 00:05:36 | 50.28745 | 6.27762 | 127° | 42km/h | 21647m | 3.9m/s | -54.4°C | 1.3% | 46.4hPa | 3.5V | 00:00:00 | 01:49:45 | 00:00:00 | |
| DL1XH-west | 2026-09-06 00:05:32 | 50.28770 | 6.27706 | 127° | 38km/h | 21631m | 3.8m/s | -54.4°C | 1.4% | 46.5hPa | 3.5V | 00:00:00 | 00:00:00 | 00:00:00 | |
| DM0DOS-11 | 2026-09-06 00:05:30 | 50.28814 | 6.27610 | 122° | 44km/h | 21605m | 3.8m/s | -54.6°C | 1.3% | 46.6hPa | 3.5V | 00:00:00 | 01:49:34 | 00:00:00 | |
| DL1XH1-15 | 2026-09-06 00:05:26 | 50.28833 | 6.27567 | 122° | 42km/h | 21593m | 3.5m/s | -54.6°C | 1.3% | 46.7hPa | 3.5V | 00:00:00 | 01:49:31 | 00:00:00 | |
| BIOWL1-15 | 2026-09-06 00:05:23 | 50.28903 | 6.27339 | 120° | 38km/h | 21541m | 4m/s | -55°C | 1.4% | 47.1hPa | 3.5V | 00:00:00 | 00:00:00 | 00:00:00 | |
| DJ8HS-15 | 2026-09-06 00:05:18 | 50.28853 | 6.27502 | 115° | 40km/h | 21578m | 3.6m/s | -54.6°C | 1.3% | 46.8hPa | 3.5V | 00:00:00 | 01:49:27 | 00:00:00 | |
| DM0DOS-11 | 2026-09-06 00:05:16 | 50.28872 | 6.27455 | 123° | 42km/h | 21567m | 3.6m/s | -54.8°C | 1.3% | 46.9hPa | 3.5V | 00:00:00 | 01:49:24 | 00:00:00 | |
| DL1XH1-15 | 2026-09-06 00:05:16 | 50.28886 | 6.27409 | 107° | 44km/h | 21556m | 3.8m/s | -54.9°C | 1.3% | 47hPa | 3.5V | 00:00:00 | 01:49:21 | 00:00:00 | |
| DM0DOS-11 | 2026-09-06 00:05:11 | 50.28917 | 6.27299 | 108° | 40km/h | 21530m | 3.8m/s | -55.1°C | 1.3% | 47.2hPa | 3.5V | 00:00:00 | 01:49:14 | 00:00:00 | |
| BIOWL1-15 | 2026-09-06 00:05:08 | 50.28923 | 6.27265 | 100° | 44km/h | 21523m | 4m/s | -55.1°C | 1.4% | 47.2hPa | 3.5V | 00:00:00 | 00:00:00 | 00:00:00 | |
| DL1XH1-15 | 2026-09-06 00:05:07 | 50.28925 | 6.27248 | 97° | 35km/h | 21519m | 3.9m/s | -55.1°C | 1.3% | 47.2hPa | 3.5V | 00:00:00 | 01:49:11 | 00:00:00 | |
| DB0UT-7 | 2026-09-06 00:05:05 | 50.28917 | 6.27299 | 109° | 37km/h | 21530m | 3.7m/s | -55.0°C | 1.3% | 47.1hPa | 3.5V | 00:00:00 | 01:49:14 | 00:00:00 | |
| DJ8HS-15 | 2026-09-06 00:04:59 | 50.28935 | 6.27200 | 104° | 37km/h | 21504m | 4.0m/s | -55.0°C | 1.3% | 47.3hPa | 3.5V | 00:00:00 | 01:49:07 | 00:00:00 | |
| DL1XH1-15 | 2026-09-06 00:04:56 | 50.28949 | 6.27102 | 116° | 37km/h | 21477m | 4m/s | -55°C | 1.3% | 47.6hPa | 3.5V | 00:00:00 | 01:49:00 | 00:00:00 | |
| DM0DOS-11 | 2026-09-06 00:04:56 | 50.28943 | 6.27153 | 100° | 35km/h | 21492m | 3.7m/s | -55°C | 1.3% | 47.5hPa | 3.5V | 00:00:00 | 01:49:04 | 00:00:00 | |
| BIOWL1-15 | 2026-09-06 00:04:54 | 50.28947 | 6.27112 | 111° | 29km/h | 21480m | 3.5m/s | -55.1°C | 1.4% | 47.5hPa | 3.5V | 00:00:00 | 00:00:00 | 00:00:00 | |
| DM0DOS-11 | 2026-09-06 00:04:50 | 50.28965 | 6.27015 | 92° | 33km/h | 21453m | 4m/s | -55°C | 1.3% | 47.7hPa | 3.5V | 00:00:00 | 01:48:54 | 00:00:00 | |
| DL1XH1-15 | 2026-09-06 00:04:46 | 50.28968 | 6.26968 | 99° | 40km/h | 21437m | 4.1m/s | -55.1°C | 1.5% | 47.8hPa | 3.5V | 00:00:00 | 01:48:50 | 00:00:00 | |
| BIOWL1-15 | 2026-09-06 00:04:43 | 50.28965 | 6.26992 | 101° | 31km/h | 21445m | 4m/s | -55.1°C | 1.5% | 47.8hPa | 3.5V | 00:00:00 | 00:00:00 | 00:00:00 | |
| DJ8HS-15 | 2026-09-06 00:04:37 | 50.28976 | 6.26902 | 86° | 35km/h | 21422m | 4.3m/s | -55.0°C | 1.5% | 47.9hPa | 3.5V | 00:00:00 | 01:48:46 | 00:00:00 | |
| DM0DOS-11 | 2026-09-06 00:04:36 | 50.28975 | 6.26877 | 84° | 37km/h | 21413m | 4.1m/s | -55°C | 1.5% | 48hPa | 3.5V | 00:00:00 | 01:48:44 | 00:00:00 | |
| DL1XH1-15 | 2026-09-06 00:04:36 | 50.28975 | 6.26818 | 94° | 37km/h | 21397m | 4.4m/s | -54.9°C | 1.5% | 48.1hPa | 3.6V | 00:00:00 | 01:48:40 | 00:00:00 | |
| BIOWL1-15 | 2026-09-06 00:04:33 | 50.28973 | 6.26852 | 92° | 40km/h | 21405m | 4m/s | -55°C | 1.5% | 48.1hPa | 3.6V | 00:00:00 | 00:00:00 | 00:00:00 | |
| DL1XH-west | 2026-09-06 00:04:29 | 50.28973 | 6.26776 | 89° | 40km/h | 21383m | 4.3m/s | -54.9°C | 1.5% | 48.2hPa | 3.6V | 00:00:00 | 00:00:00 | 00:00:00 | |
| DM0DOS-11 | 2026-09-06 00:04:25 | 50.28972 | 6.26729 | 94° | 37km/h | 21370m | 4.2m/s | -55.1°C | 1.5% | 48.3hPa | 3.6V | 00:00:00 | 01:48:34 | 00:00:00 | |
| BIOWL1-15 | 2026-09-06 00:04:24 | 50.28971 | 6.26684 | 68° | 29km/h | 21357m | 4m/s | -55.2°C | 1.5% | 48.4hPa | 3.6V | 00:00:00 | 00:00:00 | 00:00:00 | |
| DL1XH1-15 | 2026-09-06 00:04:23 | 50.28965 | 6.26662 | 81° | 31km/h | 21349m | 4.1m/s | -55.2°C | 1.5% | 48.5hPa | 3.6V | 00:00:00 | 01:48:29 | 00:00:00 | |
| BIOWL1-15 | 2026-09-06 00:04:13 | 50.28957 | 6.26532 | 90° | 31km/h | 21308m | 4m/s | -55°C | 1.5% | 48.8hPa | 3.6V | 00:00:00 | 00:00:00 | 00:00:00 | |
| DM0DOS-11 | 2026-09-06 00:04:10 | 50.28947 | 6.26477 | 87° | 27km/h | 21288m | 3.8m/s | -54.8°C | 1.5% | 48.9hPa | 3.6V | 00:00:00 | 01:48:14 | 00:00:00 | |
| DB0UT-7 | 2026-09-06 00:04:05 | 50.28947 | 6.26477 | 88° | 26km/h | 21288m | 4.2m/s | -54.7°C | 1.5% | 48.9hPa | 3.6V | 00:00:00 | 01:48:14 | 00:00:00 | |
| DL1XH1-15 | 2026-09-06 00:04:02 | 50.28947 | 6.26436 | 75° | 27km/h | 21275m | 4.2m/s | -54.7°C | 1.5% | 49hPa | 3.6V | 00:00:00 | 01:48:11 | 00:00:00 | |
| BIOWL1-15 | 2026-09-06 00:04:01 | 50.28940 | 6.26408 | 80° | 27km/h | 21263m | 4m/s | -54.6°C | 1.6% | 49.1hPa | 3.6V | 00:00:00 | 00:00:00 | 00:00:00 | |
| DM0DOS-11 | 2026-09-06 00:03:59 | 50.28938 | 6.26358 | 83° | 26km/h | 21247m | 4m/s | -54.4°C | 1.5% | 49.2hPa | 3.6V | 00:00:00 | 01:48:04 | 00:00:00 | |
| DJ8HS-15 | 2026-09-06 00:03:56 | 50.28938 | 6.26358 | 75° | 27km/h | 21247m | 4.0m/s | -54.4°C | 1.5% | 49.2hPa | 3.6V | 00:00:00 | 01:48:04 | 00:00:00 | |
| DL1XH1-15 | 2026-09-06 00:03:53 | 50.28929 | 6.26312 | 83° | 27km/h | 21227m | 4m/s | -54.3°C | 1.5% | 49.4hPa | 3.6V | 00:00:00 | 01:47:59 | 00:00:00 | |
| DM0DOS-11 | 2026-09-06 00:03:50 | 50.28928 | 6.26254 | 69° | 22km/h | 21207m | 4.1m/s | -54.2°C | 1.5% | 49.5hPa | 3.6V | 00:00:00 | 01:47:54 | 00:00:00 | |
| BIOWL1-15 | 2026-09-06 00:03:48 | 50.28927 | 6.26286 | 93° | 33km/h | 21219m | 3m/s | -54.2°C | 1.6% | 49.4hPa | 3.6V | 00:00:00 | 00:00:00 | 00:00:00 | |
| DL1XH1-15 | 2026-09-06 00:03:42 | 50.28921 | 6.26210 | 93° | 20km/h | 21186m | 4.1m/s | -54°C | 1.5% | 49.7hPa | 3.6V | 00:00:00 | 01:47:49 | 00:00:00 | |
| DM0DOS-11 | 2026-09-06 00:03:39 | 50.28923 | 6.26167 | 78° | 22km/h | 21166m | 4.2m/s | -53.9°C | 1.5% | 49.8hPa | 3.6V | 00:00:00 | 01:47:44 | 00:00:00 | |
| BIOWL1-15 | 2026-09-06 00:03:37 | 50.28923 | 6.26167 | 76° | 18km/h | 21166m | 4.5m/s | -53.9°C | 1.6% | 49.8hPa | 3.6V | 00:00:00 | 00:00:00 | 00:00:00 | |
| DB0UT-7 | 2026-09-06 00:03:35 | 50.28923 | 6.26167 | 79° | 16km/h | 21166m | 4.2m/s | -53.8°C | 1.5% | 49.8hPa | 3.6V | 00:00:00 | 00:00:00 | 00:00:00 | |
| DL1XH1-15 | 2026-09-06 00:03:32 | 50.28919 | 6.26121 | 111° | 15km/h | 21145m | 4.2m/s | -53.8°C | 1.5% | 50hPa | 3.6V | 00:00:00 | 01:47:39 | 00:00:00 | |
| DM0DOS-11 | 2026-09-06 00:03:31 | 50.28924 | 6.26086 | 69° | 18km/h | 21123m | 4.2m/s | -53.6°C | 1.5% | 50.1hPa | 3.6V | 00:00:00 | 01:47:34 | 00:00:00 | |
| BIOWL1-15 | 2026-09-06 00:03:27 | 50.28924 | 6.26100 | 90° | 16km/h | 21133m | 5m/s | -53.6°C | 1.6% | 50.1hPa | 3.5V | 00:00:00 | 00:00:00 | 00:00:00 | |
| DM0DOS-11 | 2026-09-06 00:03:19 | 50.28924 | 6.26018 | 95° | 13km/h | 21081m | 4.4m/s | -53.4°C | 1.6% | 50.5hPa | 3.6V | 00:00:00 | 01:47:24 | 00:00:00 | |
| BIOWL1-15 | 2026-09-06 00:03:16 | 50.28925 | 6.26026 | 82° | 20km/h | 21085m | 4m/s | -53.4°C | 1.6% | 50.4hPa | 3.6V | 00:00:00 | 00:00:00 | 00:00:00 | |
| DM0DOS-11 | 2026-09-06 00:03:07 | 50.28932 | 6.25974 | 143° | 11km/h | 21038m | 4.1m/s | -53.2°C | 1.6% | 50.8hPa | 3.6V | 00:00:00 | 01:47:14 | 00:00:00 | |
| BIOWL1-15 | 2026-09-06 00:03:06 | 50.28930 | 6.25975 | 171° | 7km/h | 21042m | 4m/s | -53.2°C | 1.6% | 50.8hPa | 3.6V | 00:00:00 | 00:00:00 | 00:00:00 | |
| DM0DOS-11 | 2026-09-06 00:02:59 | 50.28943 | 6.25941 | 102° | 11km/h | 20996m | 4m/s | -53.4°C | 1.6% | 51.1hPa | 3.6V | 00:00:00 | 01:47:04 | 00:00:00 | |
| BIOWL1-15 | 2026-09-06 00:02:56 | 50.28943 | 6.25941 | 110° | 9km/h | 20996m | 4m/s | -53.4°C | 1.7% | 51.1hPa | 3.6V | 00:00:00 | 00:00:00 | 00:00:00 | |
| DM0DOS-11 | 2026-09-06 00:02:50 | 50.28942 | 6.25918 | 51° | 7km/h | 20956m | 4.1m/s | -54.2°C | 1.6% | 51.4hPa | 3.6V | 00:00:00 | 01:46:54 | 00:00:00 | |
| DL1XH1-15 | 2026-09-06 00:02:47 | 50.28940 | 6.25915 | 92° | 5km/h | 20952m | 4m/s | -54.3°C | 1.6% | 51.5hPa | 3.6V | 00:00:00 | 01:46:53 | 00:00:00 | |
| DM0DOS-11 | 2026-09-06 00:02:39 | 50.28938 | 6.25899 | 174° | 7km/h | 20916m | 4.1m/s | -54.4°C | 1.6% | 51.8hPa | 3.6V | 00:00:00 | 01:46:44 | 00:00:00 | |
| DL1XH1-15 | 2026-09-06 00:02:33 | 50.28937 | 6.25897 | 186° | 9km/h | 20892m | 3.9m/s | -54.5°C | 1.6% | 51.9hPa | 3.6V | 00:00:00 | 01:46:38 | 00:00:00 | |
| BIOWL1-15 | 2026-09-06 00:02:30 | 50.28938 | 6.25897 | 46° | 2km/h | 20896m | 4.5m/s | -54.5°C | 1.7% | 51.9hPa | 3.6V | 00:00:00 | 00:00:00 | 00:00:00 | |
| DM0DOS-11 | 2026-09-06 00:02:27 | 50.28943 | 6.25896 | 330° | 5km/h | 20876m | 4.1m/s | -54.5°C | 1.6% | 52hPa | 3.6V | 00:00:00 | 01:46:34 | 00:00:00 | |
| DL1XH1-15 | 2026-09-06 00:02:18 | 50.28951 | 6.25901 | 173° | 15km/h | 20829m | 3.9m/s | -54.6°C | 1.6% | 52.4hPa | 3.6V | 00:00:00 | 01:46:22 | 00:00:00 | |
| DM0DOS-11 | 2026-09-06 00:02:17 | 50.28947 | 6.25902 | 153° | 11km/h | 20837m | 3.9m/s | -54.6°C | 1.6% | 52.4hPa | 3.6V | 00:00:00 | 01:46:24 | 00:00:00 | |
| BIOWL1-15 | 2026-09-06 00:02:16 | 50.28947 | 6.25902 | 153° | 5km/h | 20837m | 4m/s | -54.6°C | 1.7% | 52.4hPa | 3.6V | 00:00:00 | 00:00:00 | 00:00:00 | |
| DM0DOS-11 | 2026-09-06 00:02:10 | 50.28973 | 6.25896 | 178° | 15km/h | 20798m | 3.9m/s | -54.5°C | 1.6% | 52.6hPa | 3.6V | 00:00:00 | 01:46:14 | 00:00:00 | |
| BIOWL1-15 | 2026-09-06 00:02:05 | 50.28977 | 6.25896 | 194° | 11km/h | 20794m | 4m/s | -54.5°C | 1.7% | 52.7hPa | 3.6V | 00:00:00 | 00:00:00 | 00:00:00 | |
| DL1XH1-15 | 2026-09-06 00:01:58 | 50.29000 | 6.25886 | 170° | 16km/h | 20767m | 3.8m/s | -54.4°C | 1.6% | 52.9hPa | 3.6V | 00:00:00 | 01:46:06 | 00:00:00 | |
| DM0DOS-11 | 2026-09-06 00:01:58 | 50.29008 | 6.25885 | 195° | 16km/h | 20759m | 3.6m/s | -54.3°C | 1.7% | 53hPa | 3.6V | 00:00:00 | 01:46:04 | 00:00:00 | |
| BIOWL1-15 | 2026-09-06 00:01:54 | 50.29013 | 6.25887 | 193° | 15km/h | 20755m | 3m/s | -54.3°C | 1.8% | 53hPa | 3.6V | 00:00:00 | 00:00:00 | 00:00:00 | |
| DM0DOS-11 | 2026-09-06 00:01:50 | 50.29050 | 6.25877 | 164° | 22km/h | 20723m | 3.8m/s | -54.2°C | 1.7% | 53.3hPa | 3.6V | 00:00:00 | 01:45:54 | 00:00:00 | |
| DL1XH1-15 | 2026-09-06 00:01:46 | 50.29045 | 6.25877 | 183° | 22km/h | 20727m | 3.7m/s | -54.2°C | 1.7% | 53.2hPa | 3.5V | 00:00:00 | 01:45:55 | 00:00:00 | |
| BIOWL1-15 | 2026-09-06 00:01:43 | 50.29059 | 6.25870 | 146° | 24km/h | 20715m | 3m/s | -54.2°C | 1.8% | 53.3hPa | 3.6V | 00:00:00 | 00:00:00 | 00:00:00 | |
| DM0DOS-11 | 2026-09-06 00:01:38 | 50.29095 | 6.25844 | 138° | 24km/h | 20686m | 3.6m/s | -54.4°C | 1.7% | 53.5hPa | 3.6V | 00:00:00 | 01:45:44 | 00:00:00 | |
| DL1XH1-15 | 2026-09-06 00:01:38 | 50.29092 | 6.25850 | 147° | 26km/h | 20689m | 3.5m/s | -54.4°C | 1.7% | 53.5hPa | 3.6V | 00:00:00 | 01:45:45 | 00:00:00 | |
| DB0UT-7 | 2026-09-06 00:01:35 | 50.29095 | 6.25844 | 139° | 35km/h | 20686m | 3.5m/s | -54.3°C | 1.7% | 53.5hPa | 3.6V | 00:00:00 | 00:00:00 | 00:00:00 | |
| BIOWL1-15 | 2026-09-06 00:01:33 | 50.29188 | 6.25716 | 134° | 37km/h | 20621m | 3.7m/s | -55.9°C | 1.8% | 54.1hPa | 3.6V | 00:00:00 | 00:00:00 | 00:00:00 | |
| DJ8HS-15 | 2026-09-06 00:01:31 | 50.29130 | 6.25808 | 137° | 42km/h | 20661m | 3.7m/s | -55.0°C | 1.7% | 53.7hPa | 3.6V | 00:00:00 | 01:45:37 | 00:00:00 | |
| DL1XH1-15 | 2026-09-06 00:01:26 | 50.29147 | 6.25789 | 154° | 29km/h | 20650m | 3.5m/s | -55.4°C | 1.7% | 53.9hPa | 3.6V | 00:00:00 | 01:45:34 | 00:00:00 | |
| BIOWL1-15 | 2026-09-06 00:01:20 | 50.29207 | 6.25684 | 121° | 40km/h | 20610m | 4m/s | -56°C | 1.8% | 54.2hPa | 3.6V | 00:00:00 | 00:00:00 | 00:00:00 | |
| DM0DOS-11 | 2026-09-06 00:01:16 | 50.29202 | 6.25696 | 124° | 40km/h | 20614m | 4m/s | -56°C | 1.7% | 54.1hPa | 3.6V | 00:00:00 | 01:45:24 | 00:00:00 | |
| DM0DOS-11 | 2026-09-06 00:01:10 | 50.29255 | 6.25558 | 113° | 44km/h | 20574m | 4m/s | -56.3°C | 1.7% | 54.5hPa | 3.6V | 00:00:00 | 01:45:14 | 00:00:00 | |
| DJ8HS-15 | 2026-09-06 00:01:10 | 50.29242 | 6.25604 | 122° | 47km/h | 20587m | 4.1m/s | -56.1°C | 1.7% | 54.3hPa | 3.6V | 00:00:00 | 01:45:17 | 00:00:00 | |
| DB0UT-7 | 2026-09-06 00:01:08 | 50.29255 | 6.25558 | 114° | 49km/h | 20574m | 3.9m/s | -56.2°C | 1.7% | 54.4hPa | 3.6V | 00:00:00 | 01:45:14 | 00:00:00 | |
| DL1XH1-15 | 2026-09-06 00:01:07 | 50.29279 | 6.25500 | 110° | 47km/h | 20558m | 3.9m/s | -56.3°C | 1.7% | 54.6hPa | 3.6V | 00:00:00 | 01:45:10 | 00:00:00 | |
| DM0DOS-11 | 2026-09-06 00:00:56 | 50.29308 | 6.25401 | 118° | 51km/h | 20534m | 3.7m/s | -56.7°C | 1.7% | 54.8hPa | 3.6V | 00:00:00 | 01:45:04 | 00:00:00 | |
| DL1XH1-15 | 2026-09-06 00:00:52 | 50.29333 | 6.25286 | 108° | 47km/h | 20511m | 4m/s | -56.7°C | 1.7% | 55hPa | 3.6V | 00:00:00 | 01:44:58 | 00:00:00 | |
| DM0DOS-11 | 2026-09-06 00:00:49 | 50.29351 | 6.25217 | 95° | 49km/h | 20495m | 3.7m/s | -56.6°C | 1.7% | 55.1hPa | 3.6V | 00:00:00 | 01:44:54 | 00:00:00 | |
| DL1XH1-15 | 2026-09-06 00:00:38 | 50.29398 | 6.24998 | 106° | 47km/h | 20448m | 4m/s | -56.3°C | 1.9% | 55.5hPa | 3.6V | 00:00:00 | 01:44:42 | 00:00:00 | |
| DB0UT-7 | 2026-09-06 00:00:37 | 50.29386 | 6.25032 | 118° | 47km/h | 20456m | 3.8m/s | -56.3°C | 1.9% | 55.4hPa | 3.6V | 00:00:00 | 00:00:00 | 00:00:00 | |
| BIOWL1-15 | 2026-09-06 00:00:33 | 50.29443 | 6.24766 | 112° | 47km/h | 20396m | 3m/s | -56.3°C | 1.9% | 56hPa | 3.6V | 00:00:00 | 00:00:00 | 00:00:00 | |
| DM0DOS-11 | 2026-09-06 00:00:31 | 50.29429 | 6.24855 | 93° | 46km/h | 20417m | 4.2m/s | -56.2°C | 1.9% | 55.8hPa | 3.6V | 00:00:00 | 01:44:34 | 00:00:00 | |
| BIOWL1-15 | 2026-09-06 00:00:26 | 50.29447 | 6.24749 | 100° | 46km/h | 20393m | 4m/s | -56.3°C | 1.9% | 56hPa | 3.6V | 00:00:00 | 00:00:00 | 00:00:00 | |
| DL1XH1-15 | 2026-09-06 00:00:22 | 50.29433 | 6.24801 | 110° | 47km/h | 20404m | 3.9m/s | -56.2°C | 1.9% | 55.9hPa | 3.6V | 00:00:00 | 01:44:31 | 00:00:00 | |
| DJ8HS-15 | 2026-09-06 00:00:19 | 50.29453 | 6.24696 | 103° | 46km/h | 20381m | 4.0m/s | -56.3°C | 1.9% | 56.1hPa | 3.6V | 00:00:00 | 01:44:25 | 00:00:00 | |
| DM0DOS-11 | 2026-09-06 00:00:17 | 50.29455 | 6.24678 | 106° | 47km/h | 20377m | 4m/s | -56.4°C | 1.9% | 56.2hPa | 3.6V | 00:00:00 | 01:44:24 | 00:00:00 | |
| DL1XH1-15 | 2026-09-06 00:00:12 | 50.29466 | 6.24624 | 113° | 47km/h | 20365m | 4m/s | -56.5°C | 1.9% | 56.2hPa | 3.6V | 00:00:00 | 01:44:21 | 00:00:00 | |
| DM0DOS-11 | 2026-09-06 00:00:09 | 50.29482 | 6.24504 | 103° | 49km/h | 20337m | 4m/s | -56.5°C | 1.9% | 56.5hPa | 3.5V | 00:00:00 | 01:44:14 | 00:00:00 | |
| DL1XH1-15 | 2026-09-06 00:00:07 | 50.29492 | 6.24444 | 90° | 46km/h | 20325m | 4m/s | -56.6°C | 1.9% | 56.6hPa | 3.5V | 00:00:00 | 01:44:11 | 00:00:00 | |
| DB0UT-7 | 2026-09-06 00:00:05 | 50.29482 | 6.24504 | 104° | 47km/h | 20337m | 4.0m/s | -56.5°C | 1.9% | 56.5hPa | 3.5V | 00:00:00 | 01:44:14 | 00:00:00 | |
| DM0DOS-11 | 2026-09-05 23:59:59 | 50.29501 | 6.24316 | 87° | 46km/h | 20297m | 4.1m/s | -56.5°C | 1.9% | 56.8hPa | 3.5V | 00:00:00 | 01:44:04 | 00:00:00 | |
| DJ8HS-15 | 2026-09-05 23:59:55 | 50.29501 | 6.24316 | 88° | 46km/h | 20297m | 4.0m/s | -56.5°C | 1.9% | 56.8hPa | 3.6V | 00:00:00 | 01:44:04 | 00:00:00 | |
| DL1XH1-15 | 2026-09-05 23:59:55 | 50.29504 | 6.24227 | 102° | 47km/h | 20277m | 4m/s | -56.5°C | 1.9% | 57hPa | 3.6V | 00:00:00 | 01:43:59 | 00:00:00 | |
| DL1XH-west | 2026-09-05 23:59:49 | 50.29508 | 6.24189 | 87° | 47km/h | 20269m | 4.2m/s | -56.5°C | 1.9% | 57.1hPa | 3.6V | 00:00:00 | 00:00:00 | 00:00:00 | |
| DL1XH1-15 | 2026-09-05 23:59:45 | 50.29508 | 6.24039 | 80° | 46km/h | 20237m | 3.8m/s | -57°C | 1.9% | 57.4hPa | 3.6V | 00:00:00 | 01:43:49 | 00:00:00 | |
| DM0DOS-11 | 2026-09-05 23:59:45 | 50.29504 | 6.24135 | 98° | 49km/h | 20257m | 4m/s | -56.6°C | 1.9% | 57.2hPa | 3.6V | 00:00:00 | 01:43:54 | 00:00:00 | |
| DM0DOS-11 | 2026-09-05 23:59:39 | 50.29510 | 6.23946 | 79° | 44km/h | 20217m | 3.8m/s | -57.1°C | 1.9% | 57.5hPa | 3.6V | 00:00:00 | 01:43:44 | 00:00:00 | |
| DL1XH1-15 | 2026-09-05 23:59:35 | 50.29511 | 6.23859 | 86° | 40km/h | 20198m | 3.7m/s | -57.1°C | 1.9% | 57.7hPa | 3.6V | 00:00:00 | 01:43:39 | 00:00:00 | |
| DJ8HS-15 | 2026-09-05 23:59:35 | 50.29510 | 6.23946 | 80° | 38km/h | 20217m | 3.7m/s | -57.1°C | 1.9% | 57.5hPa | 3.6V | 00:00:00 | 01:43:44 | 00:00:00 | |
| DB0UT-7 | 2026-09-05 23:59:34 | 50.29508 | 6.23930 | 84° | 40km/h | 20213m | 3.7m/s | -57.0°C | 1.9% | 57.5hPa | 3.6V | 00:00:00 | 00:00:00 | 00:00:00 | |
| DM0DOS-11 | 2026-09-05 23:59:25 | 50.29509 | 6.23775 | 102° | 40km/h | 20179m | 3.6m/s | -57°C | 2% | 57.9hPa | 3.6V | 00:00:00 | 01:43:34 | 00:00:00 | |
| DM0DOS-11 | 2026-09-05 23:59:18 | 50.29517 | 6.23618 | 98° | 40km/h | 20142m | 3.9m/s | -56.8°C | 2% | 58.2hPa | 3.6V | 00:00:00 | 01:43:24 | 00:00:00 | |
| DL1XH1-15 | 2026-09-05 23:59:16 | 50.29515 | 6.23633 | 98° | 40km/h | 20146m | 3.9m/s | -56.8°C | 2% | 58.2hPa | 3.6V | 00:00:00 | 01:43:25 | 00:00:00 | |
| DM0DOS-11 | 2026-09-05 23:59:06 | 50.29524 | 6.23467 | 91° | 38km/h | 20102m | 3.9m/s | -56.5°C | 2% | 58.5hPa | 3.6V | 00:00:00 | 01:43:14 | 00:00:00 | |
| DL1XH1-15 | 2026-09-05 23:59:06 | 50.29523 | 6.23482 | 95° | 38km/h | 20106m | 3.6m/s | -56.5°C | 2% | 58.5hPa | 3.6V | 00:00:00 | 01:43:15 | 00:00:00 | |
| DB0UT-7 | 2026-09-05 23:59:04 | 50.29525 | 6.23451 | 88° | 38km/h | 20098m | 3.8m/s | -56.4°C | 2.0% | 58.5hPa | 3.6V | 00:00:00 | 01:43:13 | 00:00:00 | |
| DM0DOS-11 | 2026-09-05 23:58:56 | 50.29534 | 6.23304 | 83° | 40km/h | 20060m | 3.5m/s | -56.5°C | 2% | 58.9hPa | 3.6V | 00:00:00 | 01:43:03 | 00:00:00 | |
| DJ8HS-15 | 2026-09-05 23:58:56 | 50.29532 | 6.23329 | 99° | 40km/h | 20067m | 3.5m/s | -56.4°C | 2.0% | 58.8hPa | 3.6V | 00:00:00 | 01:43:05 | 00:00:00 | |
| DL1XH1-15 | 2026-09-05 23:58:54 | 50.29541 | 6.23221 | 104° | 35km/h | 20043m | 3.9m/s | -56.5°C | 2% | 59.1hPa | 3.6V | 00:00:00 | 01:42:58 | 00:00:00 | |
| DM0DOS-11 | 2026-09-05 23:58:46 | 50.29546 | 6.23153 | 99° | 40km/h | 20024m | 3.9m/s | -56.5°C | 2% | 59.3hPa | 3.6V | 00:00:00 | 01:42:53 | 00:00:00 | |
| DB0UT-7 | 2026-09-05 23:58:34 | 50.29551 | 6.22997 | 83° | 35km/h | 19986m | 3.8m/s | -56.7°C | 2.0% | 59.6hPa | 3.6V | 00:00:00 | 00:00:00 | 00:00:00 | |
| DM0DOS-11 | 2026-09-05 23:58:26 | 50.29550 | 6.22861 | 81° | 33km/h | 19947m | 4.2m/s | -56.5°C | 2% | 60hPa | 3.6V | 00:00:00 | 01:42:33 | 00:00:00 | |
| BIOWL1-15 | 2026-09-05 23:58:20 | 50.29557 | 6.22780 | 87° | 35km/h | 19922m | 4m/s | -56.5°C | 2.1% | 60.2hPa | 3.6V | 00:00:00 | 00:00:00 | 00:00:00 | |
| DM0DOS-11 | 2026-09-05 23:58:16 | 50.29559 | 6.22731 | 107° | 35km/h | 19907m | 4.1m/s | -56.4°C | 2% | 60.3hPa | 3.6V | 00:00:00 | 01:42:23 | 00:00:00 | |
| DM0DOS-11 | 2026-09-05 23:58:06 | 50.29557 | 6.22589 | 76° | 35km/h | 19865m | 3.9m/s | -56.3°C | 2.2% | 60.7hPa | 3.6V | 00:00:00 | 01:42:13 | 00:00:00 | |
| DB0UT-7 | 2026-09-05 23:58:04 | 50.29557 | 6.22589 | 77° | 35km/h | 19865m | 3.8m/s | -56.2°C | 2.2% | 60.7hPa | 3.6V | 00:00:00 | 01:42:13 | 00:00:00 | |
| DL1XH1-15 | 2026-09-05 23:57:56 | 50.29547 | 6.22439 | 90° | 33km/h | 19822m | 3.8m/s | -56°C | 2.2% | 61.1hPa | 3.6V | 00:00:00 | 01:42:02 | 00:00:00 | |
| DM0DOS-11 | 2026-09-05 23:57:56 | 50.29547 | 6.22450 | 90° | 33km/h | 19825m | 3.7m/s | -56.1°C | 2.2% | 61.1hPa | 3.6V | 00:00:00 | 01:42:03 | 00:00:00 | |
| BIOWL1-15 | 2026-09-05 23:57:53 | 50.29547 | 6.22428 | 80° | 38km/h | 19819m | 4.2m/s | -56°C | 2.2% | 61.2hPa | 3.6V | 00:00:00 | 00:00:00 | 00:00:00 | |
| DM0DOS-11 | 2026-09-05 23:57:46 | 50.29538 | 6.22316 | 79° | 35km/h | 19785m | 4m/s | -55.7°C | 2.2% | 61.5hPa | 3.6V | 00:00:00 | 01:41:53 | 00:00:00 | |
| BIOWL1-15 | 2026-09-05 23:57:36 | 50.29536 | 6.22206 | 84° | 40km/h | 19753m | 4m/s | -55.5°C | 2.3% | 61.8hPa | 3.6V | 00:00:00 | 00:00:00 | 00:00:00 | |
| DL1XH1-15 | 2026-09-05 23:57:36 | 50.29535 | 6.22169 | 88° | 31km/h | 19741m | 4.1m/s | -55.4°C | 2.2% | 61.9hPa | 3.6V | 00:00:00 | 01:41:42 | 00:00:00 | |
| DM0DOS-11 | 2026-09-05 23:57:36 | 50.29535 | 6.22178 | 97° | 31km/h | 19745m | 3.9m/s | -55.4°C | 2.2% | 61.8hPa | 3.6V | 00:00:00 | 01:41:43 | 00:00:00 | |
| DB0UT-7 | 2026-09-05 23:57:34 | 50.29534 | 6.22178 | 98° | 29km/h | 19745m | 3.9m/s | -55.4°C | 2.2% | 61.8hPa | 3.6V | 00:00:00 | 00:00:00 | 00:00:00 | |
| DM0DOS-11 | 2026-09-05 23:57:26 | 50.29539 | 6.22053 | 90° | 33km/h | 19705m | 3.9m/s | -55.5°C | 2.2% | 62.2hPa | 3.6V | 00:00:00 | 01:41:33 | 00:00:00 | |
| DL1XH1-15 | 2026-09-05 23:57:26 | 50.29539 | 6.22001 | 82° | 27km/h | 19689m | 4m/s | -55.6°C | 2.2% | 62.4hPa | 3.6V | 00:00:00 | 01:41:29 | 00:00:00 | |
| DM0DOS-11 | 2026-09-05 23:57:16 | 50.29532 | 6.21929 | 90° | 24km/h | 19665m | 4.1m/s | -55.4°C | 2.2% | 62.6hPa | 3.6V | 00:00:00 | 01:41:23 | 00:00:00 | |
| DL1XH1-15 | 2026-09-05 23:57:15 | 50.29529 | 6.21894 | 80° | 27km/h | 19649m | 4.2m/s | -55.3°C | 2.3% | 62.8hPa | 3.6V | 00:00:00 | 01:41:19 | 00:00:00 | |
| DM0DOS-11 | 2026-09-05 23:57:06 | 50.29524 | 6.21830 | 81° | 29km/h | 19625m | 4.3m/s | -55.2°C | 2.3% | 63hPa | 3.6V | 00:00:00 | 01:41:13 | 00:00:00 | |
| DL1XH1-15 | 2026-09-05 23:57:05 | 50.29518 | 6.21781 | 85° | 26km/h | 19607m | 4m/s | -55.1°C | 2.3% | 63.2hPa | 3.6V | 00:00:00 | 01:41:09 | 00:00:00 | |
| BIOWL1-15 | 2026-09-05 23:57:02 | 50.29518 | 6.21781 | 88° | 26km/h | 19607m | 4m/s | -55.1°C | 2.4% | 63.2hPa | 3.6V | 00:00:00 | 00:00:00 | 00:00:00 | |
| DM0DOS-11 | 2026-09-05 23:56:56 | 50.29516 | 6.21716 | 68° | 24km/h | 19583m | 4.2m/s | -55°C | 2.3% | 63.4hPa | 3.6V | 00:00:00 | 01:41:03 | 00:00:00 | |
| BIOWL1-15 | 2026-09-05 23:56:51 | 50.29509 | 6.21667 | 87° | 33km/h | 19562m | 4m/s | -55.1°C | 2.4% | 63.6hPa | 3.6V | 00:00:00 | 00:00:00 | 00:00:00 | |
| DM0DOS-11 | 2026-09-05 23:56:46 | 50.29501 | 6.21622 | 74° | 27km/h | 19542m | 4.3m/s | -55.1°C | 2.3% | 63.8hPa | 3.6V | 00:00:00 | 01:40:53 | 00:00:00 | |
| DL1XH1-15 | 2026-09-05 23:56:46 | 50.29506 | 6.21636 | 64° | 24km/h | 19549m | 4.1m/s | -55.1°C | 2.3% | 63.7hPa | 3.6V | 00:00:00 | 01:40:55 | 00:00:00 | |
| BIOWL1-15 | 2026-09-05 23:56:40 | 50.29490 | 6.21571 | 69° | 27km/h | 19521m | 4.2m/s | -55°C | 2.5% | 64hPa | 3.6V | 00:00:00 | 00:00:00 | 00:00:00 | |
| DL1XH1-15 | 2026-09-05 23:56:36 | 50.29472 | 6.21501 | 76° | 20km/h | 19488m | 4.2m/s | -54.9°C | 2.5% | 64.3hPa | 3.6V | 00:00:00 | 01:40:40 | 00:00:00 | |
| DM0DOS-11 | 2026-09-05 23:56:36 | 50.29478 | 6.21521 | 68° | 20km/h | 19500m | 4m/s | -55°C | 2.5% | 64.2hPa | 3.6V | 00:00:00 | 01:40:43 | 00:00:00 | |
| BIOWL1-15 | 2026-09-05 23:56:29 | 50.29465 | 6.21458 | 68° | 20km/h | 19467m | 4m/s | -54.8°C | 2.5% | 64.5hPa | 3.6V | 00:00:00 | 00:00:00 | 00:00:00 | |
| DM0DOS-11 | 2026-09-05 23:56:26 | 50.29461 | 6.21447 | 69° | 22km/h | 19459m | 4m/s | -54.7°C | 2.5% | 64.6hPa | 3.6V | 00:00:00 | 01:40:33 | 00:00:00 | |
| DM0DOS-11 | 2026-09-05 23:56:16 | 50.29449 | 6.21367 | 76° | 18km/h | 19418m | 4.3m/s | -54.5°C | 2.5% | 65hPa | 3.6V | 00:00:00 | 01:40:23 | 00:00:00 | |
| BIOWL1-15 | 2026-09-05 23:56:14 | 50.29448 | 6.21358 | 86° | 20km/h | 19414m | 5m/s | -54.5°C | 2.6% | 65.1hPa | 3.6V | 00:00:00 | 00:00:00 | 00:00:00 | |
| DM0DOS-11 | 2026-09-05 23:56:06 | 50.29439 | 6.21305 | 37° | 15km/h | 19374m | 4.2m/s | -54.6°C | 2.5% | 65.4hPa | 3.6V | 00:00:00 | 01:40:13 | 00:00:00 | |
| DL1XH1-15 | 2026-09-05 23:56:06 | 50.29440 | 6.21314 | 79° | 15km/h | 19384m | 4.4m/s | -54.6°C | 2.5% | 65.4hPa | 3.6V | 00:00:00 | 01:40:15 | 00:00:00 | |
| BIOWL1-15 | 2026-09-05 23:56:02 | 50.29434 | 6.21298 | 77° | 15km/h | 19366m | 4.3m/s | -54.6°C | 2.7% | 65.5hPa | 3.6V | 00:00:00 | 00:00:00 | 00:00:00 | |
| DL1XH1-15 | 2026-09-05 23:55:56 | 50.29428 | 6.21260 | 98° | 15km/h | 19335m | 4.3m/s | -54.8°C | 2.7% | 65.8hPa | 3.6V | 00:00:00 | 01:40:04 | 00:00:00 | |
| BIOWL1-15 | 2026-09-05 23:55:54 | 50.29428 | 6.21233 | 55° | 9km/h | 19318m | 4.5m/s | -54.7°C | 2.7% | 66hPa | 3.6V | 00:00:00 | 00:00:00 | 00:00:00 | |
| DL1XH1-15 | 2026-09-05 23:55:46 | 50.29428 | 6.21212 | 102° | 13km/h | 19291m | 4.2m/s | -54.6°C | 2.7% | 66.3hPa | 3.6V | 00:00:00 | 01:39:54 | 00:00:00 | |
| DM0DOS-11 | 2026-09-05 23:55:45 | 50.29430 | 6.21207 | 118° | 11km/h | 19287m | 4.5m/s | -54.6°C | 2.7% | 66.3hPa | 3.6V | 00:00:00 | 01:39:53 | 00:00:00 | |
| BIOWL1-15 | 2026-09-05 23:55:38 | 50.29433 | 6.21186 | 129° | 16km/h | 19260m | 4.4m/s | -54.4°C | 2.7% | 66.6hPa | 3.6V | 00:00:00 | 00:00:00 | 00:00:00 | |
| DL1XH1-15 | 2026-09-05 23:55:36 | 50.29443 | 6.21154 | 145° | 18km/h | 19233m | 4.4m/s | -54.2°C | 2.7% | 66.9hPa | 3.6V | 00:00:00 | 01:39:41 | 00:00:00 | |
| DM0DOS-11 | 2026-09-05 23:55:35 | 50.29441 | 6.21165 | 90° | 16km/h | 19242m | 4.5m/s | -54.2°C | 2.7% | 66.8hPa | 3.6V | 00:00:00 | 01:39:43 | 00:00:00 | |
| DB0UT-7 | 2026-09-05 23:55:34 | 50.29441 | 6.21165 | 91° | 16km/h | 19242m | 4.4m/s | -54.2°C | 2.7% | 66.7hPa | 3.6V | 00:00:00 | 00:00:00 | 00:00:00 | |
| DL1XH1-15 | 2026-09-05 23:55:26 | 50.29473 | 6.21107 | 157° | 18km/h | 19188m | 4m/s | -54.3°C | 2.7% | 67.3hPa | 3.6V | 00:00:00 | 01:39:31 | 00:00:00 | |
| BIOWL1-15 | 2026-09-05 23:55:26 | 50.29473 | 6.21107 | 153° | 18km/h | 19188m | 4m/s | -54.3°C | 2.8% | 67.3hPa | 3.6V | 00:00:00 | 00:00:00 | 00:00:00 | |
| DM0DOS-11 | 2026-09-05 23:55:25 | 50.29464 | 6.21118 | 130° | 20km/h | 19197m | 4.3m/s | -54.2°C | 2.7% | 67.2hPa | 3.6V | 00:00:00 | 01:39:33 | 00:00:00 | |
| BIOWL1-15 | 2026-09-05 23:55:20 | 50.29506 | 6.21081 | 136° | 11km/h | 19156m | 4.5m/s | -54.4°C | 2.9% | 67.6hPa | 3.6V | 00:00:00 | 00:00:00 | 00:00:00 | |
| DL1XH1-15 | 2026-09-05 23:55:15 | 50.29516 | 6.21070 | 172° | 20km/h | 19139m | 4m/s | -54.4°C | 2.8% | 67.8hPa | 3.6V | 00:00:00 | 01:39:19 | 00:00:00 | |
| DM0DOS-11 | 2026-09-05 23:55:14 | 50.29506 | 6.21081 | 147° | 15km/h | 19156m | 4.3m/s | -54.4°C | 2.8% | 67.6hPa | 3.6V | 00:00:00 | 01:39:23 | 00:00:00 | |
| DL1XH1-15 | 2026-09-05 23:55:05 | 50.29557 | 6.21047 | 133° | 15km/h | 19097m | 3.8m/s | -54.1°C | 3% | 68.2hPa | 3.6V | 00:00:00 | 01:39:09 | 00:00:00 | |
| DM0DOS-11 | 2026-09-05 23:55:04 | 50.29537 | 6.21058 | 162° | 18km/h | 19114m | 4m/s | -54.2°C | 3% | 68hPa | 3.6V | 00:00:00 | 01:39:13 | 00:00:00 | |
| BIOWL1-15 | 2026-09-05 23:54:58 | 50.29564 | 6.21042 | 161° | 20km/h | 19086m | 4m/s | -54.1°C | 3% | 68.4hPa | 3.6V | 00:00:00 | 00:00:00 | 00:00:00 | |
| DL1XH1-15 | 2026-09-05 23:54:55 | 50.29590 | 6.21021 | 157° | 16km/h | 19058m | 4.1m/s | -53.8°C | 3% | 68.7hPa | 3.6V | 00:00:00 | 01:38:59 | 00:00:00 | |
| DM0DOS-11 | 2026-09-05 23:54:54 | 50.29578 | 6.21034 | 120° | 16km/h | 19074m | 3.8m/s | -54°C | 3% | 68.5hPa | 3.6V | 00:00:00 | 01:39:03 | 00:00:00 | |
| DL1XH-west | 2026-09-05 23:54:53 | 50.29580 | 6.21029 | 0° | 0km/h | 19071m | 0m/s | -54°C | 3% | 68.5hPa | 3.6V | 00:00:00 | 00:00:00 | 00:00:00 | |
| BIOWL1-15 | 2026-09-05 23:54:44 | 50.29628 | 6.20993 | 138° | 16km/h | 19017m | 4m/s | -53.6°C | 3.1% | 69.1hPa | 3.6V | 00:00:00 | 00:00:00 | 00:00:00 | |
| DM0DOS-11 | 2026-09-05 23:54:44 | 50.29612 | 6.21002 | 182° | 18km/h | 19034m | 4.1m/s | -53.7°C | 3% | 68.9hPa | 3.6V | 00:00:00 | 01:38:53 | 00:00:00 | |
| DL1XH1-15 | 2026-09-05 23:54:43 | 50.29634 | 6.20984 | 163° | 16km/h | 19009m | 3.9m/s | -53.6°C | 3% | 69.2hPa | 3.6V | 00:00:00 | 01:38:47 | 00:00:00 | |
| DM0DOS-11 | 2026-09-05 23:54:34 | 50.29650 | 6.20974 | 113° | 16km/h | 18993m | 3.7m/s | -53.5°C | 3% | 69.3hPa | 3.6V | 00:00:00 | 01:38:43 | 00:00:00 | |
| DB0UT-7 | 2026-09-05 23:54:34 | 50.29650 | 6.20973 | 114° | 18km/h | 18993m | 3.6m/s | -53.5°C | 3.0% | 69.3hPa | 3.6V | 00:00:00 | 00:00:00 | 00:00:00 | |
| DL1XH1-15 | 2026-09-05 23:54:32 | 50.29669 | 6.20943 | 111° | 16km/h | 18966m | 3.9m/s | -53.4°C | 3% | 69.6hPa | 3.6V | 00:00:00 | 01:38:36 | 00:00:00 | |
| BIOWL1-15 | 2026-09-05 23:54:31 | 50.29656 | 6.20959 | 141° | 16km/h | 18982m | 4m/s | -53.5°C | 3.1% | 69.5hPa | 3.6V | 00:00:00 | 00:00:00 | 00:00:00 | |
| DM0DOS-11 | 2026-09-05 23:54:24 | 50.29676 | 6.20931 | 165° | 16km/h | 18954m | 3.8m/s | -53.3°C | 3.1% | 69.7hPa | 3.6V | 00:00:00 | 01:38:33 | 00:00:00 | |
| DL1XH1-15 | 2026-09-05 23:54:22 | 50.29697 | 6.20900 | 126° | 20km/h | 18927m | 4m/s | -53.2°C | 3.1% | 70hPa | 3.6V | 00:00:00 | 01:38:26 | 00:00:00 | |
| BIOWL1-15 | 2026-09-05 23:54:21 | 50.29688 | 6.20912 | 125° | 24km/h | 18939m | 4m/s | -53.3°C | 3.2% | 69.9hPa | 3.6V | 00:00:00 | 00:00:00 | 00:00:00 | |
| DM0DOS-11 | 2026-09-05 23:54:14 | 50.29706 | 6.20881 | 120° | 16km/h | 18914m | 4m/s | -53.3°C | 3.1% | 70.2hPa | 3.6V | 00:00:00 | 01:38:23 | 00:00:00 | |
| BIOWL1-15 | 2026-09-05 23:54:09 | 50.29718 | 6.20860 | 115° | 22km/h | 18894m | 4m/s | -53.6°C | 3.3% | 70.4hPa | 3.6V | 00:00:00 | 00:00:00 | 00:00:00 | |
| DL1XH1-15 | 2026-09-05 23:54:04 | 50.29747 | 6.20792 | 127° | 24km/h | 18853m | 3.8m/s | -54.1°C | 3.2% | 70.8hPa | 3.6V | 00:00:00 | 01:38:08 | 00:00:00 | |
| DM0DOS-11 | 2026-09-05 23:54:04 | 50.29731 | 6.20831 | 151° | 24km/h | 18874m | 4m/s | -54°C | 3.2% | 70.6hPa | 3.6V | 00:00:00 | 01:38:13 | 00:00:00 | |
| BIOWL1-15 | 2026-09-05 23:53:58 | 50.29754 | 6.20777 | 124° | 27km/h | 18845m | 3.7m/s | -54.3°C | 3.3% | 70.9hPa | 3.6V | 00:00:00 | 00:00:00 | 00:00:00 | |
| DM0DOS-11 | 2026-09-05 23:53:54 | 50.29766 | 6.20758 | 128° | 29km/h | 18834m | 3.8m/s | -54.4°C | 3.2% | 71hPa | 3.6V | 00:00:00 | 01:38:03 | 00:00:00 | |
| DL1XH1-15 | 2026-09-05 23:53:45 | 50.29810 | 6.20633 | 126° | 37km/h | 18783m | 4.1m/s | -55.5°C | 3.3% | 71.6hPa | 3.6V | 00:00:00 | 01:37:50 | 00:00:00 | |
| DM0DOS-11 | 2026-09-05 23:53:44 | 50.29801 | 6.20660 | 115° | 29km/h | 18795m | 4m/s | -55.4°C | 3.2% | 71.5hPa | 3.6V | 00:00:00 | 01:37:53 | 00:00:00 | |
| BIOWL1-15 | 2026-09-05 23:53:38 | 50.29839 | 6.20582 | 139° | 33km/h | 18762m | 5m/s | -55.4°C | 3.4% | 71.8hPa | 3.6V | 00:00:00 | 00:00:00 | 00:00:00 | |
| DL1XH1-15 | 2026-09-05 23:53:36 | 50.29865 | 6.20538 | 130° | 42km/h | 18741m | 3.8m/s | -55.4°C | 3.3% | 72hPa | 3.6V | 00:00:00 | 01:37:40 | 00:00:00 | |
| BIOWL1-15 | 2026-09-05 23:53:25 | 50.29965 | 6.20395 | 145° | 38km/h | 18691m | 4m/s | -55.4°C | 3.5% | 72.6hPa | 3.6V | 00:00:00 | 00:00:00 | 00:00:00 | |
| DM0DOS-11 | 2026-09-05 23:53:24 | 50.29914 | 6.20465 | 132° | 44km/h | 18714m | 3.9m/s | -55.4°C | 3.5% | 72.3hPa | 3.6V | 00:00:00 | 01:37:33 | 00:00:00 | |
| BIOWL1-15 | 2026-09-05 23:53:15 | 50.30005 | 6.20337 | 140° | 49km/h | 18672m | 3.5m/s | -55.3°C | 3.5% | 72.8hPa | 3.6V | 00:00:00 | 00:00:00 | 00:00:00 | |
| DM0DOS-11 | 2026-09-05 23:53:14 | 50.29995 | 6.20350 | 137° | 49km/h | 18676m | 4m/s | -55.3°C | 3.5% | 72.8hPa | 3.6V | 00:00:00 | 01:37:23 | 00:00:00 | |
| DL1XH1-15 | 2026-09-05 23:53:12 | 50.30059 | 6.20268 | 140° | 55km/h | 18647m | 3.9m/s | -55.4°C | 3.5% | 73.1hPa | 3.6V | 00:00:00 | 01:37:16 | 00:00:00 | |
| DM0DOS-11 | 2026-09-05 23:53:04 | 50.30090 | 6.20226 | 141° | 53km/h | 18635m | 3.9m/s | -55.5°C | 3.5% | 73.2hPa | 3.6V | 00:00:00 | 01:37:13 | 00:00:00 | |
| BIOWL1-15 | 2026-09-05 23:53:03 | 50.30099 | 6.20216 | 141° | 40km/h | 18631m | 3m/s | -55.5°C | 3.6% | 73.3hPa | 3.6V | 00:00:00 | 00:00:00 | 00:00:00 | |
| DL1XH1-15 | 2026-09-05 23:52:56 | 50.30170 | 6.20119 | 133° | 60km/h | 18604m | 4m/s | -55.8°C | 3.5% | 73.6hPa | 3.6V | 00:00:00 | 01:37:05 | 00:00:00 | |
| DM0DOS-11 | 2026-09-05 23:52:54 | 50.30202 | 6.20068 | 131° | 58km/h | 18592m | 3.8m/s | -55.9°C | 3.5% | 73.7hPa | 3.6V | 00:00:00 | 01:37:02 | 00:00:00 | |
| BIOWL1-15 | 2026-09-05 23:52:46 | 50.30276 | 6.19948 | 126° | 62km/h | 18566m | 4m/s | -56.1°C | 3.7% | 74hPa | 3.6V | 00:00:00 | 00:00:00 | 00:00:00 | |
| DL1XH1-15 | 2026-09-05 23:52:45 | 50.30337 | 6.19835 | 124° | 60km/h | 18543m | 3.8m/s | -56.3°C | 3.6% | 74.3hPa | 3.6V | 00:00:00 | 01:36:49 | 00:00:00 | |
| DM0DOS-11 | 2026-09-05 23:52:44 | 50.30304 | 6.19890 | 132° | 64km/h | 18554m | 3.7m/s | -56.2°C | 3.6% | 74.1hPa | 3.6V | 00:00:00 | 01:36:52 | 00:00:00 | |
| BIOWL1-15 | 2026-09-05 23:52:37 | 50.30406 | 6.19698 | 130° | 64km/h | 18517m | 3.5m/s | -56.2°C | 3.8% | 74.6hPa | 3.6V | 00:00:00 | 00:00:00 | 00:00:00 | |
| DJ8HS-15 | 2026-09-05 23:52:35 | 50.30384 | 6.19732 | 134° | 60km/h | 18524m | 3.5m/s | -56.2°C | 3.6% | 74.4hPa | 3.6V | 00:00:00 | 01:36:44 | 00:00:00 | |
| DL1XH1-15 | 2026-09-05 23:52:34 | 50.30444 | 6.19615 | 130° | 58km/h | 18503m | 3.8m/s | -56.1°C | 3.7% | 74.7hPa | 3.6V | 00:00:00 | 01:36:38 | 00:00:00 | |
| DM0DOS-11 | 2026-09-05 23:52:34 | 50.30406 | 6.19698 | 132° | 62km/h | 18517m | 3.6m/s | -56.2°C | 3.7% | 74.5hPa | 3.6V | 00:00:00 | 01:36:42 | 00:00:00 | |
| DB0UT-7 | 2026-09-05 23:52:34 | 50.30395 | 6.19716 | 135° | 58km/h | 18521m | 3.7m/s | -56.2°C | 3.7% | 74.5hPa | 3.6V | 00:00:00 | 00:00:00 | 00:00:00 | |
| DL1XH1-15 | 2026-09-05 23:52:24 | 50.30537 | 6.19430 | 122° | 55km/h | 18464m | 3.7m/s | -56.1°C | 3.7% | 75.2hPa | 3.6V | 00:00:00 | 01:36:28 | 00:00:00 | |
| DM0DOS-11 | 2026-09-05 23:52:24 | 50.30500 | 6.19503 | 122° | 60km/h | 18480m | 3.9m/s | -56.1°C | 3.7% | 75hPa | 3.6V | 00:00:00 | 01:36:32 | 00:00:00 | |
| BIOWL1-15 | 2026-09-05 23:52:23 | 50.30500 | 6.19503 | 128° | 58km/h | 18480m | 4m/s | -56.1°C | 3.8% | 75hPa | 3.6V | 00:00:00 | 00:00:00 | 00:00:00 | |
| DJ8HS-15 | 2026-09-05 23:52:15 | 50.30572 | 6.19346 | 133° | 53km/h | 18448m | 3.7m/s | -56.1°C | 3.8% | 75.3hPa | 3.6V | 00:00:00 | 01:36:24 | 00:00:00 | |
| DM0DOS-11 | 2026-09-05 23:52:14 | 50.30590 | 6.19314 | 128° | 57km/h | 18441m | 3.9m/s | -56.2°C | 3.8% | 75.4hPa | 3.6V | 00:00:00 | 01:36:22 | 00:00:00 | |
| BIOWL1-15 | 2026-09-05 23:52:10 | 50.30613 | 6.19256 | 125° | 57km/h | 18429m | 4m/s | -56.2°C | 3.9% | 75.6hPa | 3.6V | 00:00:00 | 00:00:00 | 00:00:00 | |
| DM0DOS-11 | 2026-09-05 23:52:04 | 50.30667 | 6.19125 | 126° | 53km/h | 18403m | 3.8m/s | -56.1°C | 3.8% | 75.8hPa | 3.6V | 00:00:00 | 01:36:12 | 00:00:00 | |
| BIOWL1-15 | 2026-09-05 23:51:59 | 50.30699 | 6.19057 | 112° | 57km/h | 18387m | 3m/s | -56.2°C | 4% | 76hPa | 3.6V | 00:00:00 | 00:00:00 | 00:00:00 | |
| DM0DOS-11 | 2026-09-05 23:51:58 | 50.30740 | 6.18949 | 113° | 53km/h | 18367m | 3.8m/s | -56.2°C | 4% | 76.3hPa | 3.6V | 00:00:00 | 01:36:02 | 00:00:00 | |
| DL1XH1-15 | 2026-09-05 23:51:56 | 50.30732 | 6.18966 | 115° | 47km/h | 18370m | 3.8m/s | -56.2°C | 4% | 76.2hPa | 3.6V | 00:00:00 | 01:36:03 | 00:00:00 | |
| BIOWL1-15 | 2026-09-05 23:51:48 | 50.30770 | 6.18858 | 124° | 49km/h | 18348m | 3.5m/s | -56.2°C | 4.1% | 76.5hPa | 3.6V | 00:00:00 | 00:00:00 | 00:00:00 | |
| DM0DOS-11 | 2026-09-05 23:51:44 | 50.30798 | 6.18767 | 112° | 44km/h | 18330m | 3.7m/s | -56.1°C | 4% | 76.7hPa | 3.6V | 00:00:00 | 01:35:52 | 00:00:00 | |
| DM0DOS-11 | 2026-09-05 23:51:38 | 50.30845 | 6.18605 | 122° | 42km/h | 18293m | 3.6m/s | -55.9°C | 4.1% | 77.2hPa | 3.6V | 00:00:00 | 01:35:42 | 00:00:00 | |
| BIOWL1-15 | 2026-09-05 23:51:36 | 50.30834 | 6.18651 | 105° | 40km/h | 18304m | 3m/s | -56°C | 4.2% | 77hPa | 3.6V | 00:00:00 | 00:00:00 | 00:00:00 | |
| DB0UT-7 | 2026-09-05 23:51:34 | 50.30840 | 6.18620 | 117° | 38km/h | 18297m | 3.7m/s | -55.9°C | 4.1% | 77.1hPa | 3.6V | 00:00:00 | 00:00:00 | 00:00:00 | |
| DL1XH1-15 | 2026-09-05 23:51:25 | 50.30907 | 6.18422 | 115° | 37km/h | 18246m | 3.7m/s | -55.9°C | 4.2% | 77.7hPa | 3.6V | 00:00:00 | 01:35:29 | 00:00:00 | |
| DM0DOS-11 | 2026-09-05 23:51:25 | 50.30894 | 6.18455 | 126° | 35km/h | 18256m | 3.5m/s | -55.9°C | 4.1% | 77.6hPa | 3.6V | 00:00:00 | 01:35:32 | 00:00:00 | |
| BIOWL1-15 | 2026-09-05 23:51:24 | 50.30888 | 6.18469 | 125° | 42km/h | 18260m | 4m/s | -55.9°C | 4.2% | 77.5hPa | 3.6V | 00:00:00 | 00:00:00 | 00:00:00 | |
| BIOWL1-15 | 2026-09-05 23:51:15 | 50.30936 | 6.18332 | 114° | 33km/h | 18220m | 3.5m/s | -56°C | 4.3% | 78hPa | 3.6V | 00:00:00 | 00:00:00 | 00:00:00 | |
| DM0DOS-11 | 2026-09-05 23:51:15 | 50.30936 | 6.18332 | 119° | 38km/h | 18220m | 3.8m/s | -56°C | 4.2% | 78hPa | 3.6V | 00:00:00 | 01:35:22 | 00:00:00 | |
| DJ8HS-15 | 2026-09-05 23:51:13 | 50.30936 | 6.18332 | 120° | 37km/h | 18220m | 3.5m/s | -55.9°C | 4.2% | 78.0hPa | 3.6V | 00:00:00 | 01:35:22 | 00:00:00 | |
| DM0DOS-11 | 2026-09-05 23:51:05 | 50.30980 | 6.18210 | 121° | 42km/h | 18183m | 3.8m/s | -55.9°C | 4.4% | 78.5hPa | 3.6V | 00:00:00 | 01:35:12 | 00:00:00 | |
| DL1XH1-15 | 2026-09-05 23:51:05 | 50.30994 | 6.18173 | 135° | 38km/h | 18172m | 3.5m/s | -56°C | 4.4% | 78.6hPa | 3.6V | 00:00:00 | 01:35:09 | 00:00:00 | |
| BIOWL1-15 | 2026-09-05 23:51:03 | 50.31000 | 6.18164 | 124° | 37km/h | 18169m | 3.5m/s | -56°C | 4.4% | 78.7hPa | 3.6V | 00:00:00 | 00:00:00 | 00:00:00 | |
| DJ8HS-15 | 2026-09-05 23:50:53 | 50.31029 | 6.18081 | 129° | 44km/h | 18146m | 3.5m/s | -56.0°C | 4.5% | 78.9hPa | 3.6V | 00:00:00 | 01:35:02 | 00:00:00 | |
| DL1XH1-15 | 2026-09-05 23:50:52 | 50.31058 | 6.17994 | 127° | 42km/h | 18124m | 3.7m/s | -56°C | 4.5% | 79.2hPa | 3.6V | 00:00:00 | 01:34:56 | 00:00:00 | |
| BIOWL1-15 | 2026-09-05 23:50:49 | 50.31050 | 6.18026 | 110° | 44km/h | 18132m | 4m/s | -56°C | 4.5% | 79.1hPa | 3.6V | 00:00:00 | 00:00:00 | 00:00:00 | |
| DM0DOS-11 | 2026-09-05 23:50:45 | 50.31086 | 6.17926 | 124° | 51km/h | 18106m | 3.6m/s | -55.9°C | 4.5% | 79.4hPa | 3.6V | 00:00:00 | 01:34:51 | 00:00:00 | |
| BIOWL1-15 | 2026-09-05 23:50:38 | 50.31116 | 6.17858 | 120° | 46km/h | 18089m | 4m/s | -56°C | 4.6% | 79.6hPa | 3.6V | 00:00:00 | 00:00:00 | 00:00:00 | |
| DL1XH1-15 | 2026-09-05 23:50:36 | 50.31132 | 6.17811 | 129° | 51km/h | 18078m | 3.6m/s | -56.1°C | 4.5% | 79.8hPa | 3.6V | 00:00:00 | 01:34:43 | 00:00:00 | |
| DB0UT-7 | 2026-09-05 23:50:34 | 50.31132 | 6.17811 | 120° | 53km/h | 18078m | 3.6m/s | -56.0°C | 4.5% | 79.7hPa | 3.6V | 00:00:00 | 00:00:00 | 00:00:00 | |
| DJ8HS-15 | 2026-09-05 23:50:33 | 50.31137 | 6.17797 | 132° | 53km/h | 18074m | 3.5m/s | -56.1°C | 4.5% | 79.7hPa | 3.6V | 00:00:00 | 01:34:42 | 00:00:00 | |
| DM0DOS-11 | 2026-09-05 23:50:25 | 50.31196 | 6.17675 | 127° | 53km/h | 18045m | 3.6m/s | -56.2°C | 4.6% | 80.2hPa | 3.6V | 00:00:00 | 01:34:34 | 00:00:00 | |
| DL1XH1-15 | 2026-09-05 23:50:22 | 50.31258 | 6.17543 | 124° | 55km/h | 18017m | 3.6m/s | -56.4°C | 4.6% | 80.5hPa | 3.6V | 00:00:00 | 01:34:26 | 00:00:00 | |
| BIOWL1-15 | 2026-09-05 23:50:19 | 50.31289 | 6.17466 | 118° | 53km/h | 18001m | 3.7m/s | -56.6°C | 4.8% | 80.7hPa | 3.6V | 00:00:00 | 00:00:00 | 00:00:00 | |
| DM0DOS-11 | 2026-09-05 23:50:15 | 50.31276 | 6.17508 | 115° | 55km/h | 18009m | 3.9m/s | -56.5°C | 4.7% | 80.6hPa | 3.6V | 00:00:00 | 01:34:24 | 00:00:00 | |
| DJ8HS-15 | 2026-09-05 23:50:13 | 50.31289 | 6.17466 | 124° | 53km/h | 18001m | 3.8m/s | -56.6°C | 4.7% | 80.7hPa | 3.6V | 00:00:00 | 01:34:22 | 00:00:00 | |
| DM0DOS-11 | 2026-09-05 23:50:05 | 50.31346 | 6.17319 | 110° | 51km/h | 17971m | 3.8m/s | -56.7°C | 4.7% | 81.1hPa | 3.6V | 00:00:00 | 01:34:14 | 00:00:00 | |
| DB0UT-7 | 2026-09-05 23:50:04 | 50.31351 | 6.17298 | 114° | 53km/h | 17968m | 4.0m/s | -56.7°C | 4.7% | 81.1hPa | 3.6V | 00:00:00 | 01:34:13 | 00:00:00 | |
| DL1XH1-15 | 2026-09-05 23:50:02 | 50.31387 | 6.17171 | 110° | 55km/h | 17941m | 1.7m/s | -56.8°C | 4.9% | 81.4hPa | 3.6V | 00:00:00 | 01:34:06 | 00:00:00 | |
| DM0DOS-11 | 2026-09-05 23:49:55 | 50.31398 | 6.17134 | 119° | 51km/h | 17933m | 3.8m/s | -56.9°C | 4.9% | 81.5hPa | 3.6V | 00:00:00 | 01:34:04 | 00:00:00 | |
| BIOWL1-15 | 2026-09-05 23:49:53 | 50.31414 | 6.17056 | 107° | 49km/h | 17918m | 3.7m/s | -57.3°C | 5% | 81.8hPa | 3.6V | 00:00:00 | 00:00:00 | 00:00:00 | |
| DJ8HS-15 | 2026-09-05 23:49:53 | 50.31409 | 6.17097 | 104° | 53km/h | 17926m | 3.8m/s | -57.0°C | 4.9% | 81.6hPa | 3.6V | 00:00:00 | 01:34:02 | 00:00:00 | |
| DM0DOS-11 | 2026-09-05 23:49:45 | 50.31434 | 6.16939 | 98° | 51km/h | 17896m | 3.9m/s | -57.4°C | 5% | 82hPa | 3.6V | 00:00:00 | 01:33:54 | 00:00:00 | |
| BIOWL1-15 | 2026-09-05 23:49:35 | 50.31472 | 6.16743 | 110° | 53km/h | 17858m | 4m/s | -57.3°C | 5.1% | 82.5hPa | 3.6V | 00:00:00 | 00:00:00 | 00:00:00 | |
| DM0DOS-11 | 2026-09-05 23:49:35 | 50.31472 | 6.16743 | 109° | 57km/h | 17858m | 4m/s | -57.3°C | 5% | 82.5hPa | 3.6V | 00:00:00 | 01:33:44 | 00:00:00 | |
| BIOWL1-15 | 2026-09-05 23:49:25 | 50.31517 | 6.16530 | 111° | 55km/h | 17819m | 4m/s | -57.4°C | 5.2% | 83hPa | 3.6V | 00:00:00 | 00:00:00 | 00:00:00 | |
| DM0DOS-11 | 2026-09-05 23:49:25 | 50.31517 | 6.16530 | 116° | 55km/h | 17819m | 4.1m/s | -57.4°C | 5.1% | 83hPa | 3.6V | 00:00:00 | 01:33:34 | 00:00:00 | |
| BIOWL1-15 | 2026-09-05 23:49:12 | 50.31574 | 6.16266 | 109° | 51km/h | 17766m | 4m/s | -57.5°C | 5.3% | 83.7hPa | 3.6V | 00:00:00 | 00:00:00 | 00:00:00 | |
| DM0DOS-11 | 2026-09-05 23:49:05 | 50.31602 | 6.16129 | 114° | 51km/h | 17739m | 4m/s | -57.4°C | 5.4% | 84.1hPa | 3.6V | 00:00:00 | 01:33:14 | 00:00:00 | |
| BIOWL1-15 | 2026-09-05 23:48:59 | 50.31625 | 6.16010 | 108° | 42km/h | 17714m | 3.7m/s | -57.4°C | 5.4% | 84.4hPa | 3.6V | 00:00:00 | 00:00:00 | 00:00:00 | |
| DM0DOS-11 | 2026-09-05 23:48:55 | 50.31637 | 6.15943 | 102° | 51km/h | 17699m | 3.9m/s | -57.4°C | 5.5% | 84.6hPa | 3.6V | 00:00:00 | 01:33:04 | 00:00:00 | |
| BIOWL1-15 | 2026-09-05 23:48:48 | 50.31678 | 6.15736 | 104° | 51km/h | 17655m | 4.1m/s | -57.4°C | 5.6% | 85.2hPa | 3.6V | 00:00:00 | 00:00:00 | 00:00:00 | |
| DM0DOS-11 | 2026-09-05 23:48:45 | 50.31672 | 6.15754 | 116° | 51km/h | 17659m | 4.2m/s | -57.4°C | 5.5% | 85.1hPa | 3.6V | 00:00:00 | 01:32:54 | 00:00:00 | |
| DM0DOS-11 | 2026-09-05 23:48:35 | 50.31702 | 6.15560 | 104° | 53km/h | 17618m | 4.1m/s | -57.5°C | 5.5% | 85.7hPa | 3.6V | 00:00:00 | 01:32:44 | 00:00:00 | |
| DB0UT-7 | 2026-09-05 23:48:34 | 50.31705 | 6.15541 | 111° | 51km/h | 17613m | 3.8m/s | -57.5°C | 5.6% | 85.6hPa | 3.6V | 00:00:00 | 00:00:00 | 00:00:00 | |
| DJ8HS-15 | 2026-09-05 23:48:33 | 50.31710 | 6.15521 | 111° | 53km/h | 17609m | 3.7m/s | -57.5°C | 5.6% | 85.7hPa | 3.6V | 00:00:00 | 01:32:42 | 00:00:00 | |
| DM0DOS-11 | 2026-09-05 23:48:25 | 50.31733 | 6.15351 | 93° | 53km/h | 17577m | 3.9m/s | -57.7°C | 5.6% | 86.2hPa | 3.6V | 00:00:00 | 01:32:34 | 00:00:00 | |
| BIOWL1-15 | 2026-09-05 23:48:23 | 50.31735 | 6.15267 | 98° | 53km/h | 17561m | 3.8m/s | -57.7°C | 5.8% | 86.4hPa | 3.6V | 00:00:00 | 00:00:00 | 00:00:00 | |
| DM0DOS-11 | 2026-09-05 23:48:15 | 50.31744 | 6.15144 | 101° | 49km/h | 17538m | 4m/s | -57.6°C | 5.9% | 86.7hPa | 3.6V | 00:00:00 | 01:32:24 | 00:00:00 | |
| BIOWL1-15 | 2026-09-05 23:48:08 | 50.31756 | 6.15006 | 99° | 47km/h | 17508m | 3.8m/s | -57.5°C | 5.9% | 87.1hPa | 3.6V | 00:00:00 | 00:00:00 | 00:00:00 | |
| DM0DOS-11 | 2026-09-05 23:48:05 | 50.31760 | 6.14951 | 91° | 47km/h | 17496m | 3.6m/s | -57.4°C | 6% | 87.3hPa | 3.6V | 00:00:00 | 01:32:14 | 00:00:00 | |
| DB0UT-7 | 2026-09-05 23:48:04 | 50.31760 | 6.14931 | 96° | 44km/h | 17493m | 3.8m/s | -57.4°C | 6.0% | 87.3hPa | 3.6V | 00:00:00 | 01:32:13 | 00:00:00 | |
| DM0DOS-11 | 2026-09-05 23:47:55 | 50.31781 | 6.14771 | 113° | 47km/h | 17458m | 3.9m/s | -57.2°C | 6% | 87.8hPa | 3.6V | 00:00:00 | 01:32:04 | 00:00:00 | |
| BIOWL1-15 | 2026-09-05 23:47:51 | 50.31791 | 6.14700 | 109° | 47km/h | 17442m | 3.8m/s | -57.3°C | 6.1% | 88hPa | 3.6V | 00:00:00 | 00:00:00 | 00:00:00 | |
| DM0DOS-11 | 2026-09-05 23:47:45 | 50.31810 | 6.14599 | 103° | 42km/h | 17418m | 3.9m/s | -57.3°C | 6.1% | 88.4hPa | 3.6V | 00:00:00 | 01:31:54 | 00:00:00 | |
| BIOWL1-15 | 2026-09-05 23:47:35 | 50.31847 | 6.14438 | 108° | 44km/h | 17378m | 4.5m/s | -57.4°C | 6.3% | 88.9hPa | 3.6V | 00:00:00 | 00:00:00 | 00:00:00 | |
| DM0DOS-11 | 2026-09-05 23:47:35 | 50.31847 | 6.14438 | 111° | 46km/h | 17378m | 4m/s | -57.4°C | 6.2% | 88.9hPa | 3.6V | 00:00:00 | 01:31:44 | 00:00:00 | |
| DB0UT-7 | 2026-09-05 23:47:34 | 50.31851 | 6.14420 | 104° | 47km/h | 17374m | 4.0m/s | -57.3°C | 6.2% | 88.9hPa | 3.6V | 00:00:00 | 00:00:00 | 00:00:00 | |
| DM0DOS-11 | 2026-09-05 23:47:30 | 50.31878 | 6.14266 | 100° | 49km/h | 17339m | 3.8m/s | -57.4°C | 6.3% | 89.4hPa | 3.6V | 00:00:00 | 01:31:34 | 00:00:00 | |
| BIOWL1-15 | 2026-09-05 23:47:25 | 50.31902 | 6.14111 | 109° | 53km/h | 17308m | 3m/s | -57.6°C | 6.5% | 89.9hPa | 3.6V | 00:00:00 | 00:00:00 | 00:00:00 | |
| DM0DOS-11 | 2026-09-05 23:47:19 | 50.31909 | 6.14072 | 97° | 46km/h | 17301m | 3.6m/s | -57.6°C | 6.5% | 90hPa | 3.6V | 00:00:00 | 01:31:24 | 00:00:00 | |
| DJ8HS-15 | 2026-09-05 23:47:13 | 50.31911 | 6.14036 | 105° | 47km/h | 17294m | 3.7m/s | -57.5°C | 6.5% | 90.0hPa | 3.6V | 00:00:00 | 01:31:22 | 00:00:00 | |
| DM0DOS-11 | 2026-09-05 23:47:09 | 50.31938 | 6.13893 | 112° | 49km/h | 17264m | 3.7m/s | -57.4°C | 6.6% | 90.5hPa | 3.6V | 00:00:00 | 01:31:14 | 00:00:00 | |
| DB0UT-7 | 2026-09-05 23:47:04 | 50.31943 | 6.13875 | 115° | 46km/h | 17260m | 3.6m/s | -57.4°C | 6.6% | 90.5hPa | 3.6V | 00:00:00 | 01:31:13 | 00:00:00 | |
| DM0DOS-11 | 2026-09-05 23:46:59 | 50.31982 | 6.13722 | 113° | 46km/h | 17227m | 3.5m/s | -57.4°C | 6.7% | 91hPa | 3.6V | 00:00:00 | 01:31:04 | 00:00:00 | |
| DJ8HS-15 | 2026-09-05 23:46:52 | 50.31992 | 6.13669 | 111° | 47km/h | 17217m | 3.6m/s | -57.3°C | 6.8% | 91.1hPa | 3.6V | 00:00:00 | 01:31:01 | 00:00:00 | |
| DM0DOS-11 | 2026-09-05 23:46:49 | 50.32027 | 6.13559 | 112° | 46km/h | 17192m | 3.8m/s | -57.7°C | 6.8% | 91.5hPa | 3.6V | 00:00:00 | 01:30:54 | 00:00:00 | |
| BIOWL1-15 | 2026-09-05 23:46:48 | 50.32014 | 6.13610 | 118° | 46km/h | 17203m | 3.7m/s | -57.6°C | 6.9% | 91.4hPa | 3.6V | 00:00:00 | 00:00:00 | 00:00:00 | |
| DM0DOS-11 | 2026-09-05 23:46:39 | 50.32087 | 6.13403 | 120° | 47km/h | 17156m | 3.6m/s | -58.1°C | 7% | 92hPa | 3.6V | 00:00:00 | 01:30:44 | 00:00:00 | |
| BIOWL1-15 | 2026-09-05 23:46:30 | 50.32113 | 6.13316 | 114° | 46km/h | 17138m | 3.5m/s | -58.2°C | 7.1% | 92.3hPa | 3.6V | 00:00:00 | 00:00:00 | 00:00:00 | |
| DM0DOS-11 | 2026-09-05 23:46:29 | 50.32135 | 6.13231 | 111° | 47km/h | 17121m | 3.8m/s | -58.3°C | 7.1% | 92.5hPa | 3.6V | 00:00:00 | 01:30:34 | 00:00:00 | |
| DM0DOS-11 | 2026-09-05 23:46:19 | 50.32181 | 6.13060 | 102° | 47km/h | 17083m | 3.5m/s | -58.3°C | 7.2% | 93.1hPa | 3.6V | 00:00:00 | 01:30:24 | 00:00:00 | |
| DJ8HS-15 | 2026-09-05 23:46:12 | 50.32192 | 6.13006 | 129° | 44km/h | 17072m | 3.5m/s | -58.2°C | 7.2% | 93.2hPa | 3.6V | 00:00:00 | 01:30:21 | 00:00:00 | |
| DM0DOS-11 | 2026-09-05 23:46:09 | 50.32226 | 6.12896 | 117° | 46km/h | 17047m | 3.6m/s | -58.2°C | 7.3% | 93.6hPa | 3.6V | 00:00:00 | 01:30:14 | 00:00:00 | |
| BIOWL1-15 | 2026-09-05 23:46:06 | 50.32226 | 6.12896 | 111° | 49km/h | 17047m | 3.7m/s | -58.2°C | 7.4% | 93.6hPa | 3.6V | 00:00:00 | 00:00:00 | 00:00:00 | |
| DB0UT-7 | 2026-09-05 23:46:04 | 50.32232 | 6.12880 | 109° | 46km/h | 17043m | 3.5m/s | -58.2°C | 7.5% | 93.6hPa | 3.7V | 00:00:00 | 01:30:13 | 00:00:00 | |
| DM0DOS-11 | 2026-09-05 23:45:54 | 50.32277 | 6.12713 | 124° | 44km/h | 17008m | 3.7m/s | -58.2°C | 7.5% | 94.2hPa | 3.7V | 00:00:00 | 01:30:03 | 00:00:00 | |
| BIOWL1-15 | 2026-09-05 23:45:52 | 50.32288 | 6.12688 | 116° | 47km/h | 17001m | 5m/s | -58.2°C | 7.7% | 94.3hPa | 3.7V | 00:00:00 | 00:00:00 | 00:00:00 | |
| DM0DOS-11 | 2026-09-05 23:45:44 | 50.32336 | 6.12560 | 121° | 46km/h | 16971m | 3.6m/s | -58.3°C | 7.6% | 94.7hPa | 3.7V | 00:00:00 | 01:29:53 | 00:00:00 | |
| BIOWL1-15 | 2026-09-05 23:45:40 | 50.32365 | 6.12507 | 122° | 51km/h | 16957m | 5m/s | -58.3°C | 7.8% | 94.9hPa | 3.7V | 00:00:00 | 00:00:00 | 00:00:00 | |
| DM0DOS-11 | 2026-09-05 23:45:34 | 50.32408 | 6.12420 | 134° | 46km/h | 16936m | 3.6m/s | -58.3°C | 7.8% | 95.2hPa | 3.7V | 00:00:00 | 01:29:43 | 00:00:00 | |
| DB0UT-7 | 2026-09-05 23:45:34 | 50.32408 | 6.12420 | 135° | 49km/h | 16936m | 3.5m/s | -58.3°C | 7.8% | 95.2hPa | 3.7V | 00:00:00 | 00:00:00 | 00:00:00 | |
| DJ8HS-15 | 2026-09-05 23:45:32 | 50.32422 | 6.12394 | 120° | 66km/h | 16928m | 3.4m/s | -58.3°C | 7.8% | 95.3hPa | 3.7V | 00:00:00 | 01:29:41 | 00:00:00 | |
| DM0DOS-11 | 2026-09-05 23:45:29 | 50.32485 | 6.12279 | 123° | 49km/h | 16901m | 3.5m/s | -58.2°C | 8% | 95.8hPa | 3.7V | 00:00:00 | 01:29:33 | 00:00:00 | |
| BIOWL1-15 | 2026-09-05 23:45:28 | 50.32479 | 6.12294 | 121° | 44km/h | 16904m | 3m/s | -58.3°C | 8% | 95.7hPa | 3.7V | 00:00:00 | 00:00:00 | 00:00:00 | |
| DM0DOS-11 | 2026-09-05 23:45:18 | 50.32572 | 6.12137 | 140° | 51km/h | 16865m | 3.5m/s | -58.3°C | 8.1% | 96.3hPa | 3.7V | 00:00:00 | 01:29:23 | 00:00:00 | |
| BIOWL1-15 | 2026-09-05 23:45:17 | 50.32543 | 6.12178 | 130° | 49km/h | 16876m | 3m/s | -58.3°C | 8.2% | 96.2hPa | 3.7V | 00:00:00 | 00:00:00 | 00:00:00 | |
| DM0DOS-11 | 2026-09-05 23:45:08 | 50.32663 | 6.11997 | 123° | 49km/h | 16829m | 3.6m/s | -58.2°C | 8.3% | 96.9hPa | 3.7V | 00:00:00 | 01:29:13 | 00:00:00 | |
| BIOWL1-15 | 2026-09-05 23:45:07 | 50.32656 | 6.12014 | 125° | 49km/h | 16833m | 4m/s | -58.3°C | 8.4% | 96.8hPa | 3.7V | 00:00:00 | 00:00:00 | 00:00:00 | |
| DB0UT-7 | 2026-09-05 23:45:04 | 50.32663 | 6.11997 | 124° | 51km/h | 16829m | 3.6m/s | -58.2°C | 8.3% | 96.8hPa | 3.7V | 00:00:00 | 01:29:13 | 00:00:00 | |
| DM0DOS-11 | 2026-09-05 23:44:58 | 50.32747 | 6.11853 | 133° | 47km/h | 16792m | 3.8m/s | -58.4°C | 8.5% | 97.4hPa | 3.7V | 00:00:00 | 01:29:03 | 00:00:00 | |
| BIOWL1-15 | 2026-09-05 23:44:55 | 50.32737 | 6.11866 | 134° | 49km/h | 16795m | 3.7m/s | -58.4°C | 8.5% | 97.4hPa | 3.7V | 00:00:00 | 00:00:00 | 00:00:00 | |
| DM0DOS-11 | 2026-09-05 23:44:48 | 50.32823 | 6.11702 | 130° | 51km/h | 16755m | 4m/s | -58.5°C | 8.5% | 98hPa | 3.7V | 00:00:00 | 01:28:53 | 00:00:00 | |
| BIOWL1-15 | 2026-09-05 23:44:43 | 50.32841 | 6.11675 | 135° | 47km/h | 16747m | 4m/s | -58.5°C | 8.6% | 98.1hPa | 3.7V | 00:00:00 | 00:00:00 | 00:00:00 | |
| BIOWL1-15 | 2026-09-05 23:44:33 | 50.32926 | 6.11531 | 129° | 66km/h | 16712m | 4m/s | -59.4°C | 8.8% | 98.7hPa | 3.7V | 00:00:00 | 00:00:00 | 00:00:00 | |
| DM0DOS-11 | 2026-09-05 23:44:28 | 50.33012 | 6.11372 | 139° | 62km/h | 16675m | 3.6m/s | -59.8°C | 8.8% | 99.2hPa | 3.7V | 00:00:00 | 01:28:33 | 00:00:00 | |
| BIOWL1-15 | 2026-09-05 23:44:20 | 50.33078 | 6.11258 | 132° | 69km/h | 16653m | 3.6m/s | -60.1°C | 9% | 99.6hPa | 3.7V | 00:00:00 | 00:00:00 | 00:00:00 | |
| DM0DOS-11 | 2026-09-05 23:44:18 | 50.33122 | 6.11183 | 126° | 75km/h | 16638m | 3.5m/s | -60.4°C | 9% | 99.8hPa | 3.7V | 00:00:00 | 01:28:23 | 00:00:00 | |
| DM0DOS-11 | 2026-09-05 23:44:08 | 50.33250 | 6.10964 | 136° | 71km/h | 16600m | 3.6m/s | -60.9°C | 9% | 100.4hPa | 3.7V | 00:00:00 | 01:28:13 | 00:00:00 | |
| BIOWL1-15 | 2026-09-05 23:44:01 | 50.33286 | 6.10900 | 127° | 71km/h | 16589m | 3.6m/s | -61°C | 9.2% | 100.6hPa | 3.7V | 00:00:00 | 00:00:00 | 00:00:00 | |
| DM0DOS-11 | 2026-09-05 23:43:58 | 50.33363 | 6.10742 | 123° | 69km/h | 16564m | 4m/s | -61.2°C | 9.3% | 101hPa | 3.7V | 00:00:00 | 01:28:03 | 00:00:00 | |
| DM0DOS-11 | 2026-09-05 23:43:48 | 50.33469 | 6.10529 | 124° | 66km/h | 16526m | 3.8m/s | -61.2°C | 9.3% | 101.6hPa | 3.7V | 00:00:00 | 01:27:53 | 00:00:00 | |
| BIOWL1-15 | 2026-09-05 23:43:44 | 50.33498 | 6.10460 | 126° | 62km/h | 16515m | 4m/s | -61.1°C | 9.5% | 101.8hPa | 3.7V | 00:00:00 | 00:00:00 | 00:00:00 | |
| DM0DOS-11 | 2026-09-05 23:43:38 | 50.33565 | 6.10317 | 129° | 60km/h | 16488m | 3.9m/s | -61.1°C | 9.5% | 102.2hPa | 3.7V | 00:00:00 | 01:27:43 | 00:00:00 | |
| BIOWL1-15 | 2026-09-05 23:43:31 | 50.33593 | 6.10265 | 122° | 64km/h | 16476m | 3.8m/s | -61.3°C | 9.6% | 102.4hPa | 3.7V | 00:00:00 | 00:00:00 | 00:00:00 | |
| DM0DOS-11 | 2026-09-05 23:43:28 | 50.33652 | 6.10124 | 121° | 66km/h | 16450m | 3.7m/s | -61.2°C | 9.6% | 102.9hPa | 3.7V | 00:00:00 | 01:27:33 | 00:00:00 | |
| BIOWL1-15 | 2026-09-05 23:43:22 | 50.33689 | 6.10034 | 126° | 53km/h | 16435m | 4m/s | -61.1°C | 9.8% | 103.1hPa | 3.7V | 00:00:00 | 00:00:00 | 00:00:00 | |
| DM0DOS-11 | 2026-09-05 23:43:18 | 50.33743 | 6.09904 | 124° | 64km/h | 16412m | 3.9m/s | -61.1°C | 9.8% | 103.5hPa | 3.7V | 00:00:00 | 01:27:23 | 00:00:00 | |
| BIOWL1-15 | 2026-09-05 23:43:08 | 50.33813 | 6.09726 | 117° | 69km/h | 16380m | 3.6m/s | -61°C | 10% | 104hPa | 3.7V | 00:00:00 | 00:00:00 | 00:00:00 | |
| DM0DOS-11 | 2026-09-05 23:43:07 | 50.33830 | 6.09683 | 113° | 73km/h | 16373m | 3.7m/s | -61°C | 10% | 104.1hPa | 3.7V | 00:00:00 | 01:27:13 | 00:00:00 | |
| DB0UT-7 | 2026-09-05 23:43:04 | 50.33830 | 6.09683 | 114° | 71km/h | 16373m | 3.6m/s | -61.0°C | 10.0% | 104.1hPa | 3.7V | 00:00:00 | 01:27:13 | 00:00:00 | |
| DM0DOS-11 | 2026-09-05 23:42:57 | 50.33918 | 6.09423 | 115° | 71km/h | 16337m | 3.6m/s | -61.1°C | 10.1% | 104.7hPa | 3.7V | 00:00:00 | 01:27:03 | 00:00:00 | |
| BIOWL1-15 | 2026-09-05 23:42:55 | 50.33910 | 6.09451 | 115° | 75km/h | 16341m | 4m/s | -61.2°C | 10.2% | 104.7hPa | 3.7V | 00:00:00 | 00:00:00 | 00:00:00 | |
| DM0DOS-11 | 2026-09-05 23:42:47 | 50.34001 | 6.09170 | 116° | 73km/h | 16302m | 4m/s | -61.1°C | 10.3% | 105.3hPa | 3.7V | 00:00:00 | 01:26:53 | 00:00:00 | |
| BIOWL1-15 | 2026-09-05 23:42:44 | 50.34001 | 6.09170 | 117° | 71km/h | 16302m | 4m/s | -61.1°C | 10.3% | 105.3hPa | 3.7V | 00:00:00 | 00:00:00 | 00:00:00 | |
| DM0DOS-11 | 2026-09-05 23:42:37 | 50.34078 | 6.08911 | 113° | 66km/h | 16263m | 3.9m/s | -61.2°C | 10.5% | 106hPa | 3.7V | 00:00:00 | 01:26:43 | 00:00:00 | |
| DB0UT-7 | 2026-09-05 23:42:34 | 50.34078 | 6.08911 | 114° | 71km/h | 16263m | 3.9m/s | -61.1°C | 10.5% | 105.9hPa | 3.7V | 00:00:00 | 00:00:00 | 00:00:00 | |
| DM0DOS-11 | 2026-09-05 23:42:27 | 50.34153 | 6.08677 | 113° | 73km/h | 16224m | 4m/s | -61.4°C | 10.6% | 106.6hPa | 3.7V | 00:00:00 | 01:26:33 | 00:00:00 | |
| BIOWL1-15 | 2026-09-05 23:42:19 | 50.34209 | 6.08502 | 114° | 73km/h | 16196m | 4m/s | -61.3°C | 10.8% | 107.1hPa | 3.7V | 00:00:00 | 00:00:00 | 00:00:00 | |
| DM0DOS-11 | 2026-09-05 23:42:17 | 50.34229 | 6.08421 | 119° | 73km/h | 16184m | 3.9m/s | -61.3°C | 10.8% | 107.3hPa | 3.7V | 00:00:00 | 01:26:23 | 00:00:00 | |
| DM0DOS-11 | 2026-09-05 23:42:07 | 50.34308 | 6.08156 | 112° | 75km/h | 16144m | 3.8m/s | -61.3°C | 11% | 108hPa | 3.7V | 00:00:00 | 01:26:13 | 00:00:00 | |
| BIOWL1-15 | 2026-09-05 23:42:01 | 50.34333 | 6.08078 | 117° | 75km/h | 16132m | 3.8m/s | -61.2°C | 11.1% | 108.2hPa | 3.7V | 00:00:00 | 00:00:00 | 00:00:00 | |
| DJ8HS-15 | 2026-09-05 23:42:00 | 50.34343 | 6.08053 | 116° | 77km/h | 16129m | 3.8m/s | -61.2°C | 11.0% | 108.2hPa | 3.7V | 00:00:00 | 01:26:09 | 00:00:00 | |
| BIOWL1-15 | 2026-09-05 23:41:40 | 50.34535 | 6.07458 | 122° | 73km/h | 16045m | 4m/s | -61.1°C | 11.6% | 109.8hPa | 3.8V | 00:00:00 | 00:00:00 | 00:00:00 | |
| DJ8HS-15 | 2026-09-05 23:41:38 | 50.34535 | 6.07458 | 118° | 77km/h | 16045m | 3.9m/s | -61.1°C | 11.5% | 109.7hPa | 3.8V | 00:00:00 | 01:25:47 | 00:00:00 | |
| DM0DOS-11 | 2026-09-05 23:41:36 | 50.34572 | 6.07351 | 113° | 78km/h | 16029m | 3.8m/s | -61°C | 11.6% | 110hPa | 3.8V | 00:00:00 | 01:25:43 | 00:00:00 | |
| BIOWL1-15 | 2026-09-05 23:41:30 | 50.34622 | 6.07187 | 115° | 77km/h | 16006m | 3.8m/s | -60.8°C | 11.8% | 110.4hPa | 3.8V | 00:00:00 | 00:00:00 | 00:00:00 | |
| DM0DOS-11 | 2026-09-05 23:41:24 | 50.34656 | 6.07074 | 114° | 77km/h | 15991m | 3.8m/s | -60.7°C | 11.8% | 110.7hPa | 3.8V | 00:00:00 | 01:25:33 | 00:00:00 | |
| BIOWL1-15 | 2026-09-05 23:41:18 | 50.34737 | 6.06793 | 116° | 73km/h | 15953m | 4.2m/s | -60.4°C | 12.2% | 111.4hPa | 3.8V | 00:00:00 | 00:00:00 | 00:00:00 | |
| DM0DOS-11 | 2026-09-05 23:41:18 | 50.34737 | 6.06793 | 113° | 75km/h | 15953m | 4.1m/s | -60.4°C | 12.1% | 111.4hPa | 3.8V | 00:00:00 | 01:25:23 | 00:00:00 | |
| DM0DOS-11 | 2026-09-05 23:41:06 | 50.34818 | 6.06523 | 111° | 75km/h | 15913m | 3.9m/s | -60.2°C | 12.3% | 112.1hPa | 3.8V | 00:00:00 | 01:25:13 | 00:00:00 | |
| BIOWL1-15 | 2026-09-05 23:41:03 | 50.34825 | 6.06494 | 115° | 77km/h | 15909m | 4m/s | -60.2°C | 12.4% | 112.1hPa | 3.8V | 00:00:00 | 00:00:00 | 00:00:00 | |
| DM0DOS-11 | 2026-09-05 23:40:56 | 50.34909 | 6.06231 | 112° | 75km/h | 15871m | 4m/s | -60.2°C | 12.6% | 112.8hPa | 3.8V | 00:00:00 | 01:25:02 | 00:00:00 | |
| BIOWL1-15 | 2026-09-05 23:40:53 | 50.34909 | 6.06231 | 113° | 75km/h | 15871m | 4m/s | -60.2°C | 12.7% | 112.8hPa | 3.8V | 00:00:00 | 00:00:00 | 00:00:00 | |
| DM0DOS-11 | 2026-09-05 23:40:44 | 50.34990 | 6.05963 | 115° | 75km/h | 15831m | 3.8m/s | -60.1°C | 12.8% | 113.5hPa | 3.8V | 00:00:00 | 01:24:52 | 00:00:00 | |
| BIOWL1-15 | 2026-09-05 23:40:43 | 50.34999 | 6.05938 | 118° | 73km/h | 15828m | 5m/s | -60.1°C | 13% | 113.6hPa | 3.8V | 00:00:00 | 00:00:00 | 00:00:00 | |
| DB0UT-7 | 2026-09-05 23:40:34 | 50.35064 | 6.05728 | 108° | 73km/h | 15797m | 3.7m/s | -60.2°C | 13.1% | 114.1hPa | 3.8V | 00:00:00 | 00:00:00 | 00:00:00 | |
| DM0DOS-11 | 2026-09-05 23:40:32 | 50.35097 | 6.05618 | 111° | 71km/h | 15782m | 3.7m/s | -60.2°C | 13.2% | 114.4hPa | 3.8V | 00:00:00 | 01:24:39 | 00:00:00 | |
| BIOWL1-15 | 2026-09-05 23:40:31 | 50.35087 | 6.05644 | 113° | 73km/h | 15786m | 3.8m/s | -60.2°C | 13.3% | 114.3hPa | 3.8V | 00:00:00 | 00:00:00 | 00:00:00 | |
| BIOWL1-15 | 2026-09-05 23:40:18 | 50.35195 | 6.05268 | 113° | 73km/h | 15735m | 4m/s | -60.2°C | 13.6% | 115.3hPa | 3.8V | 00:00:00 | 00:00:00 | 00:00:00 | |
| DM0DOS-11 | 2026-09-05 23:40:14 | 50.35231 | 6.05141 | 116° | 73km/h | 15715m | 3.5m/s | -60.2°C | 13.7% | 115.6hPa | 3.8V | 00:00:00 | 01:24:21 | 00:00:00 | |
| BIOWL1-15 | 2026-09-05 23:40:09 | 50.35268 | 6.05012 | 115° | 77km/h | 15697m | 4m/s | -60.1°C | 13.9% | 115.9hPa | 3.8V | 00:00:00 | 00:00:00 | 00:00:00 | |
| BIOWL1-15 | 2026-09-05 23:39:58 | 50.35351 | 6.04751 | 111° | 66km/h | 15660m | 3m/s | -60.2°C | 14.2% | 116.6hPa | 3.8V | 00:00:00 | 00:00:00 | 00:00:00 | |
| DM0DOS-11 | 2026-09-05 23:39:57 | 50.35357 | 6.04727 | 118° | 73km/h | 15657m | 3.5m/s | -60.2°C | 14.1% | 116.7hPa | 3.8V | 00:00:00 | 01:24:05 | 00:00:00 | |
| DM0DOS-11 | 2026-09-05 23:39:47 | 50.35444 | 6.04439 | 110° | 75km/h | 15618m | 3.7m/s | -60.4°C | 14.5% | 117.4hPa | 3.8V | 00:00:00 | 01:23:54 | 00:00:00 | |
| BIOWL1-15 | 2026-09-05 23:39:47 | 50.35438 | 6.04465 | 110° | 69km/h | 15621m | 3m/s | -60.4°C | 14.5% | 117.3hPa | 3.8V | 00:00:00 | 00:00:00 | 00:00:00 | |
| DM0DOS-11 | 2026-09-05 23:39:37 | 50.35524 | 6.04173 | 107° | 71km/h | 15581m | 3.4m/s | -60.5°C | 14.8% | 118.1hPa | 3.8V | 00:00:00 | 01:23:44 | 00:00:00 | |
| BIOWL1-15 | 2026-09-05 23:39:36 | 50.35530 | 6.04147 | 112° | 73km/h | 15578m | 3.5m/s | -60.6°C | 14.8% | 118.2hPa | 3.8V | 00:00:00 | 00:00:00 | 00:00:00 | |
| DB0UT-7 | 2026-09-05 23:39:34 | 50.35530 | 6.04147 | 109° | 69km/h | 15578m | 3.5m/s | -60.5°C | 14.7% | 118.1hPa | 3.8V | 00:00:00 | 00:00:00 | 00:00:00 | |
| DM0DOS-11 | 2026-09-05 23:39:27 | 50.35600 | 6.03913 | 115° | 69km/h | 15546m | 3.3m/s | -60.6°C | 15.1% | 118.8hPa | 3.8V | 00:00:00 | 01:23:34 | 00:00:00 | |
| BIOWL1-15 | 2026-09-05 23:39:23 | 50.35679 | 6.03637 | 123° | 73km/h | 15509m | 4m/s | -60.5°C | 15.5% | 119.5hPa | 3.8V | 00:00:00 | 00:00:00 | 00:00:00 | |
| DM0DOS-11 | 2026-09-05 23:39:22 | 50.35713 | 6.03541 | 117° | 68km/h | 15494m | 3.5m/s | -60.3°C | 15.5% | 119.7hPa | 3.8V | 00:00:00 | 01:23:19 | 00:00:00 | |
| BIOWL1-15 | 2026-09-05 23:39:11 | 50.35728 | 6.03493 | 122° | 71km/h | 15487m | 3m/s | -60.3°C | 15.7% | 119.9hPa | 3.8V | 00:00:00 | 00:00:00 | 00:00:00 | |
| DB0UT-7 | 2026-09-05 23:39:04 | 50.35762 | 6.03396 | 113° | 71km/h | 15474m | 3.4m/s | -60.2°C | 15.7% | 120.1hPa | 3.8V | 00:00:00 | 01:23:13 | 00:00:00 | |
| DM0DOS-11 | 2026-09-05 23:39:03 | 50.35806 | 6.03282 | 114° | 68km/h | 15457m | 3.6m/s | -60.4°C | 16% | 120.4hPa | 3.8V | 00:00:00 | 01:23:08 | 00:00:00 | |
| BIOWL1-15 | 2026-09-05 23:39:00 | 50.35850 | 6.03167 | 119° | 69km/h | 15438m | 3.2m/s | -60.4°C | 16.2% | 120.8hPa | 3.8V | 00:00:00 | 00:00:00 | 00:00:00 | |
| DM0DOS-11 | 2026-09-05 23:38:53 | 50.35894 | 6.03048 | 128° | 73km/h | 15421m | 3.3m/s | -60.4°C | 16.2% | 121.1hPa | 3.8V | 00:00:00 | 01:22:58 | 00:00:00 | |
| BIOWL1-15 | 2026-09-05 23:38:46 | 50.35926 | 6.02979 | 122° | 73km/h | 15411m | 3.3m/s | -60.4°C | 16.4% | 121.3hPa | 3.8V | 00:00:00 | 00:00:00 | 00:00:00 | |
| DM0DOS-11 | 2026-09-05 23:38:43 | 50.35993 | 6.02805 | 121° | 75km/h | 15388m | 3.6m/s | -60.4°C | 16.6% | 121.8hPa | 3.8V | 00:00:00 | 01:22:48 | 00:00:00 | |
| DB0UT-7 | 2026-09-05 23:38:34 | 50.36049 | 6.02685 | 121° | 82km/h | 15370m | 3.4m/s | -60.4°C | 16.7% | 122.1hPa | 3.7V | 00:00:00 | 00:00:00 | 00:00:00 | |
| DM0DOS-11 | 2026-09-05 23:38:33 | 50.36108 | 6.02563 | 124° | 78km/h | 15353m | 3.5m/s | -60.4°C | 17% | 122.4hPa | 3.8V | 00:00:00 | 01:22:38 | 00:00:00 | |
| BIOWL1-15 | 2026-09-05 23:38:27 | 50.36129 | 6.02513 | 128° | 78km/h | 15346m | 3.3m/s | -60.4°C | 17.1% | 122.6hPa | 3.8V | 00:00:00 | 00:00:00 | 00:00:00 | |
| DM0DOS-11 | 2026-09-05 23:38:20 | 50.36224 | 6.02312 | 128° | 88km/h | 15319m | 3.5m/s | -60.6°C | 17.2% | 123.1hPa | 3.9V | 00:00:00 | 01:22:28 | 00:00:00 | |
| BIOWL1-15 | 2026-09-05 23:38:14 | 50.36392 | 6.01954 | 126° | 91km/h | 15272m | 3.5m/s | -61.1°C | 17.8% | 124hPa | 3.9V | 00:00:00 | 00:00:00 | 00:00:00 | |
| DM0DOS-11 | 2026-09-05 23:38:10 | 50.36354 | 6.02037 | 124° | 86km/h | 15283m | 3.8m/s | -61°C | 17.6% | 123.8hPa | 3.9V | 00:00:00 | 01:22:18 | 00:00:00 | |
| BIOWL1-15 | 2026-09-05 23:38:01 | 50.36489 | 6.01729 | 118° | 82km/h | 15242m | 4m/s | -61°C | 18% | 124.6hPa | 3.9V | 00:00:00 | 00:00:00 | 00:00:00 | |
| DM0DOS-11 | 2026-09-05 23:37:55 | 50.36519 | 6.01643 | 124° | 84km/h | 15230m | 3.9m/s | -61°C | 18.1% | 124.8hPa | 3.9V | 00:00:00 | 01:22:04 | 00:00:00 | |
| BIOWL1-15 | 2026-09-05 23:37:47 | 50.36604 | 6.01412 | 118° | 82km/h | 15199m | 4m/s | -61°C | 18.5% | 125.5hPa | 3.9V | 00:00:00 | 00:00:00 | 00:00:00 | |
| DM0DOS-11 | 2026-09-05 23:37:45 | 50.36626 | 6.01356 | 111° | 82km/h | 15192m | 3.9m/s | -61.1°C | 18.6% | 125.6hPa | 3.9V | 00:00:00 | 01:21:54 | 00:00:00 | |
| DM0DOS-11 | 2026-09-05 23:37:40 | 50.36711 | 6.01062 | 117° | 78km/h | 15155m | 3.6m/s | -61.1°C | 19% | 126.3hPa | 3.9V | 00:00:00 | 01:21:44 | 00:00:00 | |
| DB0UT-7 | 2026-09-05 23:37:34 | 50.36720 | 6.01034 | 118° | 77km/h | 15152m | 3.8m/s | -61.1°C | 19.0% | 126.4hPa | 3.9V | 00:00:00 | 00:00:00 | 00:00:00 | |
| DM0DOS-11 | 2026-09-05 23:37:25 | 50.36789 | 6.00775 | 112° | 78km/h | 15118m | 3.9m/s | -60.8°C | 19.2% | 127.1hPa | 3.9V | 00:00:00 | 01:21:34 | 00:00:00 | |
| BIOWL1-15 | 2026-09-05 23:37:23 | 50.36866 | 6.00525 | 111° | 77km/h | 15084m | 4.5m/s | -60.9°C | 19.7% | 127.8hPa | 3.9V | 00:00:00 | 00:00:00 | 00:00:00 | |
| DM0DOS-11 | 2026-09-05 23:37:20 | 50.36874 | 6.00498 | 108° | 77km/h | 15079m | 3.9m/s | -60.8°C | 19.6% | 127.8hPa | 3.9V | 00:00:00 | 01:21:24 | 00:00:00 | |
| BIOWL1-15 | 2026-09-05 23:37:06 | 50.36951 | 6.00251 | 114° | 75km/h | 15044m | 4m/s | -61.2°C | 20% | 128.6hPa | 3.9V | 00:00:00 | 00:00:00 | 00:00:00 | |
| DM0DOS-11 | 2026-09-05 23:37:05 | 50.36960 | 6.00224 | 110° | 77km/h | 15039m | 3.7m/s | -61.2°C | 20% | 128.7hPa | 3.9V | 00:00:00 | 01:21:14 | 00:00:00 | |
| DB0UT-7 | 2026-09-05 23:37:04 | 50.36967 | 6.00196 | 113° | 80km/h | 15036m | 3.9m/s | -61.2°C | 20.1% | 128.7hPa | 3.9V | 00:00:00 | 01:21:13 | 00:00:00 | |
| DM0DOS-11 | 2026-09-05 23:37:00 | 50.37044 | 5.99944 | 115° | 77km/h | 15002m | 4.1m/s | -61.8°C | 20.3% | 129.5hPa | 3.9V | 00:00:00 | 01:21:04 | 00:00:00 | |
| BIOWL1-15 | 2026-09-05 23:36:56 | 50.37035 | 5.99973 | 115° | 78km/h | 15005m | 4m/s | -61.8°C | 20.4% | 129.4hPa | 3.9V | 00:00:00 | 00:00:00 | 00:00:00 | |
| DM0DOS-11 | 2026-09-05 23:36:45 | 50.37128 | 5.99665 | 124° | 80km/h | 14962m | 4m/s | -61.9°C | 20.7% | 130.3hPa | 3.9V | 00:00:00 | 01:20:54 | 00:00:00 | |
| BIOWL1-15 | 2026-09-05 23:36:44 | 50.37159 | 5.99587 | 115° | 84km/h | 14950m | 4m/s | -61.9°C | 20.9% | 130.5hPa | 3.9V | 00:00:00 | 00:00:00 | 00:00:00 | |
| DM0DOS-11 | 2026-09-05 23:36:40 | 50.37227 | 5.99384 | 114° | 82km/h | 14922m | 4.2m/s | -62.1°C | 21.1% | 131.1hPa | 3.9V | 00:00:00 | 01:20:44 | 00:00:00 | |
| BIOWL1-15 | 2026-09-05 23:36:29 | 50.37334 | 5.99067 | 116° | 82km/h | 14877m | 3m/s | -62.1°C | 21.5% | 132.1hPa | 3.9V | 00:00:00 | 00:00:00 | 00:00:00 | |
| DM0DOS-11 | 2026-09-05 23:36:25 | 50.37326 | 5.99098 | 112° | 82km/h | 14881m | 3.9m/s | -62.1°C | 21.5% | 132hPa | 3.9V | 00:00:00 | 01:20:34 | 00:00:00 | |
| DM0DOS-11 | 2026-09-05 23:36:20 | 50.37424 | 5.98813 | 120° | 82km/h | 14841m | 4.2m/s | -62.5°C | 21.7% | 132.9hPa | 3.9V | 00:00:00 | 01:20:24 | 00:00:00 | |
| BIOWL1-15 | 2026-09-05 23:36:17 | 50.37424 | 5.98813 | 117° | 82km/h | 14841m | 4.5m/s | -62.5°C | 21.8% | 132.9hPa | 3.9V | 00:00:00 | 00:00:00 | 00:00:00 | |
| DM0DOS-11 | 2026-09-05 23:36:05 | 50.37522 | 5.98530 | 124° | 77km/h | 14800m | 3.8m/s | -62.7°C | 22.1% | 133.7hPa | 3.9V | 00:00:00 | 01:20:14 | 00:00:00 | |
| BIOWL1-15 | 2026-09-05 23:36:03 | 50.37544 | 5.98483 | 124° | 80km/h | 14793m | 3.9m/s | -62.8°C | 22.2% | 133.9hPa | 3.9V | 00:00:00 | 00:00:00 | 00:00:00 | |
| DM0DOS-11 | 2026-09-05 23:36:00 | 50.37632 | 5.98268 | 121° | 80km/h | 14761m | 4m/s | -62.8°C | 22.5% | 134.6hPa | 3.9V | 00:00:00 | 01:20:04 | 00:00:00 | |
| BIOWL1-15 | 2026-09-05 23:35:41 | 50.37801 | 5.97902 | 126° | 82km/h | 14707m | 3.5m/s | -63.2°C | 23% | 135.7hPa | 3.9V | 00:00:00 | 00:00:00 | 00:00:00 | |
| DM0DOS-11 | 2026-09-05 23:35:40 | 50.37877 | 5.97735 | 129° | 89km/h | 14686m | 3.4m/s | -63.2°C | 23.1% | 136.2hPa | 3.9V | 00:00:00 | 01:19:44 | 00:00:00 | |
| BIOWL1-15 | 2026-09-05 23:35:31 | 50.37954 | 5.97558 | 126° | 84km/h | 14665m | 3m/s | -63.3°C | 23.4% | 136.7hPa | 4V | 00:00:00 | 00:00:00 | 00:00:00 | |
| DM0DOS-11 | 2026-09-05 23:35:27 | 50.38003 | 5.97434 | 122° | 88km/h | 14650m | 3.4m/s | -63.3°C | 23.5% | 137hPa | 4V | 00:00:00 | 01:19:34 | 00:00:00 | |
| DM0DOS-11 | 2026-09-05 23:35:20 | 50.38122 | 5.97128 | 121° | 95km/h | 14616m | 3.6m/s | -63.3°C | 23.7% | 137.8hPa | 4V | 00:00:00 | 01:19:24 | 00:00:00 | |
| BIOWL1-15 | 2026-09-05 23:35:17 | 50.38136 | 5.97094 | 119° | 97km/h | 14612m | 3m/s | -63.3°C | 23.8% | 137.9hPa | 4V | 00:00:00 | 00:00:00 | 00:00:00 | |
| BIOWL1-15 | 2026-09-05 23:35:04 | 50.38270 | 5.96702 | 119° | 102km/h | 14569m | 3m/s | -64°C | 24.1% | 138.8hPa | 4V | 00:00:00 | 00:00:00 | 00:00:00 | |
| BIOWL1-15 | 2026-09-05 23:34:51 | 50.38411 | 5.96240 | 117° | 102km/h | 14527m | 3.7m/s | -64.5°C | 24.4% | 139.8hPa | 4V | 00:00:00 | 00:00:00 | 00:00:00 | |
| BIOWL1-15 | 2026-09-05 23:34:41 | 50.38521 | 5.95867 | 111° | 106km/h | 14491m | 3m/s | -64.7°C | 24.7% | 140.6hPa | 4V | 00:00:00 | 00:00:00 | 00:00:00 | |
| DJ8HS-15 | 2026-09-05 23:34:40 | 50.38511 | 5.95906 | 114° | 99km/h | 14495m | 3.5m/s | -64.6°C | 24.6% | 140.5hPa | 4V | 00:00:00 | 01:18:49 | 00:00:00 | |
| DM0DOS-11 | 2026-09-05 23:34:37 | 50.38552 | 5.95754 | 114° | 99km/h | 14481m | 3.4m/s | -64.8°C | 24.7% | 140.8hPa | 4V | 00:00:00 | 01:18:45 | 00:00:00 | |
| BIOWL1-15 | 2026-09-05 23:34:33 | 50.38629 | 5.95502 | 112° | 99km/h | 14457m | 3.5m/s | -64.7°C | 24.9% | 141.4hPa | 4V | 00:00:00 | 00:00:00 | 00:00:00 | |
| DM0DOS-11 | 2026-09-05 23:34:30 | 50.38669 | 5.95356 | 115° | 99km/h | 14443m | 3.4m/s | -64.6°C | 25% | 141.7hPa | 4V | 00:00:00 | 01:18:34 | 00:00:00 | |
| BIOWL1-15 | 2026-09-05 23:34:19 | 50.38734 | 5.95142 | 121° | 100km/h | 14422m | 3m/s | -65°C | 25.1% | 142.2hPa | 4V | 00:00:00 | 00:00:00 | 00:00:00 | |
| DJ8HS-15 | 2026-09-05 23:34:17 | 50.38757 | 5.95073 | 111° | 95km/h | 14416m | 3.4m/s | -65.1°C | 25.1% | 142.3hPa | 4V | 00:00:00 | 01:18:26 | 00:00:00 | |
| DM0DOS-11 | 2026-09-05 23:34:13 | 50.38801 | 5.94932 | 116° | 95km/h | 14402m | 3.5m/s | -65.5°C | 25.1% | 142.6hPa | 4V | 00:00:00 | 01:18:22 | 00:00:00 | |
| BIOWL1-15 | 2026-09-05 23:34:11 | 50.38856 | 5.94759 | 122° | 99km/h | 14384m | 4m/s | -65.8°C | 25.3% | 143.1hPa | 4V | 00:00:00 | 00:00:00 | 00:00:00 | |
| DM0DOS-11 | 2026-09-05 23:34:03 | 50.38910 | 5.94591 | 120° | 93km/h | 14367m | 3.6m/s | -66.1°C | 25.3% | 143.4hPa | 4V | 00:00:00 | 01:18:12 | 00:00:00 | |
| BIOWL1-15 | 2026-09-05 23:33:58 | 50.38961 | 5.94424 | 122° | 93km/h | 14349m | 4m/s | -66.4°C | 25.4% | 143.9hPa | 4V | 00:00:00 | 00:00:00 | 00:00:00 | |
| DM0DOS-11 | 2026-09-05 23:33:58 | 50.39016 | 5.94258 | 115° | 93km/h | 14331m | 3.7m/s | -66.5°C | 25.5% | 144.3hPa | 4V | 00:00:00 | 01:18:02 | 00:00:00 | |
| BIOWL1-15 | 2026-09-05 23:33:50 | 50.39067 | 5.94092 | 114° | 93km/h | 14313m | 3.5m/s | -66.5°C | 25.5% | 144.8hPa | 4V | 00:00:00 | 00:00:00 | 00:00:00 | |
| DM0DOS-11 | 2026-09-05 23:33:43 | 50.39163 | 5.93790 | 118° | 99km/h | 14280m | 3.8m/s | -66.6°C | 25.5% | 145.6hPa | 4V | 00:00:00 | 01:17:48 | 00:00:00 | |
| BIOWL1-15 | 2026-09-05 23:33:38 | 50.39218 | 5.93612 | 116° | 99km/h | 14261m | 3.7m/s | -66.6°C | 25.6% | 146hPa | 4V | 00:00:00 | 00:00:00 | 00:00:00 | |
| DB0UT-7 | 2026-09-05 23:33:34 | 50.39218 | 5.93612 | 117° | 102km/h | 14261m | 3.6m/s | -66.5°C | 25.5% | 145.9hPa | 4V | 00:00:00 | 00:00:00 | 00:00:00 | |
| DM0DOS-11 | 2026-09-05 23:33:33 | 50.39272 | 5.93431 | 115° | 99km/h | 14243m | 4m/s | -66.8°C | 25.5% | 146.4hPa | 4V | 00:00:00 | 01:17:38 | 00:00:00 | |
| BIOWL1-15 | 2026-09-05 23:33:24 | 50.39325 | 5.93246 | 113° | 99km/h | 14223m | 3.8m/s | -67°C | 25.6% | 146.9hPa | 4V | 00:00:00 | 00:00:00 | 00:00:00 | |
| DM0DOS-11 | 2026-09-05 23:33:21 | 50.39404 | 5.92950 | 109° | 104km/h | 14192m | 3.8m/s | -67°C | 25.5% | 147.7hPa | 4V | 00:00:00 | 01:17:25 | 00:00:00 | |
| BIOWL1-15 | 2026-09-05 23:33:12 | 50.39440 | 5.92792 | 111° | 97km/h | 14176m | 4m/s | -66.9°C | 25.6% | 148.1hPa | 4V | 00:00:00 | 00:00:00 | 00:00:00 | |
| BIOWL1-15 | 2026-09-05 23:33:02 | 50.39536 | 5.92366 | 112° | 97km/h | 14133m | 4m/s | -67°C | 25.7% | 149.1hPa | 4V | 00:00:00 | 00:00:00 | 00:00:00 | |
| DM0DOS-11 | 2026-09-05 23:33:00 | 50.39555 | 5.92293 | 108° | 104km/h | 14127m | 4.1m/s | -67°C | 25.6% | 149.3hPa | 4V | 00:00:00 | 01:17:08 | 00:00:00 | |
| DM0DOS-11 | 2026-09-05 23:32:54 | 50.39640 | 5.91903 | 111° | 102km/h | 14086m | 4m/s | -67.3°C | 25.7% | 150.3hPa | 4.1V | 00:00:00 | 01:16:58 | 00:00:00 | |
| BIOWL1-15 | 2026-09-05 23:32:51 | 50.39640 | 5.91903 | 111° | 97km/h | 14086m | 4m/s | -67.3°C | 25.8% | 150.3hPa | 4.1V | 00:00:00 | 00:00:00 | 00:00:00 | |
| BIOWL1-15 | 2026-09-05 23:32:41 | 50.39714 | 5.91598 | 109° | 110km/h | 14054m | 4m/s | -67.6°C | 25.8% | 151.1hPa | 4.1V | 00:00:00 | 00:00:00 | 00:00:00 | |
| DM0DOS-11 | 2026-09-05 23:32:40 | 50.39732 | 5.91514 | 111° | 106km/h | 14046m | 4.4m/s | -67.5°C | 25.7% | 151.3hPa | 4.1V | 00:00:00 | 01:16:48 | 00:00:00 | |
| DM0DOS-11 | 2026-09-05 23:32:34 | 50.39829 | 5.91120 | 109° | 106km/h | 14003m | 4m/s | -67.6°C | 25.8% | 152.4hPa | 4.1V | 00:00:00 | 01:16:38 | 00:00:00 | |
| BIOWL1-15 | 2026-09-05 23:32:30 | 50.39819 | 5.91163 | 110° | 106km/h | 14007m | 4.1m/s | -67.6°C | 25.9% | 152.2hPa | 4.1V | 00:00:00 | 00:00:00 | 00:00:00 | |
| BIOWL1-15 | 2026-09-05 23:32:14 | 50.39951 | 5.90519 | 107° | 111km/h | 13943m | 3m/s | -68.2°C | 26.2% | 153.9hPa | 4.1V | 00:00:00 | 00:00:00 | 00:00:00 | |
| BIOWL1-15 | 2026-09-05 23:32:04 | 50.40025 | 5.90068 | 105° | 115km/h | 13903m | 5m/s | -68.3°C | 26.3% | 154.9hPa | 4V | 00:00:00 | 00:00:00 | 00:00:00 | |
| DM0DOS-11 | 2026-09-05 23:31:59 | 50.40072 | 5.89775 | 105° | 106km/h | 13877m | 4m/s | -68.4°C | 26.3% | 155.6hPa | 4V | 00:00:00 | 01:16:05 | 00:00:00 | |
| BIOWL1-15 | 2026-09-05 23:31:52 | 50.40097 | 5.89613 | 105° | 108km/h | 13861m | 3.8m/s | -68.4°C | 26.4% | 156hPa | 4V | 00:00:00 | 00:00:00 | 00:00:00 | |
| DJ8HS-15 | 2026-09-05 23:31:50 | 50.40113 | 5.89526 | 105° | 106km/h | 13854m | 3.8m/s | -68.2°C | 26.3% | 156.1hPa | 4.0V | 00:00:00 | 01:15:59 | 00:00:00 | |
| DM0DOS-11 | 2026-09-05 23:31:47 | 50.40140 | 5.89365 | 104° | 108km/h | 13838m | 3.7m/s | -68.3°C | 26.5% | 156.6hPa | 4V | 00:00:00 | 01:15:55 | 00:00:00 | |
| BIOWL1-15 | 2026-09-05 23:31:38 | 50.40237 | 5.88875 | 108° | 110km/h | 13793m | 4m/s | -68.2°C | 26.6% | 157.8hPa | 4.1V | 00:00:00 | 00:00:00 | 00:00:00 | |
| DB0UT-7 | 2026-09-05 23:31:34 | 50.40237 | 5.88875 | 108° | 108km/h | 13793m | 3.8m/s | -68.2°C | 26.5% | 157.7hPa | 4.1V | 00:00:00 | 00:00:00 | 00:00:00 | |
| DJ8HS-15 | 2026-09-05 23:31:30 | 50.40273 | 5.88716 | 106° | 108km/h | 13777m | 3.6m/s | -68.1°C | 26.6% | 158.1hPa | 4.1V | 00:00:00 | 01:15:39 | 00:00:00 | |
| DM0DOS-11 | 2026-09-05 23:31:28 | 50.40314 | 5.88512 | 106° | 108km/h | 13759m | 3.7m/s | -68.2°C | 26.6% | 158.6hPa | 4.1V | 00:00:00 | 01:15:34 | 00:00:00 | |
| BIOWL1-15 | 2026-09-05 23:31:23 | 50.40355 | 5.88304 | 108° | 106km/h | 13740m | 3m/s | -68.2°C | 26.8% | 159.1hPa | 4.1V | 00:00:00 | 00:00:00 | 00:00:00 | |
| DM0DOS-11 | 2026-09-05 23:31:17 | 50.40405 | 5.88056 | 107° | 106km/h | 13719m | 3.8m/s | -68°C | 26.8% | 159.7hPa | 4.1V | 00:00:00 | 01:15:23 | 00:00:00 | |
| BIOWL1-15 | 2026-09-05 23:31:11 | 50.40431 | 5.87927 | 107° | 106km/h | 13709m | 4m/s | -68.1°C | 27% | 160hPa | 4.1V | 00:00:00 | 00:00:00 | 00:00:00 | |
| BIOWL1-15 | 2026-09-05 23:31:00 | 50.40520 | 5.87480 | 110° | 108km/h | 13667m | 4m/s | -68.1°C | 27.2% | 161.1hPa | 4.1V | 00:00:00 | 00:00:00 | 00:00:00 | |
| DM0DOS-11 | 2026-09-05 23:30:57 | 50.40573 | 5.87240 | 109° | 104km/h | 13643m | 3.7m/s | -68.2°C | 27.1% | 161.7hPa | 4.1V | 00:00:00 | 01:15:03 | 00:00:00 | |
| BIOWL1-15 | 2026-09-05 23:30:50 | 50.40627 | 5.87003 | 114° | 93km/h | 13622m | 4m/s | -68.4°C | 27.3% | 162.3hPa | 4.1V | 00:00:00 | 00:00:00 | 00:00:00 | |
| DJ8HS-15 | 2026-09-05 23:30:50 | 50.40610 | 5.87085 | 107° | 71km/h | 13629m | 2.0m/s | -68.3°C | 27.2% | 162.0hPa | 4.0V | 00:00:00 | 01:14:59 | 00:00:00 | |
| DM0DOS-11 | 2026-09-05 23:30:44 | 50.40714 | 5.86661 | 112° | 100km/h | 13589m | 3.9m/s | -68.3°C | 27.3% | 163.2hPa | 4.1V | 00:00:00 | 01:14:48 | 00:00:00 | |
| BIOWL1-15 | 2026-09-05 23:30:38 | 50.40744 | 5.86545 | 115° | 99km/h | 13577m | 4m/s | -68.3°C | 27.5% | 163.5hPa | 4.1V | 00:00:00 | 00:00:00 | 00:00:00 | |
| DB0UT-7 | 2026-09-05 23:30:34 | 50.40765 | 5.86475 | 116° | 102km/h | 13569m | 3.7m/s | -68.2°C | 27.5% | 163.7hPa | 4.1V | 00:00:00 | 00:00:00 | 00:00:00 | |
| DM0DOS-11 | 2026-09-05 23:30:30 | 50.40851 | 5.86176 | 108° | 102km/h | 13539m | 3.7m/s | -68°C | 27.5% | 164.5hPa | 4.1V | 00:00:00 | 01:14:35 | 00:00:00 | |
| BIOWL1-15 | 2026-09-05 23:30:25 | 50.40860 | 5.86138 | 115° | 100km/h | 13535m | 3.5m/s | -68°C | 27.7% | 164.6hPa | 4.1V | 00:00:00 | 00:00:00 | 00:00:00 | |
| DM0DOS-11 | 2026-09-05 23:30:18 | 50.40957 | 5.85813 | 117° | 104km/h | 13503m | 3.8m/s | -67.8°C | 27.7% | 165.5hPa | 4.1V | 00:00:00 | 01:14:25 | 00:00:00 | |
| BIOWL1-15 | 2026-09-05 23:30:06 | 50.41138 | 5.85266 | 117° | 102km/h | 13447m | 4m/s | -67.3°C | 28.1% | 167.1hPa | 4.1V | 00:00:00 | 00:00:00 | 00:00:00 | |
| DB0UT-7 | 2026-09-05 23:30:04 | 50.41098 | 5.85370 | 121° | 104km/h | 13457m | 3.5m/s | -67.1°C | 28.0% | 166.7hPa | 4.1V | 00:00:00 | 01:14:13 | 00:00:00 | |
| BIOWL1-15 | 2026-09-05 23:29:51 | 50.41325 | 5.84720 | 118° | 100km/h | 13392m | 4.2m/s | -66.7°C | 28.1% | 168.6hPa | 4.1V | 00:00:00 | 00:00:00 | 00:00:00 | |
| DB0UT-7 | 2026-09-05 23:29:34 | 50.41469 | 5.84281 | 119° | 104km/h | 13346m | 3.6m/s | -66.4°C | 27.6% | 169.9hPa | 4.2V | 00:00:00 | 00:00:00 | 00:00:00 | |
| DM0DOS-11 | 2026-09-05 23:29:33 | 50.41539 | 5.84061 | 115° | 104km/h | 13325m | 3.8m/s | -66.2°C | 27.5% | 170.6hPa | 4.2V | 00:00:00 | 01:13:37 | 00:00:00 | |
| BIOWL1-15 | 2026-09-05 23:29:32 | 50.41494 | 5.84211 | 119° | 99km/h | 13339m | 3m/s | -66.3°C | 27.6% | 170.1hPa | 4.2V | 00:00:00 | 00:00:00 | 00:00:00 | |
| BIOWL1-15 | 2026-09-05 23:29:24 | 50.41610 | 5.83836 | 116° | 99km/h | 13303m | 4m/s | -66°C | 27.5% | 171.2hPa | 4.2V | 00:00:00 | 00:00:00 | 00:00:00 | |
| DM0DOS-11 | 2026-09-05 23:29:19 | 50.41653 | 5.83691 | 113° | 106km/h | 13287m | 3.7m/s | -65.9°C | 27.3% | 171.6hPa | 4.2V | 00:00:00 | 01:13:27 | 00:00:00 | |
| DM0DOS-11 | 2026-09-05 23:29:13 | 50.41767 | 5.83314 | 114° | 106km/h | 13249m | 3.8m/s | -65.5°C | 27.1% | 172.7hPa | 4.2V | 00:00:00 | 01:13:17 | 00:00:00 | |
| BIOWL1-15 | 2026-09-05 23:29:11 | 50.41745 | 5.83389 | 115° | 102km/h | 13257m | 4m/s | -65.6°C | 27.3% | 172.5hPa | 4.2V | 00:00:00 | 00:00:00 | 00:00:00 | |
| DB0UT-7 | 2026-09-05 23:29:04 | 50.41812 | 5.83161 | 116° | 104km/h | 13233m | 3.4m/s | -65.4°C | 27.1% | 173.1hPa | 4.2V | 00:00:00 | 01:13:13 | 00:00:00 | |
| DM0DOS-11 | 2026-09-05 23:28:57 | 50.41897 | 5.82858 | 114° | 106km/h | 13206m | 3.7m/s | -65.2°C | 27% | 173.9hPa | 4.2V | 00:00:00 | 01:13:05 | 00:00:00 | |
| BIOWL1-15 | 2026-09-05 23:28:56 | 50.41897 | 5.82858 | 115° | 100km/h | 13206m | 4m/s | -65.2°C | 27% | 173.9hPa | 4.2V | 00:00:00 | 00:00:00 | 00:00:00 | |
| DM0DOS-11 | 2026-09-05 23:28:47 | 50.42004 | 5.82476 | 109° | 104km/h | 13169m | 3.6m/s | -64.9°C | 26.8% | 174.9hPa | 4.2V | 00:00:00 | 01:12:55 | 00:00:00 | |
| BIOWL1-15 | 2026-09-05 23:28:45 | 50.42046 | 5.82323 | 112° | 102km/h | 13155m | 4m/s | -64.8°C | 26.8% | 175.4hPa | 4.2V | 00:00:00 | 00:00:00 | 00:00:00 | |
| BIOWL1-15 | 2026-09-05 23:28:32 | 50.42176 | 5.81828 | 111° | 99km/h | 13106m | 4m/s | -64.4°C | 26.6% | 176.8hPa | 4.2V | 00:00:00 | 00:00:00 | 00:00:00 | |
| BIOWL1-15 | 2026-09-05 23:28:20 | 50.42271 | 5.81482 | 113° | 113km/h | 13073m | 3m/s | -64.2°C | 26.4% | 177.7hPa | 4.2V | 00:00:00 | 00:00:00 | 00:00:00 | |
| DM0DOS-11 | 2026-09-05 23:28:16 | 50.42313 | 5.81333 | 112° | 106km/h | 13059m | 3.7m/s | -64°C | 26.3% | 178.1hPa | 4.2V | 00:00:00 | 01:12:25 | 00:00:00 | |
| BIOWL1-15 | 2026-09-05 23:28:10 | 50.42378 | 5.81107 | 114° | 111km/h | 13037m | 3.5m/s | -63.9°C | 26.3% | 178.7hPa | 4.2V | 00:00:00 | 00:00:00 | 00:00:00 | |
| DM0DOS-11 | 2026-09-05 23:28:06 | 50.42422 | 5.80953 | 117° | 102km/h | 13022m | 3.3m/s | -63.8°C | 26.1% | 179.2hPa | 4.2V | 00:00:00 | 01:12:15 | 00:00:00 | |
| DB0UT-7 | 2026-09-05 23:28:04 | 50.42445 | 5.80882 | 114° | 102km/h | 13016m | 3.6m/s | -63.8°C | 26.1% | 179.3hPa | 4.2V | 00:00:00 | 01:12:13 | 00:00:00 | |
| DM0DOS-11 | 2026-09-05 23:28:01 | 50.42537 | 5.80580 | 116° | 102km/h | 12988m | 3.8m/s | -63.8°C | 26% | 180.2hPa | 4.2V | 00:00:00 | 01:12:05 | 00:00:00 | |
| BIOWL1-15 | 2026-09-05 23:27:59 | 50.42513 | 5.80660 | 116° | 110km/h | 12995m | 3.5m/s | -63.8°C | 26% | 180hPa | 4.2V | 00:00:00 | 00:00:00 | 00:00:00 | |
| DM0DOS-11 | 2026-09-05 23:27:51 | 50.42657 | 5.80222 | 120° | 102km/h | 12951m | 3.5m/s | -63.5°C | 25.6% | 181.2hPa | 4.2V | 00:00:00 | 01:11:55 | 00:00:00 | |
| BIOWL1-15 | 2026-09-05 23:27:48 | 50.42632 | 5.80294 | 119° | 104km/h | 12958m | 3.5m/s | -63.5°C | 25.8% | 181.1hPa | 4.2V | 00:00:00 | 00:00:00 | 00:00:00 | |
| DM0DOS-11 | 2026-09-05 23:27:40 | 50.42777 | 5.79866 | 118° | 104km/h | 12915m | 3.6m/s | -63.1°C | 25.5% | 182.3hPa | 4.2V | 00:00:00 | 01:11:45 | 00:00:00 | |
| BIOWL1-15 | 2026-09-05 23:27:37 | 50.42766 | 5.79901 | 117° | 99km/h | 12919m | 4m/s | -63.1°C | 25.5% | 182.2hPa | 4.2V | 00:00:00 | 00:00:00 | 00:00:00 | |
| DB0UT-7 | 2026-09-05 23:27:34 | 50.42804 | 5.79792 | 120° | 104km/h | 12908m | 3.5m/s | -63.1°C | 25.5% | 182.5hPa | 4.2V | 00:00:00 | 00:00:00 | 00:00:00 | |
| DM0DOS-11 | 2026-09-05 23:27:30 | 50.42912 | 5.79471 | 119° | 104km/h | 12877m | 3.6m/s | -62.8°C | 25.1% | 183.5hPa | 4.2V | 00:00:00 | 01:11:34 | 00:00:00 | |
| BIOWL1-15 | 2026-09-05 23:27:27 | 50.42891 | 5.79540 | 114° | 95km/h | 12884m | 4m/s | -62.9°C | 25.3% | 183.2hPa | 4.2V | 00:00:00 | 00:00:00 | 00:00:00 | |
| BIOWL1-15 | 2026-09-05 23:27:14 | 50.43139 | 5.78812 | 119° | 97km/h | 12814m | 5m/s | -62.2°C | 24.7% | 185.4hPa | 4.2V | 00:00:00 | 00:00:00 | 00:00:00 | |
| DM0DOS-11 | 2026-09-05 23:27:14 | 50.43048 | 5.79071 | 119° | 106km/h | 12839m | 3.6m/s | -62.5°C | 24.8% | 184.6hPa | 4.2V | 00:00:00 | 01:11:23 | 00:00:00 | |
| DM0DOS-11 | 2026-09-05 23:27:04 | 50.43175 | 5.78709 | 118° | 106km/h | 12802m | 3.4m/s | -62.2°C | 24.6% | 185.7hPa | 4.2V | 00:00:00 | 01:11:13 | 00:00:00 | |
| DB0UT-7 | 2026-09-05 23:27:04 | 50.43175 | 5.78709 | 119° | 104km/h | 12802m | 3.3m/s | -62.1°C | 24.6% | 185.6hPa | 4.2V | 00:00:00 | 01:11:13 | 00:00:00 | |
| DM0DOS-11 | 2026-09-05 23:26:59 | 50.43301 | 5.78343 | 117° | 104km/h | 12768m | 3.5m/s | -61.9°C | 24.3% | 186.7hPa | 4.2V | 00:00:00 | 01:11:03 | 00:00:00 | |
| BIOWL1-15 | 2026-09-05 23:26:57 | 50.43278 | 5.78415 | 117° | 104km/h | 12775m | 4m/s | -62°C | 24.5% | 186.5hPa | 4.2V | 00:00:00 | 00:00:00 | 00:00:00 | |
| BIOWL1-15 | 2026-09-05 23:26:46 | 50.43486 | 5.77840 | 120° | 99km/h | 12717m | 3.7m/s | -61.5°C | 24.1% | 188.2hPa | 4.2V | 00:00:00 | 00:00:00 | 00:00:00 | |
| DM0DOS-11 | 2026-09-05 23:26:44 | 50.43432 | 5.77986 | 118° | 104km/h | 12732m | 3.7m/s | -61.4°C | 24.1% | 187.8hPa | 4.2V | 00:00:00 | 01:10:53 | 00:00:00 | |
| DM0DOS-11 | 2026-09-05 23:26:34 | 50.43567 | 5.77628 | 120° | 102km/h | 12696m | 3.5m/s | -61.3°C | 23.8% | 188.9hPa | 4.2V | 00:00:00 | 01:10:43 | 00:00:00 | |
| BIOWL1-15 | 2026-09-05 23:26:30 | 50.43636 | 5.77453 | 120° | 106km/h | 12679m | 3m/s | -61.1°C | 23.8% | 189.4hPa | 4.3V | 00:00:00 | 00:00:00 | 00:00:00 | |
| DM0DOS-11 | 2026-09-05 23:26:24 | 50.43705 | 5.77278 | 123° | 104km/h | 12662m | 3.7m/s | -61°C | 23.6% | 189.9hPa | 4.3V | 00:00:00 | 01:10:33 | 00:00:00 | |
| BIOWL1-15 | 2026-09-05 23:26:19 | 50.43828 | 5.76961 | 123° | 110km/h | 12629m | 3.5m/s | -60.7°C | 23.5% | 190.9hPa | 4.3V | 00:00:00 | 00:00:00 | 00:00:00 | |
| DM0DOS-11 | 2026-09-05 23:26:14 | 50.43842 | 5.76926 | 123° | 106km/h | 12625m | 3.5m/s | -60.6°C | 23.5% | 191.1hPa | 4.3V | 00:00:00 | 01:10:23 | 00:00:00 | |
| BIOWL1-15 | 2026-09-05 23:26:06 | 50.43981 | 5.76573 | 123° | 104km/h | 12590m | 3.4m/s | -60.4°C | 23.3% | 192.1hPa | 4.3V | 00:00:00 | 00:00:00 | 00:00:00 | |
| DM0DOS-11 | 2026-09-05 23:26:04 | 50.43981 | 5.76573 | 123° | 106km/h | 12590m | 3.5m/s | -60.3°C | 23.2% | 192.1hPa | 4.3V | 00:00:00 | 01:10:13 | 00:00:00 | |
| DB0UT-7 | 2026-09-05 23:26:04 | 50.43981 | 5.76573 | 124° | 104km/h | 12590m | 3.5m/s | -60.3°C | 23.2% | 192.1hPa | 4.3V | 00:00:00 | 01:10:13 | 00:00:00 | |
| DM0DOS-11 | 2026-09-05 23:25:59 | 50.44123 | 5.76223 | 123° | 104km/h | 12555m | 3.5m/s | -60°C | 23.1% | 193.2hPa | 4.3V | 00:00:00 | 01:10:03 | 00:00:00 | |
| BIOWL1-15 | 2026-09-05 23:25:52 | 50.44181 | 5.76080 | 122° | 100km/h | 12540m | 3m/s | -59.9°C | 23% | 193.7hPa | 4.3V | 00:00:00 | 00:00:00 | 00:00:00 | |
| DM0DOS-11 | 2026-09-05 23:25:44 | 50.44262 | 5.75867 | 122° | 102km/h | 12520m | 3.5m/s | -59.8°C | 22.7% | 194.3hPa | 4.3V | 00:00:00 | 01:09:53 | 00:00:00 | |
| DM0DOS-11 | 2026-09-05 23:25:39 | 50.44397 | 5.75512 | 118° | 106km/h | 12485m | 3.5m/s | -59.4°C | 22.6% | 195.4hPa | 4.3V | 00:00:00 | 01:09:43 | 00:00:00 | |
| BIOWL1-15 | 2026-09-05 23:25:36 | 50.44368 | 5.75585 | 123° | 106km/h | 12493m | 4m/s | -59.5°C | 22.7% | 195.2hPa | 4.3V | 00:00:00 | 00:00:00 | 00:00:00 | |
| BIOWL1-15 | 2026-09-05 23:25:30 | 50.44502 | 5.75215 | 118° | 104km/h | 12457m | 5m/s | -59.1°C | 22.4% | 196.2hPa | 4.3V | 00:00:00 | 00:00:00 | 00:00:00 | |
| DM0DOS-11 | 2026-09-05 23:25:25 | 50.44526 | 5.75144 | 118° | 106km/h | 12448m | 3.4m/s | -59.1°C | 22.3% | 196.5hPa | 4.3V | 00:00:00 | 01:09:33 | 00:00:00 | |
| DM0DOS-11 | 2026-09-05 23:25:19 | 50.44654 | 5.74772 | 117° | 106km/h | 12414m | 3.3m/s | -58.8°C | 22.1% | 197.6hPa | 4.3V | 00:00:00 | 01:09:23 | 00:00:00 | |
| BIOWL1-15 | 2026-09-05 23:25:17 | 50.44667 | 5.74733 | 114° | 100km/h | 12411m | 4m/s | -58.8°C | 22.1% | 197.7hPa | 4.3V | 00:00:00 | 00:00:00 | 00:00:00 | |
| BIOWL1-15 | 2026-09-05 23:25:05 | 50.44762 | 5.74436 | 118° | 108km/h | 12384m | 3.5m/s | -58.6°C | 21.8% | 198.6hPa | 4.3V | 00:00:00 | 00:00:00 | 00:00:00 | |
| DM0DOS-11 | 2026-09-05 23:25:04 | 50.44776 | 5.74398 | 121° | 108km/h | 12380m | 3.4m/s | -58.5°C | 21.7% | 198.7hPa | 4.3V | 00:00:00 | 01:09:13 | 00:00:00 | |
| DB0UT-7 | 2026-09-05 23:25:04 | 50.44776 | 5.74397 | 122° | 108km/h | 12380m | 3.3m/s | -58.5°C | 21.7% | 198.6hPa | 4.3V | 00:00:00 | 01:09:13 | 00:00:00 | |
| DM0DOS-11 | 2026-09-05 23:24:59 | 50.44900 | 5.74021 | 123° | 108km/h | 12346m | 3.4m/s | -58.2°C | 21.5% | 199.7hPa | 4.3V | 00:00:00 | 01:09:03 | 00:00:00 | |
| BIOWL1-15 | 2026-09-05 23:24:52 | 50.44951 | 5.73870 | 116° | 108km/h | 12333m | 4m/s | -58.1°C | 21.4% | 200.2hPa | 4.3V | 00:00:00 | 00:00:00 | 00:00:00 | |
| DM0DOS-11 | 2026-09-05 23:24:44 | 50.45026 | 5.73643 | 115° | 106km/h | 12312m | 3.5m/s | -57.9°C | 21.2% | 200.8hPa | 4.3V | 00:00:00 | 01:08:53 | 00:00:00 | |
| DB0UT-7 | 2026-09-05 23:24:34 | 50.45152 | 5.73269 | 113° | 108km/h | 12277m | 3.3m/s | -57.5°C | 21.0% | 201.9hPa | 4.3V | 00:00:00 | 00:00:00 | 00:00:00 | |
| DM0DOS-11 | 2026-09-05 23:24:24 | 50.45275 | 5.72888 | 112° | 108km/h | 12245m | 3.5m/s | -57.2°C | 20.7% | 203hPa | 4.3V | 00:00:00 | 01:08:33 | 00:00:00 | |
| DM0DOS-11 | 2026-09-05 23:24:18 | 50.45395 | 5.72504 | 114° | 108km/h | 12210m | 3.5m/s | -56.9°C | 20.5% | 204.1hPa | 4.3V | 00:00:00 | 01:08:23 | 00:00:00 | |
| BIOWL1-15 | 2026-09-05 23:24:18 | 50.45347 | 5.72658 | 112° | 110km/h | 12224m | 3m/s | -57°C | 20.6% | 203.7hPa | 4.3V | 00:00:00 | 00:00:00 | 00:00:00 | |
| DM0DOS-11 | 2026-09-05 23:24:08 | 50.45512 | 5.72119 | 122° | 108km/h | 12177m | 3.3m/s | -56.7°C | 20.2% | 205.2hPa | 4.3V | 00:00:00 | 01:08:13 | 00:00:00 | |
| BIOWL1-15 | 2026-09-05 23:24:06 | 50.45489 | 5.72197 | 115° | 108km/h | 12183m | 3m/s | -56.7°C | 20.3% | 205hPa | 4.3V | 00:00:00 | 00:00:00 | 00:00:00 | |
| BIOWL1-15 | 2026-09-05 23:23:55 | 50.45623 | 5.71778 | 116° | 106km/h | 12147m | 4m/s | -56.4°C | 20% | 206.2hPa | 4.3V | 00:00:00 | 00:00:00 | 00:00:00 | |
| DM0DOS-11 | 2026-09-05 23:23:54 | 50.45662 | 5.71666 | 117° | 106km/h | 12137m | 3.4m/s | -56.2°C | 20% | 206.5hPa | 4.3V | 00:00:00 | 01:08:01 | 00:00:00 | |
| BIOWL1-15 | 2026-09-05 23:23:49 | 50.45800 | 5.71253 | 117° | 106km/h | 12099m | 3.5m/s | -55.9°C | 19.7% | 207.7hPa | 4.3V | 00:00:00 | 00:00:00 | 00:00:00 | |
| DM0DOS-11 | 2026-09-05 23:23:47 | 50.45785 | 5.71290 | 122° | 108km/h | 12103m | 3.5m/s | -55.9°C | 19.6% | 207.5hPa | 4.3V | 00:00:00 | 01:07:51 | 00:00:00 | |
| DM0DOS-11 | 2026-09-05 23:23:34 | 50.45912 | 5.70916 | 121° | 108km/h | 12069m | 3.4m/s | -55.6°C | 19.6% | 208.7hPa | 4.3V | 00:00:00 | 01:07:41 | 00:00:00 | |
| BIOWL1-15 | 2026-09-05 23:23:29 | 50.45954 | 5.70807 | 115° | 108km/h | 12059m | 4m/s | -55.6°C | 19.5% | 209hPa | 4.3V | 00:00:00 | 00:00:00 | 00:00:00 | |
| DM0DOS-11 | 2026-09-05 23:23:27 | 50.46041 | 5.70544 | 118° | 106km/h | 12036m | 3.7m/s | -55.4°C | 19.3% | 209.8hPa | 4.3V | 00:00:00 | 01:07:31 | 00:00:00 | |
| BIOWL1-15 | 2026-09-05 23:23:18 | 50.46135 | 5.70286 | 116° | 108km/h | 12011m | 3.3m/s | -55.1°C | 19.4% | 210.6hPa | 4.3V | 00:00:00 | 00:00:00 | 00:00:00 | |
| DM0DOS-11 | 2026-09-05 23:23:14 | 50.46171 | 5.70171 | 119° | 106km/h | 12001m | 3.5m/s | -55°C | 19.3% | 210.9hPa | 4.3V | 00:00:00 | 01:07:21 | 00:00:00 | |
| DM0DOS-11 | 2026-09-05 23:23:07 | 50.46300 | 5.69802 | 117° | 106km/h | 11967m | 3.4m/s | -54.7°C | 19.2% | 212hPa | 4.3V | 00:00:00 | 01:07:11 | 00:00:00 | |
| BIOWL1-15 | 2026-09-05 23:22:57 | 50.46367 | 5.69616 | 117° | 106km/h | 11951m | 4m/s | -54.5°C | 19.3% | 212.6hPa | 4.3V | 00:00:00 | 00:00:00 | 00:00:00 | |
| DM0DOS-11 | 2026-09-05 23:22:54 | 50.46432 | 5.69435 | 114° | 106km/h | 11932m | 3.3m/s | -54.4°C | 19.2% | 213.1hPa | 4.3V | 00:00:00 | 01:07:01 | 00:00:00 | |
| BIOWL1-15 | 2026-09-05 23:22:47 | 50.46496 | 5.69252 | 119° | 106km/h | 11916m | 3.4m/s | -54.2°C | 19.3% | 213.7hPa | 4.3V | 00:00:00 | 00:00:00 | 00:00:00 | |
| DM0DOS-11 | 2026-09-05 23:22:47 | 50.46563 | 5.69069 | 115° | 106km/h | 11898m | 3.3m/s | -54°C | 19.2% | 214.2hPa | 4.3V | 00:00:00 | 01:06:51 | 00:00:00 | |
| DM0DOS-11 | 2026-09-05 23:22:35 | 50.46691 | 5.68702 | 115° | 106km/h | 11864m | 3.3m/s | -53.7°C | 19.2% | 215.3hPa | 4.3V | 00:00:00 | 01:06:41 | 00:00:00 | |
| BIOWL1-15 | 2026-09-05 23:22:30 | 50.46714 | 5.68626 | 119° | 106km/h | 11858m | 3.5m/s | -53.7°C | 19.3% | 215.6hPa | 4.3V | 00:00:00 | 00:00:00 | 00:00:00 | |
| DM0DOS-11 | 2026-09-05 23:22:24 | 50.46823 | 5.68332 | 113° | 106km/h | 11831m | 3.2m/s | -53.5°C | 19.3% | 216.5hPa | 4.3V | 00:00:00 | 01:06:31 | 00:00:00 | |
| BIOWL1-15 | 2026-09-05 23:22:17 | 50.46887 | 5.68148 | 115° | 106km/h | 11815m | 3m/s | -53.3°C | 19.4% | 217hPa | 4.3V | 00:00:00 | 00:00:00 | 00:00:00 | |
| DM0DOS-11 | 2026-09-05 23:22:14 | 50.46951 | 5.67963 | 115° | 106km/h | 11798m | 3.5m/s | -53.1°C | 19.5% | 217.6hPa | 4.3V | 00:00:00 | 01:06:21 | 00:00:00 | |
| BIOWL1-15 | 2026-09-05 23:22:05 | 50.47063 | 5.67626 | 120° | 108km/h | 11767m | 2m/s | -52.9°C | 19.6% | 218.6hPa | 4.3V | 00:00:00 | 00:00:00 | 00:00:00 | |
| DM0DOS-11 | 2026-09-05 23:22:04 | 50.47077 | 5.67589 | 118° | 106km/h | 11765m | 3.4m/s | -52.9°C | 19.6% | 218.7hPa | 4.4V | 00:00:00 | 01:06:11 | 00:00:00 | |
| DB0UT-7 | 2026-09-05 23:22:04 | 50.47048 | 5.67664 | 122° | 108km/h | 11771m | 3.3m/s | -52.9°C | 19.6% | 218.4hPa | 4.3V | 00:00:00 | 01:06:13 | 00:00:00 | |
| DM0DOS-11 | 2026-09-05 23:21:56 | 50.47196 | 5.67210 | 118° | 106km/h | 11731m | 3.3m/s | -52.6°C | 19.7% | 219.9hPa | 4.4V | 00:00:00 | 01:06:01 | 00:00:00 | |
| BIOWL1-15 | 2026-09-05 23:21:55 | 50.47222 | 5.67135 | 112° | 106km/h | 11725m | 3.5m/s | -52.6°C | 19.9% | 220.1hPa | 4.4V | 00:00:00 | 00:00:00 | 00:00:00 | |
| BIOWL1-15 | 2026-09-05 23:21:44 | 50.47311 | 5.66827 | 116° | 110km/h | 11696m | 3m/s | -52.4°C | 20.1% | 221.1hPa | 4.4V | 00:00:00 | 00:00:00 | 00:00:00 | |
| DM0DOS-11 | 2026-09-05 23:21:44 | 50.47311 | 5.66827 | 118° | 108km/h | 11696m | 3m/s | -52.4°C | 20.1% | 221hPa | 4.4V | 00:00:00 | 01:05:51 | 00:00:00 | |
| DM0DOS-11 | 2026-09-05 23:21:36 | 50.47424 | 5.66440 | 115° | 108km/h | 11664m | 3.3m/s | -52.3°C | 20.1% | 222.2hPa | 4.4V | 00:00:00 | 01:05:41 | 00:00:00 | |
| DB0UT-7 | 2026-09-05 23:21:34 | 50.47404 | 5.66516 | 110° | 110km/h | 11671m | 3.3m/s | -52.3°C | 20.1% | 221.9hPa | 4.4V | 00:00:00 | 00:00:00 | 00:00:00 | |
| DM0DOS-11 | 2026-09-05 23:21:24 | 50.47536 | 5.66042 | 109° | 110km/h | 11632m | 3.2m/s | -52.1°C | 20.1% | 223.3hPa | 4.4V | 00:00:00 | 01:05:31 | 00:00:00 | |
| DM0DOS-11 | 2026-09-05 23:21:16 | 50.47644 | 5.65638 | 113° | 110km/h | 11599m | 3.2m/s | -51.9°C | 20.1% | 224.4hPa | 4.4V | 00:00:00 | 01:05:21 | 00:00:00 | |
| DB0UT-7 | 2026-09-05 23:21:04 | 50.47731 | 5.65319 | 117° | 110km/h | 11574m | 3.2m/s | -51.6°C | 20.2% | 225.2hPa | 4.4V | 00:00:00 | 01:05:13 | 00:00:00 | |
| DM0DOS-11 | 2026-09-05 23:20:56 | 50.47840 | 5.64918 | 114° | 110km/h | 11542m | 3.4m/s | -51.4°C | 20.3% | 226.4hPa | 4.4V | 00:00:00 | 01:05:03 | 00:00:00 | |
| DM0DOS-11 | 2026-09-05 23:20:44 | 50.47975 | 5.64444 | 117° | 110km/h | 11501m | 3.4m/s | -51.1°C | 20.5% | 227.8hPa | 4.4V | 00:00:00 | 01:04:51 | 00:00:00 | |
| DM0DOS-11 | 2026-09-05 23:20:36 | 50.48092 | 5.64048 | 118° | 111km/h | 11467m | 3.3m/s | -50.9°C | 20.3% | 229hPa | 4.4V | 00:00:00 | 01:04:41 | 00:00:00 | |
| DB0UT-7 | 2026-09-05 23:20:34 | 50.48069 | 5.64125 | 113° | 110km/h | 11473m | 3.0m/s | -50.9°C | 20.5% | 228.7hPa | 4.4V | 00:00:00 | 00:00:00 | 00:00:00 | |
| DM0DOS-11 | 2026-09-05 23:20:24 | 50.48214 | 5.63656 | 117° | 113km/h | 11434m | 3.3m/s | -50.6°C | 20.1% | 230.1hPa | 4.4V | 00:00:00 | 01:04:31 | 00:00:00 | |
| DM0DOS-11 | 2026-09-05 23:20:16 | 50.48338 | 5.63261 | 118° | 113km/h | 11400m | 3.3m/s | -50.4°C | 19.7% | 231.3hPa | 4.4V | 00:00:00 | 01:04:21 | 00:00:00 | |
| DM0DOS-11 | 2026-09-05 23:20:05 | 50.48463 | 5.62866 | 117° | 111km/h | 11367m | 3.4m/s | -50.1°C | 19.2% | 232.5hPa | 4.4V | 00:00:00 | 01:04:11 | 00:00:00 | |
| DB0UT-7 | 2026-09-05 23:20:04 | 50.48440 | 5.62941 | 117° | 111km/h | 11373m | 3.2m/s | -50.1°C | 19.2% | 232.2hPa | 4.4V | 00:00:00 | 01:04:13 | 00:00:00 | |
| DM0DOS-11 | 2026-09-05 23:19:56 | 50.48589 | 5.62473 | 115° | 113km/h | 11334m | 3.1m/s | -49.8°C | 18.6% | 233.7hPa | 4.4V | 00:00:00 | 01:04:01 | 00:00:00 | |
| DM0DOS-11 | 2026-09-05 23:19:45 | 50.48713 | 5.62075 | 115° | 111km/h | 11302m | 3.3m/s | -49.5°C | 18.1% | 234.8hPa | 4.4V | 00:00:00 | 01:03:51 | 00:00:00 | |
| BIOWL1-15 | 2026-09-05 23:19:39 | 50.48774 | 5.61875 | 115° | 113km/h | 11285m | 3.2m/s | -49.3°C | 18% | 235.4hPa | 4.4V | 00:00:00 | 00:00:00 | 00:00:00 | |
| DM0DOS-11 | 2026-09-05 23:19:35 | 50.48835 | 5.61673 | 118° | 111km/h | 11268m | 3.1m/s | -49.1°C | 17.6% | 236.1hPa | 4.4V | 00:00:00 | 01:03:41 | 00:00:00 | |
| BIOWL1-15 | 2026-09-05 23:19:25 | 50.48945 | 5.61311 | 115° | 111km/h | 11238m | 3.5m/s | -48.9°C | 17.3% | 237.1hPa | 4.4V | 00:00:00 | 00:00:00 | 00:00:00 | |
| DM0DOS-11 | 2026-09-05 23:19:25 | 50.48957 | 5.61269 | 118° | 110km/h | 11234m | 3.4m/s | -48.8°C | 17.1% | 237.2hPa | 4.4V | 00:00:00 | 01:03:31 | 00:00:00 | |
| DM0DOS-11 | 2026-09-05 23:19:15 | 50.49076 | 5.60873 | 117° | 110km/h | 11200m | 3.5m/s | -48.5°C | 16.6% | 238.5hPa | 4.4V | 00:00:00 | 01:03:21 | 00:00:00 | |
| BIOWL1-15 | 2026-09-05 23:19:13 | 50.49088 | 5.60835 | 118° | 110km/h | 11196m | 3.5m/s | -48.5°C | 16.7% | 238.6hPa | 4.4V | 00:00:00 | 00:00:00 | 00:00:00 | |
| BIOWL1-15 | 2026-09-05 23:19:01 | 50.49204 | 5.60436 | 116° | 110km/h | 11162m | 3.3m/s | -48.1°C | 16.2% | 239.8hPa | 4.4V | 00:00:00 | 00:00:00 | 00:00:00 | |
| DM0DOS-11 | 2026-09-05 23:19:00 | 50.49216 | 5.60397 | 118° | 110km/h | 11159m | 3.5m/s | -48.1°C | 16.1% | 240hPa | 4.4V | 00:00:00 | 01:03:09 | 00:00:00 | |
| DM0DOS-11 | 2026-09-05 23:18:50 | 50.49335 | 5.60001 | 114° | 110km/h | 11126m | 3.5m/s | -47.8°C | 15.6% | 241.2hPa | 4.4V | 00:00:00 | 01:02:59 | 00:00:00 | |
| DM0DOS-11 | 2026-09-05 23:18:45 | 50.49455 | 5.59608 | 116° | 108km/h | 11091m | 3.2m/s | -47.5°C | 15.2% | 242.4hPa | 4.4V | 00:00:00 | 01:02:49 | 00:00:00 | |
| BIOWL1-15 | 2026-09-05 23:18:43 | 50.49419 | 5.59727 | 116° | 110km/h | 11101m | 3.2m/s | -47.5°C | 15.4% | 242.1hPa | 4.4V | 00:00:00 | 00:00:00 | 00:00:00 | |
| DM0DOS-11 | 2026-09-05 23:18:34 | 50.49576 | 5.59219 | 112° | 110km/h | 11059m | 3.3m/s | -47.2°C | 14.8% | 243.7hPa | 4.4V | 00:00:00 | 01:02:39 | 00:00:00 | |
| BIOWL1-15 | 2026-09-05 23:18:31 | 50.49564 | 5.59258 | 114° | 110km/h | 11063m | 3.3m/s | -47.2°C | 14.9% | 243.5hPa | 4.4V | 00:00:00 | 00:00:00 | 00:00:00 | |
| DM0DOS-11 | 2026-09-05 23:18:20 | 50.49697 | 5.58830 | 116° | 108km/h | 11025m | 3.3m/s | -46.8°C | 14.3% | 244.9hPa | 4.4V | 00:00:00 | 01:02:29 | 00:00:00 | |
| BIOWL1-15 | 2026-09-05 23:18:19 | 50.49730 | 5.58716 | 116° | 113km/h | 11015m | 3m/s | -46.8°C | 14.3% | 245.2hPa | 4.4V | 00:00:00 | 00:00:00 | 00:00:00 | |
| DM0DOS-11 | 2026-09-05 23:18:14 | 50.49818 | 5.58440 | 117° | 108km/h | 10991m | 3.5m/s | -46.5°C | 14% | 246.1hPa | 4.4V | 00:00:00 | 01:02:19 | 00:00:00 | |
| DB0UT-7 | 2026-09-05 23:18:04 | 50.49892 | 5.58208 | 119° | 108km/h | 10970m | 3.4m/s | -46.3°C | 13.7% | 246.8hPa | 4.4V | 00:00:00 | 01:02:13 | 00:00:00 | |
| DM0DOS-11 | 2026-09-05 23:18:00 | 50.49957 | 5.58017 | 118° | 106km/h | 10954m | 3.7m/s | -46.1°C | 13.5% | 247.5hPa | 4.4V | 00:00:00 | 01:02:08 | 00:00:00 | |
| BIOWL1-15 | 2026-09-05 23:17:51 | 50.50130 | 5.57486 | 119° | 110km/h | 10906m | 4m/s | -45.7°C | 13.2% | 249.3hPa | 4.4V | 00:00:00 | 00:00:00 | 00:00:00 | |
| DM0DOS-11 | 2026-09-05 23:17:40 | 50.50206 | 5.57258 | 121° | 108km/h | 10884m | 3.3m/s | -45.5°C | 13% | 250.1hPa | 4.4V | 00:00:00 | 01:01:48 | 00:00:00 | |
| BIOWL1-15 | 2026-09-05 23:17:35 | 50.50282 | 5.57031 | 116° | 106km/h | 10864m | 3.3m/s | -45.3°C | 12.8% | 250.9hPa | 4.4V | 00:00:00 | 00:00:00 | 00:00:00 | |
| DB0UT-7 | 2026-09-05 23:17:34 | 50.50267 | 5.57068 | 123° | 108km/h | 10867m | 3.2m/s | -45.3°C | 12.7% | 250.7hPa | 4.4V | 00:00:00 | 00:00:00 | 00:00:00 | |
| DM0DOS-11 | 2026-09-05 23:17:30 | 50.50330 | 5.56878 | 119° | 108km/h | 10850m | 3.2m/s | -45.1°C | 12.6% | 251.4hPa | 4.4V | 00:00:00 | 01:01:38 | 00:00:00 | |
| DM0DOS-11 | 2026-09-05 23:17:25 | 50.50613 | 5.56038 | 117° | 108km/h | 10774m | 3.5m/s | -44.5°C | 12% | 254.3hPa | 4.4V | 00:00:00 | 01:01:16 | 00:00:00 | |
| BIOWL1-15 | 2026-09-05 23:17:22 | 50.50792 | 5.55503 | 0° | 0km/h | 10725m | 0m/s | -44°C | 11.8% | 256.1hPa | 4.4V | 00:00:00 | 00:00:00 | 00:00:00 | |
| DM0DOS-11 | 2026-09-05 23:17:16 | 50.50664 | 5.55889 | 115° | 111km/h | 10760m | 3.6m/s | -44.4°C | 12% | 254.8hPa | 4.4V | 00:00:00 | 01:01:12 | 00:00:00 | |
| DB0UT-7 | 2026-09-05 23:17:07 | 50.50651 | 5.55927 | 119° | 110km/h | 10763m | 3.4m/s | -44.3°C | 12.0% | 254.6hPa | 4.4V | 00:00:00 | 01:01:13 | 00:00:00 | |
| DM0DOS-11 | 2026-09-05 23:16:59 | 50.50792 | 5.55503 | 115° | 110km/h | 10725m | 3.4m/s | -44°C | 11.8% | 256.1hPa | 4.4V | 00:00:00 | 01:01:02 | 00:00:00 | |
| DM0DOS-11 | 2026-09-05 23:16:45 | 50.50918 | 5.55118 | 115° | 111km/h | 10691m | 3.6m/s | -43.7°C | 11.3% | 257.4hPa | 4.4V | 00:00:00 | 01:00:52 | 00:00:00 | |
| DM0DOS-11 | 2026-09-05 23:16:35 | 50.51048 | 5.54734 | 118° | 111km/h | 10655m | 3.5m/s | -43.5°C | 10.8% | 258.8hPa | 4.4V | 00:00:00 | 01:00:42 | 00:00:00 | |
| DB0UT-7 | 2026-09-05 23:16:34 | 50.51034 | 5.54773 | 118° | 110km/h | 10659m | 3.6m/s | -43.5°C | 10.8% | 258.6hPa | 4.4V | 00:00:00 | 00:00:00 | 00:00:00 | |
| DM0DOS-11 | 2026-09-05 23:16:25 | 50.51179 | 5.54352 | 119° | 110km/h | 10620m | 3.4m/s | -43.2°C | 10.3% | 260.1hPa | 4.4V | 00:00:00 | 01:00:32 | 00:00:00 | |
| DM0DOS-11 | 2026-09-05 23:16:15 | 50.51311 | 5.53972 | 118° | 111km/h | 10585m | 3.4m/s | -42.9°C | 9.8% | 261.4hPa | 4.4V | 00:00:00 | 01:00:22 | 00:00:00 | |
| BIOWL1-15 | 2026-09-05 23:16:11 | 50.51340 | 5.53891 | 121° | 104km/h | 10578m | 3.5m/s | -42.8°C | 9.8% | 261.7hPa | 4.4V | 00:00:00 | 00:00:00 | 00:00:00 | |
| DM0DOS-11 | 2026-09-05 23:16:05 | 50.51446 | 5.53595 | 118° | 110km/h | 10551m | 3.4m/s | -42.5°C | 9.5% | 262.8hPa | 4.4V | 00:00:00 | 01:00:12 | 00:00:00 | |
| DB0UT-7 | 2026-09-05 23:16:04 | 50.51433 | 5.53629 | 121° | 106km/h | 10554m | 3.3m/s | -42.5°C | 9.5% | 262.6hPa | 4.4V | 00:00:00 | 01:00:13 | 00:00:00 | |
| DM0DOS-11 | 2026-09-05 23:15:55 | 50.51574 | 5.53217 | 118° | 108km/h | 10517m | 3.5m/s | -42.2°C | 9.3% | 264.1hPa | 4.4V | 00:00:00 | 01:00:02 | 00:00:00 | |
| BIOWL1-15 | 2026-09-05 23:15:53 | 50.51601 | 5.53142 | 118° | 104km/h | 10510m | 3.5m/s | -42.2°C | 9.3% | 264.4hPa | 4.4V | 00:00:00 | 00:00:00 | 00:00:00 | |
| DM0DOS-11 | 2026-09-05 23:15:43 | 50.51703 | 5.52840 | 121° | 102km/h | 10483m | 3.5m/s | -42°C | 9.3% | 265.4hPa | 4.4V | 00:00:00 | 00:59:52 | 00:00:00 | |
| DM0DOS-11 | 2026-09-05 23:15:38 | 50.51825 | 5.52476 | 114° | 106km/h | 10448m | 3.5m/s | -41.7°C | 9.3% | 266.7hPa | 4.4V | 00:00:00 | 00:59:42 | 00:00:00 | |
| BIOWL1-15 | 2026-09-05 23:15:29 | 50.51937 | 5.52143 | 117° | 102km/h | 10415m | 4m/s | -41.5°C | 9.5% | 268.1hPa | 4.4V | 00:00:00 | 00:00:00 | 00:00:00 | |
| DM0DOS-11 | 2026-09-05 23:15:23 | 50.51950 | 5.52104 | 111° | 100km/h | 10411m | 4m/s | -41.5°C | 9.5% | 268.2hPa | 4.4V | 00:00:00 | 00:59:32 | 00:00:00 | |
| DM0DOS-11 | 2026-09-05 23:15:17 | 50.52062 | 5.51737 | 117° | 104km/h | 10371m | 3.8m/s | -41.1°C | 9.6% | 269.8hPa | 4.4V | 00:00:00 | 00:59:22 | 00:00:00 | |
| BIOWL1-15 | 2026-09-05 23:15:11 | 50.52225 | 5.51188 | 108° | 102km/h | 10313m | 2m/s | -40.8°C | 9.8% | 272.1hPa | 4.4V | 00:00:00 | 00:00:00 | 00:00:00 | |
| DM0DOS-11 | 2026-09-05 23:15:03 | 50.52173 | 5.51368 | 110° | 99km/h | 10332m | 3.6m/s | -40.9°C | 9.8% | 271.3hPa | 4.4V | 00:00:00 | 00:59:12 | 00:00:00 | |
| DM0DOS-11 | 2026-09-05 23:14:57 | 50.52275 | 5.51006 | 111° | 100km/h | 10298m | 3.6m/s | -40.7°C | 9.8% | 272.7hPa | 4.4V | 00:00:00 | 00:59:02 | 00:00:00 | |
| BIOWL1-15 | 2026-09-05 23:14:53 | 50.52293 | 5.50930 | 112° | 97km/h | 10291m | 4m/s | -40.7°C | 9.8% | 273hPa | 4.4V | 00:00:00 | 00:00:00 | 00:00:00 | |
| DM0DOS-11 | 2026-09-05 23:14:43 | 50.52369 | 5.50639 | 111° | 100km/h | 10263m | 3.1m/s | -40.6°C | 9.8% | 274.1hPa | 4.4V | 00:00:00 | 00:58:52 | 00:00:00 | |
| BIOWL1-15 | 2026-09-05 23:14:40 | 50.52395 | 5.50524 | 117° | 100km/h | 10254m | 4m/s | -40.6°C | 9.7% | 274.5hPa | 4.4V | 00:00:00 | 00:00:00 | 00:00:00 | |
| DM0DOS-11 | 2026-09-05 23:14:37 | 50.52465 | 5.50267 | 113° | 100km/h | 10231m | 3.5m/s | -40.4°C | 9.6% | 275.4hPa | 4.4V | 00:00:00 | 00:58:42 | 00:00:00 | |
| BIOWL1-15 | 2026-09-05 23:14:30 | 50.52575 | 5.49860 | 110° | 102km/h | 10193m | 3.5m/s | -40.2°C | 9.5% | 276.9hPa | 4.4V | 00:00:00 | 00:00:00 | 00:00:00 | |
| DM0DOS-11 | 2026-09-05 23:14:24 | 50.52565 | 5.49896 | 113° | 102km/h | 10196m | 3.3m/s | -40.2°C | 9.5% | 276.8hPa | 4.4V | 00:00:00 | 00:58:32 | 00:00:00 | |
| DM0DOS-11 | 2026-09-05 23:14:17 | 50.52664 | 5.49521 | 118° | 104km/h | 10163m | 3.5m/s | -40°C | 9.3% | 278.1hPa | 4.5V | 00:00:00 | 00:58:22 | 00:00:00 | |
| BIOWL1-15 | 2026-09-05 23:14:15 | 50.52664 | 5.49521 | 114° | 102km/h | 10163m | 3.2m/s | -40°C | 9.4% | 278.1hPa | 4.5V | 00:00:00 | 00:00:00 | 00:00:00 | |
| DM0DOS-11 | 2026-09-05 23:14:03 | 50.52770 | 5.49151 | 112° | 106km/h | 10130m | 3.5m/s | -39.7°C | 9.3% | 279.5hPa | 4.5V | 00:00:00 | 00:58:12 | 00:00:00 | |
| BIOWL1-15 | 2026-09-05 23:14:02 | 50.52792 | 5.49072 | 112° | 102km/h | 10123m | 3.7m/s | -39.6°C | 9.5% | 279.8hPa | 4.5V | 00:00:00 | 00:00:00 | 00:00:00 | |
| DM0DOS-11 | 2026-09-05 23:13:57 | 50.52872 | 5.48765 | 112° | 106km/h | 10095m | 3.6m/s | -39.5°C | 9.5% | 280.9hPa | 4.5V | 00:00:00 | 00:58:02 | 00:00:00 | |
| BIOWL1-15 | 2026-09-05 23:13:43 | 50.52974 | 5.48377 | 111° | 102km/h | 10060m | 3m/s | -39.2°C | 9.7% | 282.3hPa | 4.5V | 00:00:00 | 00:00:00 | 00:00:00 | |
| DM0DOS-11 | 2026-09-05 23:13:43 | 50.52974 | 5.48377 | 110° | 104km/h | 10060m | 3.2m/s | -39.2°C | 9.6% | 282.3hPa | 4.5V | 00:00:00 | 00:57:52 | 00:00:00 | |
| DM0DOS-11 | 2026-09-05 23:13:37 | 50.53076 | 5.47990 | 108° | 104km/h | 10027m | 3.5m/s | -38.9°C | 9.6% | 283.7hPa | 4.5V | 00:00:00 | 00:57:42 | 00:00:00 | |
| BIOWL1-15 | 2026-09-05 23:13:29 | 50.53117 | 5.47838 | 110° | 104km/h | 10013m | 3.3m/s | -38.8°C | 9.7% | 284.2hPa | 4.5V | 00:00:00 | 00:00:00 | 00:00:00 | |
| DM0DOS-11 | 2026-09-05 23:13:23 | 50.53176 | 5.47607 | 108° | 104km/h | 9992m | 3.7m/s | -38.6°C | 9.8% | 285.1hPa | 4.5V | 00:00:00 | 00:57:32 | 00:00:00 | |
| DM0DOS-11 | 2026-09-05 23:13:17 | 50.53278 | 5.47224 | 107° | 104km/h | 9956m | 3.4m/s | -38.3°C | 9.8% | 286.6hPa | 4.5V | 00:00:00 | 00:57:22 | 00:00:00 | |
| BIOWL1-15 | 2026-09-05 23:13:17 | 50.53246 | 5.47339 | 113° | 106km/h | 9967m | 3.5m/s | -38.4°C | 9.8% | 286.1hPa | 4.5V | 00:00:00 | 00:00:00 | 00:00:00 | |
| DM0DOS-11 | 2026-09-05 23:13:03 | 50.53381 | 5.46835 | 110° | 104km/h | 9921m | 3.5m/s | -38.1°C | 9.5% | 288hPa | 4.5V | 00:00:00 | 00:57:12 | 00:00:00 | |
| DM0DOS-11 | 2026-09-05 23:12:57 | 50.53484 | 5.46446 | 111° | 104km/h | 9886m | 3.6m/s | -37.8°C | 9.3% | 289.4hPa | 4.5V | 00:00:00 | 00:57:02 | 00:00:00 | |
| BIOWL1-15 | 2026-09-05 23:12:56 | 50.53460 | 5.46525 | 113° | 106km/h | 9892m | 3.5m/s | -37.9°C | 9.4% | 289.2hPa | 4.5V | 00:00:00 | 00:00:00 | 00:00:00 | |
| DM0DOS-11 | 2026-09-05 23:12:43 | 50.53588 | 5.46060 | 109° | 106km/h | 9851m | 3.5m/s | -37.5°C | 9% | 290.9hPa | 4.5V | 00:00:00 | 00:56:52 | 00:00:00 | |
| DM0DOS-11 | 2026-09-05 23:12:33 | 50.53691 | 5.45670 | 112° | 104km/h | 9817m | 3.5m/s | -37.3°C | 8.5% | 292.4hPa | 4.5V | 00:00:00 | 00:56:42 | 00:00:00 | |
| DM0DOS-11 | 2026-09-05 23:12:23 | 50.53797 | 5.45289 | 117° | 104km/h | 9783m | 3.2m/s | -37°C | 7.8% | 293.8hPa | 4.8V | 00:00:00 | 00:56:32 | 00:00:00 | |
| DM0DOS-11 | 2026-09-05 23:12:13 | 50.53902 | 5.44905 | 112° | 104km/h | 9751m | 3.3m/s | -36.8°C | 7.5% | 295.2hPa | 4.5V | 00:00:00 | 00:56:22 | 00:00:00 | |
| DM0DOS-11 | 2026-09-05 23:12:03 | 50.54002 | 5.44520 | 114° | 106km/h | 9718m | 3.1m/s | -36.5°C | 7.3% | 296.6hPa | 4.5V | 00:00:00 | 00:56:12 | 00:00:00 | |
| BIOWL1-15 | 2026-09-05 23:11:59 | 50.54044 | 5.44368 | 0° | 0km/h | 9706m | 0m/s | -36.4°C | 7.5% | 297.1hPa | 4.8V | 00:00:00 | 00:00:00 | 00:00:00 | |
| DM0DOS-11 | 2026-09-05 23:11:53 | 50.54104 | 5.44138 | 110° | 106km/h | 9685m | 3.4m/s | -36.2°C | 7.5% | 298hPa | 4.5V | 00:00:00 | 00:56:02 | 00:00:00 | |
| DM0DOS-11 | 2026-09-05 23:11:47 | 50.54205 | 5.43752 | 107° | 106km/h | 9652m | 3.5m/s | -36°C | 7.6% | 299.4hPa | 4.5V | 00:00:00 | 00:55:52 | 00:00:00 | |
| DM0DOS-11 | 2026-09-05 23:11:33 | 50.54300 | 5.43364 | 111° | 102km/h | 9619m | 3.3m/s | -35.8°C | 7.6% | 300.8hPa | 4.5V | 00:00:00 | 00:55:42 | 00:00:00 | |
| DM0DOS-11 | 2026-09-05 23:11:23 | 50.54387 | 5.42976 | 111° | 102km/h | 9586m | 3.5m/s | -35.7°C | 7.6% | 302.2hPa | 4.5V | 00:00:00 | 00:55:32 | 00:00:00 | |
| BIOWL1-15 | 2026-09-05 23:11:22 | 50.54412 | 5.42858 | 111° | 104km/h | 9575m | 3m/s | -35.7°C | 7.8% | 302.7hPa | 4.5V | 00:00:00 | 00:00:00 | 00:00:00 | |
| DM0DOS-11 | 2026-09-05 23:11:13 | 50.54473 | 5.42587 | 109° | 102km/h | 9552m | 3.3m/s | -35.5°C | 7.8% | 303.7hPa | 4.8V | 00:00:00 | 00:55:22 | 00:00:00 | |
| BIOWL1-15 | 2026-09-05 23:11:08 | 50.54515 | 5.42390 | 108° | 104km/h | 9536m | 3.4m/s | -35.4°C | 8% | 304.4hPa | 4.5V | 00:00:00 | 00:00:00 | 00:00:00 | |
| DM0DOS-11 | 2026-09-05 23:11:03 | 50.54556 | 5.42191 | 112° | 104km/h | 9519m | 3.1m/s | -35.3°C | 8% | 305.1hPa | 4.5V | 00:00:00 | 00:55:12 | 00:00:00 | |
| DM0DOS-11 | 2026-09-05 23:10:57 | 50.54635 | 5.41795 | 114° | 102km/h | 9488m | 3.5m/s | -35°C | 8.1% | 306.5hPa | 4.8V | 00:00:00 | 00:55:02 | 00:00:00 | |
| BIOWL1-15 | 2026-09-05 23:10:46 | 50.54712 | 5.41447 | 112° | 97km/h | 9457m | 3m/s | -34.9°C | 8.4% | 307.8hPa | 4.5V | 00:00:00 | 00:00:00 | 00:00:00 | |
| DM0DOS-11 | 2026-09-05 23:10:43 | 50.54721 | 5.41411 | 111° | 102km/h | 9454m | 3.5m/s | -34.8°C | 8.3% | 307.9hPa | 4.5V | 00:00:00 | 00:54:52 | 00:00:00 | |
| DM0DOS-11 | 2026-09-05 23:10:37 | 50.54813 | 5.41026 | 111° | 104km/h | 9420m | 3.2m/s | -34.5°C | 8.5% | 309.5hPa | 4.8V | 00:00:00 | 00:54:42 | 00:00:00 | |
| BIOWL1-15 | 2026-09-05 23:10:36 | 50.54803 | 5.41060 | 115° | 95km/h | 9423m | 3m/s | -34.6°C | 8.5% | 309.3hPa | 4.5V | 00:00:00 | 00:00:00 | 00:00:00 | |
| BIOWL1-15 | 2026-09-05 23:10:24 | 50.54895 | 5.40678 | 114° | 100km/h | 9391m | 3m/s | -34.3°C | 8.6% | 310.7hPa | 4.5V | 00:00:00 | 00:00:00 | 00:00:00 | |
| DM0DOS-11 | 2026-09-05 23:10:23 | 50.54906 | 5.40641 | 113° | 102km/h | 9387m | 2.9m/s | -34.3°C | 8.5% | 310.9hPa | 4.5V | 00:00:00 | 00:54:32 | 00:00:00 | |
| DM0DOS-11 | 2026-09-05 23:10:17 | 50.54998 | 5.40263 | 112° | 102km/h | 9356m | 3.3m/s | -34.1°C | 8.8% | 312.3hPa | 4.5V | 00:00:00 | 00:54:22 | 00:00:00 | |
| BIOWL1-15 | 2026-09-05 23:10:11 | 50.55020 | 5.40184 | 112° | 97km/h | 9350m | 3.6m/s | -34°C | 8.8% | 312.6hPa | 4.8V | 00:00:00 | 00:00:00 | 00:00:00 | |
| DM0DOS-11 | 2026-09-05 23:10:03 | 50.55096 | 5.39890 | 114° | 97km/h | 9322m | 3.5m/s | -33.8°C | 8.8% | 313.8hPa | 4.5V | 00:00:00 | 00:54:12 | 00:00:00 | |
| BIOWL1-15 | 2026-09-05 23:09:59 | 50.55134 | 5.39746 | 113° | 97km/h | 9307m | 3m/s | -33.7°C | 9% | 314.4hPa | 4.5V | 00:00:00 | 00:00:00 | 00:00:00 | |
| DM0DOS-11 | 2026-09-05 23:09:57 | 50.55194 | 5.39530 | 112° | 95km/h | 9289m | 3.1m/s | -33.5°C | 9% | 315.3hPa | 4.5V | 00:00:00 | 00:54:02 | 00:00:00 | |
| BIOWL1-15 | 2026-09-05 23:09:48 | 50.55242 | 5.39355 | 112° | 97km/h | 9274m | 3.3m/s | -33.4°C | 9.1% | 315.9hPa | 4.8V | 00:00:00 | 00:00:00 | 00:00:00 | |
| DM0DOS-11 | 2026-09-05 23:09:43 | 50.55291 | 5.39178 | 116° | 95km/h | 9258m | 3.2m/s | -33.3°C | 9.1% | 316.6hPa | 4.5V | 00:00:00 | 00:53:52 | 00:00:00 | |
| DM0DOS-11 | 2026-09-05 23:09:37 | 50.55389 | 5.38830 | 115° | 95km/h | 9227m | 2.9m/s | -33.1°C | 9.3% | 318hPa | 4.5V | 00:00:00 | 00:53:42 | 00:00:00 | |
| BIOWL1-15 | 2026-09-05 23:09:33 | 50.55389 | 5.38830 | 116° | 100km/h | 9227m | 2m/s | -33.1°C | 9.3% | 318hPa | 4.5V | 00:00:00 | 00:00:00 | 00:00:00 | |
| DM0DOS-11 | 2026-09-05 23:09:23 | 50.55484 | 5.38482 | 112° | 97km/h | 9197m | 3.1m/s | -32.9°C | 9.3% | 319.4hPa | 4.5V | 00:00:00 | 00:53:32 | 00:00:00 | |
| BIOWL1-15 | 2026-09-05 23:09:23 | 50.55493 | 5.38446 | 114° | 97km/h | 9194m | 3m/s | -32.9°C | 9.4% | 319.6hPa | 4.5V | 00:00:00 | 00:00:00 | 00:00:00 | |
| DM0DOS-11 | 2026-09-05 23:09:17 | 50.55576 | 5.38129 | 115° | 97km/h | 9165m | 3.1m/s | -32.6°C | 9.5% | 320.9hPa | 4.8V | 00:00:00 | 00:53:22 | 00:00:00 | |
| BIOWL1-15 | 2026-09-05 23:09:09 | 50.55613 | 5.37988 | 114° | 97km/h | 9152m | 3m/s | -32.5°C | 9.6% | 321.4hPa | 4.5V | 00:00:00 | 00:00:00 | 00:00:00 | |
| BIOWL1-15 | 2026-09-05 23:08:59 | 50.55741 | 5.37487 | 112° | 89km/h | 9108m | 3m/s | -32.2°C | 10% | 323.4hPa | 4.8V | 00:00:00 | 00:00:00 | 00:00:00 | |
| DM0DOS-11 | 2026-09-05 23:08:57 | 50.55757 | 5.37419 | 112° | 99km/h | 9102m | 3.1m/s | -32.2°C | 10% | 323.7hPa | 4.8V | 00:00:00 | 00:53:02 | 00:00:00 | |
| BIOWL1-15 | 2026-09-05 23:08:47 | 50.55811 | 5.37201 | 110° | 104km/h | 9083m | 3m/s | -32.1°C | 10.3% | 324.6hPa | 4.5V | 00:00:00 | 00:00:00 | 00:00:00 | |
| DM0DOS-11 | 2026-09-05 23:08:43 | 50.55846 | 5.37056 | 110° | 100km/h | 9071m | 3.2m/s | -32°C | 10.5% | 325.1hPa | 4.5V | 00:00:00 | 00:52:52 | 00:00:00 | |
| DM0DOS-11 | 2026-09-05 23:08:37 | 50.55938 | 5.36682 | 110° | 99km/h | 9040m | 3.1m/s | -31.8°C | 10.8% | 326.5hPa | 4.5V | 00:00:00 | 00:52:42 | 00:00:00 | |
| BIOWL1-15 | 2026-09-05 23:08:36 | 50.55946 | 5.36648 | 111° | 97km/h | 9037m | 3m/s | -31.8°C | 10.8% | 326.7hPa | 4.5V | 00:00:00 | 00:00:00 | 00:00:00 | |
| BIOWL1-15 | 2026-09-05 23:08:24 | 50.56016 | 5.36344 | 110° | 104km/h | 9012m | 3m/s | -31.6°C | 11.1% | 327.8hPa | 4.5V | 00:00:00 | 00:00:00 | 00:00:00 | |
| DM0DOS-11 | 2026-09-05 23:08:23 | 50.56025 | 5.36305 | 109° | 99km/h | 9009m | 3.4m/s | -31.6°C | 11% | 328hPa | 4.5V | 00:00:00 | 00:52:32 | 00:00:00 | |
| DM0DOS-11 | 2026-09-05 23:08:17 | 50.56110 | 5.35927 | 110° | 99km/h | 8976m | 3.1m/s | -31.3°C | 11.3% | 329.4hPa | 4.5V | 00:00:00 | 00:52:22 | 00:00:00 | |
| BIOWL1-15 | 2026-09-05 23:08:14 | 50.56110 | 5.35927 | 110° | 91km/h | 8976m | 3m/s | -31.3°C | 11.4% | 329.4hPa | 4.5V | 00:00:00 | 00:00:00 | 00:00:00 | |
| DM0DOS-11 | 2026-09-05 23:08:04 | 50.56195 | 5.35544 | 109° | 100km/h | 8945m | 3.3m/s | -31.1°C | 12% | 330.9hPa | 4.8V | 00:00:00 | 00:52:12 | 00:00:00 | |
| BIOWL1-15 | 2026-09-05 23:08:03 | 50.56203 | 5.35508 | 110° | 102km/h | 8941m | 3.2m/s | -31°C | 12.1% | 331.1hPa | 4.8V | 00:00:00 | 00:00:00 | 00:00:00 | |
| DM0DOS-11 | 2026-09-05 23:07:57 | 50.56282 | 5.35161 | 109° | 100km/h | 8912m | 3.1m/s | -30.8°C | 12.7% | 332.4hPa | 4.5V | 00:00:00 | 00:52:02 | 00:00:00 | |
| DM0DOS-11 | 2026-09-05 23:07:43 | 50.56369 | 5.34775 | 109° | 102km/h | 8880m | 2.7m/s | -30.5°C | 13.6% | 333.9hPa | 4.8V | 00:00:00 | 00:51:52 | 00:00:00 | |
| DM0DOS-11 | 2026-09-05 23:07:37 | 50.56453 | 5.34384 | 107° | 102km/h | 8852m | 3.5m/s | -30.4°C | 14.5% | 335.2hPa | 4.5V | 00:00:00 | 00:51:42 | 00:00:00 | |
| BIOWL1-15 | 2026-09-05 23:07:34 | 50.56461 | 5.34345 | 108° | 102km/h | 8848m | 3.2m/s | -30.4°C | 14.5% | 335.4hPa | 4.5V | 00:00:00 | 00:00:00 | 00:00:00 | |
| DB0UT-7 | 2026-09-05 23:07:34 | 50.56445 | 5.34426 | 108° | 102km/h | 8854m | 3.1m/s | -30.3°C | 14.3% | 335.1hPa | 4.8V | 00:00:00 | 00:00:00 | 00:00:00 | |
| DM0DOS-11 | 2026-09-05 23:07:23 | 50.56533 | 5.33997 | 109° | 104km/h | 8819m | 3.2m/s | -30.1°C | 14.3% | 336.8hPa | 4.8V | 00:00:00 | 00:51:32 | 00:00:00 | |
| DM0DOS-11 | 2026-09-05 23:07:17 | 50.56616 | 5.33606 | 106° | 104km/h | 8787m | 2.9m/s | -29.8°C | 14.1% | 338.2hPa | 4.6V | 00:00:00 | 00:51:22 | 00:00:00 | |
| DM0DOS-11 | 2026-09-05 23:07:03 | 50.56696 | 5.33216 | 111° | 102km/h | 8756m | 3m/s | -29.6°C | 14% | 339.7hPa | 4.5V | 00:00:00 | 00:51:12 | 00:00:00 | |
| DM0DOS-11 | 2026-09-05 23:06:57 | 50.56779 | 5.32833 | 105° | 104km/h | 8725m | 3m/s | -29.3°C | 13.7% | 341.2hPa | 4.6V | 00:00:00 | 00:51:02 | 00:00:00 | |
| BIOWL1-15 | 2026-09-05 23:06:50 | 50.56837 | 5.32557 | 110° | 102km/h | 8703m | 3.2m/s | -29.1°C | 13.7% | 342.2hPa | 4.8V | 00:00:00 | 00:00:00 | 00:00:00 | |
| DM0DOS-11 | 2026-09-05 23:06:43 | 50.56862 | 5.32446 | 108° | 104km/h | 8693m | 3.1m/s | -29.1°C | 13.6% | 342.7hPa | 4.5V | 00:00:00 | 00:50:52 | 00:00:00 | |
| DM0DOS-11 | 2026-09-05 23:06:37 | 50.56952 | 5.32060 | 108° | 104km/h | 8662m | 3.1m/s | -28.8°C | 13.6% | 344.2hPa | 4.9V | 00:00:00 | 00:50:42 | 00:00:00 | |
| DB0UT-7 | 2026-09-05 23:06:34 | 50.56943 | 5.32098 | 111° | 102km/h | 8665m | 3.0m/s | -28.8°C | 13.6% | 344.0hPa | 4.6V | 00:00:00 | 00:00:00 | 00:00:00 | |
| DM0DOS-11 | 2026-09-05 23:06:23 | 50.57042 | 5.31677 | 110° | 104km/h | 8631m | 3.4m/s | -28.6°C | 13.5% | 345.7hPa | 4.6V | 00:00:00 | 00:50:32 | 00:00:00 | |
| BIOWL1-15 | 2026-09-05 23:06:22 | 50.57051 | 5.31638 | 110° | 102km/h | 8627m | 3m/s | -28.6°C | 13.6% | 345.8hPa | 4.6V | 00:00:00 | 00:00:00 | 00:00:00 | |
| DM0DOS-11 | 2026-09-05 23:06:17 | 50.57130 | 5.31292 | 110° | 102km/h | 8599m | 3.4m/s | -28.3°C | 13.5% | 347.3hPa | 4.9V | 00:00:00 | 00:50:22 | 00:00:00 | |
| BIOWL1-15 | 2026-09-05 23:06:10 | 50.57157 | 5.31172 | 111° | 100km/h | 8589m | 3.4m/s | -28.2°C | 13.4% | 347.7hPa | 4.8V | 00:00:00 | 00:00:00 | 00:00:00 | |
| DM0DOS-11 | 2026-09-05 23:06:03 | 50.57220 | 5.30911 | 111° | 102km/h | 8565m | 3.1m/s | -28°C | 13.1% | 348.8hPa | 4.6V | 00:00:00 | 00:50:12 | 00:00:00 | |
| DM0DOS-11 | 2026-09-05 23:05:57 | 50.57312 | 5.30533 | 110° | 102km/h | 8533m | 3.3m/s | -27.7°C | 12.6% | 350.4hPa | 4.8V | 00:00:00 | 00:50:02 | 00:00:00 | |
| BIOWL1-15 | 2026-09-05 23:05:56 | 50.57285 | 5.30642 | 111° | 102km/h | 8543m | 3.4m/s | -27.8°C | 12.9% | 349.9hPa | 4.9V | 00:00:00 | 00:00:00 | 00:00:00 | |
| DM0DOS-11 | 2026-09-05 23:05:43 | 50.57402 | 5.30154 | 109° | 100km/h | 8500m | 3.1m/s | -27.5°C | 11.8% | 352hPa | 4.6V | 00:00:00 | 00:49:52 | 00:00:00 | |
| BIOWL1-15 | 2026-09-05 23:05:41 | 50.57420 | 5.30075 | 111° | 99km/h | 8494m | 3.2m/s | -27.4°C | 11.7% | 352.3hPa | 4.9V | 00:00:00 | 00:00:00 | 00:00:00 | |
| DM0DOS-11 | 2026-09-05 23:05:37 | 50.57490 | 5.29782 | 110° | 99km/h | 8469m | 3.3m/s | -27.2°C | 11% | 353.5hPa | 4.6V | 00:00:00 | 00:49:42 | 00:00:00 | |
| DB0UT-7 | 2026-09-05 23:05:34 | 50.57482 | 5.29815 | 111° | 97km/h | 8472m | 3.2m/s | -27.2°C | 11.1% | 353.3hPa | 4.5V | 00:00:00 | 00:00:00 | 00:00:00 | |
| DM0DOS-11 | 2026-09-05 23:05:23 | 50.57576 | 5.29414 | 109° | 95km/h | 8435m | 3.2m/s | -27°C | 11.5% | 355.2hPa | 4.9V | 00:00:00 | 00:49:32 | 00:00:00 | |
| DM0DOS-11 | 2026-09-05 23:05:17 | 50.57655 | 5.29051 | 111° | 97km/h | 8403m | 3.5m/s | -27.4°C | 13% | 356.8hPa | 4.6V | 00:00:00 | 00:49:22 | 00:00:00 | |
| DB0UT-7 | 2026-09-05 23:05:04 | 50.57736 | 5.28727 | 114° | 91km/h | 8372m | 3.3m/s | -27.4°C | 13.3% | 358.3hPa | 4.6V | 00:00:00 | 00:49:13 | 00:00:00 | |
| DM0DOS-11 | 2026-09-05 23:04:57 | 50.57822 | 5.28425 | 112° | 93km/h | 8342m | 3.2m/s | -27.4°C | 13.5% | 359.8hPa | 4.6V | 00:00:00 | 00:49:04 | 00:00:00 | |
| DM0DOS-11 | 2026-09-05 23:04:49 | 50.57920 | 5.28091 | 112° | 93km/h | 8310m | 3.2m/s | -27.1°C | 13.5% | 361.4hPa | 4.8V | 00:00:00 | 00:48:54 | 00:00:00 | |
| DM0DOS-11 | 2026-09-05 23:04:37 | 50.58016 | 5.27757 | 113° | 89km/h | 8277m | 3.5m/s | -26.8°C | 13.6% | 363hPa | 4.9V | 00:00:00 | 00:48:44 | 00:00:00 | |
| DB0UT-7 | 2026-09-05 23:04:34 | 50.58025 | 5.27723 | 108° | 89km/h | 8273m | 3.2m/s | -26.7°C | 13.7% | 363.1hPa | 4.6V | 00:00:00 | 00:00:00 | 00:00:00 | |
| DM0DOS-11 | 2026-09-05 23:04:29 | 50.58109 | 5.27427 | 113° | 88km/h | 8243m | 3.2m/s | -26.4°C | 14.1% | 364.7hPa | 4.6V | 00:00:00 | 00:48:34 | 00:00:00 | |
| DM0DOS-11 | 2026-09-05 23:04:17 | 50.58200 | 5.27102 | 118° | 89km/h | 8211m | 3.3m/s | -26.2°C | 15% | 366.4hPa | 4.9V | 00:00:00 | 00:48:24 | 00:00:00 | |
| BIOWL1-15 | 2026-09-05 23:04:14 | 50.58211 | 5.27070 | 113° | 88km/h | 8208m | 3.3m/s | -26.1°C | 15.1% | 366.5hPa | 4.9V | 00:00:00 | 00:00:00 | 00:00:00 | |
| DM0DOS-11 | 2026-09-05 23:04:09 | 50.58294 | 5.26781 | 113° | 88km/h | 8177m | 3.3m/s | -25.9°C | 16.5% | 368.1hPa | 4.6V | 00:00:00 | 00:48:14 | 00:00:00 | |
| BIOWL1-15 | 2026-09-05 23:04:02 | 50.58319 | 5.26682 | 115° | 88km/h | 8167m | 3.5m/s | -25.9°C | 17.2% | 368.6hPa | 4.9V | 00:00:00 | 00:00:00 | 00:00:00 | |
| DM0DOS-11 | 2026-09-05 23:03:57 | 50.58387 | 5.26462 | 114° | 86km/h | 8144m | 3.5m/s | -25.8°C | 18.5% | 369.7hPa | 4.9V | 00:00:00 | 00:48:04 | 00:00:00 | |
| DM0DOS-11 | 2026-09-05 23:03:49 | 50.58474 | 5.26147 | 113° | 86km/h | 8110m | 3.4m/s | -25.5°C | 19.1% | 371.4hPa | 4.9V | 00:00:00 | 00:47:54 | 00:00:00 | |
| DM0DOS-11 | 2026-09-05 23:03:36 | 50.58564 | 5.25831 | 112° | 84km/h | 8077m | 3.3m/s | -25.4°C | 19.8% | 373.2hPa | 4.6V | 00:00:00 | 00:47:44 | 00:00:00 | |
| DB0UT-7 | 2026-09-05 23:03:34 | 50.58572 | 5.25799 | 114° | 84km/h | 8074m | 3.4m/s | -25.4°C | 20.0% | 373.2hPa | 4.9V | 00:00:00 | 00:00:00 | 00:00:00 | |
| DM0DOS-11 | 2026-09-05 23:03:29 | 50.58649 | 5.25526 | 116° | 82km/h | 8043m | 3.2m/s | -25.3°C | 20.7% | 374.9hPa | 4.9V | 00:00:00 | 00:47:34 | 00:00:00 | |
| DM0DOS-11 | 2026-09-05 23:03:17 | 50.58733 | 5.25228 | 118° | 84km/h | 8009m | 3.2m/s | -25.1°C | 21.8% | 376.6hPa | 4.6V | 00:00:00 | 00:47:24 | 00:00:00 | |
| BIOWL1-15 | 2026-09-05 23:03:13 | 50.58753 | 5.25166 | 112° | 80km/h | 8003m | 3.2m/s | -25.1°C | 22.1% | 377hPa | 4.9V | 00:00:00 | 00:00:00 | 00:00:00 | |
| DM0DOS-11 | 2026-09-05 23:03:09 | 50.58818 | 5.24922 | 113° | 86km/h | 7977m | 3.4m/s | -24.9°C | 22.7% | 378.3hPa | 4.9V | 00:00:00 | 00:47:14 | 00:00:00 | |
| DB0UT-7 | 2026-09-05 23:03:04 | 50.58826 | 5.24892 | 119° | 88km/h | 7973m | 3.2m/s | -24.8°C | 22.7% | 378.5hPa | 4.9V | 00:00:00 | 00:47:13 | 00:00:00 | |
| DM0DOS-11 | 2026-09-05 23:02:58 | 50.58904 | 5.24612 | 117° | 88km/h | 7944m | 3.7m/s | -24.6°C | 23% | 380.1hPa | 4.9V | 00:00:00 | 00:47:04 | 00:00:00 | |
| BIOWL1-15 | 2026-09-05 23:02:55 | 50.58904 | 5.24612 | 118° | 91km/h | 7944m | 5m/s | -24.7°C | 23% | 380.1hPa | 4.9V | 00:00:00 | 00:00:00 | 00:00:00 | |
| DM0DOS-11 | 2026-09-05 23:02:48 | 50.58992 | 5.24296 | 115° | 88km/h | 7909m | 3.3m/s | -24.4°C | 23.6% | 381.8hPa | 4.6V | 00:00:00 | 00:46:54 | 00:00:00 | |
| BIOWL1-15 | 2026-09-05 23:02:46 | 50.59002 | 5.24264 | 117° | 91km/h | 7905m | 2m/s | -24.4°C | 23.7% | 382hPa | 4.6V | 00:00:00 | 00:00:00 | 00:00:00 | |
| DM0DOS-11 | 2026-09-05 23:02:38 | 50.59080 | 5.23972 | 115° | 88km/h | 7875m | 3.3m/s | -24.3°C | 24.8% | 383.6hPa | 4.9V | 00:00:00 | 00:46:44 | 00:00:00 | |
| BIOWL1-15 | 2026-09-05 23:02:34 | 50.59090 | 5.23940 | 117° | 89km/h | 7871m | 2m/s | -24.2°C | 25% | 383.8hPa | 4.9V | 00:00:00 | 00:00:00 | 00:00:00 | |
| DB0UT-7 | 2026-09-05 23:02:34 | 50.59090 | 5.23940 | 117° | 88km/h | 7871m | 3.0m/s | -24.2°C | 25.0% | 383.7hPa | 4.9V | 00:00:00 | 00:00:00 | 00:00:00 | |
| DM0DOS-11 | 2026-09-05 23:02:28 | 50.59166 | 5.23651 | 111° | 88km/h | 7842m | 3.2m/s | -24°C | 26.5% | 385.4hPa | 4.7V | 00:00:00 | 00:46:34 | 00:00:00 | |
| BIOWL1-15 | 2026-09-05 23:02:23 | 50.59184 | 5.23587 | 118° | 93km/h | 7836m | 3m/s | -24°C | 26.9% | 385.7hPa | 4.9V | 00:00:00 | 00:00:00 | 00:00:00 | |
| DM0DOS-11 | 2026-09-05 23:02:18 | 50.59253 | 5.23327 | 111° | 88km/h | 7810m | 3.5m/s | -23.9°C | 28.5% | 387.1hPa | 4.9V | 00:00:00 | 00:46:24 | 00:00:00 | |
| BIOWL1-15 | 2026-09-05 23:02:16 | 50.59280 | 5.23231 | 114° | 89km/h | 7800m | 4m/s | -23.8°C | 29% | 387.6hPa | 4.6V | 00:00:00 | 00:00:00 | 00:00:00 | |
| DM0DOS-11 | 2026-09-05 23:02:07 | 50.59338 | 5.23006 | 108° | 88km/h | 7776m | 3m/s | -23.6°C | 30.1% | 388.8hPa | 4.9V | 00:00:00 | 00:46:14 | 00:00:00 | |
| BIOWL1-15 | 2026-09-05 23:02:03 | 50.59371 | 5.22880 | 110° | 91km/h | 7764m | 3m/s | -23.5°C | 30.7% | 389.5hPa | 4.9V | 00:00:00 | 00:00:00 | 00:00:00 | |
| DM0DOS-11 | 2026-09-05 23:01:57 | 50.59421 | 5.22682 | 110° | 88km/h | 7744m | 3m/s | -23.4°C | 31.6% | 390.5hPa | 4.6V | 00:00:00 | 00:46:04 | 00:00:00 | |
| BIOWL1-15 | 2026-09-05 23:01:51 | 50.59455 | 5.22554 | 112° | 88km/h | 7733m | 4m/s | -23.4°C | 32.6% | 391.2hPa | 4.7V | 00:00:00 | 00:00:00 | 00:00:00 | |
| BIOWL1-15 | 2026-09-05 23:01:40 | 50.59542 | 5.22201 | 118° | 89km/h | 7695m | 3m/s | -23.1°C | 33.7% | 393.1hPa | 4.6V | 00:00:00 | 00:00:00 | 00:00:00 | |
| DM0DOS-11 | 2026-09-05 23:01:37 | 50.59585 | 5.22045 | 117° | 84km/h | 7679m | 3.4m/s | -23°C | 34% | 394hPa | 4.7V | 00:00:00 | 00:45:44 | 00:00:00 | |
| BIOWL1-15 | 2026-09-05 23:01:31 | 50.59638 | 5.21862 | 113° | 84km/h | 7658m | 3m/s | -22.9°C | 34.8% | 395.1hPa | 4.9V | 00:00:00 | 00:00:00 | 00:00:00 | |
| DM0DOS-11 | 2026-09-05 23:01:27 | 50.59671 | 5.21739 | 118° | 86km/h | 7645m | 3.2m/s | -22.8°C | 35.2% | 395.8hPa | 4.9V | 00:00:00 | 00:45:34 | 00:00:00 | |
| DM0DOS-11 | 2026-09-05 23:01:17 | 50.59760 | 5.21430 | 119° | 86km/h | 7612m | 3.2m/s | -22.6°C | 35.2% | 397.6hPa | 4.9V | 00:00:00 | 00:45:24 | 00:00:00 | |
| BIOWL1-15 | 2026-09-05 23:01:16 | 50.59752 | 5.21462 | 116° | 86km/h | 7616m | 3.2m/s | -22.6°C | 35.2% | 397.4hPa | 4.9V | 00:00:00 | 00:00:00 | 00:00:00 | |
| DM0DOS-11 | 2026-09-05 23:01:07 | 50.59854 | 5.21122 | 118° | 86km/h | 7580m | 3.4m/s | -22.2°C | 35% | 399.3hPa | 4.6V | 00:00:00 | 00:45:14 | 00:00:00 | |
| DB0UT-7 | 2026-09-05 23:01:04 | 50.59865 | 5.21091 | 122° | 88km/h | 7576m | 3.1m/s | -22.2°C | 35.0% | 399.4hPa | 4.5V | 00:00:00 | 00:45:13 | 00:00:00 | |
| DM0DOS-11 | 2026-09-05 23:00:57 | 50.59948 | 5.20817 | 116° | 88km/h | 7547m | 3.2m/s | -21.9°C | 35% | 401.1hPa | 4.9V | 00:00:00 | 00:45:04 | 00:00:00 | |
| BIOWL1-15 | 2026-09-05 23:00:48 | 50.60017 | 5.20596 | 116° | 88km/h | 7525m | 3.1m/s | -21.7°C | 34.9% | 402.3hPa | 4.6V | 00:00:00 | 00:00:00 | 00:00:00 | |
| DM0DOS-11 | 2026-09-05 23:00:47 | 50.60043 | 5.20502 | 111° | 88km/h | 7516m | 3.2m/s | -21.6°C | 34.8% | 402.8hPa | 4.7V | 00:00:00 | 00:44:54 | 00:00:00 | |
| DM0DOS-11 | 2026-09-05 23:00:37 | 50.60138 | 5.20190 | 114° | 88km/h | 7485m | 3.3m/s | -21.4°C | 34.7% | 404.5hPa | 4.9V | 00:00:00 | 00:44:44 | 00:00:00 | |
| BIOWL1-15 | 2026-09-05 23:00:33 | 50.60159 | 5.20126 | 115° | 86km/h | 7478m | 3m/s | -21.3°C | 34.7% | 404.8hPa | 4.9V | 00:00:00 | 00:00:00 | 00:00:00 | |
| BIOWL1-15 | 2026-09-05 23:00:22 | 50.60269 | 5.19780 | 114° | 89km/h | 7444m | 3m/s | -21°C | 34% | 406.7hPa | 5V | 00:00:00 | 00:00:00 | 00:00:00 | |
| DM0DOS-11 | 2026-09-05 23:00:17 | 50.60337 | 5.19559 | 112° | 88km/h | 7422m | 3.1m/s | -20.8°C | 33.5% | 407.9hPa | 4.9V | 00:00:00 | 00:44:24 | 00:00:00 | |
| BIOWL1-15 | 2026-09-05 23:00:11 | 50.60397 | 5.19370 | 121° | 91km/h | 7404m | 3.5m/s | -20.6°C | 33.1% | 408.9hPa | 4.7V | 00:00:00 | 00:00:00 | 00:00:00 | |
| DM0DOS-11 | 2026-09-05 23:00:07 | 50.60438 | 5.19243 | 114° | 88km/h | 7391m | 3m/s | -20.5°C | 32.8% | 409.6hPa | 5V | 00:00:00 | 00:44:14 | 00:00:00 | |
| BIOWL1-15 | 2026-09-05 22:59:57 | 50.60521 | 5.18992 | 117° | 89km/h | 7367m | 3m/s | -20.2°C | 32.1% | 410.9hPa | 4.9V | 00:00:00 | 00:00:00 | 00:00:00 | |
| DM0DOS-11 | 2026-09-05 22:59:57 | 50.60540 | 5.18929 | 116° | 89km/h | 7362m | 3.2m/s | -20.2°C | 31.8% | 411.3hPa | 4.9V | 00:00:00 | 00:44:04 | 00:00:00 | |
| DM0DOS-11 | 2026-09-05 22:59:47 | 50.60642 | 5.18614 | 117° | 89km/h | 7331m | 3m/s | -19.9°C | 31% | 413hPa | 5V | 00:00:00 | 00:43:54 | 00:00:00 | |
| BIOWL1-15 | 2026-09-05 22:59:43 | 50.60664 | 5.18551 | 118° | 89km/h | 7325m | 3m/s | -19.8°C | 30.9% | 413.3hPa | 5V | 00:00:00 | 00:00:00 | 00:00:00 | |
| DM0DOS-11 | 2026-09-05 22:59:37 | 50.60748 | 5.18298 | 114° | 89km/h | 7301m | 3m/s | -19.6°C | 30.2% | 414.6hPa | 4.9V | 00:00:00 | 00:43:44 | 00:00:00 | |
| DB0UT-7 | 2026-09-05 22:59:34 | 50.60757 | 5.18265 | 117° | 88km/h | 7299m | 3.3m/s | -19.5°C | 30.1% | 414.7hPa | 4.7V | 00:00:00 | 00:00:00 | 00:00:00 | |
| DM0DOS-11 | 2026-09-05 22:59:27 | 50.60850 | 5.17989 | 119° | 88km/h | 7271m | 3m/s | -19.3°C | 29.6% | 416.3hPa | 5V | 00:00:00 | 00:43:34 | 00:00:00 | |
| DM0DOS-11 | 2026-09-05 22:59:17 | 50.60953 | 5.17678 | 124° | 88km/h | 7241m | 2.9m/s | -19°C | 29.1% | 417.9hPa | 4.9V | 00:00:00 | 00:43:24 | 00:00:00 | |
| DM0DOS-11 | 2026-09-05 22:59:06 | 50.61063 | 5.17376 | 116° | 89km/h | 7212m | 3.2m/s | -18.7°C | 28.5% | 419.6hPa | 5V | 00:00:00 | 00:43:14 | 00:00:00 | |
| DB0UT-7 | 2026-09-05 22:59:04 | 50.61074 | 5.17345 | 115° | 89km/h | 7208m | 3.0m/s | -18.6°C | 28.5% | 419.7hPa | 4.7V | 00:00:00 | 00:43:13 | 00:00:00 | |
| DM0DOS-11 | 2026-09-05 22:58:56 | 50.61185 | 5.17035 | 114° | 89km/h | 7178m | 3.1m/s | -18.4°C | 28% | 421.5hPa | 4.7V | 00:00:00 | 00:43:03 | 00:00:00 | |
| DM0DOS-11 | 2026-09-05 22:58:46 | 50.61294 | 5.16728 | 115° | 89km/h | 7147m | 3m/s | -18.1°C | 27% | 423.2hPa | 5V | 00:00:00 | 00:42:53 | 00:00:00 | |
| DM0DOS-11 | 2026-09-05 22:58:36 | 50.61406 | 5.16419 | 119° | 88km/h | 7118m | 3.1m/s | -17.8°C | 25.5% | 424.9hPa | 4.7V | 00:00:00 | 00:42:43 | 00:00:00 | |
| DB0UT-7 | 2026-09-05 22:58:34 | 50.61406 | 5.16419 | 120° | 86km/h | 7118m | 3.0m/s | -17.8°C | 25.5% | 424.8hPa | 5V | 00:00:00 | 00:00:00 | 00:00:00 | |
| DM0DOS-11 | 2026-09-05 22:58:26 | 50.61514 | 5.16113 | 121° | 84km/h | 7088m | 3m/s | -17.6°C | 25.1% | 426.5hPa | 5V | 00:00:00 | 00:42:33 | 00:00:00 | |
| DM0DOS-11 | 2026-09-05 22:58:16 | 50.61622 | 5.15814 | 118° | 86km/h | 7058m | 2.9m/s | -17.4°C | 25.7% | 428.3hPa | 5V | 00:00:00 | 00:42:23 | 00:00:00 | |
| DM0DOS-11 | 2026-09-05 22:58:06 | 50.61732 | 5.15518 | 119° | 88km/h | 7030m | 3.1m/s | -17.2°C | 26.5% | 429.9hPa | 5V | 00:00:00 | 00:42:13 | 00:00:00 | |
| DB0UT-7 | 2026-09-05 22:58:04 | 50.61732 | 5.15518 | 120° | 86km/h | 7030m | 3.0m/s | -17.1°C | 26.5% | 429.8hPa | 5.0V | 00:00:00 | 00:42:13 | 00:00:00 | |
| DM0DOS-11 | 2026-09-05 22:57:56 | 50.61843 | 5.15219 | 120° | 88km/h | 6998m | 2.8m/s | -16.9°C | 26.7% | 431.6hPa | 5V | 00:00:00 | 00:42:03 | 00:00:00 | |
| BIOWL1-15 | 2026-09-05 22:57:49 | 50.61897 | 5.15072 | 121° | 86km/h | 6985m | 3.4m/s | -16.8°C | 27% | 432.4hPa | 4.7V | 00:00:00 | 00:00:00 | 00:00:00 | |
| DM0DOS-11 | 2026-09-05 22:57:46 | 50.61953 | 5.14923 | 121° | 86km/h | 6968m | 2.9m/s | -16.6°C | 27% | 433.4hPa | 5V | 00:00:00 | 00:41:53 | 00:00:00 | |
| DM0DOS-11 | 2026-09-05 22:57:36 | 50.62061 | 5.14629 | 124° | 86km/h | 6940m | 3.1m/s | -16.4°C | 27.8% | 435hPa | 5V | 00:00:00 | 00:41:43 | 00:00:00 | |
| BIOWL1-15 | 2026-09-05 22:57:33 | 50.62074 | 5.14600 | 0° | 0km/h | 6936m | 0m/s | -16.4°C | 27.9% | 435.2hPa | 5V | 00:00:00 | 00:00:00 | 00:00:00 | |
| DM0DOS-11 | 2026-09-05 22:57:26 | 50.62170 | 5.14336 | 123° | 84km/h | 6910m | 3m/s | -16.2°C | 28.1% | 436.7hPa | 5V | 00:00:00 | 00:41:33 | 00:00:00 | |
| DM0DOS-11 | 2026-09-05 22:57:16 | 50.62277 | 5.14049 | 120° | 84km/h | 6881m | 2.9m/s | -15.9°C | 28.7% | 438.4hPa | 5V | 00:00:00 | 00:41:23 | 00:00:00 | |
| DM0DOS-11 | 2026-09-05 22:57:06 | 50.62383 | 5.13766 | 123° | 82km/h | 6852m | 3m/s | -15.7°C | 31% | 440.1hPa | 4.7V | 00:00:00 | 00:41:13 | 00:00:00 | |
| DB0UT-7 | 2026-09-05 22:57:04 | 50.62383 | 5.13766 | 124° | 82km/h | 6852m | 3.0m/s | -15.7°C | 31.0% | 440.1hPa | 5V | 00:00:00 | 00:41:13 | 00:00:00 | |
| DM0DOS-11 | 2026-09-05 22:56:56 | 50.62487 | 5.13482 | 115° | 80km/h | 6822m | 3m/s | -15.6°C | 33% | 441.9hPa | 5V | 00:00:00 | 00:41:03 | 00:00:00 | |
| DM0DOS-11 | 2026-09-05 22:56:46 | 50.62585 | 5.13196 | 115° | 80km/h | 6792m | 3.2m/s | -15.3°C | 33% | 443.6hPa | 5V | 00:00:00 | 00:40:53 | 00:00:00 | |
| DM0DOS-11 | 2026-09-05 22:56:36 | 50.62684 | 5.12907 | 117° | 80km/h | 6761m | 3m/s | -15.1°C | 35.2% | 445.4hPa | 5V | 00:00:00 | 00:40:43 | 00:00:00 | |
| DB0UT-7 | 2026-09-05 22:56:34 | 50.62684 | 5.12907 | 119° | 82km/h | 6761m | 3.1m/s | -15.0°C | 35.2% | 445.3hPa | 5.0V | 00:00:00 | 00:00:00 | 00:00:00 | |
| DM0DOS-11 | 2026-09-05 22:56:26 | 50.62796 | 5.12591 | 113° | 82km/h | 6727m | 3m/s | -14.8°C | 34.7% | 447.3hPa | 5V | 00:00:00 | 00:40:32 | 00:00:00 | |
| DM0DOS-11 | 2026-09-05 22:56:16 | 50.62893 | 5.12297 | 115° | 82km/h | 6696m | 3m/s | -14.5°C | 35.2% | 449.2hPa | 5V | 00:00:00 | 00:40:22 | 00:00:00 | |
| DM0DOS-11 | 2026-09-05 22:56:06 | 50.62989 | 5.12003 | 114° | 80km/h | 6665m | 2.8m/s | -14.3°C | 36.8% | 451hPa | 5V | 00:00:00 | 00:40:12 | 00:00:00 | |
| DB0UT-7 | 2026-09-05 22:56:04 | 50.62980 | 5.12032 | 118° | 80km/h | 6668m | 2.8m/s | -14.3°C | 36.7% | 450.8hPa | 4.7V | 00:00:00 | 00:40:13 | 00:00:00 | |
| DM0DOS-11 | 2026-09-05 22:55:56 | 50.63083 | 5.11714 | 118° | 80km/h | 6635m | 2.8m/s | -14°C | 38.8% | 452.8hPa | 4.7V | 00:00:00 | 00:40:02 | 00:00:00 | |
| DM0DOS-11 | 2026-09-05 22:55:46 | 50.63175 | 5.11430 | 118° | 80km/h | 6607m | 3m/s | -13.8°C | 40.2% | 454.6hPa | 5V | 00:00:00 | 00:39:52 | 00:00:00 | |
| DM0DOS-11 | 2026-09-05 22:55:36 | 50.63266 | 5.11146 | 119° | 80km/h | 6577m | 2.9m/s | -13.5°C | 40% | 456.3hPa | 5V | 00:00:00 | 00:39:42 | 00:00:00 | |
| DB0UT-7 | 2026-09-05 22:55:34 | 50.63256 | 5.11173 | 123° | 80km/h | 6581m | 3.1m/s | -13.5°C | 40.0% | 456.1hPa | 5V | 00:00:00 | 00:00:00 | 00:00:00 | |
| DM0DOS-11 | 2026-09-05 22:55:26 | 50.63358 | 5.10864 | 117° | 80km/h | 6548m | 3m/s | -13.3°C | 39.7% | 458hPa | 5V | 00:00:00 | 00:39:32 | 00:00:00 | |
| DM0DOS-11 | 2026-09-05 22:55:16 | 50.63447 | 5.10579 | 117° | 80km/h | 6519m | 3.1m/s | -13.1°C | 40% | 459.8hPa | 5V | 00:00:00 | 00:39:22 | 00:00:00 | |
| DM0DOS-11 | 2026-09-05 22:55:06 | 50.63541 | 5.10290 | 115° | 84km/h | 6490m | 3.2m/s | -13°C | 44% | 461.5hPa | 5V | 00:00:00 | 00:39:12 | 00:00:00 | |
| DB0UT-7 | 2026-09-05 22:55:04 | 50.63532 | 5.10317 | 120° | 84km/h | 6492m | 2.9m/s | -13.0°C | 43.7% | 461.3hPa | 5.0V | 00:00:00 | 00:39:13 | 00:00:00 | |
| DM0DOS-11 | 2026-09-05 22:54:56 | 50.63637 | 5.09992 | 116° | 84km/h | 6460m | 2.9m/s | -12.8°C | 47.2% | 463.3hPa | 5V | 00:00:00 | 00:39:02 | 00:00:00 | |
| DM0DOS-11 | 2026-09-05 22:54:46 | 50.63732 | 5.09694 | 114° | 84km/h | 6431m | 2.9m/s | -12.6°C | 49.7% | 465.1hPa | 5V | 00:00:00 | 00:38:52 | 00:00:00 | |
| DM0DOS-11 | 2026-09-05 22:54:36 | 50.63826 | 5.09399 | 113° | 84km/h | 6403m | 3m/s | -12.5°C | 52.2% | 466.8hPa | 5V | 00:00:00 | 00:38:42 | 00:00:00 | |
| DB0UT-7 | 2026-09-05 22:54:34 | 50.63814 | 5.09429 | 119° | 86km/h | 6405m | 2.8m/s | -12.5°C | 52.1% | 466.6hPa | 5V | 00:00:00 | 00:00:00 | 00:00:00 | |
| DM0DOS-11 | 2026-09-05 22:54:26 | 50.63934 | 5.09067 | 115° | 84km/h | 6371m | 3m/s | -12.2°C | 51.3% | 468.8hPa | 5V | 00:00:00 | 00:38:31 | 00:00:00 | |
| DM0DOS-11 | 2026-09-05 22:54:15 | 50.64036 | 5.08762 | 115° | 86km/h | 6342m | 3.1m/s | -12°C | 50.7% | 470.6hPa | 5.1V | 00:00:00 | 00:38:21 | 00:00:00 | |
| DB0UT-7 | 2026-09-05 22:54:04 | 50.64113 | 5.08513 | 121° | 86km/h | 6319m | 3.0m/s | -11.8°C | 51.2% | 472.0hPa | 5.1V | 00:00:00 | 00:38:13 | 00:00:00 | |
| DM0DOS-11 | 2026-09-05 22:54:00 | 50.64167 | 5.08363 | 115° | 88km/h | 6304m | 3m/s | -11.8°C | 51.6% | 472.9hPa | 5.1V | 00:00:00 | 00:38:08 | 00:00:00 | |
| DM0DOS-11 | 2026-09-05 22:53:54 | 50.64285 | 5.08030 | 118° | 86km/h | 6272m | 3.4m/s | -11.6°C | 52.5% | 474.9hPa | 5.1V | 00:00:00 | 00:37:57 | 00:00:00 | |
| DM0DOS-11 | 2026-09-05 22:53:42 | 50.64385 | 5.07764 | 118° | 88km/h | 6244m | 3m/s | -11.4°C | 52.3% | 476.6hPa | 5.1V | 00:00:00 | 00:37:48 | 00:00:00 | |
| BIOWL1-15 | 2026-09-05 22:53:37 | 50.64407 | 5.07700 | 0° | 0km/h | 6238m | 0m/s | -11.3°C | 51.9% | 477hPa | 5.1V | 00:00:00 | 00:00:00 | 00:00:00 | |
| DB0UT-7 | 2026-09-05 22:53:34 | 50.64440 | 5.07615 | 118° | 86km/h | 6228m | 2.7m/s | -11.2°C | 51.3% | 477.5hPa | 5.0V | 00:00:00 | 00:00:00 | 00:00:00 | |
| DM0DOS-11 | 2026-09-05 22:53:31 | 50.64496 | 5.07467 | 117° | 86km/h | 6214m | 3m/s | -11.2°C | 51.5% | 478.5hPa | 5.1V | 00:00:00 | 00:37:38 | 00:00:00 | |
| DM0DOS-11 | 2026-09-05 22:53:21 | 50.64611 | 5.07173 | 116° | 84km/h | 6184m | 2.9m/s | -11°C | 52.1% | 480.3hPa | 5.1V | 00:00:00 | 00:37:28 | 00:00:00 | |
| DM0DOS-11 | 2026-09-05 22:53:16 | 50.64725 | 5.06883 | 122° | 86km/h | 6155m | 2.9m/s | -10.7°C | 53% | 482.1hPa | 5.1V | 00:00:00 | 00:37:18 | 00:00:00 | |
| DB0UT-7 | 2026-09-05 22:53:04 | 50.64782 | 5.06734 | 125° | 88km/h | 6141m | 3.1m/s | -10.6°C | 53.5% | 483.0hPa | 5.1V | 00:00:00 | 00:37:13 | 00:00:00 | |
| DM0DOS-11 | 2026-09-05 22:53:02 | 50.64843 | 5.06593 | 121° | 84km/h | 6126m | 3.2m/s | -10.5°C | 54% | 484hPa | 5.1V | 00:00:00 | 00:37:08 | 00:00:00 | |
| DM0DOS-11 | 2026-09-05 22:52:52 | 50.64964 | 5.06305 | 123° | 88km/h | 6094m | 3.1m/s | -10.3°C | 54.1% | 485.9hPa | 5.1V | 00:00:00 | 00:36:58 | 00:00:00 | |
| DM0DOS-11 | 2026-09-05 22:52:40 | 50.65089 | 5.06020 | 128° | 88km/h | 6064m | 3m/s | -10.1°C | 52.7% | 487.9hPa | 5.1V | 00:00:00 | 00:36:48 | 00:00:00 | |
| DB0UT-7 | 2026-09-05 22:52:34 | 50.65156 | 5.05878 | 125° | 86km/h | 6049m | 2.9m/s | -9.9°C | 51.8% | 488.8hPa | 5.1V | 00:00:00 | 00:00:00 | 00:00:00 | |
| DM0DOS-11 | 2026-09-05 22:52:30 | 50.65220 | 5.05739 | 125° | 88km/h | 6034m | 2.8m/s | -9.8°C | 52.6% | 489.7hPa | 5.1V | 00:00:00 | 00:36:38 | 00:00:00 | |
| DM0DOS-11 | 2026-09-05 22:52:25 | 50.65352 | 5.05459 | 126° | 84km/h | 6004m | 3.3m/s | -9.7°C | 52.5% | 491.6hPa | 5.1V | 00:00:00 | 00:36:28 | 00:00:00 | |
| DM0DOS-11 | 2026-09-05 22:52:13 | 50.65482 | 5.05183 | 127° | 82km/h | 5973m | 3.2m/s | -9.4°C | 52% | 493.6hPa | 5.1V | 00:00:00 | 00:36:18 | 00:00:00 | |
| DB0UT-7 | 2026-09-05 22:52:04 | 50.65549 | 5.05054 | 130° | 82km/h | 5958m | 3.0m/s | -9.3°C | 51.3% | 494.5hPa | 5.0V | 00:00:00 | 00:36:13 | 00:00:00 | |
| DM0DOS-11 | 2026-09-05 22:52:03 | 50.65614 | 5.04921 | 128° | 80km/h | 5943m | 3.4m/s | -9.2°C | 49.8% | 495.6hPa | 5.1V | 00:00:00 | 00:36:08 | 00:00:00 | |
| DM0DOS-11 | 2026-09-05 22:51:53 | 50.65740 | 5.04667 | 130° | 80km/h | 5910m | 3.2m/s | -8.9°C | 47.2% | 497.6hPa | 5.1V | 00:00:00 | 00:35:58 | 00:00:00 | |
| DM0DOS-11 | 2026-09-05 22:51:43 | 50.65870 | 5.04413 | 121° | 80km/h | 5877m | 3m/s | -8.6°C | 45.7% | 499.7hPa | 5.1V | 00:00:00 | 00:35:48 | 00:00:00 | |
| DB0UT-7 | 2026-09-05 22:51:34 | 50.65932 | 5.04287 | 126° | 78km/h | 5862m | 3.2m/s | -8.5°C | 45.0% | 500.7hPa | 5.1V | 00:00:00 | 00:00:00 | 00:00:00 | |
| DM0DOS-11 | 2026-09-05 22:51:32 | 50.65995 | 5.04159 | 122° | 78km/h | 5845m | 3m/s | -8.3°C | 44.5% | 501.8hPa | 5.1V | 00:00:00 | 00:35:38 | 00:00:00 | |
| DM0DOS-11 | 2026-09-05 22:51:22 | 50.66117 | 5.03909 | 122° | 80km/h | 5814m | 3m/s | -8.1°C | 44.8% | 503.9hPa | 5.1V | 00:00:00 | 00:35:28 | 00:00:00 | |
| DM0DOS-11 | 2026-09-05 22:51:11 | 50.66237 | 5.03660 | 128° | 78km/h | 5782m | 3.1m/s | -7.9°C | 47.7% | 506hPa | 5.1V | 00:00:00 | 00:35:18 | 00:00:00 | |
| DB0UT-7 | 2026-09-05 22:51:04 | 50.66295 | 5.03533 | 126° | 77km/h | 5766m | 3.0m/s | -7.8°C | 50.0% | 507.0hPa | 5.1V | 00:00:00 | 00:35:13 | 00:00:00 | |
| DM0DOS-11 | 2026-09-05 22:50:59 | 50.66351 | 5.03406 | 125° | 77km/h | 5751m | 3.3m/s | -7.8°C | 51.8% | 508hPa | 5.1V | 00:00:00 | 00:35:08 | 00:00:00 | |
| DM0DOS-11 | 2026-09-05 22:50:53 | 50.66464 | 5.03153 | 121° | 77km/h | 5718m | 3.1m/s | -7.6°C | 52.1% | 510.2hPa | 5.1V | 00:00:00 | 00:34:58 | 00:00:00 | |
| DM0DOS-11 | 2026-09-05 22:50:41 | 50.66574 | 5.02901 | 129° | 71km/h | 5687m | 3.3m/s | -7.4°C | 53% | 512.2hPa | 5.1V | 00:00:00 | 00:34:48 | 00:00:00 | |
| DM0DOS-11 | 2026-09-05 22:50:36 | 50.66679 | 5.02668 | 126° | 73km/h | 5656m | 3.4m/s | -7.4°C | 54.7% | 514.2hPa | 5.1V | 00:00:00 | 00:34:38 | 00:00:00 | |
| DB0UT-7 | 2026-09-05 22:50:34 | 50.66626 | 5.02783 | 132° | 71km/h | 5671m | 3.1m/s | -7.3°C | 53.7% | 513.2hPa | 5.0V | 00:00:00 | 00:00:00 | 00:00:00 | |
| DM0DOS-11 | 2026-09-05 22:50:22 | 50.66789 | 5.02438 | 126° | 71km/h | 5622m | 3m/s | -7.3°C | 53.6% | 516.5hPa | 5.1V | 00:00:00 | 00:34:28 | 00:00:00 | |
| BIOWL1-15 | 2026-09-05 22:50:17 | 50.66930 | 5.02153 | 129° | 71km/h | 5580m | 3.2m/s | -7.1°C | 52.5% | 519.2hPa | 5.1V | 00:00:00 | 00:00:00 | 00:00:00 | |
| DM0DOS-11 | 2026-09-05 22:50:10 | 50.66898 | 5.02215 | 129° | 69km/h | 5590m | 3.1m/s | -7.2°C | 52.7% | 518.5hPa | 5.1V | 00:00:00 | 00:34:18 | 00:00:00 | |
| DB0UT-7 | 2026-09-05 22:50:04 | 50.66956 | 5.02107 | 128° | 69km/h | 5573m | 3.2m/s | -7.0°C | 52.2% | 519.6hPa | 5.1V | 00:00:00 | 00:34:13 | 00:00:00 | |
| DM0DOS-11 | 2026-09-05 22:49:58 | 50.67024 | 5.01976 | 125° | 69km/h | 5554m | 3.1m/s | -6.8°C | 51.6% | 520.9hPa | 5.1V | 00:00:00 | 00:34:07 | 00:00:00 | |
| DM0DOS-11 | 2026-09-05 22:49:52 | 50.67139 | 5.01761 | 122° | 69km/h | 5522m | 3.3m/s | -6.5°C | 47.7% | 523hPa | 5.1V | 00:00:00 | 00:33:57 | 00:00:00 | |
| BIOWL1-15 | 2026-09-05 22:49:51 | 50.67115 | 5.01804 | 0° | 0km/h | 5529m | 0m/s | -6.6°C | 49.1% | 522.6hPa | 5.1V | 00:00:00 | 00:00:00 | 00:00:00 | |
| DM0DOS-11 | 2026-09-05 22:49:40 | 50.67251 | 5.01549 | 133° | 69km/h | 5488m | 3m/s | -6.2°C | 44.8% | 525.3hPa | 5.1V | 00:00:00 | 00:33:47 | 00:00:00 | |
| DB0UT-7 | 2026-09-05 22:49:34 | 50.67301 | 5.01465 | 127° | 69km/h | 5476m | 3.1m/s | -6.0°C | 44.3% | 526.1hPa | 5.1V | 00:00:00 | 00:00:00 | 00:00:00 | |
| DM0DOS-11 | 2026-09-05 22:49:28 | 50.67370 | 5.01343 | 123° | 68km/h | 5457m | 3.1m/s | -5.9°C | 44% | 527.4hPa | 5.1V | 00:00:00 | 00:33:37 | 00:00:00 | |
| DM0DOS-11 | 2026-09-05 22:49:22 | 50.67484 | 5.01136 | 124° | 68km/h | 5426m | 3.1m/s | -5.6°C | 42.5% | 529.5hPa | 5.1V | 00:00:00 | 00:33:27 | 00:00:00 | |
| DM0DOS-11 | 2026-09-05 22:49:10 | 50.67597 | 5.00932 | 124° | 69km/h | 5395m | 3.3m/s | -5.3°C | 42% | 531.6hPa | 5.1V | 00:00:00 | 00:33:17 | 00:00:00 | |
| DB0UT-7 | 2026-09-05 22:49:04 | 50.67641 | 5.00848 | 129° | 69km/h | 5382m | 3.2m/s | -5.2°C | 41.7% | 532.5hPa | 5.0V | 00:00:00 | 00:33:13 | 00:00:00 | |
| DM0DOS-11 | 2026-09-05 22:48:58 | 50.67711 | 5.00723 | 129° | 69km/h | 5363m | 3.2m/s | -5.1°C | 41.7% | 533.8hPa | 5.1V | 00:00:00 | 00:33:07 | 00:00:00 | |
| DM0DOS-11 | 2026-09-05 22:48:52 | 50.67832 | 5.00516 | 133° | 66km/h | 5332m | 3.2m/s | -4.8°C | 42.7% | 535.9hPa | 5.1V | 00:00:00 | 00:32:57 | 00:00:00 | |
| DM0DOS-11 | 2026-09-05 22:48:40 | 50.67947 | 5.00315 | 133° | 68km/h | 5300m | 3.2m/s | -4.6°C | 43.5% | 538.1hPa | 5.1V | 00:00:00 | 00:32:47 | 00:00:00 | |
| DB0UT-7 | 2026-09-05 22:48:34 | 50.67991 | 5.00235 | 133° | 66km/h | 5287m | 3.1m/s | -4.5°C | 43.2% | 538.9hPa | 5.1V | 00:00:00 | 00:00:00 | 00:00:00 | |
| DM0DOS-11 | 2026-09-05 22:48:28 | 50.68061 | 5.00117 | 133° | 66km/h | 5267m | 3.1m/s | -4.4°C | 42.8% | 540.3hPa | 5.1V | 00:00:00 | 00:32:37 | 00:00:00 | |
| DM0DOS-11 | 2026-09-05 22:48:22 | 50.68176 | 4.99929 | 139° | 66km/h | 5235m | 3m/s | -4.1°C | 42.8% | 542.5hPa | 5.1V | 00:00:00 | 00:32:27 | 00:00:00 | |
| DM0DOS-11 | 2026-09-05 22:48:10 | 50.68294 | 4.99739 | 138° | 68km/h | 5203m | 2.8m/s | -3.8°C | 42.7% | 544.6hPa | 5.1V | 00:00:00 | 00:32:17 | 00:00:00 | |
| DB0UT-7 | 2026-09-05 22:48:05 | 50.68340 | 4.99663 | 137° | 68km/h | 5192m | 2.9m/s | -3.7°C | 42.5% | 545.4hPa | 5.1V | 00:00:00 | 00:32:13 | 00:00:00 | |
| DM0DOS-11 | 2026-09-05 22:47:58 | 50.68414 | 4.99549 | 139° | 68km/h | 5174m | 3m/s | -3.5°C | 42% | 546.7hPa | 5.1V | 00:00:00 | 00:32:07 | 00:00:00 | |
| DM0DOS-11 | 2026-09-05 22:47:48 | 50.68531 | 4.99360 | 134° | 68km/h | 5144m | 3.1m/s | -3.3°C | 41% | 548.8hPa | 5.1V | 00:00:00 | 00:31:57 | 00:00:00 | |
| DM0DOS-11 | 2026-09-05 22:47:38 | 50.68646 | 4.99168 | 134° | 69km/h | 5113m | 2.9m/s | -3.1°C | 41.2% | 550.9hPa | 5.1V | 00:00:00 | 00:31:47 | 00:00:00 | |
| DB0UT-7 | 2026-09-05 22:47:34 | 50.68693 | 4.99089 | 133° | 69km/h | 5101m | 2.8m/s | -3.0°C | 41.3% | 551.7hPa | 5.0V | 00:00:00 | 00:00:00 | 00:00:00 | |
| DM0DOS-11 | 2026-09-05 22:47:33 | 50.68763 | 4.98969 | 132° | 69km/h | 5084m | 3.1m/s | -2.9°C | 41.5% | 553hPa | 5.1V | 00:00:00 | 00:31:37 | 00:00:00 | |
| DM0DOS-11 | 2026-09-05 22:47:21 | 50.68882 | 4.98764 | 136° | 71km/h | 5054m | 2.8m/s | -2.7°C | 41.8% | 555.1hPa | 5.1V | 00:00:00 | 00:31:27 | 00:00:00 | |
| DM0DOS-11 | 2026-09-05 22:47:09 | 50.69003 | 4.98558 | 130° | 71km/h | 5025m | 3.1m/s | -2.6°C | 42.2% | 557.1hPa | 5.1V | 00:00:00 | 00:31:17 | 00:00:00 | |
| DB0UT-7 | 2026-09-05 22:47:04 | 50.69051 | 4.98475 | 133° | 71km/h | 5013m | 2.9m/s | -2.5°C | 42.8% | 557.9hPa | 5.1V | 00:00:00 | 00:31:13 | 00:00:00 | |
| DM0DOS-11 | 2026-09-05 22:46:58 | 50.69135 | 4.98330 | 127° | 71km/h | 4992m | 2.7m/s | -2.4°C | 43% | 559.4hPa | 5.1V | 00:00:00 | 00:31:06 | 00:00:00 | |
| DM0DOS-11 | 2026-09-05 22:46:58 | 50.69198 | 4.98224 | 127° | 71km/h | 4978m | 2.7m/s | -2.3°C | 43.7% | 560.4hPa | 5.1V | 00:00:00 | 00:31:01 | 00:00:00 | |
| DM0DOS-11 | 2026-09-05 22:46:52 | 50.69259 | 4.98122 | 128° | 71km/h | 4964m | 3m/s | -2.3°C | 44% | 561.4hPa | 5.1V | 00:00:00 | 00:30:56 | 00:00:00 | |
| DM0DOS-11 | 2026-09-05 22:46:47 | 50.69322 | 4.98014 | 133° | 69km/h | 4949m | 2.7m/s | -2.3°C | 44.5% | 562.5hPa | 5.1V | 00:00:00 | 00:30:51 | 00:00:00 | |
| DM0DOS-11 | 2026-09-05 22:46:37 | 50.69385 | 4.97910 | 134° | 69km/h | 4935m | 2.8m/s | -2.2°C | 45% | 563.5hPa | 5.1V | 00:00:00 | 00:30:46 | 00:00:00 | |
| DM0DOS-11 | 2026-09-05 22:46:37 | 50.69448 | 4.97807 | 136° | 69km/h | 4921m | 3m/s | -2.2°C | 45.3% | 564.5hPa | 5.1V | 00:00:00 | 00:30:41 | 00:00:00 | |
| DB0UT-7 | 2026-09-05 22:46:34 | 50.69422 | 4.97851 | 132° | 71km/h | 4927m | 3.0m/s | -2.2°C | 45.2% | 564.0hPa | 5.1V | 00:00:00 | 00:00:00 | 00:00:00 | |
| DM0DOS-11 | 2026-09-05 22:46:31 | 50.69511 | 4.97707 | 138° | 69km/h | 4905m | 2.7m/s | -2.2°C | 46.2% | 565.5hPa | 5.1V | 00:00:00 | 00:30:36 | 00:00:00 | |
| DM0DOS-11 | 2026-09-05 22:46:25 | 50.69574 | 4.97602 | 137° | 71km/h | 4892m | 3.1m/s | -2.4°C | 48% | 566.5hPa | 5.1V | 00:00:00 | 00:30:31 | 00:00:00 | |
| DM0DOS-11 | 2026-09-05 22:46:19 | 50.69637 | 4.97502 | 131° | 71km/h | 4877m | 3m/s | -2.7°C | 52.2% | 567.6hPa | 5.1V | 00:00:00 | 00:30:26 | 00:00:00 | |
| DM0DOS-11 | 2026-09-05 22:46:13 | 50.69698 | 4.97401 | 133° | 73km/h | 4862m | 2.9m/s | -2.9°C | 55.1% | 568.6hPa | 5.1V | 00:00:00 | 00:30:21 | 00:00:00 | |
| DB0UT-7 | 2026-09-05 22:46:04 | 50.69799 | 4.97234 | 132° | 71km/h | 4838m | 2.9m/s | -2.7°C | 55.2% | 570.3hPa | 5.0V | 00:00:00 | 00:30:13 | 00:00:00 | |
| DM0DOS-11 | 2026-09-05 22:46:00 | 50.69862 | 4.97127 | 132° | 69km/h | 4824m | 3m/s | -2.7°C | 55.6% | 571.4hPa | 5.1V | 00:00:00 | 00:30:08 | 00:00:00 | |
| DM0DOS-11 | 2026-09-05 22:45:37 | 50.70126 | 4.96663 | 136° | 73km/h | 4759m | 3.1m/s | -2.3°C | 56.5% | 576.1hPa | 5.1V | 00:00:00 | 00:29:46 | 00:00:00 | |
| DM0DOS-11 | 2026-09-05 22:45:37 | 50.70189 | 4.96552 | 131° | 71km/h | 4744m | 3.6m/s | -2.2°C | 56.7% | 577.2hPa | 5.1V | 00:00:00 | 00:29:41 | 00:00:00 | |
| DB0UT-7 | 2026-09-05 22:45:34 | 50.70165 | 4.96598 | 132° | 68km/h | 4750m | 3.2m/s | -2.2°C | 56.7% | 576.7hPa | 5.1V | 00:00:00 | 00:00:00 | 00:00:00 | |
| DM0DOS-11 | 2026-09-05 22:45:26 | 50.70260 | 4.96424 | 125° | 69km/h | 4722m | 3.5m/s | -2.3°C | 56.1% | 578.7hPa | 5.1V | 00:00:00 | 00:29:35 | 00:00:00 | |
| DM0DOS-11 | 2026-09-05 22:45:26 | 50.70313 | 4.96316 | 134° | 68km/h | 4705m | 3.4m/s | -2.3°C | 56.1% | 580hPa | 5.1V | 00:00:00 | 00:29:30 | 00:00:00 | |
| DM0DOS-11 | 2026-09-05 22:45:15 | 50.70376 | 4.96191 | 125° | 68km/h | 4685m | 3.4m/s | -2.3°C | 55.8% | 581.4hPa | 5.1V | 00:00:00 | 00:29:24 | 00:00:00 | |
| DM0DOS-11 | 2026-09-05 22:45:15 | 50.70424 | 4.96078 | 122° | 64km/h | 4668m | 3.3m/s | -2.4°C | 55.2% | 582.6hPa | 5.1V | 00:00:00 | 00:29:19 | 00:00:00 | |
| DM0DOS-11 | 2026-09-05 22:45:05 | 50.70466 | 4.95972 | 124° | 64km/h | 4652m | 3.1m/s | -2.5°C | 54% | 583.8hPa | 5.1V | 00:00:00 | 00:29:14 | 00:00:00 | |
| DM0DOS-11 | 2026-09-05 22:45:05 | 50.70509 | 4.95862 | 119° | 68km/h | 4636m | 2.9m/s | -2.7°C | 52.6% | 585hPa | 5.1V | 00:00:00 | 00:29:09 | 00:00:00 | |
| DB0UT-7 | 2026-09-05 22:45:04 | 50.70477 | 4.95951 | 120° | 64km/h | 4649m | 3.0m/s | -2.6°C | 53.6% | 584.0hPa | 5.1V | 00:00:00 | 00:29:13 | 00:00:00 | |
| DM0DOS-11 | 2026-09-05 22:45:00 | 50.70554 | 4.95749 | 116° | 66km/h | 4621m | 3m/s | -2.7°C | 51.5% | 586.1hPa | 5.1V | 00:00:00 | 00:29:04 | 00:00:00 | |
| DM0DOS-11 | 2026-09-05 22:44:55 | 50.70599 | 4.95639 | 128° | 64km/h | 4606m | 3m/s | -2.8°C | 48.2% | 587.2hPa | 5.1V | 00:00:00 | 00:28:59 | 00:00:00 | |
| DM0DOS-11 | 2026-09-05 22:44:50 | 50.70650 | 4.95512 | 127° | 62km/h | 4588m | 3.2m/s | -2.8°C | 44.5% | 588.5hPa | 5.1V | 00:00:00 | 00:28:53 | 00:00:00 | |
| DM0DOS-11 | 2026-09-05 22:44:45 | 50.70692 | 4.95410 | 124° | 62km/h | 4572m | 2.9m/s | -2.9°C | 37.2% | 589.7hPa | 5.1V | 00:00:00 | 00:28:48 | 00:00:00 | |
| DM0DOS-11 | 2026-09-05 22:44:39 | 50.70734 | 4.95306 | 126° | 62km/h | 4558m | 3.1m/s | -2.8°C | 32.3% | 590.8hPa | 5.1V | 00:00:00 | 00:28:43 | 00:00:00 | |
| DM0DOS-11 | 2026-09-05 22:44:34 | 50.70775 | 4.95204 | 126° | 62km/h | 4543m | 3.1m/s | -2.6°C | 29.5% | 591.9hPa | 5.1V | 00:00:00 | 00:28:38 | 00:00:00 | |
| DB0UT-7 | 2026-09-05 22:44:34 | 50.70734 | 4.95306 | 127° | 62km/h | 4558m | 3.0m/s | -2.7°C | 32.3% | 590.7hPa | 5.0V | 00:00:00 | 00:00:00 | 00:00:00 | |
| DM0DOS-11 | 2026-09-05 22:44:28 | 50.70829 | 4.95081 | 115° | 62km/h | 4524m | 3.1m/s | -2.4°C | 26.6% | 593.3hPa | 5.1V | 00:00:00 | 00:28:32 | 00:00:00 | |
| DM0DOS-11 | 2026-09-05 22:44:23 | 50.70869 | 4.94974 | 119° | 60km/h | 4508m | 3.1m/s | -2.3°C | 24.3% | 594.5hPa | 5.1V | 00:00:00 | 00:28:27 | 00:00:00 | |
| DM0DOS-11 | 2026-09-05 22:44:17 | 50.70914 | 4.94845 | 119° | 62km/h | 4489m | 3m/s | -2.1°C | 21.6% | 595.9hPa | 5.1V | 00:00:00 | 00:28:21 | 00:00:00 | |
| DB0UT-7 | 2026-09-05 22:44:04 | 50.70978 | 4.94667 | 120° | 64km/h | 4462m | 3.1m/s | -1.9°C | 19.1% | 597.9hPa | 5.1V | 00:00:00 | 00:28:13 | 00:00:00 | |
| DM0DOS-11 | 2026-09-05 22:43:42 | 50.71190 | 4.94062 | 118° | 60km/h | 4381m | 3m/s | -1.3°C | 13% | 604hPa | 5.1V | 00:00:00 | 00:27:46 | 00:00:00 | |
| DB0UT-7 | 2026-09-05 22:43:34 | 50.71210 | 4.93998 | 123° | 62km/h | 4373m | 3.1m/s | -1.1°C | 12.3% | 604.6hPa | 5.0V | 00:00:00 | 00:00:00 | 00:00:00 | |
| DB0UT-7 | 2026-09-05 22:43:04 | 50.71432 | 4.93343 | 118° | 62km/h | 4283m | 3.0m/s | -0.9°C | 2.8% | 611.5hPa | 5.0V | 00:00:00 | 00:27:13 | 00:00:00 | |
| DB0UT-7 | 2026-09-05 22:42:34 | 50.71657 | 4.92685 | 122° | 60km/h | 4194m | 2.9m/s | -0.3°C | 3.3% | 618.3hPa | 5.1V | 00:00:00 | 00:00:00 | 00:00:00 | |
| DM0DOS-11 | 2026-09-05 22:42:31 | 50.71730 | 4.92470 | 123° | 60km/h | 4164m | 3m/s | -0.2°C | 4% | 620.7hPa | 5.1V | 00:00:00 | 00:26:33 | 00:00:00 | |
| DM0DOS-11 | 2026-09-05 22:42:23 | 50.71782 | 4.92326 | 118° | 58km/h | 4143m | 3m/s | -0.1°C | 4.4% | 622.4hPa | 5.1V | 00:00:00 | 00:26:26 | 00:00:00 | |
| DM0DOS-11 | 2026-09-05 22:42:07 | 50.71893 | 4.92013 | 114° | 57km/h | 4098m | 3.1m/s | 0.1°C | 5% | 625.9hPa | 5.1V | 00:00:00 | 00:26:11 | 00:00:00 | |
| DB0UT-7 | 2026-09-05 22:42:04 | 50.71877 | 4.92051 | 122° | 57km/h | 4103m | 2.9m/s | 0.0°C | 4.9% | 625.4hPa | 5.1V | 00:00:00 | 00:26:13 | 00:00:00 | |
| DM0DOS-11 | 2026-09-05 22:41:57 | 50.71933 | 4.91891 | 115° | 57km/h | 4078m | 2.9m/s | 0.2°C | 4.7% | 627.4hPa | 5.1V | 00:00:00 | 00:26:05 | 00:00:00 | |
| DM0DOS-11 | 2026-09-05 22:41:57 | 50.71966 | 4.91793 | 117° | 57km/h | 4064m | 3m/s | 0.3°C | 4.6% | 628.5hPa | 5.1V | 00:00:00 | 00:26:00 | 00:00:00 | |
| BIOWL1-15 | 2026-09-05 22:41:41 | 50.72033 | 4.91587 | 117° | 57km/h | 4034m | 3.5m/s | 0.5°C | 4.1% | 630.9hPa | 5.1V | 00:00:00 | 00:00:00 | 00:00:00 | |
| DB0UT-7 | 2026-09-05 22:41:34 | 50.72078 | 4.91443 | 117° | 57km/h | 4011m | 3.1m/s | 0.6°C | 4.0% | 632.6hPa | 5.0V | 00:00:00 | 00:00:00 | 00:00:00 | |
| DM0DOS-11 | 2026-09-05 22:41:23 | 50.72186 | 4.91116 | 111° | 57km/h | 3962m | 3m/s | 1°C | 4% | 636.6hPa | 5.1V | 00:00:00 | 00:25:27 | 00:00:00 | |
| DB0UT-7 | 2026-09-05 22:41:04 | 50.72280 | 4.90831 | 124° | 57km/h | 3919m | 3.2m/s | 1.3°C | 4.0% | 639.9hPa | 5.1V | 00:00:00 | 00:25:13 | 00:00:00 | |
| DM0DOS-11 | 2026-09-05 22:40:51 | 50.72406 | 4.90468 | 122° | 57km/h | 3862m | 3.1m/s | 1.8°C | 3.7% | 644.4hPa | 5.1V | 00:00:00 | 00:24:55 | 00:00:00 | |
| DM0DOS-11 | 2026-09-05 22:40:46 | 50.72441 | 4.90370 | 123° | 55km/h | 3847m | 3.1m/s | 1.9°C | 3.8% | 645.7hPa | 5.1V | 00:00:00 | 00:24:50 | 00:00:00 | |
| DM0DOS-11 | 2026-09-05 22:40:38 | 50.72499 | 4.90219 | 118° | 55km/h | 3822m | 3m/s | 2.1°C | 3.8% | 647.6hPa | 5.1V | 00:00:00 | 00:24:42 | 00:00:00 | |
| DB0UT-7 | 2026-09-05 22:40:34 | 50.72491 | 4.90238 | 123° | 55km/h | 3826m | 3.3m/s | 2.1°C | 3.8% | 647.3hPa | 5.1V | 00:00:00 | 00:00:00 | 00:00:00 | |
| DM0DOS-11 | 2026-09-05 22:40:07 | 50.72705 | 4.89619 | 117° | 53km/h | 3727m | 3m/s | 2.7°C | 3.5% | 655.3hPa | 5.1V | 00:00:00 | 00:24:11 | 00:00:00 | |
| DB0UT-7 | 2026-09-05 22:40:04 | 50.72693 | 4.89657 | 117° | 55km/h | 3733m | 2.9m/s | 2.7°C | 3.3% | 654.8hPa | 5.0V | 00:00:00 | 00:24:13 | 00:00:00 | |
| DM0DOS-11 | 2026-09-05 22:40:02 | 50.72735 | 4.89521 | 117° | 53km/h | 3712m | 2.9m/s | 2.8°C | 3.6% | 656.6hPa | 5.1V | 00:00:00 | 00:24:06 | 00:00:00 | |
| DM0DOS-11 | 2026-09-05 22:39:57 | 50.72767 | 4.89425 | 113° | 55km/h | 3698m | 3.1m/s | 2.9°C | 3.3% | 657.8hPa | 5.1V | 00:00:00 | 00:24:01 | 00:00:00 | |
| DM0DOS-11 | 2026-09-05 22:39:52 | 50.72799 | 4.89328 | 115° | 55km/h | 3682m | 2.8m/s | 3°C | 3.8% | 659hPa | 5.1V | 00:00:00 | 00:23:56 | 00:00:00 | |
| DM0DOS-11 | 2026-09-05 22:39:47 | 50.72831 | 4.89232 | 109° | 53km/h | 3668m | 3.1m/s | 3.1°C | 4.5% | 660.2hPa | 5.1V | 00:00:00 | 00:23:51 | 00:00:00 | |
| DM0DOS-11 | 2026-09-05 22:39:37 | 50.72862 | 4.89139 | 116° | 53km/h | 3653m | 3m/s | 3.1°C | 5.2% | 661.4hPa | 5.1V | 00:00:00 | 00:23:46 | 00:00:00 | |
| DM0DOS-11 | 2026-09-05 22:39:37 | 50.72894 | 4.89046 | 122° | 55km/h | 3637m | 2.7m/s | 3.2°C | 6.5% | 662.6hPa | 5.1V | 00:00:00 | 00:23:41 | 00:00:00 | |
| DB0UT-7 | 2026-09-05 22:39:34 | 50.72880 | 4.89086 | 119° | 53km/h | 3643m | 2.7m/s | 3.1°C | 6.0% | 662.1hPa | 5.1V | 00:00:00 | 00:00:00 | 00:00:00 | |
| DM0DOS-11 | 2026-09-05 22:39:27 | 50.72927 | 4.88948 | 121° | 53km/h | 3623m | 2.8m/s | 3.2°C | 7.7% | 663.8hPa | 5.1V | 00:00:00 | 00:23:36 | 00:00:00 | |
| DM0DOS-11 | 2026-09-05 22:39:27 | 50.72958 | 4.88852 | 129° | 53km/h | 3609m | 2.9m/s | 3.3°C | 8.5% | 665hPa | 5.1V | 00:00:00 | 00:23:31 | 00:00:00 | |
| DM0DOS-11 | 2026-09-05 22:39:22 | 50.73007 | 4.88725 | 115° | 53km/h | 3588m | 3m/s | 3.4°C | 9.8% | 666.7hPa | 5.1V | 00:00:00 | 00:23:24 | 00:00:00 | |
| DM0DOS-11 | 2026-09-05 22:39:15 | 50.73045 | 4.88610 | 120° | 51km/h | 3569m | 2.8m/s | 3.4°C | 10.3% | 668.2hPa | 5.1V | 00:00:00 | 00:23:18 | 00:00:00 | |
| DM0DOS-11 | 2026-09-05 22:39:09 | 50.73079 | 4.88518 | 110° | 49km/h | 3556m | 3m/s | 3.4°C | 10.5% | 669.4hPa | 5.1V | 00:00:00 | 00:23:13 | 00:00:00 | |
| DM0DOS-11 | 2026-09-05 22:39:04 | 50.73109 | 4.88428 | 114° | 49km/h | 3541m | 3m/s | 3.5°C | 11% | 670.5hPa | 5.1V | 00:00:00 | 00:23:08 | 00:00:00 | |
| DB0UT-7 | 2026-09-05 22:39:04 | 50.73079 | 4.88518 | 111° | 51km/h | 3556m | 2.9m/s | 3.4°C | 10.5% | 669.3hPa | 5.1V | 00:00:00 | 00:23:13 | 00:00:00 | |
| DM0DOS-11 | 2026-09-05 22:38:54 | 50.73139 | 4.88339 | 111° | 51km/h | 3526m | 2.9m/s | 3.5°C | 11.3% | 671.7hPa | 5.1V | 00:00:00 | 00:23:03 | 00:00:00 | |
| DM0DOS-11 | 2026-09-05 22:38:54 | 50.73168 | 4.88248 | 111° | 51km/h | 3511m | 2.9m/s | 3.6°C | 11.5% | 673hPa | 5.1V | 00:00:00 | 00:22:58 | 00:00:00 | |
| DM0DOS-11 | 2026-09-05 22:38:44 | 50.73200 | 4.88159 | 112° | 51km/h | 3496m | 2.7m/s | 3.7°C | 11.6% | 674.2hPa | 5.1V | 00:00:00 | 00:22:53 | 00:00:00 | |
| DM0DOS-11 | 2026-09-05 22:38:44 | 50.73227 | 4.88065 | 125° | 51km/h | 3482m | 2.7m/s | 3.7°C | 11.5% | 675.4hPa | 5.1V | 00:00:00 | 00:22:48 | 00:00:00 | |
| DM0DOS-11 | 2026-09-05 22:38:39 | 50.73259 | 4.87974 | 125° | 49km/h | 3468m | 2.9m/s | 3.8°C | 12% | 676.5hPa | 5.1V | 00:00:00 | 00:22:43 | 00:00:00 | |
| DM0DOS-11 | 2026-09-05 22:38:34 | 50.73290 | 4.87892 | 113° | 53km/h | 3452m | 2.4m/s | 3.8°C | 12.5% | 677.8hPa | 5.1V | 00:00:00 | 00:22:38 | 00:00:00 | |
| DB0UT-7 | 2026-09-05 22:38:34 | 50.73259 | 4.87974 | 126° | 49km/h | 3468m | 2.9m/s | 3.7°C | 12.0% | 676.5hPa | 5.0V | 00:00:00 | 00:00:00 | 00:00:00 | |
| DM0DOS-11 | 2026-09-05 22:38:29 | 50.73321 | 4.87795 | 115° | 47km/h | 3440m | 2.8m/s | 3.8°C | 13.5% | 678.9hPa | 5.1V | 00:00:00 | 00:22:33 | 00:00:00 | |
| DM0DOS-11 | 2026-09-05 22:38:24 | 50.73345 | 4.87706 | 118° | 47km/h | 3426m | 3m/s | 3.8°C | 14.2% | 680.1hPa | 5.1V | 00:00:00 | 00:22:28 | 00:00:00 | |
| DM0DOS-11 | 2026-09-05 22:38:19 | 50.73372 | 4.87622 | 113° | 49km/h | 3412m | 3m/s | 3.8°C | 15.5% | 681.3hPa | 5.1V | 00:00:00 | 00:22:23 | 00:00:00 | |
| DM0DOS-11 | 2026-09-05 22:38:14 | 50.73402 | 4.87536 | 113° | 46km/h | 3397m | 2.9m/s | 3.6°C | 16.6% | 682.5hPa | 5.1V | 00:00:00 | 00:22:18 | 00:00:00 | |
| DB0UT-7 | 2026-09-05 22:38:04 | 50.73431 | 4.87454 | 120° | 46km/h | 3383m | 2.8m/s | 3.7°C | 16.6% | 683.6hPa | 5.1V | 00:00:00 | 00:22:13 | 00:00:00 | |
| DM0DOS-11 | 2026-09-05 22:38:02 | 50.73442 | 4.87425 | 117° | 47km/h | 3377m | 2.7m/s | 3.8°C | 16.7% | 684.1hPa | 5.1V | 00:00:00 | 00:22:11 | 00:00:00 | |
| DM0DOS-11 | 2026-09-05 22:38:02 | 50.73471 | 4.87346 | 121° | 46km/h | 3363m | 2.6m/s | 3.8°C | 16.7% | 685.3hPa | 5.2V | 00:00:00 | 00:22:06 | 00:00:00 | |
| DM0DOS-11 | 2026-09-05 22:37:57 | 50.73500 | 4.87263 | 122° | 44km/h | 3350m | 2.9m/s | 3.9°C | 16.8% | 686.5hPa | 5.2V | 00:00:00 | 00:22:01 | 00:00:00 | |
| DM0DOS-11 | 2026-09-05 22:37:52 | 50.73529 | 4.87184 | 120° | 44km/h | 3336m | 2.8m/s | 3.8°C | 16.8% | 687.8hPa | 5.2V | 00:00:00 | 00:21:56 | 00:00:00 | |
| DM0DOS-11 | 2026-09-05 22:37:46 | 50.73566 | 4.87092 | 128° | 44km/h | 3319m | 2.8m/s | 3.9°C | 17% | 689.1hPa | 5.2V | 00:00:00 | 00:21:50 | 00:00:00 | |
| DM0DOS-11 | 2026-09-05 22:37:41 | 50.73600 | 4.86999 | 119° | 42km/h | 3302m | 2.9m/s | 3.8°C | 17.3% | 690.5hPa | 5.2V | 00:00:00 | 00:21:44 | 00:00:00 | |
| DB0UT-7 | 2026-09-05 22:37:34 | 50.73605 | 4.86984 | 128° | 42km/h | 3299m | 2.9m/s | 3.7°C | 17.3% | 690.8hPa | 5.2V | 00:00:00 | 00:00:00 | 00:00:00 | |
| DM0DOS-11 | 2026-09-05 22:37:30 | 50.73626 | 4.86925 | 127° | 40km/h | 3287m | 2.9m/s | 3.9°C | 17.5% | 691.8hPa | 5.2V | 00:00:00 | 00:21:39 | 00:00:00 | |
| DM0DOS-11 | 2026-09-05 22:37:30 | 50.73653 | 4.86852 | 121° | 38km/h | 3273m | 2.8m/s | 3.9°C | 17.3% | 693hPa | 5.2V | 00:00:00 | 00:21:34 | 00:00:00 | |
| DB0UT-7 | 2026-09-05 22:37:04 | 50.73773 | 4.86551 | 131° | 42km/h | 3214m | 2.7m/s | 4.1°C | 16.3% | 698.1hPa | 5.2V | 00:00:00 | 00:21:13 | 00:00:00 | |
| DB0UT-7 | 2026-09-05 22:36:34 | 50.73942 | 4.86123 | 114° | 40km/h | 3126m | 3.2m/s | 4.5°C | 16.6% | 705.6hPa | 5.2V | 00:00:00 | 00:00:00 | 00:00:00 | |
| DB0UT-7 | 2026-09-05 22:36:04 | 50.74103 | 4.85711 | 125° | 37km/h | 3041m | 2.9m/s | 4.4°C | 21.3% | 713.0hPa | 5.2V | 00:00:00 | 00:20:13 | 00:00:00 | |
| DB0UT-7 | 2026-09-05 22:35:34 | 50.74246 | 4.85323 | 123° | 37km/h | 2952m | 2.8m/s | 4.6°C | 25.2% | 720.8hPa | 5.2V | 00:00:00 | 00:00:00 | 00:00:00 | |
| DM0DOS-11 | 2026-09-05 22:35:29 | 50.74298 | 4.85181 | 119° | 37km/h | 2921m | 2.8m/s | 5°C | 25.3% | 723.7hPa | 5.2V | 00:00:00 | 00:19:32 | 00:00:00 | |
| DM0DOS-11 | 2026-09-05 22:35:06 | 50.74397 | 4.84913 | 129° | 37km/h | 2853m | 2.7m/s | 5.1°C | 27.2% | 729.6hPa | 5.2V | 00:00:00 | 00:19:10 | 00:00:00 | |
| DB0UT-7 | 2026-09-05 22:35:04 | 50.74381 | 4.84951 | 119° | 35km/h | 2862m | 2.8m/s | 5.1°C | 27.1% | 728.7hPa | 5.2V | 00:00:00 | 00:19:13 | 00:00:00 | |
| DM0DOS-11 | 2026-09-05 22:35:01 | 50.74424 | 4.84855 | 107° | 40km/h | 2839m | 2.8m/s | 5.1°C | 28% | 730.8hPa | 5.2V | 00:00:00 | 00:19:05 | 00:00:00 | |
| DM0DOS-11 | 2026-09-05 22:34:56 | 50.74447 | 4.84791 | 119° | 46km/h | 2823m | 1.7m/s | 5.1°C | 28.6% | 732.1hPa | 5.2V | 00:00:00 | 00:19:00 | 00:00:00 | |
| DM0DOS-11 | 2026-09-05 22:34:50 | 50.74474 | 4.84721 | 3° | 62km/h | 2806m | 0m/s | 5.2°C | 29.1% | 733.8hPa | 5.2V | 00:00:00 | 00:18:54 | 00:00:00 | |
| DB0UT-7 | 2026-09-05 22:34:34 | 50.74520 | 4.84581 | 115° | 33km/h | 2772m | 3.1m/s | 5.3°C | 30.0% | 736.8hPa | 5.2V | 00:00:00 | 00:00:00 | 00:00:00 | |
| DB0UT-7 | 2026-09-05 22:34:04 | 50.74640 | 4.84234 | 120° | 31km/h | 2680m | 3.3m/s | 5.9°C | 31.6% | 745.1hPa | 5.2V | 00:00:00 | 00:18:13 | 00:00:00 | |
| DB0UT-7 | 2026-09-05 22:33:04 | 50.74854 | 4.83563 | 116° | 33km/h | 2491m | 3.1m/s | 6.9°C | 25.1% | 762.5hPa | 5.2V | 00:00:00 | 00:17:13 | 00:00:00 | |
| DB0UT-7 | 2026-09-05 22:32:34 | 50.74943 | 4.83196 | 118° | 35km/h | 2395m | 3.0m/s | 7.6°C | 25.5% | 771.5hPa | 5.2V | 00:00:00 | 00:00:00 | 00:00:00 | |
| DB0UT-7 | 2026-09-05 22:32:04 | 50.75050 | 4.82807 | 113° | 35km/h | 2302m | 3.3m/s | 8.0°C | 24.1% | 780.4hPa | 5.2V | 00:00:00 | 00:16:13 | 00:00:00 | |
| DB0UT-7 | 2026-09-05 22:31:34 | 50.75146 | 4.82434 | 117° | 29km/h | 2202m | 3.0m/s | 8.5°C | 25.5% | 789.7hPa | 5.2V | 00:00:00 | 00:00:00 | 00:00:00 | |
| DB0UT-7 | 2026-09-05 22:31:03 | 50.75237 | 4.82086 | 101° | 26km/h | 2105m | 3.3m/s | 8.9°C | 27.5% | 799.0hPa | 5.2V | 00:00:00 | 00:15:12 | 00:00:00 | |
| DB0UT-7 | 2026-09-05 22:30:33 | 50.75319 | 4.81799 | 112° | 27km/h | 2009m | 3.4m/s | 8.9°C | 27.5% | 808.3hPa | 5.2V | 00:00:00 | 00:00:00 | 00:00:00 | |
| DB0UT-7 | 2026-09-05 22:30:03 | 50.75374 | 4.81498 | 99° | 29km/h | 1914m | 3.1m/s | 9.4°C | 21.2% | 817.7hPa | 5.2V | 00:00:00 | 00:14:12 | 00:00:00 | |
| DB0UT-7 | 2026-09-05 22:29:33 | 50.75432 | 4.81179 | 111° | 27km/h | 1811m | 3.6m/s | 9.9°C | 15.8% | 828.0hPa | 5.2V | 00:00:00 | 00:00:00 | 00:00:00 | |
| DB0UT-7 | 2026-09-05 22:29:01 | 50.75485 | 4.80841 | 108° | 22km/h | 1694m | 3.4m/s | 9.6°C | 28.2% | 839.6hPa | 5.2V | 00:00:00 | 00:13:10 | 00:00:00 | |
| DB0UT-7 | 2026-09-05 22:28:31 | 50.75522 | 4.80579 | 102° | 22km/h | 1596m | 2.6m/s | 9.9°C | 28.0% | 849.7hPa | 5.2V | 00:00:00 | 00:00:00 | 00:00:00 | |
| DB0UT-7 | 2026-09-05 22:28:01 | 50.75566 | 4.80356 | 117° | 47km/h | 1512m | 1.4m/s | 10.1°C | 28.2% | 858.2hPa | 5.2V | 00:00:00 | 00:12:10 | 00:00:00 |